<?xml version="1.0" encoding="UTF-8" standalone="no" ?>
<gpx xmlns="http://www.topografix.com/GPX/1/1" xmlns:xsi="http://www.w3.org/2001/XMLSchema-instance" xsi:schemaLocation="http://www.topografix.com/GPX/1/1 http://www.topografix.com/GPX/1/1/gpx.xsd" version="1.1" creator="VisuGPX - https://www.visugpx.com">
  <metadata>
    <name>Montrond,Sentier Karstique de Malrocher,Besain,La Roche du Midi,Le Château de Montrond.</name>
  </metadata>
  <trk>
    <name><![CDATA[Montrond,Sentier Karstique de Malrocher,Besain,La Roche du Midi,Le Château de Montrond._1]]></name>
    <trkseg>
      <trkpt lat="46.79633" lon="5.83358">
        <ele>585.6</ele>
        <time>2019-12-12T07:38:51Z</time>
      </trkpt>
      <trkpt lat="46.7964" lon="5.83356">
        <ele>586.8</ele>
        <time>2019-12-12T07:40:39Z</time>
      </trkpt>
      <trkpt lat="46.79645" lon="5.8335">
        <ele>587.1</ele>
        <time>2019-12-12T07:40:45Z</time>
      </trkpt>
      <trkpt lat="46.79649" lon="5.83341">
        <ele>586.8</ele>
        <time>2019-12-12T07:40:53Z</time>
      </trkpt>
      <trkpt lat="46.79652" lon="5.83334">
        <ele>586.7</ele>
        <time>2019-12-12T07:40:57Z</time>
      </trkpt>
      <trkpt lat="46.79654" lon="5.83328">
        <ele>586.4</ele>
        <time>2019-12-12T07:41:06Z</time>
      </trkpt>
      <trkpt lat="46.79656" lon="5.83321">
        <ele>586.4</ele>
        <time>2019-12-12T07:41:10Z</time>
      </trkpt>
      <trkpt lat="46.79659" lon="5.83316">
        <ele>586.6</ele>
        <time>2019-12-12T07:41:15Z</time>
      </trkpt>
      <trkpt lat="46.79661" lon="5.8331">
        <ele>586.7</ele>
        <time>2019-12-12T07:41:21Z</time>
      </trkpt>
      <trkpt lat="46.79664" lon="5.83305">
        <ele>586.7</ele>
        <time>2019-12-12T07:41:27Z</time>
      </trkpt>
      <trkpt lat="46.79667" lon="5.83298">
        <ele>586.5</ele>
        <time>2019-12-12T07:41:33Z</time>
      </trkpt>
      <trkpt lat="46.7967" lon="5.83292">
        <ele>586.3</ele>
        <time>2019-12-12T07:41:38Z</time>
      </trkpt>
      <trkpt lat="46.79675" lon="5.83289">
        <ele>586</ele>
        <time>2019-12-12T07:41:44Z</time>
      </trkpt>
      <trkpt lat="46.79678" lon="5.83284">
        <ele>586</ele>
        <time>2019-12-12T07:41:49Z</time>
      </trkpt>
      <trkpt lat="46.79682" lon="5.83279">
        <ele>586</ele>
        <time>2019-12-12T07:41:56Z</time>
      </trkpt>
      <trkpt lat="46.79685" lon="5.83273">
        <ele>586</ele>
        <time>2019-12-12T07:42:03Z</time>
      </trkpt>
      <trkpt lat="46.79689" lon="5.83269">
        <ele>585.8</ele>
        <time>2019-12-12T07:42:08Z</time>
      </trkpt>
      <trkpt lat="46.79692" lon="5.83264">
        <ele>585.6</ele>
        <time>2019-12-12T07:42:12Z</time>
      </trkpt>
      <trkpt lat="46.79694" lon="5.83258">
        <ele>585.3</ele>
        <time>2019-12-12T07:42:17Z</time>
      </trkpt>
      <trkpt lat="46.79697" lon="5.83252">
        <ele>585</ele>
        <time>2019-12-12T07:42:22Z</time>
      </trkpt>
      <trkpt lat="46.79699" lon="5.83246">
        <ele>584.9</ele>
        <time>2019-12-12T07:42:27Z</time>
      </trkpt>
      <trkpt lat="46.79702" lon="5.8324">
        <ele>585.2</ele>
        <time>2019-12-12T07:42:34Z</time>
      </trkpt>
      <trkpt lat="46.79704" lon="5.83232">
        <ele>586.5</ele>
        <time>2019-12-12T07:42:44Z</time>
      </trkpt>
      <trkpt lat="46.79707" lon="5.83226">
        <ele>587.2</ele>
        <time>2019-12-12T07:42:48Z</time>
      </trkpt>
      <trkpt lat="46.79709" lon="5.83219">
        <ele>588</ele>
        <time>2019-12-12T07:42:53Z</time>
      </trkpt>
      <trkpt lat="46.79712" lon="5.83214">
        <ele>589.3</ele>
        <time>2019-12-12T07:43:00Z</time>
      </trkpt>
      <trkpt lat="46.79716" lon="5.83209">
        <ele>590.7</ele>
        <time>2019-12-12T07:43:07Z</time>
      </trkpt>
      <trkpt lat="46.79719" lon="5.83203">
        <ele>591.5</ele>
        <time>2019-12-12T07:43:13Z</time>
      </trkpt>
      <trkpt lat="46.7972" lon="5.83196">
        <ele>592.1</ele>
        <time>2019-12-12T07:43:20Z</time>
      </trkpt>
      <trkpt lat="46.79719" lon="5.83189">
        <ele>592.7</ele>
        <time>2019-12-12T07:43:25Z</time>
      </trkpt>
      <trkpt lat="46.79718" lon="5.83182">
        <ele>593.8</ele>
        <time>2019-12-12T07:43:31Z</time>
      </trkpt>
      <trkpt lat="46.79717" lon="5.83176">
        <ele>595.2</ele>
        <time>2019-12-12T07:43:38Z</time>
      </trkpt>
      <trkpt lat="46.79716" lon="5.83169">
        <ele>596.6</ele>
        <time>2019-12-12T07:43:50Z</time>
      </trkpt>
      <trkpt lat="46.79714" lon="5.83163">
        <ele>597.4</ele>
        <time>2019-12-12T07:44:05Z</time>
      </trkpt>
      <trkpt lat="46.79715" lon="5.83156">
        <ele>598.3</ele>
        <time>2019-12-12T07:44:18Z</time>
      </trkpt>
      <trkpt lat="46.79714" lon="5.83149">
        <ele>598.8</ele>
        <time>2019-12-12T07:44:23Z</time>
      </trkpt>
      <trkpt lat="46.79712" lon="5.83142">
        <ele>599.2</ele>
        <time>2019-12-12T07:44:27Z</time>
      </trkpt>
      <trkpt lat="46.79711" lon="5.83135">
        <ele>599.6</ele>
        <time>2019-12-12T07:44:30Z</time>
      </trkpt>
      <trkpt lat="46.7971" lon="5.83128">
        <ele>600</ele>
        <time>2019-12-12T07:44:34Z</time>
      </trkpt>
      <trkpt lat="46.79709" lon="5.83121">
        <ele>600.7</ele>
        <time>2019-12-12T07:44:42Z</time>
      </trkpt>
      <trkpt lat="46.79709" lon="5.83114">
        <ele>604.1</ele>
        <time>2019-12-12T07:45:12Z</time>
      </trkpt>
      <trkpt lat="46.79706" lon="5.83109">
        <ele>604.4</ele>
        <time>2019-12-12T07:45:17Z</time>
      </trkpt>
      <trkpt lat="46.79703" lon="5.83103">
        <ele>604.4</ele>
        <time>2019-12-12T07:45:21Z</time>
      </trkpt>
      <trkpt lat="46.797" lon="5.83098">
        <ele>604.3</ele>
        <time>2019-12-12T07:45:27Z</time>
      </trkpt>
      <trkpt lat="46.79697" lon="5.83093">
        <ele>604.2</ele>
        <time>2019-12-12T07:45:32Z</time>
      </trkpt>
      <trkpt lat="46.79693" lon="5.83088">
        <ele>604.2</ele>
        <time>2019-12-12T07:45:38Z</time>
      </trkpt>
      <trkpt lat="46.79689" lon="5.83083">
        <ele>604.1</ele>
        <time>2019-12-12T07:45:43Z</time>
      </trkpt>
      <trkpt lat="46.79686" lon="5.83078">
        <ele>604</ele>
        <time>2019-12-12T07:45:48Z</time>
      </trkpt>
      <trkpt lat="46.79682" lon="5.83073">
        <ele>604</ele>
        <time>2019-12-12T07:45:53Z</time>
      </trkpt>
      <trkpt lat="46.7968" lon="5.83066">
        <ele>604.1</ele>
        <time>2019-12-12T07:45:59Z</time>
      </trkpt>
      <trkpt lat="46.79679" lon="5.8306">
        <ele>604.1</ele>
        <time>2019-12-12T07:46:03Z</time>
      </trkpt>
      <trkpt lat="46.79676" lon="5.83054">
        <ele>604.3</ele>
        <time>2019-12-12T07:46:08Z</time>
      </trkpt>
      <trkpt lat="46.79672" lon="5.83049">
        <ele>604.6</ele>
        <time>2019-12-12T07:46:13Z</time>
      </trkpt>
      <trkpt lat="46.79669" lon="5.83043">
        <ele>604.7</ele>
        <time>2019-12-12T07:46:18Z</time>
      </trkpt>
      <trkpt lat="46.79666" lon="5.83039">
        <ele>604.9</ele>
        <time>2019-12-12T07:46:22Z</time>
      </trkpt>
      <trkpt lat="46.79663" lon="5.83033">
        <ele>605.1</ele>
        <time>2019-12-12T07:46:27Z</time>
      </trkpt>
      <trkpt lat="46.79659" lon="5.83029">
        <ele>605</ele>
        <time>2019-12-12T07:46:34Z</time>
      </trkpt>
      <trkpt lat="46.79655" lon="5.83026">
        <ele>604.7</ele>
        <time>2019-12-12T07:46:38Z</time>
      </trkpt>
      <trkpt lat="46.7965" lon="5.83025">
        <ele>604.4</ele>
        <time>2019-12-12T07:46:43Z</time>
      </trkpt>
      <trkpt lat="46.79645" lon="5.83023">
        <ele>604.1</ele>
        <time>2019-12-12T07:46:48Z</time>
      </trkpt>
      <trkpt lat="46.79641" lon="5.83021">
        <ele>603.9</ele>
        <time>2019-12-12T07:46:52Z</time>
      </trkpt>
      <trkpt lat="46.79637" lon="5.83018">
        <ele>603.6</ele>
        <time>2019-12-12T07:46:57Z</time>
      </trkpt>
      <trkpt lat="46.79633" lon="5.83013">
        <ele>603.1</ele>
        <time>2019-12-12T07:47:02Z</time>
      </trkpt>
      <trkpt lat="46.79633" lon="5.83006">
        <ele>602.8</ele>
        <time>2019-12-12T07:47:08Z</time>
      </trkpt>
      <trkpt lat="46.79633" lon="5.82999">
        <ele>602.7</ele>
        <time>2019-12-12T07:47:12Z</time>
      </trkpt>
      <trkpt lat="46.79635" lon="5.82992">
        <ele>602.6</ele>
        <time>2019-12-12T07:47:16Z</time>
      </trkpt>
      <trkpt lat="46.79636" lon="5.82984">
        <ele>602.8</ele>
        <time>2019-12-12T07:47:20Z</time>
      </trkpt>
      <trkpt lat="46.79638" lon="5.82977">
        <ele>603.4</ele>
        <time>2019-12-12T07:47:26Z</time>
      </trkpt>
      <trkpt lat="46.7964" lon="5.82971">
        <ele>603.7</ele>
        <time>2019-12-12T07:47:31Z</time>
      </trkpt>
      <trkpt lat="46.79641" lon="5.82964">
        <ele>603.7</ele>
        <time>2019-12-12T07:47:37Z</time>
      </trkpt>
      <trkpt lat="46.79643" lon="5.82957">
        <ele>603.6</ele>
        <time>2019-12-12T07:47:42Z</time>
      </trkpt>
      <trkpt lat="46.79645" lon="5.82951">
        <ele>603.4</ele>
        <time>2019-12-12T07:47:48Z</time>
      </trkpt>
      <trkpt lat="46.79647" lon="5.82944">
        <ele>602.8</ele>
        <time>2019-12-12T07:47:54Z</time>
      </trkpt>
      <trkpt lat="46.79647" lon="5.82937">
        <ele>602.1</ele>
        <time>2019-12-12T07:48:01Z</time>
      </trkpt>
      <trkpt lat="46.79647" lon="5.82929">
        <ele>601.5</ele>
        <time>2019-12-12T07:48:08Z</time>
      </trkpt>
      <trkpt lat="46.79648" lon="5.82922">
        <ele>601.1</ele>
        <time>2019-12-12T07:48:12Z</time>
      </trkpt>
      <trkpt lat="46.79648" lon="5.82914">
        <ele>600.8</ele>
        <time>2019-12-12T07:48:16Z</time>
      </trkpt>
      <trkpt lat="46.79647" lon="5.82907">
        <ele>600.4</ele>
        <time>2019-12-12T07:48:22Z</time>
      </trkpt>
      <trkpt lat="46.79646" lon="5.82899">
        <ele>600.1</ele>
        <time>2019-12-12T07:48:26Z</time>
      </trkpt>
      <trkpt lat="46.79645" lon="5.82891">
        <ele>600</ele>
        <time>2019-12-12T07:48:30Z</time>
      </trkpt>
      <trkpt lat="46.79645" lon="5.82884">
        <ele>600</ele>
        <time>2019-12-12T07:48:34Z</time>
      </trkpt>
      <trkpt lat="46.79643" lon="5.82878">
        <ele>600.2</ele>
        <time>2019-12-12T07:48:40Z</time>
      </trkpt>
      <trkpt lat="46.79643" lon="5.8287">
        <ele>600.2</ele>
        <time>2019-12-12T07:48:46Z</time>
      </trkpt>
      <trkpt lat="46.79642" lon="5.82863">
        <ele>600</ele>
        <time>2019-12-12T07:48:51Z</time>
      </trkpt>
      <trkpt lat="46.79641" lon="5.82855">
        <ele>599.9</ele>
        <time>2019-12-12T07:48:57Z</time>
      </trkpt>
      <trkpt lat="46.79641" lon="5.82847">
        <ele>599.7</ele>
        <time>2019-12-12T07:49:02Z</time>
      </trkpt>
      <trkpt lat="46.79639" lon="5.8284">
        <ele>599.5</ele>
        <time>2019-12-12T07:49:06Z</time>
      </trkpt>
      <trkpt lat="46.79638" lon="5.82832">
        <ele>599.3</ele>
        <time>2019-12-12T07:49:11Z</time>
      </trkpt>
      <trkpt lat="46.79637" lon="5.82825">
        <ele>599.2</ele>
        <time>2019-12-12T07:49:16Z</time>
      </trkpt>
      <trkpt lat="46.79637" lon="5.82818">
        <ele>599</ele>
        <time>2019-12-12T07:49:21Z</time>
      </trkpt>
      <trkpt lat="46.79637" lon="5.82811">
        <ele>598.8</ele>
        <time>2019-12-12T07:49:27Z</time>
      </trkpt>
      <trkpt lat="46.79637" lon="5.82803">
        <ele>598.7</ele>
        <time>2019-12-12T07:49:31Z</time>
      </trkpt>
      <trkpt lat="46.79636" lon="5.82795">
        <ele>598.6</ele>
        <time>2019-12-12T07:49:36Z</time>
      </trkpt>
      <trkpt lat="46.79636" lon="5.82788">
        <ele>598.6</ele>
        <time>2019-12-12T07:49:42Z</time>
      </trkpt>
      <trkpt lat="46.79635" lon="5.82781">
        <ele>598.4</ele>
        <time>2019-12-12T07:49:47Z</time>
      </trkpt>
      <trkpt lat="46.79635" lon="5.82774">
        <ele>598.2</ele>
        <time>2019-12-12T07:49:51Z</time>
      </trkpt>
      <trkpt lat="46.79636" lon="5.82766">
        <ele>597.9</ele>
        <time>2019-12-12T07:49:55Z</time>
      </trkpt>
      <trkpt lat="46.79635" lon="5.82759">
        <ele>597.6</ele>
        <time>2019-12-12T07:50:00Z</time>
      </trkpt>
      <trkpt lat="46.79635" lon="5.82751">
        <ele>597.2</ele>
        <time>2019-12-12T07:50:05Z</time>
      </trkpt>
      <trkpt lat="46.79635" lon="5.82744">
        <ele>596.9</ele>
        <time>2019-12-12T07:50:09Z</time>
      </trkpt>
      <trkpt lat="46.79635" lon="5.82737">
        <ele>596.5</ele>
        <time>2019-12-12T07:50:13Z</time>
      </trkpt>
      <trkpt lat="46.79634" lon="5.82731">
        <ele>596.1</ele>
        <time>2019-12-12T07:50:18Z</time>
      </trkpt>
      <trkpt lat="46.79631" lon="5.82725">
        <ele>595.8</ele>
        <time>2019-12-12T07:50:22Z</time>
      </trkpt>
      <trkpt lat="46.79627" lon="5.8272">
        <ele>595.7</ele>
        <time>2019-12-12T07:50:26Z</time>
      </trkpt>
      <trkpt lat="46.79624" lon="5.82714">
        <ele>595.9</ele>
        <time>2019-12-12T07:50:32Z</time>
      </trkpt>
      <trkpt lat="46.79621" lon="5.82709">
        <ele>596</ele>
        <time>2019-12-12T07:50:36Z</time>
      </trkpt>
      <trkpt lat="46.79619" lon="5.82703">
        <ele>596</ele>
        <time>2019-12-12T07:50:40Z</time>
      </trkpt>
      <trkpt lat="46.79618" lon="5.82696">
        <ele>595.7</ele>
        <time>2019-12-12T07:50:45Z</time>
      </trkpt>
      <trkpt lat="46.79615" lon="5.8269">
        <ele>595.4</ele>
        <time>2019-12-12T07:50:50Z</time>
      </trkpt>
      <trkpt lat="46.79613" lon="5.82684">
        <ele>594.9</ele>
        <time>2019-12-12T07:50:55Z</time>
      </trkpt>
      <trkpt lat="46.79611" lon="5.82678">
        <ele>594.5</ele>
        <time>2019-12-12T07:51:00Z</time>
      </trkpt>
      <trkpt lat="46.79609" lon="5.82671">
        <ele>594</ele>
        <time>2019-12-12T07:51:04Z</time>
      </trkpt>
      <trkpt lat="46.79606" lon="5.82665">
        <ele>593.6</ele>
        <time>2019-12-12T07:51:08Z</time>
      </trkpt>
      <trkpt lat="46.79604" lon="5.8266">
        <ele>593.3</ele>
        <time>2019-12-12T07:51:12Z</time>
      </trkpt>
      <trkpt lat="46.796" lon="5.82653">
        <ele>593.2</ele>
        <time>2019-12-12T07:51:18Z</time>
      </trkpt>
      <trkpt lat="46.79597" lon="5.82648">
        <ele>592.9</ele>
        <time>2019-12-12T07:51:23Z</time>
      </trkpt>
      <trkpt lat="46.79594" lon="5.82643">
        <ele>592.5</ele>
        <time>2019-12-12T07:51:29Z</time>
      </trkpt>
      <trkpt lat="46.79591" lon="5.82636">
        <ele>592.2</ele>
        <time>2019-12-12T07:51:34Z</time>
      </trkpt>
      <trkpt lat="46.79588" lon="5.82631">
        <ele>591.6</ele>
        <time>2019-12-12T07:51:38Z</time>
      </trkpt>
      <trkpt lat="46.79587" lon="5.82624">
        <ele>591.1</ele>
        <time>2019-12-12T07:51:42Z</time>
      </trkpt>
      <trkpt lat="46.79584" lon="5.82616">
        <ele>590.5</ele>
        <time>2019-12-12T07:51:46Z</time>
      </trkpt>
      <trkpt lat="46.79582" lon="5.8261">
        <ele>590.1</ele>
        <time>2019-12-12T07:51:49Z</time>
      </trkpt>
      <trkpt lat="46.79578" lon="5.82605">
        <ele>589.5</ele>
        <time>2019-12-12T07:51:54Z</time>
      </trkpt>
      <trkpt lat="46.79575" lon="5.82599">
        <ele>589.2</ele>
        <time>2019-12-12T07:51:59Z</time>
      </trkpt>
      <trkpt lat="46.79571" lon="5.82594">
        <ele>588.6</ele>
        <time>2019-12-12T07:52:05Z</time>
      </trkpt>
      <trkpt lat="46.79569" lon="5.82588">
        <ele>588</ele>
        <time>2019-12-12T07:52:10Z</time>
      </trkpt>
      <trkpt lat="46.79566" lon="5.82583">
        <ele>587.4</ele>
        <time>2019-12-12T07:52:16Z</time>
      </trkpt>
      <trkpt lat="46.79563" lon="5.82577">
        <ele>586.9</ele>
        <time>2019-12-12T07:52:21Z</time>
      </trkpt>
      <trkpt lat="46.79559" lon="5.82573">
        <ele>586.4</ele>
        <time>2019-12-12T07:52:25Z</time>
      </trkpt>
      <trkpt lat="46.79557" lon="5.82567">
        <ele>585.7</ele>
        <time>2019-12-12T07:52:29Z</time>
      </trkpt>
      <trkpt lat="46.79553" lon="5.82562">
        <ele>585</ele>
        <time>2019-12-12T07:52:33Z</time>
      </trkpt>
      <trkpt lat="46.7955" lon="5.82557">
        <ele>584.2</ele>
        <time>2019-12-12T07:52:39Z</time>
      </trkpt>
      <trkpt lat="46.79547" lon="5.82551">
        <ele>583.6</ele>
        <time>2019-12-12T07:52:44Z</time>
      </trkpt>
      <trkpt lat="46.79543" lon="5.82546">
        <ele>583.4</ele>
        <time>2019-12-12T07:52:49Z</time>
      </trkpt>
      <trkpt lat="46.7954" lon="5.82541">
        <ele>583.2</ele>
        <time>2019-12-12T07:52:53Z</time>
      </trkpt>
      <trkpt lat="46.79536" lon="5.82534">
        <ele>583.2</ele>
        <time>2019-12-12T07:52:57Z</time>
      </trkpt>
      <trkpt lat="46.79533" lon="5.82529">
        <ele>583.3</ele>
        <time>2019-12-12T07:53:02Z</time>
      </trkpt>
      <trkpt lat="46.79531" lon="5.82523">
        <ele>583</ele>
        <time>2019-12-12T07:53:08Z</time>
      </trkpt>
      <trkpt lat="46.79528" lon="5.82517">
        <ele>582.1</ele>
        <time>2019-12-12T07:53:14Z</time>
      </trkpt>
      <trkpt lat="46.79525" lon="5.82511">
        <ele>581.2</ele>
        <time>2019-12-12T07:53:20Z</time>
      </trkpt>
      <trkpt lat="46.79521" lon="5.82506">
        <ele>580.8</ele>
        <time>2019-12-12T07:53:25Z</time>
      </trkpt>
      <trkpt lat="46.79519" lon="5.82499">
        <ele>580.2</ele>
        <time>2019-12-12T07:53:31Z</time>
      </trkpt>
      <trkpt lat="46.79516" lon="5.82493">
        <ele>579.4</ele>
        <time>2019-12-12T07:53:37Z</time>
      </trkpt>
      <trkpt lat="46.79513" lon="5.82488">
        <ele>579</ele>
        <time>2019-12-12T07:53:41Z</time>
      </trkpt>
      <trkpt lat="46.79511" lon="5.82481">
        <ele>578.2</ele>
        <time>2019-12-12T07:53:47Z</time>
      </trkpt>
      <trkpt lat="46.79508" lon="5.82475">
        <ele>577.8</ele>
        <time>2019-12-12T07:53:51Z</time>
      </trkpt>
      <trkpt lat="46.79504" lon="5.82469">
        <ele>577.2</ele>
        <time>2019-12-12T07:53:55Z</time>
      </trkpt>
      <trkpt lat="46.79501" lon="5.82464">
        <ele>577</ele>
        <time>2019-12-12T07:53:58Z</time>
      </trkpt>
      <trkpt lat="46.79497" lon="5.8246">
        <ele>576.6</ele>
        <time>2019-12-12T07:54:02Z</time>
      </trkpt>
      <trkpt lat="46.79492" lon="5.82456">
        <ele>576.2</ele>
        <time>2019-12-12T07:54:06Z</time>
      </trkpt>
      <trkpt lat="46.79488" lon="5.82453">
        <ele>575.8</ele>
        <time>2019-12-12T07:54:10Z</time>
      </trkpt>
      <trkpt lat="46.79484" lon="5.82448">
        <ele>575.5</ele>
        <time>2019-12-12T07:54:15Z</time>
      </trkpt>
      <trkpt lat="46.79481" lon="5.82442">
        <ele>575.1</ele>
        <time>2019-12-12T07:54:22Z</time>
      </trkpt>
      <trkpt lat="46.79478" lon="5.82437">
        <ele>575.2</ele>
        <time>2019-12-12T07:54:27Z</time>
      </trkpt>
      <trkpt lat="46.79474" lon="5.82433">
        <ele>575.3</ele>
        <time>2019-12-12T07:54:32Z</time>
      </trkpt>
      <trkpt lat="46.7947" lon="5.82429">
        <ele>575.3</ele>
        <time>2019-12-12T07:54:36Z</time>
      </trkpt>
      <trkpt lat="46.79467" lon="5.82423">
        <ele>575.1</ele>
        <time>2019-12-12T07:54:41Z</time>
      </trkpt>
      <trkpt lat="46.79463" lon="5.82418">
        <ele>575.1</ele>
        <time>2019-12-12T07:54:45Z</time>
      </trkpt>
      <trkpt lat="46.79459" lon="5.82414">
        <ele>575</ele>
        <time>2019-12-12T07:54:49Z</time>
      </trkpt>
      <trkpt lat="46.79455" lon="5.8241">
        <ele>574.9</ele>
        <time>2019-12-12T07:54:53Z</time>
      </trkpt>
      <trkpt lat="46.79451" lon="5.82405">
        <ele>574.6</ele>
        <time>2019-12-12T07:54:59Z</time>
      </trkpt>
      <trkpt lat="46.79448" lon="5.82399">
        <ele>574.2</ele>
        <time>2019-12-12T07:55:05Z</time>
      </trkpt>
      <trkpt lat="46.79444" lon="5.82393">
        <ele>573.8</ele>
        <time>2019-12-12T07:55:09Z</time>
      </trkpt>
      <trkpt lat="46.79441" lon="5.82388">
        <ele>573.5</ele>
        <time>2019-12-12T07:55:12Z</time>
      </trkpt>
      <trkpt lat="46.79437" lon="5.82382">
        <ele>573</ele>
        <time>2019-12-12T07:55:17Z</time>
      </trkpt>
      <trkpt lat="46.79433" lon="5.82377">
        <ele>572.8</ele>
        <time>2019-12-12T07:55:21Z</time>
      </trkpt>
      <trkpt lat="46.79429" lon="5.82373">
        <ele>572.6</ele>
        <time>2019-12-12T07:55:25Z</time>
      </trkpt>
      <trkpt lat="46.79425" lon="5.82369">
        <ele>572.6</ele>
        <time>2019-12-12T07:55:30Z</time>
      </trkpt>
      <trkpt lat="46.79422" lon="5.82364">
        <ele>572.8</ele>
        <time>2019-12-12T07:55:35Z</time>
      </trkpt>
      <trkpt lat="46.79418" lon="5.82359">
        <ele>572.8</ele>
        <time>2019-12-12T07:55:42Z</time>
      </trkpt>
      <trkpt lat="46.79414" lon="5.82354">
        <ele>572.5</ele>
        <time>2019-12-12T07:55:47Z</time>
      </trkpt>
      <trkpt lat="46.7941" lon="5.82349">
        <ele>572.3</ele>
        <time>2019-12-12T07:55:51Z</time>
      </trkpt>
      <trkpt lat="46.79406" lon="5.82344">
        <ele>572.3</ele>
        <time>2019-12-12T07:55:55Z</time>
      </trkpt>
      <trkpt lat="46.79402" lon="5.82339">
        <ele>572.4</ele>
        <time>2019-12-12T07:55:59Z</time>
      </trkpt>
      <trkpt lat="46.79398" lon="5.82334">
        <ele>572.5</ele>
        <time>2019-12-12T07:56:04Z</time>
      </trkpt>
      <trkpt lat="46.79394" lon="5.8233">
        <ele>572</ele>
        <time>2019-12-12T07:56:12Z</time>
      </trkpt>
      <trkpt lat="46.79392" lon="5.82324">
        <ele>571.6</ele>
        <time>2019-12-12T07:56:18Z</time>
      </trkpt>
      <trkpt lat="46.7939" lon="5.82318">
        <ele>570.6</ele>
        <time>2019-12-12T07:56:50Z</time>
      </trkpt>
      <trkpt lat="46.79392" lon="5.82311">
        <ele>570.4</ele>
        <time>2019-12-12T07:56:55Z</time>
      </trkpt>
      <trkpt lat="46.79394" lon="5.82305">
        <ele>570.1</ele>
        <time>2019-12-12T07:56:59Z</time>
      </trkpt>
      <trkpt lat="46.79397" lon="5.823">
        <ele>569.8</ele>
        <time>2019-12-12T07:57:03Z</time>
      </trkpt>
      <trkpt lat="46.794" lon="5.82294">
        <ele>569.3</ele>
        <time>2019-12-12T07:57:08Z</time>
      </trkpt>
      <trkpt lat="46.79403" lon="5.82289">
        <ele>569</ele>
        <time>2019-12-12T07:57:13Z</time>
      </trkpt>
      <trkpt lat="46.79408" lon="5.82285">
        <ele>568.7</ele>
        <time>2019-12-12T07:57:17Z</time>
      </trkpt>
      <trkpt lat="46.79412" lon="5.82283">
        <ele>568.5</ele>
        <time>2019-12-12T07:57:21Z</time>
      </trkpt>
      <trkpt lat="46.79417" lon="5.8228">
        <ele>568.2</ele>
        <time>2019-12-12T07:57:27Z</time>
      </trkpt>
      <trkpt lat="46.7942" lon="5.82276">
        <ele>568</ele>
        <time>2019-12-12T07:57:32Z</time>
      </trkpt>
      <trkpt lat="46.79425" lon="5.82272">
        <ele>567.8</ele>
        <time>2019-12-12T07:57:36Z</time>
      </trkpt>
      <trkpt lat="46.79428" lon="5.82268">
        <ele>567.6</ele>
        <time>2019-12-12T07:57:41Z</time>
      </trkpt>
      <trkpt lat="46.79433" lon="5.82265">
        <ele>567.5</ele>
        <time>2019-12-12T07:57:46Z</time>
      </trkpt>
      <trkpt lat="46.79438" lon="5.82264">
        <ele>567.6</ele>
        <time>2019-12-12T07:57:52Z</time>
      </trkpt>
      <trkpt lat="46.79444" lon="5.82263">
        <ele>567.5</ele>
        <time>2019-12-12T07:57:57Z</time>
      </trkpt>
      <trkpt lat="46.79449" lon="5.82263">
        <ele>567.5</ele>
        <time>2019-12-12T07:58:03Z</time>
      </trkpt>
      <trkpt lat="46.79455" lon="5.82263">
        <ele>567.3</ele>
        <time>2019-12-12T07:58:07Z</time>
      </trkpt>
      <trkpt lat="46.7946" lon="5.82262">
        <ele>567.2</ele>
        <time>2019-12-12T07:58:12Z</time>
      </trkpt>
      <trkpt lat="46.79465" lon="5.82264">
        <ele>567.1</ele>
        <time>2019-12-12T07:58:16Z</time>
      </trkpt>
      <trkpt lat="46.7947" lon="5.82266">
        <ele>566.8</ele>
        <time>2019-12-12T07:58:23Z</time>
      </trkpt>
      <trkpt lat="46.79475" lon="5.82269">
        <ele>566.6</ele>
        <time>2019-12-12T07:58:29Z</time>
      </trkpt>
      <trkpt lat="46.79479" lon="5.82271">
        <ele>566.7</ele>
        <time>2019-12-12T07:58:34Z</time>
      </trkpt>
      <trkpt lat="46.79485" lon="5.82273">
        <ele>566.7</ele>
        <time>2019-12-12T07:58:39Z</time>
      </trkpt>
      <trkpt lat="46.79489" lon="5.82275">
        <ele>566.7</ele>
        <time>2019-12-12T07:58:43Z</time>
      </trkpt>
      <trkpt lat="46.79494" lon="5.82277">
        <ele>566.5</ele>
        <time>2019-12-12T07:58:49Z</time>
      </trkpt>
      <trkpt lat="46.795" lon="5.82279">
        <ele>566.5</ele>
        <time>2019-12-12T07:58:54Z</time>
      </trkpt>
      <trkpt lat="46.79504" lon="5.8228">
        <ele>566.5</ele>
        <time>2019-12-12T07:58:58Z</time>
      </trkpt>
      <trkpt lat="46.79509" lon="5.82281">
        <ele>566.5</ele>
        <time>2019-12-12T07:59:03Z</time>
      </trkpt>
      <trkpt lat="46.79515" lon="5.82281">
        <ele>566.4</ele>
        <time>2019-12-12T07:59:08Z</time>
      </trkpt>
      <trkpt lat="46.79519" lon="5.82279">
        <ele>566.5</ele>
        <time>2019-12-12T07:59:15Z</time>
      </trkpt>
      <trkpt lat="46.79524" lon="5.82275">
        <ele>566.5</ele>
        <time>2019-12-12T07:59:21Z</time>
      </trkpt>
      <trkpt lat="46.79528" lon="5.8227">
        <ele>566.6</ele>
        <time>2019-12-12T07:59:26Z</time>
      </trkpt>
      <trkpt lat="46.79532" lon="5.82265">
        <ele>566.6</ele>
        <time>2019-12-12T07:59:31Z</time>
      </trkpt>
      <trkpt lat="46.79536" lon="5.82261">
        <ele>566.3</ele>
        <time>2019-12-12T07:59:36Z</time>
      </trkpt>
      <trkpt lat="46.7954" lon="5.82256">
        <ele>565.8</ele>
        <time>2019-12-12T07:59:41Z</time>
      </trkpt>
      <trkpt lat="46.79544" lon="5.82251">
        <ele>565.4</ele>
        <time>2019-12-12T07:59:46Z</time>
      </trkpt>
      <trkpt lat="46.79547" lon="5.82246">
        <ele>564.9</ele>
        <time>2019-12-12T07:59:52Z</time>
      </trkpt>
      <trkpt lat="46.79551" lon="5.82242">
        <ele>564.6</ele>
        <time>2019-12-12T07:59:57Z</time>
      </trkpt>
      <trkpt lat="46.79555" lon="5.82237">
        <ele>564.3</ele>
        <time>2019-12-12T08:00:01Z</time>
      </trkpt>
      <trkpt lat="46.79558" lon="5.82233">
        <ele>564.1</ele>
        <time>2019-12-12T08:00:05Z</time>
      </trkpt>
      <trkpt lat="46.79562" lon="5.82228">
        <ele>564</ele>
        <time>2019-12-12T08:00:09Z</time>
      </trkpt>
      <trkpt lat="46.79565" lon="5.82223">
        <ele>564</ele>
        <time>2019-12-12T08:00:14Z</time>
      </trkpt>
      <trkpt lat="46.79568" lon="5.82217">
        <ele>563.6</ele>
        <time>2019-12-12T08:00:20Z</time>
      </trkpt>
      <trkpt lat="46.7957" lon="5.8221">
        <ele>563.3</ele>
        <time>2019-12-12T08:00:25Z</time>
      </trkpt>
      <trkpt lat="46.79572" lon="5.82204">
        <ele>563.1</ele>
        <time>2019-12-12T08:00:29Z</time>
      </trkpt>
      <trkpt lat="46.79575" lon="5.82198">
        <ele>562.9</ele>
        <time>2019-12-12T08:00:33Z</time>
      </trkpt>
      <trkpt lat="46.79578" lon="5.82193">
        <ele>562.6</ele>
        <time>2019-12-12T08:00:39Z</time>
      </trkpt>
      <trkpt lat="46.79581" lon="5.82187">
        <ele>562.2</ele>
        <time>2019-12-12T08:00:44Z</time>
      </trkpt>
      <trkpt lat="46.79584" lon="5.82181">
        <ele>561.8</ele>
        <time>2019-12-12T08:00:49Z</time>
      </trkpt>
      <trkpt lat="46.79587" lon="5.82176">
        <ele>561.4</ele>
        <time>2019-12-12T08:00:54Z</time>
      </trkpt>
      <trkpt lat="46.7959" lon="5.82171">
        <ele>560.9</ele>
        <time>2019-12-12T08:00:59Z</time>
      </trkpt>
      <trkpt lat="46.79594" lon="5.82166">
        <ele>560.7</ele>
        <time>2019-12-12T08:01:03Z</time>
      </trkpt>
      <trkpt lat="46.79597" lon="5.82161">
        <ele>560.5</ele>
        <time>2019-12-12T08:01:07Z</time>
      </trkpt>
      <trkpt lat="46.796" lon="5.82155">
        <ele>560.4</ele>
        <time>2019-12-12T08:01:12Z</time>
      </trkpt>
      <trkpt lat="46.79602" lon="5.82149">
        <ele>560.4</ele>
        <time>2019-12-12T08:01:17Z</time>
      </trkpt>
      <trkpt lat="46.79606" lon="5.82144">
        <ele>560.5</ele>
        <time>2019-12-12T08:01:21Z</time>
      </trkpt>
      <trkpt lat="46.7961" lon="5.82138">
        <ele>560.6</ele>
        <time>2019-12-12T08:01:25Z</time>
      </trkpt>
      <trkpt lat="46.79614" lon="5.82134">
        <ele>561</ele>
        <time>2019-12-12T08:01:30Z</time>
      </trkpt>
      <trkpt lat="46.79618" lon="5.8213">
        <ele>561.2</ele>
        <time>2019-12-12T08:01:35Z</time>
      </trkpt>
      <trkpt lat="46.79621" lon="5.82125">
        <ele>561.4</ele>
        <time>2019-12-12T08:01:40Z</time>
      </trkpt>
      <trkpt lat="46.79625" lon="5.8212">
        <ele>561.7</ele>
        <time>2019-12-12T08:01:45Z</time>
      </trkpt>
      <trkpt lat="46.7963" lon="5.82116">
        <ele>562</ele>
        <time>2019-12-12T08:01:50Z</time>
      </trkpt>
      <trkpt lat="46.79634" lon="5.82113">
        <ele>562.3</ele>
        <time>2019-12-12T08:01:55Z</time>
      </trkpt>
      <trkpt lat="46.79637" lon="5.82107">
        <ele>562.4</ele>
        <time>2019-12-12T08:01:59Z</time>
      </trkpt>
      <trkpt lat="46.79641" lon="5.82102">
        <ele>562.3</ele>
        <time>2019-12-12T08:02:04Z</time>
      </trkpt>
      <trkpt lat="46.79644" lon="5.82097">
        <ele>562.1</ele>
        <time>2019-12-12T08:02:09Z</time>
      </trkpt>
      <trkpt lat="46.79648" lon="5.82092">
        <ele>562</ele>
        <time>2019-12-12T08:02:14Z</time>
      </trkpt>
      <trkpt lat="46.79651" lon="5.82086">
        <ele>562</ele>
        <time>2019-12-12T08:02:18Z</time>
      </trkpt>
      <trkpt lat="46.79655" lon="5.8208">
        <ele>562.2</ele>
        <time>2019-12-12T08:02:22Z</time>
      </trkpt>
      <trkpt lat="46.79659" lon="5.82076">
        <ele>562.5</ele>
        <time>2019-12-12T08:02:27Z</time>
      </trkpt>
      <trkpt lat="46.79662" lon="5.82071">
        <ele>562.8</ele>
        <time>2019-12-12T08:02:32Z</time>
      </trkpt>
      <trkpt lat="46.79665" lon="5.82064">
        <ele>562.9</ele>
        <time>2019-12-12T08:02:38Z</time>
      </trkpt>
      <trkpt lat="46.79668" lon="5.82057">
        <ele>562.9</ele>
        <time>2019-12-12T08:02:42Z</time>
      </trkpt>
      <trkpt lat="46.79671" lon="5.82052">
        <ele>563</ele>
        <time>2019-12-12T08:02:46Z</time>
      </trkpt>
      <trkpt lat="46.79673" lon="5.82045">
        <ele>562.6</ele>
        <time>2019-12-12T08:02:53Z</time>
      </trkpt>
      <trkpt lat="46.79676" lon="5.8204">
        <ele>562</ele>
        <time>2019-12-12T08:02:58Z</time>
      </trkpt>
      <trkpt lat="46.7968" lon="5.82034">
        <ele>561.4</ele>
        <time>2019-12-12T08:03:03Z</time>
      </trkpt>
      <trkpt lat="46.79682" lon="5.82028">
        <ele>561.2</ele>
        <time>2019-12-12T08:03:07Z</time>
      </trkpt>
      <trkpt lat="46.79686" lon="5.82024">
        <ele>561.1</ele>
        <time>2019-12-12T08:03:11Z</time>
      </trkpt>
      <trkpt lat="46.7969" lon="5.82021">
        <ele>560.9</ele>
        <time>2019-12-12T08:03:15Z</time>
      </trkpt>
      <trkpt lat="46.79695" lon="5.82018">
        <ele>560.7</ele>
        <time>2019-12-12T08:03:19Z</time>
      </trkpt>
      <trkpt lat="46.79699" lon="5.82015">
        <ele>560.7</ele>
        <time>2019-12-12T08:03:23Z</time>
      </trkpt>
      <trkpt lat="46.79705" lon="5.82012">
        <ele>560.9</ele>
        <time>2019-12-12T08:03:27Z</time>
      </trkpt>
      <trkpt lat="46.79709" lon="5.8201">
        <ele>561.3</ele>
        <time>2019-12-12T08:03:33Z</time>
      </trkpt>
      <trkpt lat="46.79714" lon="5.82008">
        <ele>561.4</ele>
        <time>2019-12-12T08:03:39Z</time>
      </trkpt>
      <trkpt lat="46.7972" lon="5.82007">
        <ele>561.2</ele>
        <time>2019-12-12T08:03:46Z</time>
      </trkpt>
      <trkpt lat="46.79724" lon="5.82003">
        <ele>560.9</ele>
        <time>2019-12-12T08:03:52Z</time>
      </trkpt>
      <trkpt lat="46.79728" lon="5.82002">
        <ele>560.7</ele>
        <time>2019-12-12T08:03:59Z</time>
      </trkpt>
      <trkpt lat="46.79733" lon="5.81999">
        <ele>560.6</ele>
        <time>2019-12-12T08:04:04Z</time>
      </trkpt>
      <trkpt lat="46.79737" lon="5.81994">
        <ele>560.3</ele>
        <time>2019-12-12T08:04:09Z</time>
      </trkpt>
      <trkpt lat="46.79741" lon="5.8199">
        <ele>560.1</ele>
        <time>2019-12-12T08:04:13Z</time>
      </trkpt>
      <trkpt lat="46.79746" lon="5.81986">
        <ele>559.9</ele>
        <time>2019-12-12T08:04:17Z</time>
      </trkpt>
      <trkpt lat="46.7975" lon="5.81982">
        <ele>559.7</ele>
        <time>2019-12-12T08:04:23Z</time>
      </trkpt>
      <trkpt lat="46.79753" lon="5.81977">
        <ele>559.5</ele>
        <time>2019-12-12T08:04:27Z</time>
      </trkpt>
      <trkpt lat="46.79756" lon="5.81971">
        <ele>559.4</ele>
        <time>2019-12-12T08:04:31Z</time>
      </trkpt>
      <trkpt lat="46.79757" lon="5.81964">
        <ele>559.3</ele>
        <time>2019-12-12T08:04:37Z</time>
      </trkpt>
      <trkpt lat="46.79758" lon="5.81957">
        <ele>559</ele>
        <time>2019-12-12T08:04:43Z</time>
      </trkpt>
      <trkpt lat="46.79759" lon="5.8195">
        <ele>558.6</ele>
        <time>2019-12-12T08:04:49Z</time>
      </trkpt>
      <trkpt lat="46.79762" lon="5.81945">
        <ele>558.5</ele>
        <time>2019-12-12T08:04:53Z</time>
      </trkpt>
      <trkpt lat="46.79766" lon="5.81938">
        <ele>558.4</ele>
        <time>2019-12-12T08:04:58Z</time>
      </trkpt>
      <trkpt lat="46.79769" lon="5.81934">
        <ele>558.7</ele>
        <time>2019-12-12T08:05:06Z</time>
      </trkpt>
      <trkpt lat="46.79774" lon="5.81933">
        <ele>559.4</ele>
        <time>2019-12-12T08:05:17Z</time>
      </trkpt>
      <trkpt lat="46.79778" lon="5.81932">
        <ele>559.6</ele>
        <time>2019-12-12T08:05:24Z</time>
      </trkpt>
      <trkpt lat="46.79782" lon="5.81928">
        <ele>559.6</ele>
        <time>2019-12-12T08:05:29Z</time>
      </trkpt>
      <trkpt lat="46.79784" lon="5.81922">
        <ele>559.6</ele>
        <time>2019-12-12T08:05:35Z</time>
      </trkpt>
      <trkpt lat="46.79788" lon="5.81917">
        <ele>559.2</ele>
        <time>2019-12-12T08:05:42Z</time>
      </trkpt>
      <trkpt lat="46.79796" lon="5.81909">
        <ele>559.6</ele>
        <time>2019-12-12T08:05:55Z</time>
      </trkpt>
      <trkpt lat="46.798" lon="5.81905">
        <ele>560.4</ele>
        <time>2019-12-12T08:06:03Z</time>
      </trkpt>
      <trkpt lat="46.79804" lon="5.81902">
        <ele>561.7</ele>
        <time>2019-12-12T08:06:11Z</time>
      </trkpt>
      <trkpt lat="46.79809" lon="5.81901">
        <ele>563</ele>
        <time>2019-12-12T08:06:19Z</time>
      </trkpt>
      <trkpt lat="46.79814" lon="5.81899">
        <ele>563.9</ele>
        <time>2019-12-12T08:06:25Z</time>
      </trkpt>
      <trkpt lat="46.79818" lon="5.81895">
        <ele>564.4</ele>
        <time>2019-12-12T08:06:32Z</time>
      </trkpt>
      <trkpt lat="46.79822" lon="5.81892">
        <ele>564.5</ele>
        <time>2019-12-12T08:06:39Z</time>
      </trkpt>
      <trkpt lat="46.79826" lon="5.81888">
        <ele>564.4</ele>
        <time>2019-12-12T08:06:45Z</time>
      </trkpt>
      <trkpt lat="46.7983" lon="5.81888">
        <ele>564.4</ele>
        <time>2019-12-12T08:06:50Z</time>
      </trkpt>
      <trkpt lat="46.79835" lon="5.81886">
        <ele>564.2</ele>
        <time>2019-12-12T08:06:54Z</time>
      </trkpt>
      <trkpt lat="46.7984" lon="5.81883">
        <ele>564.2</ele>
        <time>2019-12-12T08:06:59Z</time>
      </trkpt>
      <trkpt lat="46.79845" lon="5.81882">
        <ele>564.2</ele>
        <time>2019-12-12T08:07:06Z</time>
      </trkpt>
      <trkpt lat="46.7985" lon="5.81881">
        <ele>564</ele>
        <time>2019-12-12T08:07:10Z</time>
      </trkpt>
      <trkpt lat="46.79854" lon="5.81878">
        <ele>563.8</ele>
        <time>2019-12-12T08:07:14Z</time>
      </trkpt>
      <trkpt lat="46.7986" lon="5.81876">
        <ele>563.6</ele>
        <time>2019-12-12T08:07:20Z</time>
      </trkpt>
      <trkpt lat="46.79865" lon="5.81875">
        <ele>563.4</ele>
        <time>2019-12-12T08:07:24Z</time>
      </trkpt>
      <trkpt lat="46.7987" lon="5.81872">
        <ele>563.2</ele>
        <time>2019-12-12T08:07:28Z</time>
      </trkpt>
      <trkpt lat="46.79875" lon="5.81869">
        <ele>562.9</ele>
        <time>2019-12-12T08:07:32Z</time>
      </trkpt>
      <trkpt lat="46.79879" lon="5.81864">
        <ele>562.2</ele>
        <time>2019-12-12T08:07:38Z</time>
      </trkpt>
      <trkpt lat="46.79882" lon="5.81858">
        <ele>561.7</ele>
        <time>2019-12-12T08:07:44Z</time>
      </trkpt>
      <trkpt lat="46.79886" lon="5.81854">
        <ele>561.7</ele>
        <time>2019-12-12T08:07:53Z</time>
      </trkpt>
      <trkpt lat="46.7989" lon="5.81851">
        <ele>561.7</ele>
        <time>2019-12-12T08:07:56Z</time>
      </trkpt>
      <trkpt lat="46.79895" lon="5.81849">
        <ele>561.8</ele>
        <time>2019-12-12T08:08:00Z</time>
      </trkpt>
      <trkpt lat="46.79899" lon="5.81847">
        <ele>562</ele>
        <time>2019-12-12T08:08:03Z</time>
      </trkpt>
      <trkpt lat="46.79904" lon="5.81843">
        <ele>562</ele>
        <time>2019-12-12T08:08:06Z</time>
      </trkpt>
      <trkpt lat="46.79909" lon="5.81841">
        <ele>562.1</ele>
        <time>2019-12-12T08:08:12Z</time>
      </trkpt>
      <trkpt lat="46.79913" lon="5.81836">
        <ele>561.8</ele>
        <time>2019-12-12T08:08:20Z</time>
      </trkpt>
      <trkpt lat="46.79915" lon="5.81828">
        <ele>561.8</ele>
        <time>2019-12-12T08:08:25Z</time>
      </trkpt>
      <trkpt lat="46.79915" lon="5.81821">
        <ele>561.8</ele>
        <time>2019-12-12T08:08:29Z</time>
      </trkpt>
      <trkpt lat="46.79916" lon="5.81815">
        <ele>561.9</ele>
        <time>2019-12-12T08:08:34Z</time>
      </trkpt>
      <trkpt lat="46.79915" lon="5.81807">
        <ele>562.1</ele>
        <time>2019-12-12T08:08:40Z</time>
      </trkpt>
      <trkpt lat="46.79916" lon="5.818">
        <ele>562.4</ele>
        <time>2019-12-12T08:08:46Z</time>
      </trkpt>
      <trkpt lat="46.79916" lon="5.81793">
        <ele>562.6</ele>
        <time>2019-12-12T08:08:53Z</time>
      </trkpt>
      <trkpt lat="46.79917" lon="5.81786">
        <ele>562.5</ele>
        <time>2019-12-12T08:08:58Z</time>
      </trkpt>
      <trkpt lat="46.79917" lon="5.81779">
        <ele>562.5</ele>
        <time>2019-12-12T08:09:04Z</time>
      </trkpt>
      <trkpt lat="46.79916" lon="5.81771">
        <ele>562.7</ele>
        <time>2019-12-12T08:09:10Z</time>
      </trkpt>
      <trkpt lat="46.79915" lon="5.81764">
        <ele>562.5</ele>
        <time>2019-12-12T08:09:16Z</time>
      </trkpt>
      <trkpt lat="46.79916" lon="5.81757">
        <ele>562.1</ele>
        <time>2019-12-12T08:09:23Z</time>
      </trkpt>
      <trkpt lat="46.79916" lon="5.8175">
        <ele>561.3</ele>
        <time>2019-12-12T08:09:31Z</time>
      </trkpt>
      <trkpt lat="46.79917" lon="5.81742">
        <ele>560.7</ele>
        <time>2019-12-12T08:09:39Z</time>
      </trkpt>
      <trkpt lat="46.79917" lon="5.81734">
        <ele>560.4</ele>
        <time>2019-12-12T08:09:46Z</time>
      </trkpt>
      <trkpt lat="46.79916" lon="5.81727">
        <ele>559.9</ele>
        <time>2019-12-12T08:09:52Z</time>
      </trkpt>
      <trkpt lat="46.79915" lon="5.8172">
        <ele>559.8</ele>
        <time>2019-12-12T08:09:58Z</time>
      </trkpt>
      <trkpt lat="46.79914" lon="5.81713">
        <ele>559.7</ele>
        <time>2019-12-12T08:10:03Z</time>
      </trkpt>
      <trkpt lat="46.79912" lon="5.81706">
        <ele>559.7</ele>
        <time>2019-12-12T08:10:07Z</time>
      </trkpt>
      <trkpt lat="46.79911" lon="5.81699">
        <ele>559.7</ele>
        <time>2019-12-12T08:10:12Z</time>
      </trkpt>
      <trkpt lat="46.79912" lon="5.81692">
        <ele>560</ele>
        <time>2019-12-12T08:10:17Z</time>
      </trkpt>
      <trkpt lat="46.79913" lon="5.81685">
        <ele>560.5</ele>
        <time>2019-12-12T08:10:23Z</time>
      </trkpt>
      <trkpt lat="46.79913" lon="5.81678">
        <ele>560.9</ele>
        <time>2019-12-12T08:10:28Z</time>
      </trkpt>
      <trkpt lat="46.79914" lon="5.81671">
        <ele>561.2</ele>
        <time>2019-12-12T08:10:33Z</time>
      </trkpt>
      <trkpt lat="46.79915" lon="5.81664">
        <ele>561.7</ele>
        <time>2019-12-12T08:10:40Z</time>
      </trkpt>
      <trkpt lat="46.79915" lon="5.81657">
        <ele>562.4</ele>
        <time>2019-12-12T08:10:46Z</time>
      </trkpt>
      <trkpt lat="46.79915" lon="5.81649">
        <ele>562.9</ele>
        <time>2019-12-12T08:10:52Z</time>
      </trkpt>
      <trkpt lat="46.79916" lon="5.81643">
        <ele>563.2</ele>
        <time>2019-12-12T08:10:57Z</time>
      </trkpt>
      <trkpt lat="46.79915" lon="5.81636">
        <ele>563.4</ele>
        <time>2019-12-12T08:11:02Z</time>
      </trkpt>
      <trkpt lat="46.79914" lon="5.81629">
        <ele>563.3</ele>
        <time>2019-12-12T08:11:08Z</time>
      </trkpt>
      <trkpt lat="46.79912" lon="5.81622">
        <ele>563</ele>
        <time>2019-12-12T08:11:16Z</time>
      </trkpt>
      <trkpt lat="46.79911" lon="5.81615">
        <ele>562.7</ele>
        <time>2019-12-12T08:11:21Z</time>
      </trkpt>
      <trkpt lat="46.79912" lon="5.81599">
        <ele>561.3</ele>
        <time>2019-12-12T08:11:33Z</time>
      </trkpt>
      <trkpt lat="46.79912" lon="5.8159">
        <ele>560.9</ele>
        <time>2019-12-12T08:11:36Z</time>
      </trkpt>
      <trkpt lat="46.79912" lon="5.81582">
        <ele>560.3</ele>
        <time>2019-12-12T08:11:40Z</time>
      </trkpt>
      <trkpt lat="46.79912" lon="5.81575">
        <ele>559.5</ele>
        <time>2019-12-12T08:11:45Z</time>
      </trkpt>
      <trkpt lat="46.79912" lon="5.81568">
        <ele>558.7</ele>
        <time>2019-12-12T08:11:51Z</time>
      </trkpt>
      <trkpt lat="46.79912" lon="5.81561">
        <ele>558.1</ele>
        <time>2019-12-12T08:11:57Z</time>
      </trkpt>
      <trkpt lat="46.79912" lon="5.81554">
        <ele>557.8</ele>
        <time>2019-12-12T08:12:03Z</time>
      </trkpt>
      <trkpt lat="46.79909" lon="5.81548">
        <ele>557.5</ele>
        <time>2019-12-12T08:12:08Z</time>
      </trkpt>
      <trkpt lat="46.79908" lon="5.81542">
        <ele>557</ele>
        <time>2019-12-12T08:12:15Z</time>
      </trkpt>
      <trkpt lat="46.79909" lon="5.81535">
        <ele>556.8</ele>
        <time>2019-12-12T08:12:23Z</time>
      </trkpt>
      <trkpt lat="46.79908" lon="5.81527">
        <ele>557</ele>
        <time>2019-12-12T08:12:29Z</time>
      </trkpt>
      <trkpt lat="46.79905" lon="5.81521">
        <ele>557.4</ele>
        <time>2019-12-12T08:12:35Z</time>
      </trkpt>
      <trkpt lat="46.79904" lon="5.81515">
        <ele>557.8</ele>
        <time>2019-12-12T08:12:46Z</time>
      </trkpt>
      <trkpt lat="46.79905" lon="5.81508">
        <ele>557.9</ele>
        <time>2019-12-12T08:12:51Z</time>
      </trkpt>
      <trkpt lat="46.79906" lon="5.81501">
        <ele>557.8</ele>
        <time>2019-12-12T08:12:55Z</time>
      </trkpt>
      <trkpt lat="46.79907" lon="5.81493">
        <ele>557.4</ele>
        <time>2019-12-12T08:13:01Z</time>
      </trkpt>
      <trkpt lat="46.79907" lon="5.81486">
        <ele>557.1</ele>
        <time>2019-12-12T08:13:07Z</time>
      </trkpt>
      <trkpt lat="46.79906" lon="5.81478">
        <ele>556.9</ele>
        <time>2019-12-12T08:13:12Z</time>
      </trkpt>
      <trkpt lat="46.79904" lon="5.81472">
        <ele>556.8</ele>
        <time>2019-12-12T08:13:17Z</time>
      </trkpt>
      <trkpt lat="46.79904" lon="5.81465">
        <ele>557.7</ele>
        <time>2019-12-12T08:13:29Z</time>
      </trkpt>
      <trkpt lat="46.79905" lon="5.81458">
        <ele>559</ele>
        <time>2019-12-12T08:13:38Z</time>
      </trkpt>
      <trkpt lat="46.79907" lon="5.81453">
        <ele>559.8</ele>
        <time>2019-12-12T08:13:51Z</time>
      </trkpt>
      <trkpt lat="46.79911" lon="5.81457">
        <ele>559.5</ele>
        <time>2019-12-12T08:14:11Z</time>
      </trkpt>
      <trkpt lat="46.79913" lon="5.81445">
        <ele>558.5</ele>
        <time>2019-12-12T08:16:26Z</time>
      </trkpt>
      <trkpt lat="46.79913" lon="5.81436">
        <ele>558.7</ele>
        <time>2019-12-12T08:16:31Z</time>
      </trkpt>
      <trkpt lat="46.79912" lon="5.81429">
        <ele>558.8</ele>
        <time>2019-12-12T08:16:33Z</time>
      </trkpt>
      <trkpt lat="46.7991" lon="5.81423">
        <ele>559.1</ele>
        <time>2019-12-12T08:16:36Z</time>
      </trkpt>
      <trkpt lat="46.79907" lon="5.81415">
        <ele>559.5</ele>
        <time>2019-12-12T08:16:40Z</time>
      </trkpt>
      <trkpt lat="46.79905" lon="5.81409">
        <ele>560.1</ele>
        <time>2019-12-12T08:16:45Z</time>
      </trkpt>
      <trkpt lat="46.79906" lon="5.81401">
        <ele>560.5</ele>
        <time>2019-12-12T08:17:00Z</time>
      </trkpt>
      <trkpt lat="46.79904" lon="5.81395">
        <ele>560.9</ele>
        <time>2019-12-12T08:17:07Z</time>
      </trkpt>
      <trkpt lat="46.79904" lon="5.81388">
        <ele>561.2</ele>
        <time>2019-12-12T08:17:12Z</time>
      </trkpt>
      <trkpt lat="46.79906" lon="5.8138">
        <ele>561.4</ele>
        <time>2019-12-12T08:17:16Z</time>
      </trkpt>
      <trkpt lat="46.79907" lon="5.81373">
        <ele>561.7</ele>
        <time>2019-12-12T08:17:21Z</time>
      </trkpt>
      <trkpt lat="46.79907" lon="5.81366">
        <ele>561.2</ele>
        <time>2019-12-12T08:17:29Z</time>
      </trkpt>
      <trkpt lat="46.79907" lon="5.81359">
        <ele>560.3</ele>
        <time>2019-12-12T08:17:34Z</time>
      </trkpt>
      <trkpt lat="46.79906" lon="5.81352">
        <ele>559.4</ele>
        <time>2019-12-12T08:17:39Z</time>
      </trkpt>
      <trkpt lat="46.79904" lon="5.81345">
        <ele>558.7</ele>
        <time>2019-12-12T08:17:43Z</time>
      </trkpt>
      <trkpt lat="46.79903" lon="5.81338">
        <ele>558.2</ele>
        <time>2019-12-12T08:17:48Z</time>
      </trkpt>
      <trkpt lat="46.79901" lon="5.81331">
        <ele>558</ele>
        <time>2019-12-12T08:17:53Z</time>
      </trkpt>
      <trkpt lat="46.79901" lon="5.81325">
        <ele>558.2</ele>
        <time>2019-12-12T08:17:58Z</time>
      </trkpt>
      <trkpt lat="46.79901" lon="5.81318">
        <ele>558.5</ele>
        <time>2019-12-12T08:18:03Z</time>
      </trkpt>
      <trkpt lat="46.79901" lon="5.81311">
        <ele>558.5</ele>
        <time>2019-12-12T08:18:07Z</time>
      </trkpt>
      <trkpt lat="46.799" lon="5.81303">
        <ele>558.5</ele>
        <time>2019-12-12T08:18:12Z</time>
      </trkpt>
      <trkpt lat="46.799" lon="5.81296">
        <ele>558.2</ele>
        <time>2019-12-12T08:18:18Z</time>
      </trkpt>
      <trkpt lat="46.79901" lon="5.81289">
        <ele>557.6</ele>
        <time>2019-12-12T08:18:22Z</time>
      </trkpt>
      <trkpt lat="46.79902" lon="5.81282">
        <ele>557</ele>
        <time>2019-12-12T08:18:26Z</time>
      </trkpt>
      <trkpt lat="46.79903" lon="5.81275">
        <ele>556.1</ele>
        <time>2019-12-12T08:18:32Z</time>
      </trkpt>
      <trkpt lat="46.79904" lon="5.81268">
        <ele>555.6</ele>
        <time>2019-12-12T08:18:36Z</time>
      </trkpt>
      <trkpt lat="46.79904" lon="5.81261">
        <ele>555.1</ele>
        <time>2019-12-12T08:18:44Z</time>
      </trkpt>
      <trkpt lat="46.79902" lon="5.81254">
        <ele>554.7</ele>
        <time>2019-12-12T08:18:49Z</time>
      </trkpt>
      <trkpt lat="46.79903" lon="5.81247">
        <ele>553.8</ele>
        <time>2019-12-12T08:18:55Z</time>
      </trkpt>
      <trkpt lat="46.79902" lon="5.81239">
        <ele>552.9</ele>
        <time>2019-12-12T08:19:00Z</time>
      </trkpt>
      <trkpt lat="46.79901" lon="5.81232">
        <ele>551.6</ele>
        <time>2019-12-12T08:19:07Z</time>
      </trkpt>
      <trkpt lat="46.79902" lon="5.81224">
        <ele>550.5</ele>
        <time>2019-12-12T08:19:13Z</time>
      </trkpt>
      <trkpt lat="46.79901" lon="5.81218">
        <ele>549.7</ele>
        <time>2019-12-12T08:19:18Z</time>
      </trkpt>
      <trkpt lat="46.79899" lon="5.8121">
        <ele>549.1</ele>
        <time>2019-12-12T08:19:22Z</time>
      </trkpt>
      <trkpt lat="46.79898" lon="5.81204">
        <ele>548.5</ele>
        <time>2019-12-12T08:19:26Z</time>
      </trkpt>
      <trkpt lat="46.79899" lon="5.81197">
        <ele>548</ele>
        <time>2019-12-12T08:19:30Z</time>
      </trkpt>
      <trkpt lat="46.799" lon="5.81191">
        <ele>547.5</ele>
        <time>2019-12-12T08:19:35Z</time>
      </trkpt>
      <trkpt lat="46.799" lon="5.81183">
        <ele>547.5</ele>
        <time>2019-12-12T08:19:40Z</time>
      </trkpt>
      <trkpt lat="46.79899" lon="5.81176">
        <ele>547.6</ele>
        <time>2019-12-12T08:19:45Z</time>
      </trkpt>
      <trkpt lat="46.79901" lon="5.81169">
        <ele>548.3</ele>
        <time>2019-12-12T08:19:55Z</time>
      </trkpt>
      <trkpt lat="46.79901" lon="5.81162">
        <ele>548.6</ele>
        <time>2019-12-12T08:20:00Z</time>
      </trkpt>
      <trkpt lat="46.79904" lon="5.81156">
        <ele>549.9</ele>
        <time>2019-12-12T08:20:28Z</time>
      </trkpt>
      <trkpt lat="46.79909" lon="5.81156">
        <ele>550.9</ele>
        <time>2019-12-12T08:20:35Z</time>
      </trkpt>
      <trkpt lat="46.79913" lon="5.81154">
        <ele>552</ele>
        <time>2019-12-12T08:20:41Z</time>
      </trkpt>
      <trkpt lat="46.79918" lon="5.81153">
        <ele>552.8</ele>
        <time>2019-12-12T08:20:48Z</time>
      </trkpt>
      <trkpt lat="46.79913" lon="5.81153">
        <ele>554.7</ele>
        <time>2019-12-12T08:21:01Z</time>
      </trkpt>
      <trkpt lat="46.79908" lon="5.81156">
        <ele>555.6</ele>
        <time>2019-12-12T08:21:08Z</time>
      </trkpt>
      <trkpt lat="46.79904" lon="5.81158">
        <ele>556.5</ele>
        <time>2019-12-12T08:21:17Z</time>
      </trkpt>
      <trkpt lat="46.79901" lon="5.81152">
        <ele>556.3</ele>
        <time>2019-12-12T08:21:27Z</time>
      </trkpt>
      <trkpt lat="46.79901" lon="5.81145">
        <ele>556.1</ele>
        <time>2019-12-12T08:21:32Z</time>
      </trkpt>
      <trkpt lat="46.79898" lon="5.81138">
        <ele>556.1</ele>
        <time>2019-12-12T08:21:37Z</time>
      </trkpt>
      <trkpt lat="46.79897" lon="5.81131">
        <ele>556.1</ele>
        <time>2019-12-12T08:21:43Z</time>
      </trkpt>
      <trkpt lat="46.79897" lon="5.81124">
        <ele>555.7</ele>
        <time>2019-12-12T08:21:52Z</time>
      </trkpt>
      <trkpt lat="46.79899" lon="5.81117">
        <ele>555.4</ele>
        <time>2019-12-12T08:21:58Z</time>
      </trkpt>
      <trkpt lat="46.79902" lon="5.81112">
        <ele>555.2</ele>
        <time>2019-12-12T08:22:02Z</time>
      </trkpt>
      <trkpt lat="46.79905" lon="5.81107">
        <ele>555.3</ele>
        <time>2019-12-12T08:22:07Z</time>
      </trkpt>
      <trkpt lat="46.79909" lon="5.81103">
        <ele>555.8</ele>
        <time>2019-12-12T08:22:14Z</time>
      </trkpt>
      <trkpt lat="46.79911" lon="5.81096">
        <ele>556.5</ele>
        <time>2019-12-12T08:22:20Z</time>
      </trkpt>
      <trkpt lat="46.79915" lon="5.81091">
        <ele>556.8</ele>
        <time>2019-12-12T08:22:25Z</time>
      </trkpt>
      <trkpt lat="46.79918" lon="5.81087">
        <ele>556.9</ele>
        <time>2019-12-12T08:22:30Z</time>
      </trkpt>
      <trkpt lat="46.79921" lon="5.81081">
        <ele>556.9</ele>
        <time>2019-12-12T08:22:34Z</time>
      </trkpt>
      <trkpt lat="46.79923" lon="5.81075">
        <ele>556.7</ele>
        <time>2019-12-12T08:22:39Z</time>
      </trkpt>
      <trkpt lat="46.79927" lon="5.81071">
        <ele>556.4</ele>
        <time>2019-12-12T08:22:44Z</time>
      </trkpt>
      <trkpt lat="46.7993" lon="5.81066">
        <ele>555.9</ele>
        <time>2019-12-12T08:22:49Z</time>
      </trkpt>
      <trkpt lat="46.79932" lon="5.81059">
        <ele>555.3</ele>
        <time>2019-12-12T08:22:55Z</time>
      </trkpt>
      <trkpt lat="46.79935" lon="5.81053">
        <ele>554.4</ele>
        <time>2019-12-12T08:23:03Z</time>
      </trkpt>
      <trkpt lat="46.79936" lon="5.81045">
        <ele>553.9</ele>
        <time>2019-12-12T08:23:09Z</time>
      </trkpt>
      <trkpt lat="46.79936" lon="5.81038">
        <ele>553.4</ele>
        <time>2019-12-12T08:23:13Z</time>
      </trkpt>
      <trkpt lat="46.79938" lon="5.8103">
        <ele>552.8</ele>
        <time>2019-12-12T08:23:19Z</time>
      </trkpt>
      <trkpt lat="46.79939" lon="5.81023">
        <ele>552.2</ele>
        <time>2019-12-12T08:23:24Z</time>
      </trkpt>
      <trkpt lat="46.79941" lon="5.81017">
        <ele>551.8</ele>
        <time>2019-12-12T08:23:28Z</time>
      </trkpt>
      <trkpt lat="46.79942" lon="5.81009">
        <ele>551.3</ele>
        <time>2019-12-12T08:23:33Z</time>
      </trkpt>
      <trkpt lat="46.79943" lon="5.81001">
        <ele>550.8</ele>
        <time>2019-12-12T08:23:38Z</time>
      </trkpt>
      <trkpt lat="46.79943" lon="5.80994">
        <ele>550.4</ele>
        <time>2019-12-12T08:23:42Z</time>
      </trkpt>
      <trkpt lat="46.79945" lon="5.80988">
        <ele>549.9</ele>
        <time>2019-12-12T08:23:48Z</time>
      </trkpt>
      <trkpt lat="46.79945" lon="5.8098">
        <ele>549.8</ele>
        <time>2019-12-12T08:23:54Z</time>
      </trkpt>
      <trkpt lat="46.79944" lon="5.80972">
        <ele>550</ele>
        <time>2019-12-12T08:23:59Z</time>
      </trkpt>
      <trkpt lat="46.79943" lon="5.80965">
        <ele>550.2</ele>
        <time>2019-12-12T08:24:04Z</time>
      </trkpt>
      <trkpt lat="46.79944" lon="5.80958">
        <ele>550.2</ele>
        <time>2019-12-12T08:24:10Z</time>
      </trkpt>
      <trkpt lat="46.79943" lon="5.8095">
        <ele>550</ele>
        <time>2019-12-12T08:24:15Z</time>
      </trkpt>
      <trkpt lat="46.79942" lon="5.80943">
        <ele>549.9</ele>
        <time>2019-12-12T08:24:19Z</time>
      </trkpt>
      <trkpt lat="46.79941" lon="5.80936">
        <ele>549.9</ele>
        <time>2019-12-12T08:24:24Z</time>
      </trkpt>
      <trkpt lat="46.79941" lon="5.80929">
        <ele>549.9</ele>
        <time>2019-12-12T08:24:30Z</time>
      </trkpt>
      <trkpt lat="46.79939" lon="5.80922">
        <ele>550</ele>
        <time>2019-12-12T08:24:36Z</time>
      </trkpt>
      <trkpt lat="46.79939" lon="5.80915">
        <ele>550.2</ele>
        <time>2019-12-12T08:24:42Z</time>
      </trkpt>
      <trkpt lat="46.79939" lon="5.80908">
        <ele>550.4</ele>
        <time>2019-12-12T08:24:47Z</time>
      </trkpt>
      <trkpt lat="46.79938" lon="5.809">
        <ele>550.6</ele>
        <time>2019-12-12T08:24:52Z</time>
      </trkpt>
      <trkpt lat="46.79937" lon="5.80893">
        <ele>550.6</ele>
        <time>2019-12-12T08:24:56Z</time>
      </trkpt>
      <trkpt lat="46.79935" lon="5.80886">
        <ele>550.4</ele>
        <time>2019-12-12T08:25:01Z</time>
      </trkpt>
      <trkpt lat="46.79932" lon="5.80879">
        <ele>550.4</ele>
        <time>2019-12-12T08:25:06Z</time>
      </trkpt>
      <trkpt lat="46.79928" lon="5.80874">
        <ele>550.4</ele>
        <time>2019-12-12T08:25:11Z</time>
      </trkpt>
      <trkpt lat="46.79925" lon="5.80869">
        <ele>550.4</ele>
        <time>2019-12-12T08:25:17Z</time>
      </trkpt>
      <trkpt lat="46.79924" lon="5.80863">
        <ele>550.6</ele>
        <time>2019-12-12T08:25:24Z</time>
      </trkpt>
      <trkpt lat="46.79925" lon="5.80856">
        <ele>550.2</ele>
        <time>2019-12-12T08:25:48Z</time>
      </trkpt>
      <trkpt lat="46.79923" lon="5.80864">
        <ele>556.2</ele>
        <time>2019-12-12T08:30:48Z</time>
      </trkpt>
      <trkpt lat="46.79921" lon="5.8087">
        <ele>556.4</ele>
        <time>2019-12-12T08:30:52Z</time>
      </trkpt>
      <trkpt lat="46.79919" lon="5.80877">
        <ele>556.9</ele>
        <time>2019-12-12T08:30:56Z</time>
      </trkpt>
      <trkpt lat="46.79919" lon="5.80871">
        <ele>558</ele>
        <time>2019-12-12T08:31:43Z</time>
      </trkpt>
      <trkpt lat="46.79921" lon="5.80866">
        <ele>557.2</ele>
        <time>2019-12-12T08:31:56Z</time>
      </trkpt>
      <trkpt lat="46.79925" lon="5.80864">
        <ele>558</ele>
        <time>2019-12-12T08:32:06Z</time>
      </trkpt>
      <trkpt lat="46.79923" lon="5.80853">
        <ele>556.5</ele>
        <time>2019-12-12T08:34:07Z</time>
      </trkpt>
      <trkpt lat="46.79918" lon="5.80851">
        <ele>556.8</ele>
        <time>2019-12-12T08:34:12Z</time>
      </trkpt>
      <trkpt lat="46.79906" lon="5.80846">
        <ele>557.5</ele>
        <time>2019-12-12T08:34:20Z</time>
      </trkpt>
      <trkpt lat="46.79902" lon="5.8084">
        <ele>557.6</ele>
        <time>2019-12-12T08:34:23Z</time>
      </trkpt>
      <trkpt lat="46.799" lon="5.80834">
        <ele>557.7</ele>
        <time>2019-12-12T08:34:28Z</time>
      </trkpt>
      <trkpt lat="46.799" lon="5.80826">
        <ele>557.6</ele>
        <time>2019-12-12T08:34:34Z</time>
      </trkpt>
      <trkpt lat="46.79901" lon="5.80819">
        <ele>557.4</ele>
        <time>2019-12-12T08:34:38Z</time>
      </trkpt>
      <trkpt lat="46.79901" lon="5.80812">
        <ele>556.9</ele>
        <time>2019-12-12T08:34:44Z</time>
      </trkpt>
      <trkpt lat="46.79903" lon="5.80804">
        <ele>555.7</ele>
        <time>2019-12-12T08:34:56Z</time>
      </trkpt>
      <trkpt lat="46.79907" lon="5.80799">
        <ele>556.1</ele>
        <time>2019-12-12T08:35:06Z</time>
      </trkpt>
      <trkpt lat="46.79911" lon="5.80797">
        <ele>556.6</ele>
        <time>2019-12-12T08:35:11Z</time>
      </trkpt>
      <trkpt lat="46.79916" lon="5.80796">
        <ele>557.1</ele>
        <time>2019-12-12T08:35:17Z</time>
      </trkpt>
      <trkpt lat="46.79921" lon="5.80794">
        <ele>557.5</ele>
        <time>2019-12-12T08:35:21Z</time>
      </trkpt>
      <trkpt lat="46.79926" lon="5.80793">
        <ele>558</ele>
        <time>2019-12-12T08:35:25Z</time>
      </trkpt>
      <trkpt lat="46.79932" lon="5.80791">
        <ele>558.4</ele>
        <time>2019-12-12T08:35:30Z</time>
      </trkpt>
      <trkpt lat="46.79936" lon="5.80789">
        <ele>558.8</ele>
        <time>2019-12-12T08:35:36Z</time>
      </trkpt>
      <trkpt lat="46.79941" lon="5.80786">
        <ele>558.8</ele>
        <time>2019-12-12T08:35:41Z</time>
      </trkpt>
      <trkpt lat="46.79947" lon="5.80786">
        <ele>558.9</ele>
        <time>2019-12-12T08:35:49Z</time>
      </trkpt>
      <trkpt lat="46.79953" lon="5.80784">
        <ele>559</ele>
        <time>2019-12-12T08:35:53Z</time>
      </trkpt>
      <trkpt lat="46.79958" lon="5.80781">
        <ele>559.2</ele>
        <time>2019-12-12T08:35:57Z</time>
      </trkpt>
      <trkpt lat="46.79963" lon="5.80779">
        <ele>559.8</ele>
        <time>2019-12-12T08:36:04Z</time>
      </trkpt>
      <trkpt lat="46.79968" lon="5.8078">
        <ele>560.1</ele>
        <time>2019-12-12T08:36:10Z</time>
      </trkpt>
      <trkpt lat="46.79972" lon="5.80779">
        <ele>560.3</ele>
        <time>2019-12-12T08:36:13Z</time>
      </trkpt>
      <trkpt lat="46.79977" lon="5.80778">
        <ele>560.4</ele>
        <time>2019-12-12T08:36:17Z</time>
      </trkpt>
      <trkpt lat="46.79983" lon="5.80777">
        <ele>560.5</ele>
        <time>2019-12-12T08:36:21Z</time>
      </trkpt>
      <trkpt lat="46.79988" lon="5.80775">
        <ele>560.7</ele>
        <time>2019-12-12T08:36:25Z</time>
      </trkpt>
      <trkpt lat="46.79993" lon="5.80774">
        <ele>563.9</ele>
        <time>2019-12-12T08:37:03Z</time>
      </trkpt>
      <trkpt lat="46.79999" lon="5.80774">
        <ele>564</ele>
        <time>2019-12-12T08:37:07Z</time>
      </trkpt>
      <trkpt lat="46.80004" lon="5.80774">
        <ele>563.9</ele>
        <time>2019-12-12T08:37:10Z</time>
      </trkpt>
      <trkpt lat="46.80009" lon="5.80775">
        <ele>563.6</ele>
        <time>2019-12-12T08:37:14Z</time>
      </trkpt>
      <trkpt lat="46.80014" lon="5.80777">
        <ele>563</ele>
        <time>2019-12-12T08:37:19Z</time>
      </trkpt>
      <trkpt lat="46.8002" lon="5.80776">
        <ele>562.3</ele>
        <time>2019-12-12T08:37:24Z</time>
      </trkpt>
      <trkpt lat="46.80024" lon="5.80776">
        <ele>561.8</ele>
        <time>2019-12-12T08:37:28Z</time>
      </trkpt>
      <trkpt lat="46.80029" lon="5.80775">
        <ele>561.2</ele>
        <time>2019-12-12T08:37:32Z</time>
      </trkpt>
      <trkpt lat="46.80035" lon="5.80774">
        <ele>560.7</ele>
        <time>2019-12-12T08:37:36Z</time>
      </trkpt>
      <trkpt lat="46.8004" lon="5.80774">
        <ele>560.4</ele>
        <time>2019-12-12T08:37:39Z</time>
      </trkpt>
      <trkpt lat="46.80045" lon="5.80775">
        <ele>560.2</ele>
        <time>2019-12-12T08:37:42Z</time>
      </trkpt>
      <trkpt lat="46.8005" lon="5.80774">
        <ele>560</ele>
        <time>2019-12-12T08:37:46Z</time>
      </trkpt>
      <trkpt lat="46.80055" lon="5.80773">
        <ele>560</ele>
        <time>2019-12-12T08:37:50Z</time>
      </trkpt>
      <trkpt lat="46.8006" lon="5.80771">
        <ele>559.9</ele>
        <time>2019-12-12T08:37:54Z</time>
      </trkpt>
      <trkpt lat="46.80065" lon="5.80771">
        <ele>560</ele>
        <time>2019-12-12T08:37:59Z</time>
      </trkpt>
      <trkpt lat="46.8007" lon="5.80771">
        <ele>559.9</ele>
        <time>2019-12-12T08:38:05Z</time>
      </trkpt>
      <trkpt lat="46.80075" lon="5.80771">
        <ele>559.7</ele>
        <time>2019-12-12T08:38:10Z</time>
      </trkpt>
      <trkpt lat="46.8008" lon="5.80769">
        <ele>559.5</ele>
        <time>2019-12-12T08:38:14Z</time>
      </trkpt>
      <trkpt lat="46.80085" lon="5.80768">
        <ele>559</ele>
        <time>2019-12-12T08:38:19Z</time>
      </trkpt>
      <trkpt lat="46.8009" lon="5.80765">
        <ele>558.7</ele>
        <time>2019-12-12T08:38:22Z</time>
      </trkpt>
      <trkpt lat="46.80084" lon="5.80768">
        <ele>557.4</ele>
        <time>2019-12-12T08:38:37Z</time>
      </trkpt>
      <trkpt lat="46.80078" lon="5.8077">
        <ele>557</ele>
        <time>2019-12-12T08:38:41Z</time>
      </trkpt>
      <trkpt lat="46.80073" lon="5.80774">
        <ele>556.7</ele>
        <time>2019-12-12T08:38:44Z</time>
      </trkpt>
      <trkpt lat="46.80068" lon="5.80776">
        <ele>556.5</ele>
        <time>2019-12-12T08:38:47Z</time>
      </trkpt>
      <trkpt lat="46.80063" lon="5.80777">
        <ele>556.2</ele>
        <time>2019-12-12T08:38:51Z</time>
      </trkpt>
      <trkpt lat="46.80058" lon="5.80779">
        <ele>556.2</ele>
        <time>2019-12-12T08:38:54Z</time>
      </trkpt>
      <trkpt lat="46.80053" lon="5.80779">
        <ele>556.1</ele>
        <time>2019-12-12T08:38:57Z</time>
      </trkpt>
      <trkpt lat="46.80049" lon="5.80779">
        <ele>556</ele>
        <time>2019-12-12T08:39:01Z</time>
      </trkpt>
      <trkpt lat="46.80044" lon="5.80779">
        <ele>555.9</ele>
        <time>2019-12-12T08:39:06Z</time>
      </trkpt>
      <trkpt lat="46.80039" lon="5.80778">
        <ele>555.8</ele>
        <time>2019-12-12T08:39:09Z</time>
      </trkpt>
      <trkpt lat="46.80034" lon="5.80777">
        <ele>555.6</ele>
        <time>2019-12-12T08:39:12Z</time>
      </trkpt>
      <trkpt lat="46.80029" lon="5.80776">
        <ele>555.1</ele>
        <time>2019-12-12T08:39:16Z</time>
      </trkpt>
      <trkpt lat="46.80023" lon="5.80775">
        <ele>554.5</ele>
        <time>2019-12-12T08:39:20Z</time>
      </trkpt>
      <trkpt lat="46.80018" lon="5.80775">
        <ele>553.9</ele>
        <time>2019-12-12T08:39:25Z</time>
      </trkpt>
      <trkpt lat="46.80013" lon="5.80776">
        <ele>553.4</ele>
        <time>2019-12-12T08:39:29Z</time>
      </trkpt>
      <trkpt lat="46.80008" lon="5.80777">
        <ele>552.9</ele>
        <time>2019-12-12T08:39:33Z</time>
      </trkpt>
      <trkpt lat="46.80003" lon="5.80776">
        <ele>552.5</ele>
        <time>2019-12-12T08:39:37Z</time>
      </trkpt>
      <trkpt lat="46.79998" lon="5.80775">
        <ele>551.9</ele>
        <time>2019-12-12T08:39:42Z</time>
      </trkpt>
      <trkpt lat="46.79994" lon="5.80771">
        <ele>551.4</ele>
        <time>2019-12-12T08:39:47Z</time>
      </trkpt>
      <trkpt lat="46.79993" lon="5.80764">
        <ele>551.1</ele>
        <time>2019-12-12T08:39:53Z</time>
      </trkpt>
      <trkpt lat="46.79996" lon="5.80758">
        <ele>550.9</ele>
        <time>2019-12-12T08:39:58Z</time>
      </trkpt>
      <trkpt lat="46.79999" lon="5.80752">
        <ele>550.6</ele>
        <time>2019-12-12T08:40:04Z</time>
      </trkpt>
      <trkpt lat="46.8" lon="5.80745">
        <ele>550.3</ele>
        <time>2019-12-12T08:40:08Z</time>
      </trkpt>
      <trkpt lat="46.80001" lon="5.80737">
        <ele>550.1</ele>
        <time>2019-12-12T08:40:11Z</time>
      </trkpt>
      <trkpt lat="46.80002" lon="5.80731">
        <ele>549.7</ele>
        <time>2019-12-12T08:40:15Z</time>
      </trkpt>
      <trkpt lat="46.80006" lon="5.80724">
        <ele>549.5</ele>
        <time>2019-12-12T08:40:20Z</time>
      </trkpt>
      <trkpt lat="46.80011" lon="5.80719">
        <ele>549.4</ele>
        <time>2019-12-12T08:40:25Z</time>
      </trkpt>
      <trkpt lat="46.80015" lon="5.80715">
        <ele>549.5</ele>
        <time>2019-12-12T08:40:28Z</time>
      </trkpt>
      <trkpt lat="46.80018" lon="5.80709">
        <ele>549.5</ele>
        <time>2019-12-12T08:40:34Z</time>
      </trkpt>
      <trkpt lat="46.80019" lon="5.80702">
        <ele>549.5</ele>
        <time>2019-12-12T08:40:38Z</time>
      </trkpt>
      <trkpt lat="46.80021" lon="5.80695">
        <ele>549.5</ele>
        <time>2019-12-12T08:40:43Z</time>
      </trkpt>
      <trkpt lat="46.80021" lon="5.80688">
        <ele>549.6</ele>
        <time>2019-12-12T08:40:48Z</time>
      </trkpt>
      <trkpt lat="46.80019" lon="5.8068">
        <ele>549.7</ele>
        <time>2019-12-12T08:40:53Z</time>
      </trkpt>
      <trkpt lat="46.80018" lon="5.80673">
        <ele>550</ele>
        <time>2019-12-12T08:40:58Z</time>
      </trkpt>
      <trkpt lat="46.80015" lon="5.80667">
        <ele>550.8</ele>
        <time>2019-12-12T08:41:04Z</time>
      </trkpt>
      <trkpt lat="46.80016" lon="5.8066">
        <ele>551.6</ele>
        <time>2019-12-12T08:41:09Z</time>
      </trkpt>
      <trkpt lat="46.80016" lon="5.80652">
        <ele>552.6</ele>
        <time>2019-12-12T08:41:15Z</time>
      </trkpt>
      <trkpt lat="46.80014" lon="5.80645">
        <ele>553.5</ele>
        <time>2019-12-12T08:41:21Z</time>
      </trkpt>
      <trkpt lat="46.80013" lon="5.80639">
        <ele>554.1</ele>
        <time>2019-12-12T08:41:27Z</time>
      </trkpt>
      <trkpt lat="46.80012" lon="5.80632">
        <ele>554.1</ele>
        <time>2019-12-12T08:41:33Z</time>
      </trkpt>
      <trkpt lat="46.8001" lon="5.80626">
        <ele>553.6</ele>
        <time>2019-12-12T08:41:40Z</time>
      </trkpt>
      <trkpt lat="46.80009" lon="5.80619">
        <ele>553.3</ele>
        <time>2019-12-12T08:41:47Z</time>
      </trkpt>
      <trkpt lat="46.80009" lon="5.80613">
        <ele>553.1</ele>
        <time>2019-12-12T08:41:54Z</time>
      </trkpt>
      <trkpt lat="46.80006" lon="5.80607">
        <ele>552.7</ele>
        <time>2019-12-12T08:42:04Z</time>
      </trkpt>
      <trkpt lat="46.80007" lon="5.806">
        <ele>552.2</ele>
        <time>2019-12-12T08:42:10Z</time>
      </trkpt>
      <trkpt lat="46.80008" lon="5.80593">
        <ele>551.9</ele>
        <time>2019-12-12T08:42:14Z</time>
      </trkpt>
      <trkpt lat="46.80009" lon="5.80586">
        <ele>551.7</ele>
        <time>2019-12-12T08:42:19Z</time>
      </trkpt>
      <trkpt lat="46.80008" lon="5.80579">
        <ele>551.8</ele>
        <time>2019-12-12T08:42:24Z</time>
      </trkpt>
      <trkpt lat="46.80007" lon="5.80571">
        <ele>552</ele>
        <time>2019-12-12T08:42:29Z</time>
      </trkpt>
      <trkpt lat="46.80007" lon="5.80565">
        <ele>552.2</ele>
        <time>2019-12-12T08:42:33Z</time>
      </trkpt>
      <trkpt lat="46.80007" lon="5.80558">
        <ele>552.7</ele>
        <time>2019-12-12T08:42:40Z</time>
      </trkpt>
      <trkpt lat="46.80009" lon="5.80551">
        <ele>552.8</ele>
        <time>2019-12-12T08:42:48Z</time>
      </trkpt>
      <trkpt lat="46.80008" lon="5.80544">
        <ele>552.7</ele>
        <time>2019-12-12T08:42:56Z</time>
      </trkpt>
      <trkpt lat="46.80007" lon="5.80537">
        <ele>552.7</ele>
        <time>2019-12-12T08:43:01Z</time>
      </trkpt>
      <trkpt lat="46.80007" lon="5.80531">
        <ele>552.4</ele>
        <time>2019-12-12T08:43:08Z</time>
      </trkpt>
      <trkpt lat="46.80008" lon="5.80524">
        <ele>551.9</ele>
        <time>2019-12-12T08:43:17Z</time>
      </trkpt>
      <trkpt lat="46.80007" lon="5.80517">
        <ele>551.7</ele>
        <time>2019-12-12T08:43:23Z</time>
      </trkpt>
      <trkpt lat="46.80007" lon="5.8051">
        <ele>551.8</ele>
        <time>2019-12-12T08:43:35Z</time>
      </trkpt>
      <trkpt lat="46.80008" lon="5.80503">
        <ele>551.6</ele>
        <time>2019-12-12T08:43:41Z</time>
      </trkpt>
      <trkpt lat="46.80009" lon="5.80495">
        <ele>551.5</ele>
        <time>2019-12-12T08:43:46Z</time>
      </trkpt>
      <trkpt lat="46.80008" lon="5.80489">
        <ele>551.4</ele>
        <time>2019-12-12T08:43:50Z</time>
      </trkpt>
      <trkpt lat="46.80006" lon="5.80483">
        <ele>551.2</ele>
        <time>2019-12-12T08:43:55Z</time>
      </trkpt>
      <trkpt lat="46.80009" lon="5.80477">
        <ele>550.7</ele>
        <time>2019-12-12T08:44:05Z</time>
      </trkpt>
      <trkpt lat="46.80005" lon="5.80473">
        <ele>549.9</ele>
        <time>2019-12-12T08:44:14Z</time>
      </trkpt>
      <trkpt lat="46.80003" lon="5.80467">
        <ele>548.8</ele>
        <time>2019-12-12T08:44:21Z</time>
      </trkpt>
      <trkpt lat="46.80001" lon="5.8046">
        <ele>547.6</ele>
        <time>2019-12-12T08:44:29Z</time>
      </trkpt>
      <trkpt lat="46.80002" lon="5.80454">
        <ele>546.4</ele>
        <time>2019-12-12T08:44:38Z</time>
      </trkpt>
      <trkpt lat="46.80002" lon="5.80447">
        <ele>544.8</ele>
        <time>2019-12-12T08:44:46Z</time>
      </trkpt>
      <trkpt lat="46.80003" lon="5.8044">
        <ele>542.4</ele>
        <time>2019-12-12T08:44:58Z</time>
      </trkpt>
      <trkpt lat="46.80003" lon="5.80433">
        <ele>540.2</ele>
        <time>2019-12-12T08:45:08Z</time>
      </trkpt>
      <trkpt lat="46.80002" lon="5.80425">
        <ele>539.3</ele>
        <time>2019-12-12T08:45:14Z</time>
      </trkpt>
      <trkpt lat="46.80001" lon="5.80416">
        <ele>539.3</ele>
        <time>2019-12-12T08:45:22Z</time>
      </trkpt>
      <trkpt lat="46.80003" lon="5.80405">
        <ele>540.5</ele>
        <time>2019-12-12T08:45:30Z</time>
      </trkpt>
      <trkpt lat="46.80002" lon="5.80397">
        <ele>541.1</ele>
        <time>2019-12-12T08:45:38Z</time>
      </trkpt>
      <trkpt lat="46.80002" lon="5.8039">
        <ele>541.5</ele>
        <time>2019-12-12T08:45:41Z</time>
      </trkpt>
      <trkpt lat="46.80003" lon="5.80383">
        <ele>542</ele>
        <time>2019-12-12T08:45:44Z</time>
      </trkpt>
      <trkpt lat="46.80002" lon="5.80374">
        <ele>543.3</ele>
        <time>2019-12-12T08:45:50Z</time>
      </trkpt>
      <trkpt lat="46.80001" lon="5.80366">
        <ele>544.3</ele>
        <time>2019-12-12T08:45:55Z</time>
      </trkpt>
      <trkpt lat="46.80001" lon="5.80359">
        <ele>545.4</ele>
        <time>2019-12-12T08:46:01Z</time>
      </trkpt>
      <trkpt lat="46.80002" lon="5.80352">
        <ele>546.3</ele>
        <time>2019-12-12T08:46:09Z</time>
      </trkpt>
      <trkpt lat="46.80002" lon="5.80346">
        <ele>546.6</ele>
        <time>2019-12-12T08:46:20Z</time>
      </trkpt>
      <trkpt lat="46.8" lon="5.80338">
        <ele>546.7</ele>
        <time>2019-12-12T08:46:27Z</time>
      </trkpt>
      <trkpt lat="46.8" lon="5.80332">
        <ele>546.4</ele>
        <time>2019-12-12T08:46:35Z</time>
      </trkpt>
      <trkpt lat="46.79999" lon="5.80325">
        <ele>545.9</ele>
        <time>2019-12-12T08:46:41Z</time>
      </trkpt>
      <trkpt lat="46.8" lon="5.80318">
        <ele>545.7</ele>
        <time>2019-12-12T08:46:45Z</time>
      </trkpt>
      <trkpt lat="46.8" lon="5.80311">
        <ele>545.8</ele>
        <time>2019-12-12T08:46:50Z</time>
      </trkpt>
      <trkpt lat="46.8" lon="5.80304">
        <ele>546.1</ele>
        <time>2019-12-12T08:46:55Z</time>
      </trkpt>
      <trkpt lat="46.8" lon="5.80297">
        <ele>546.6</ele>
        <time>2019-12-12T08:47:02Z</time>
      </trkpt>
      <trkpt lat="46.8" lon="5.80288">
        <ele>546.9</ele>
        <time>2019-12-12T08:47:09Z</time>
      </trkpt>
      <trkpt lat="46.8" lon="5.80281">
        <ele>547.2</ele>
        <time>2019-12-12T08:47:15Z</time>
      </trkpt>
      <trkpt lat="46.79999" lon="5.80274">
        <ele>547.3</ele>
        <time>2019-12-12T08:47:23Z</time>
      </trkpt>
      <trkpt lat="46.79997" lon="5.80268">
        <ele>547.4</ele>
        <time>2019-12-12T08:47:33Z</time>
      </trkpt>
      <trkpt lat="46.79995" lon="5.80261">
        <ele>547.5</ele>
        <time>2019-12-12T08:47:39Z</time>
      </trkpt>
      <trkpt lat="46.79997" lon="5.80254">
        <ele>547.5</ele>
        <time>2019-12-12T08:47:44Z</time>
      </trkpt>
      <trkpt lat="46.79997" lon="5.80248">
        <ele>547.3</ele>
        <time>2019-12-12T08:47:49Z</time>
      </trkpt>
      <trkpt lat="46.79996" lon="5.8024">
        <ele>547.1</ele>
        <time>2019-12-12T08:47:55Z</time>
      </trkpt>
      <trkpt lat="46.79997" lon="5.80233">
        <ele>547.2</ele>
        <time>2019-12-12T08:48:01Z</time>
      </trkpt>
      <trkpt lat="46.79997" lon="5.80227">
        <ele>547.1</ele>
        <time>2019-12-12T08:48:09Z</time>
      </trkpt>
      <trkpt lat="46.79997" lon="5.80219">
        <ele>547</ele>
        <time>2019-12-12T08:48:13Z</time>
      </trkpt>
      <trkpt lat="46.79997" lon="5.80213">
        <ele>547</ele>
        <time>2019-12-12T08:48:16Z</time>
      </trkpt>
      <trkpt lat="46.79996" lon="5.80206">
        <ele>547.1</ele>
        <time>2019-12-12T08:48:23Z</time>
      </trkpt>
      <trkpt lat="46.79998" lon="5.80198">
        <ele>547.6</ele>
        <time>2019-12-12T08:48:31Z</time>
      </trkpt>
      <trkpt lat="46.79999" lon="5.80192">
        <ele>548</ele>
        <time>2019-12-12T08:48:37Z</time>
      </trkpt>
      <trkpt lat="46.8" lon="5.80185">
        <ele>548.7</ele>
        <time>2019-12-12T08:48:45Z</time>
      </trkpt>
      <trkpt lat="46.80004" lon="5.80182">
        <ele>549.1</ele>
        <time>2019-12-12T08:48:51Z</time>
      </trkpt>
      <trkpt lat="46.80009" lon="5.80181">
        <ele>549.4</ele>
        <time>2019-12-12T08:48:57Z</time>
      </trkpt>
      <trkpt lat="46.80013" lon="5.80184">
        <ele>549.8</ele>
        <time>2019-12-12T08:49:07Z</time>
      </trkpt>
      <trkpt lat="46.80016" lon="5.8019">
        <ele>550.4</ele>
        <time>2019-12-12T08:49:14Z</time>
      </trkpt>
      <trkpt lat="46.80018" lon="5.80196">
        <ele>551</ele>
        <time>2019-12-12T08:49:20Z</time>
      </trkpt>
      <trkpt lat="46.8002" lon="5.80202">
        <ele>551.9</ele>
        <time>2019-12-12T08:49:29Z</time>
      </trkpt>
      <trkpt lat="46.80021" lon="5.80209">
        <ele>553.2</ele>
        <time>2019-12-12T08:49:39Z</time>
      </trkpt>
      <trkpt lat="46.80021" lon="5.80216">
        <ele>553.8</ele>
        <time>2019-12-12T08:49:45Z</time>
      </trkpt>
      <trkpt lat="46.80024" lon="5.80221">
        <ele>554.2</ele>
        <time>2019-12-12T08:49:52Z</time>
      </trkpt>
      <trkpt lat="46.8003" lon="5.80226">
        <ele>554.3</ele>
        <time>2019-12-12T08:49:55Z</time>
      </trkpt>
      <trkpt lat="46.80033" lon="5.8023">
        <ele>554.5</ele>
        <time>2019-12-12T08:50:01Z</time>
      </trkpt>
      <trkpt lat="46.80038" lon="5.80233">
        <ele>555.2</ele>
        <time>2019-12-12T08:50:17Z</time>
      </trkpt>
      <trkpt lat="46.80042" lon="5.80236">
        <ele>556</ele>
        <time>2019-12-12T08:50:30Z</time>
      </trkpt>
      <trkpt lat="46.80045" lon="5.80241">
        <ele>557.4</ele>
        <time>2019-12-12T08:50:44Z</time>
      </trkpt>
      <trkpt lat="46.80055" lon="5.80236">
        <ele>557.9</ele>
        <time>2019-12-12T08:51:06Z</time>
      </trkpt>
      <trkpt lat="46.80048" lon="5.80233">
        <ele>556.5</ele>
        <time>2019-12-12T08:52:33Z</time>
      </trkpt>
      <trkpt lat="46.80044" lon="5.80235">
        <ele>556.4</ele>
        <time>2019-12-12T08:52:37Z</time>
      </trkpt>
      <trkpt lat="46.80047" lon="5.80233">
        <ele>557.9</ele>
        <time>2019-12-12T08:54:27Z</time>
      </trkpt>
      <trkpt lat="46.80048" lon="5.80227">
        <ele>560.1</ele>
        <time>2019-12-12T08:54:52Z</time>
      </trkpt>
      <trkpt lat="46.80052" lon="5.80222">
        <ele>559.8</ele>
        <time>2019-12-12T08:54:59Z</time>
      </trkpt>
      <trkpt lat="46.80062" lon="5.80224">
        <ele>558.1</ele>
        <time>2019-12-12T08:55:16Z</time>
      </trkpt>
      <trkpt lat="46.80067" lon="5.80224">
        <ele>557.7</ele>
        <time>2019-12-12T08:55:20Z</time>
      </trkpt>
      <trkpt lat="46.80071" lon="5.80224">
        <ele>556.2</ele>
        <time>2019-12-12T08:55:32Z</time>
      </trkpt>
      <trkpt lat="46.8008" lon="5.80222">
        <ele>550.5</ele>
        <time>2019-12-12T08:57:16Z</time>
      </trkpt>
      <trkpt lat="46.80076" lon="5.80217">
        <ele>549.2</ele>
        <time>2019-12-12T08:57:25Z</time>
      </trkpt>
      <trkpt lat="46.80072" lon="5.8021">
        <ele>548.9</ele>
        <time>2019-12-12T08:57:29Z</time>
      </trkpt>
      <trkpt lat="46.80075" lon="5.80194">
        <ele>549.4</ele>
        <time>2019-12-12T08:58:03Z</time>
      </trkpt>
      <trkpt lat="46.80078" lon="5.80188">
        <ele>549.6</ele>
        <time>2019-12-12T08:58:07Z</time>
      </trkpt>
      <trkpt lat="46.8008" lon="5.80183">
        <ele>549.9</ele>
        <time>2019-12-12T08:58:11Z</time>
      </trkpt>
      <trkpt lat="46.80084" lon="5.80176">
        <ele>549.9</ele>
        <time>2019-12-12T08:58:15Z</time>
      </trkpt>
      <trkpt lat="46.80087" lon="5.80172">
        <ele>549.8</ele>
        <time>2019-12-12T08:58:21Z</time>
      </trkpt>
      <trkpt lat="46.8009" lon="5.80166">
        <ele>549.3</ele>
        <time>2019-12-12T08:58:35Z</time>
      </trkpt>
      <trkpt lat="46.80093" lon="5.8016">
        <ele>549</ele>
        <time>2019-12-12T08:58:39Z</time>
      </trkpt>
      <trkpt lat="46.80094" lon="5.80153">
        <ele>548.5</ele>
        <time>2019-12-12T08:58:43Z</time>
      </trkpt>
      <trkpt lat="46.80096" lon="5.80147">
        <ele>548.2</ele>
        <time>2019-12-12T08:58:46Z</time>
      </trkpt>
      <trkpt lat="46.80098" lon="5.8014">
        <ele>547.9</ele>
        <time>2019-12-12T08:58:49Z</time>
      </trkpt>
      <trkpt lat="46.80099" lon="5.80134">
        <ele>547.6</ele>
        <time>2019-12-12T08:58:52Z</time>
      </trkpt>
      <trkpt lat="46.801" lon="5.80127">
        <ele>547</ele>
        <time>2019-12-12T08:58:57Z</time>
      </trkpt>
      <trkpt lat="46.80102" lon="5.8012">
        <ele>546.6</ele>
        <time>2019-12-12T08:59:03Z</time>
      </trkpt>
      <trkpt lat="46.80106" lon="5.80118">
        <ele>545.7</ele>
        <time>2019-12-12T08:59:23Z</time>
      </trkpt>
      <trkpt lat="46.80111" lon="5.8012">
        <ele>545.6</ele>
        <time>2019-12-12T08:59:33Z</time>
      </trkpt>
      <trkpt lat="46.80116" lon="5.80122">
        <ele>545.4</ele>
        <time>2019-12-12T08:59:38Z</time>
      </trkpt>
      <trkpt lat="46.8012" lon="5.80124">
        <ele>545.1</ele>
        <time>2019-12-12T08:59:43Z</time>
      </trkpt>
      <trkpt lat="46.80125" lon="5.80122">
        <ele>544.8</ele>
        <time>2019-12-12T08:59:49Z</time>
      </trkpt>
      <trkpt lat="46.80129" lon="5.80119">
        <ele>544.6</ele>
        <time>2019-12-12T08:59:56Z</time>
      </trkpt>
      <trkpt lat="46.80132" lon="5.80113">
        <ele>544.6</ele>
        <time>2019-12-12T09:00:03Z</time>
      </trkpt>
      <trkpt lat="46.80135" lon="5.80109">
        <ele>544.6</ele>
        <time>2019-12-12T09:00:06Z</time>
      </trkpt>
      <trkpt lat="46.80139" lon="5.80103">
        <ele>544.5</ele>
        <time>2019-12-12T09:00:09Z</time>
      </trkpt>
      <trkpt lat="46.80142" lon="5.80098">
        <ele>544.4</ele>
        <time>2019-12-12T09:00:12Z</time>
      </trkpt>
      <trkpt lat="46.80146" lon="5.80094">
        <ele>544.4</ele>
        <time>2019-12-12T09:00:20Z</time>
      </trkpt>
      <trkpt lat="46.8015" lon="5.8009">
        <ele>544.9</ele>
        <time>2019-12-12T09:00:37Z</time>
      </trkpt>
      <trkpt lat="46.80154" lon="5.80087">
        <ele>545</ele>
        <time>2019-12-12T09:00:48Z</time>
      </trkpt>
      <trkpt lat="46.80158" lon="5.80084">
        <ele>545.4</ele>
        <time>2019-12-12T09:00:57Z</time>
      </trkpt>
      <trkpt lat="46.80163" lon="5.80081">
        <ele>545.6</ele>
        <time>2019-12-12T09:01:00Z</time>
      </trkpt>
      <trkpt lat="46.80168" lon="5.80078">
        <ele>545.9</ele>
        <time>2019-12-12T09:01:04Z</time>
      </trkpt>
      <trkpt lat="46.80173" lon="5.80076">
        <ele>546.1</ele>
        <time>2019-12-12T09:01:08Z</time>
      </trkpt>
      <trkpt lat="46.80183" lon="5.80071">
        <ele>548.2</ele>
        <time>2019-12-12T09:01:23Z</time>
      </trkpt>
      <trkpt lat="46.80188" lon="5.80068">
        <ele>549.1</ele>
        <time>2019-12-12T09:01:30Z</time>
      </trkpt>
      <trkpt lat="46.80197" lon="5.80052">
        <ele>550.9</ele>
        <time>2019-12-12T09:01:52Z</time>
      </trkpt>
      <trkpt lat="46.80202" lon="5.80049">
        <ele>550.5</ele>
        <time>2019-12-12T09:02:03Z</time>
      </trkpt>
      <trkpt lat="46.80205" lon="5.80045">
        <ele>549.5</ele>
        <time>2019-12-12T09:02:13Z</time>
      </trkpt>
      <trkpt lat="46.8021" lon="5.80046">
        <ele>549.1</ele>
        <time>2019-12-12T09:02:21Z</time>
      </trkpt>
      <trkpt lat="46.80206" lon="5.8004">
        <ele>546.1</ele>
        <time>2019-12-12T09:02:43Z</time>
      </trkpt>
      <trkpt lat="46.80202" lon="5.80025">
        <ele>544.8</ele>
        <time>2019-12-12T09:03:02Z</time>
      </trkpt>
      <trkpt lat="46.80204" lon="5.80019">
        <ele>544.4</ele>
        <time>2019-12-12T09:03:12Z</time>
      </trkpt>
      <trkpt lat="46.80209" lon="5.80017">
        <ele>543.5</ele>
        <time>2019-12-12T09:03:22Z</time>
      </trkpt>
      <trkpt lat="46.80213" lon="5.80014">
        <ele>543.2</ele>
        <time>2019-12-12T09:03:37Z</time>
      </trkpt>
      <trkpt lat="46.80215" lon="5.79997">
        <ele>542.5</ele>
        <time>2019-12-12T09:03:52Z</time>
      </trkpt>
      <trkpt lat="46.80218" lon="5.7999">
        <ele>542.5</ele>
        <time>2019-12-12T09:03:57Z</time>
      </trkpt>
      <trkpt lat="46.8022" lon="5.79984">
        <ele>542.4</ele>
        <time>2019-12-12T09:04:04Z</time>
      </trkpt>
      <trkpt lat="46.80221" lon="5.79977">
        <ele>542.5</ele>
        <time>2019-12-12T09:04:10Z</time>
      </trkpt>
      <trkpt lat="46.80223" lon="5.7997">
        <ele>542.8</ele>
        <time>2019-12-12T09:04:17Z</time>
      </trkpt>
      <trkpt lat="46.80226" lon="5.79964">
        <ele>543.1</ele>
        <time>2019-12-12T09:04:24Z</time>
      </trkpt>
      <trkpt lat="46.80236" lon="5.79953">
        <ele>543.9</ele>
        <time>2019-12-12T09:04:57Z</time>
      </trkpt>
      <trkpt lat="46.80241" lon="5.79949">
        <ele>543.9</ele>
        <time>2019-12-12T09:05:05Z</time>
      </trkpt>
      <trkpt lat="46.80245" lon="5.79947">
        <ele>544.2</ele>
        <time>2019-12-12T09:05:10Z</time>
      </trkpt>
      <trkpt lat="46.8025" lon="5.79943">
        <ele>544.4</ele>
        <time>2019-12-12T09:05:15Z</time>
      </trkpt>
      <trkpt lat="46.80254" lon="5.79938">
        <ele>544.6</ele>
        <time>2019-12-12T09:05:21Z</time>
      </trkpt>
      <trkpt lat="46.80257" lon="5.79933">
        <ele>545</ele>
        <time>2019-12-12T09:05:27Z</time>
      </trkpt>
      <trkpt lat="46.80262" lon="5.79931">
        <ele>545.4</ele>
        <time>2019-12-12T09:05:36Z</time>
      </trkpt>
      <trkpt lat="46.80266" lon="5.7993">
        <ele>545.9</ele>
        <time>2019-12-12T09:05:49Z</time>
      </trkpt>
      <trkpt lat="46.80266" lon="5.79923">
        <ele>545.9</ele>
        <time>2019-12-12T09:06:00Z</time>
      </trkpt>
      <trkpt lat="46.80265" lon="5.79916">
        <ele>545.7</ele>
        <time>2019-12-12T09:06:11Z</time>
      </trkpt>
      <trkpt lat="46.80263" lon="5.7991">
        <ele>545.7</ele>
        <time>2019-12-12T09:06:14Z</time>
      </trkpt>
      <trkpt lat="46.80261" lon="5.79904">
        <ele>546.2</ele>
        <time>2019-12-12T09:06:28Z</time>
      </trkpt>
      <trkpt lat="46.80256" lon="5.79905">
        <ele>547.9</ele>
        <time>2019-12-12T09:06:42Z</time>
      </trkpt>
      <trkpt lat="46.80263" lon="5.79884">
        <ele>554.4</ele>
        <time>2019-12-12T09:09:19Z</time>
      </trkpt>
      <trkpt lat="46.80266" lon="5.79879">
        <ele>553.1</ele>
        <time>2019-12-12T09:09:27Z</time>
      </trkpt>
      <trkpt lat="46.80268" lon="5.79873">
        <ele>552.5</ele>
        <time>2019-12-12T09:09:33Z</time>
      </trkpt>
      <trkpt lat="46.8027" lon="5.79867">
        <ele>552.4</ele>
        <time>2019-12-12T09:09:36Z</time>
      </trkpt>
      <trkpt lat="46.80274" lon="5.79859">
        <ele>552.3</ele>
        <time>2019-12-12T09:09:39Z</time>
      </trkpt>
      <trkpt lat="46.80277" lon="5.79854">
        <ele>552.3</ele>
        <time>2019-12-12T09:09:44Z</time>
      </trkpt>
      <trkpt lat="46.80281" lon="5.79852">
        <ele>552.8</ele>
        <time>2019-12-12T09:10:38Z</time>
      </trkpt>
      <trkpt lat="46.80286" lon="5.79849">
        <ele>552.9</ele>
        <time>2019-12-12T09:10:44Z</time>
      </trkpt>
      <trkpt lat="46.80291" lon="5.7985">
        <ele>553.4</ele>
        <time>2019-12-12T09:10:51Z</time>
      </trkpt>
      <trkpt lat="46.80296" lon="5.79849">
        <ele>553.8</ele>
        <time>2019-12-12T09:10:56Z</time>
      </trkpt>
      <trkpt lat="46.80301" lon="5.7985">
        <ele>554.1</ele>
        <time>2019-12-12T09:11:00Z</time>
      </trkpt>
      <trkpt lat="46.80305" lon="5.79852">
        <ele>554.5</ele>
        <time>2019-12-12T09:11:07Z</time>
      </trkpt>
      <trkpt lat="46.80311" lon="5.79851">
        <ele>554.6</ele>
        <time>2019-12-12T09:11:12Z</time>
      </trkpt>
      <trkpt lat="46.80316" lon="5.79851">
        <ele>554.4</ele>
        <time>2019-12-12T09:11:16Z</time>
      </trkpt>
      <trkpt lat="46.80321" lon="5.7985">
        <ele>553.7</ele>
        <time>2019-12-12T09:11:23Z</time>
      </trkpt>
      <trkpt lat="46.80325" lon="5.79847">
        <ele>553</ele>
        <time>2019-12-12T09:11:32Z</time>
      </trkpt>
      <trkpt lat="46.80329" lon="5.79844">
        <ele>551.9</ele>
        <time>2019-12-12T09:11:39Z</time>
      </trkpt>
      <trkpt lat="46.80335" lon="5.79844">
        <ele>551.2</ele>
        <time>2019-12-12T09:12:00Z</time>
      </trkpt>
      <trkpt lat="46.80342" lon="5.79841">
        <ele>555.4</ele>
        <time>2019-12-12T09:12:27Z</time>
      </trkpt>
      <trkpt lat="46.80355" lon="5.79838">
        <ele>555.9</ele>
        <time>2019-12-12T09:13:24Z</time>
      </trkpt>
      <trkpt lat="46.80361" lon="5.79836">
        <ele>556</ele>
        <time>2019-12-12T09:13:26Z</time>
      </trkpt>
      <trkpt lat="46.80365" lon="5.79834">
        <ele>556.2</ele>
        <time>2019-12-12T09:13:32Z</time>
      </trkpt>
      <trkpt lat="46.8037" lon="5.7983">
        <ele>557.3</ele>
        <time>2019-12-12T09:13:45Z</time>
      </trkpt>
      <trkpt lat="46.80375" lon="5.79826">
        <ele>557.5</ele>
        <time>2019-12-12T09:13:48Z</time>
      </trkpt>
      <trkpt lat="46.80379" lon="5.79825">
        <ele>558.1</ele>
        <time>2019-12-12T09:13:56Z</time>
      </trkpt>
      <trkpt lat="46.80427" lon="5.79805">
        <ele>554.6</ele>
        <time>2019-12-12T09:15:42Z</time>
      </trkpt>
      <trkpt lat="46.80431" lon="5.79808">
        <ele>554.5</ele>
        <time>2019-12-12T09:15:44Z</time>
      </trkpt>
      <trkpt lat="46.80443" lon="5.79803">
        <ele>554.1</ele>
        <time>2019-12-12T09:15:56Z</time>
      </trkpt>
      <trkpt lat="46.8046" lon="5.79801">
        <ele>554.1</ele>
        <time>2019-12-12T09:16:29Z</time>
      </trkpt>
      <trkpt lat="46.80466" lon="5.79799">
        <ele>553.9</ele>
        <time>2019-12-12T09:16:34Z</time>
      </trkpt>
      <trkpt lat="46.80475" lon="5.79791">
        <ele>553.5</ele>
        <time>2019-12-12T09:16:50Z</time>
      </trkpt>
      <trkpt lat="46.80485" lon="5.79787">
        <ele>553.2</ele>
        <time>2019-12-12T09:17:05Z</time>
      </trkpt>
      <trkpt lat="46.80492" lon="5.79786">
        <ele>553.1</ele>
        <time>2019-12-12T09:17:07Z</time>
      </trkpt>
      <trkpt lat="46.80499" lon="5.79784">
        <ele>553.1</ele>
        <time>2019-12-12T09:17:09Z</time>
      </trkpt>
      <trkpt lat="46.80521" lon="5.79787">
        <ele>553.6</ele>
        <time>2019-12-12T09:17:28Z</time>
      </trkpt>
      <trkpt lat="46.80535" lon="5.79786">
        <ele>554.8</ele>
        <time>2019-12-12T09:18:21Z</time>
      </trkpt>
      <trkpt lat="46.80542" lon="5.79785">
        <ele>554.5</ele>
        <time>2019-12-12T09:18:23Z</time>
      </trkpt>
      <trkpt lat="46.80546" lon="5.79784">
        <ele>553.8</ele>
        <time>2019-12-12T09:18:30Z</time>
      </trkpt>
      <trkpt lat="46.80556" lon="5.79781">
        <ele>554.9</ele>
        <time>2019-12-12T09:18:47Z</time>
      </trkpt>
      <trkpt lat="46.80561" lon="5.7978">
        <ele>555.1</ele>
        <time>2019-12-12T09:18:49Z</time>
      </trkpt>
      <trkpt lat="46.80566" lon="5.79779">
        <ele>555.8</ele>
        <time>2019-12-12T09:18:56Z</time>
      </trkpt>
      <trkpt lat="46.80574" lon="5.79777">
        <ele>557.6</ele>
        <time>2019-12-12T09:19:07Z</time>
      </trkpt>
      <trkpt lat="46.80592" lon="5.7977">
        <ele>560</ele>
        <time>2019-12-12T09:19:25Z</time>
      </trkpt>
      <trkpt lat="46.80597" lon="5.79768">
        <ele>560.6</ele>
        <time>2019-12-12T09:19:33Z</time>
      </trkpt>
      <trkpt lat="46.80603" lon="5.79762">
        <ele>561.6</ele>
        <time>2019-12-12T09:20:01Z</time>
      </trkpt>
      <trkpt lat="46.80609" lon="5.79761">
        <ele>563.2</ele>
        <time>2019-12-12T09:20:32Z</time>
      </trkpt>
      <trkpt lat="46.80613" lon="5.79761">
        <ele>563.2</ele>
        <time>2019-12-12T09:20:41Z</time>
      </trkpt>
      <trkpt lat="46.80618" lon="5.79759">
        <ele>563.1</ele>
        <time>2019-12-12T09:20:48Z</time>
      </trkpt>
      <trkpt lat="46.80623" lon="5.79759">
        <ele>563.2</ele>
        <time>2019-12-12T09:20:52Z</time>
      </trkpt>
      <trkpt lat="46.80627" lon="5.79757">
        <ele>563.4</ele>
        <time>2019-12-12T09:20:55Z</time>
      </trkpt>
      <trkpt lat="46.80632" lon="5.79758">
        <ele>563.6</ele>
        <time>2019-12-12T09:21:12Z</time>
      </trkpt>
      <trkpt lat="46.8064" lon="5.79756">
        <ele>563.1</ele>
        <time>2019-12-12T09:21:27Z</time>
      </trkpt>
      <trkpt lat="46.80644" lon="5.79755">
        <ele>562.9</ele>
        <time>2019-12-12T09:21:31Z</time>
      </trkpt>
      <trkpt lat="46.80649" lon="5.79752">
        <ele>562.6</ele>
        <time>2019-12-12T09:21:39Z</time>
      </trkpt>
      <trkpt lat="46.80664" lon="5.7975">
        <ele>561.5</ele>
        <time>2019-12-12T09:22:07Z</time>
      </trkpt>
      <trkpt lat="46.80669" lon="5.79749">
        <ele>561.4</ele>
        <time>2019-12-12T09:22:18Z</time>
      </trkpt>
      <trkpt lat="46.80686" lon="5.79773">
        <ele>563.6</ele>
        <time>2019-12-12T09:23:00Z</time>
      </trkpt>
      <trkpt lat="46.80688" lon="5.79781">
        <ele>563.3</ele>
        <time>2019-12-12T09:23:04Z</time>
      </trkpt>
      <trkpt lat="46.80696" lon="5.79809">
        <ele>561.5</ele>
        <time>2019-12-12T09:23:39Z</time>
      </trkpt>
      <trkpt lat="46.807" lon="5.79813">
        <ele>560.5</ele>
        <time>2019-12-12T09:23:56Z</time>
      </trkpt>
      <trkpt lat="46.80697" lon="5.79822">
        <ele>560.5</ele>
        <time>2019-12-12T09:24:03Z</time>
      </trkpt>
      <trkpt lat="46.80695" lon="5.79829">
        <ele>560.4</ele>
        <time>2019-12-12T09:24:07Z</time>
      </trkpt>
      <trkpt lat="46.80696" lon="5.79838">
        <ele>560.2</ele>
        <time>2019-12-12T09:24:11Z</time>
      </trkpt>
      <trkpt lat="46.80697" lon="5.79846">
        <ele>560.1</ele>
        <time>2019-12-12T09:24:14Z</time>
      </trkpt>
      <trkpt lat="46.80696" lon="5.79855">
        <ele>560.1</ele>
        <time>2019-12-12T09:24:18Z</time>
      </trkpt>
      <trkpt lat="46.80697" lon="5.79862">
        <ele>559.9</ele>
        <time>2019-12-12T09:24:22Z</time>
      </trkpt>
      <trkpt lat="46.80696" lon="5.79868">
        <ele>560.1</ele>
        <time>2019-12-12T09:24:33Z</time>
      </trkpt>
      <trkpt lat="46.80695" lon="5.79875">
        <ele>560.7</ele>
        <time>2019-12-12T09:24:39Z</time>
      </trkpt>
      <trkpt lat="46.80696" lon="5.79881">
        <ele>561.4</ele>
        <time>2019-12-12T09:24:45Z</time>
      </trkpt>
      <trkpt lat="46.80696" lon="5.79889">
        <ele>562.4</ele>
        <time>2019-12-12T09:24:53Z</time>
      </trkpt>
      <trkpt lat="46.80694" lon="5.79896">
        <ele>563</ele>
        <time>2019-12-12T09:25:01Z</time>
      </trkpt>
      <trkpt lat="46.80691" lon="5.79901">
        <ele>562.7</ele>
        <time>2019-12-12T09:25:08Z</time>
      </trkpt>
      <trkpt lat="46.80698" lon="5.79916">
        <ele>560.8</ele>
        <time>2019-12-12T09:25:21Z</time>
      </trkpt>
      <trkpt lat="46.80697" lon="5.79924">
        <ele>559.8</ele>
        <time>2019-12-12T09:25:26Z</time>
      </trkpt>
      <trkpt lat="46.80698" lon="5.7993">
        <ele>559</ele>
        <time>2019-12-12T09:25:32Z</time>
      </trkpt>
      <trkpt lat="46.80698" lon="5.79937">
        <ele>558.6</ele>
        <time>2019-12-12T09:25:37Z</time>
      </trkpt>
      <trkpt lat="46.80698" lon="5.79944">
        <ele>558.6</ele>
        <time>2019-12-12T09:25:43Z</time>
      </trkpt>
      <trkpt lat="46.80699" lon="5.7995">
        <ele>558.6</ele>
        <time>2019-12-12T09:25:48Z</time>
      </trkpt>
      <trkpt lat="46.80699" lon="5.79957">
        <ele>557.9</ele>
        <time>2019-12-12T09:25:57Z</time>
      </trkpt>
      <trkpt lat="46.80697" lon="5.79964">
        <ele>557.7</ele>
        <time>2019-12-12T09:26:01Z</time>
      </trkpt>
      <trkpt lat="46.80695" lon="5.7997">
        <ele>557.6</ele>
        <time>2019-12-12T09:26:05Z</time>
      </trkpt>
      <trkpt lat="46.80693" lon="5.79976">
        <ele>557.5</ele>
        <time>2019-12-12T09:26:08Z</time>
      </trkpt>
      <trkpt lat="46.80692" lon="5.79983">
        <ele>557.4</ele>
        <time>2019-12-12T09:26:12Z</time>
      </trkpt>
      <trkpt lat="46.80691" lon="5.79996">
        <ele>557.8</ele>
        <time>2019-12-12T09:26:26Z</time>
      </trkpt>
      <trkpt lat="46.80691" lon="5.80003">
        <ele>557.7</ele>
        <time>2019-12-12T09:26:34Z</time>
      </trkpt>
      <trkpt lat="46.80692" lon="5.80009">
        <ele>557.7</ele>
        <time>2019-12-12T09:26:39Z</time>
      </trkpt>
      <trkpt lat="46.80696" lon="5.80016">
        <ele>557.9</ele>
        <time>2019-12-12T09:26:42Z</time>
      </trkpt>
      <trkpt lat="46.80697" lon="5.80026">
        <ele>558.1</ele>
        <time>2019-12-12T09:26:45Z</time>
      </trkpt>
      <trkpt lat="46.80699" lon="5.80033">
        <ele>558.3</ele>
        <time>2019-12-12T09:26:48Z</time>
      </trkpt>
      <trkpt lat="46.807" lon="5.8004">
        <ele>558.5</ele>
        <time>2019-12-12T09:26:53Z</time>
      </trkpt>
      <trkpt lat="46.80702" lon="5.80046">
        <ele>558.7</ele>
        <time>2019-12-12T09:27:00Z</time>
      </trkpt>
      <trkpt lat="46.80705" lon="5.80052">
        <ele>558.6</ele>
        <time>2019-12-12T09:27:07Z</time>
      </trkpt>
      <trkpt lat="46.80706" lon="5.80059">
        <ele>558.2</ele>
        <time>2019-12-12T09:27:13Z</time>
      </trkpt>
      <trkpt lat="46.80709" lon="5.80066">
        <ele>557.8</ele>
        <time>2019-12-12T09:27:18Z</time>
      </trkpt>
      <trkpt lat="46.80709" lon="5.80074">
        <ele>557.6</ele>
        <time>2019-12-12T09:27:22Z</time>
      </trkpt>
      <trkpt lat="46.80709" lon="5.80081">
        <ele>557.6</ele>
        <time>2019-12-12T09:27:26Z</time>
      </trkpt>
      <trkpt lat="46.80708" lon="5.80088">
        <ele>557.9</ele>
        <time>2019-12-12T09:27:31Z</time>
      </trkpt>
      <trkpt lat="46.80708" lon="5.80095">
        <ele>558.5</ele>
        <time>2019-12-12T09:27:36Z</time>
      </trkpt>
      <trkpt lat="46.80706" lon="5.80102">
        <ele>559.2</ele>
        <time>2019-12-12T09:27:41Z</time>
      </trkpt>
      <trkpt lat="46.80705" lon="5.80109">
        <ele>559.6</ele>
        <time>2019-12-12T09:27:47Z</time>
      </trkpt>
      <trkpt lat="46.80703" lon="5.80116">
        <ele>559.8</ele>
        <time>2019-12-12T09:27:53Z</time>
      </trkpt>
      <trkpt lat="46.807" lon="5.80122">
        <ele>559.9</ele>
        <time>2019-12-12T09:27:57Z</time>
      </trkpt>
      <trkpt lat="46.80698" lon="5.80129">
        <ele>560</ele>
        <time>2019-12-12T09:28:02Z</time>
      </trkpt>
      <trkpt lat="46.80696" lon="5.80134">
        <ele>560.1</ele>
        <time>2019-12-12T09:28:08Z</time>
      </trkpt>
      <trkpt lat="46.80693" lon="5.8014">
        <ele>560.1</ele>
        <time>2019-12-12T09:28:13Z</time>
      </trkpt>
      <trkpt lat="46.80693" lon="5.80147">
        <ele>560.2</ele>
        <time>2019-12-12T09:28:22Z</time>
      </trkpt>
      <trkpt lat="46.80696" lon="5.80151">
        <ele>560.2</ele>
        <time>2019-12-12T09:28:30Z</time>
      </trkpt>
      <trkpt lat="46.80691" lon="5.80149">
        <ele>559.4</ele>
        <time>2019-12-12T09:29:01Z</time>
      </trkpt>
      <trkpt lat="46.80687" lon="5.8015">
        <ele>558.6</ele>
        <time>2019-12-12T09:29:07Z</time>
      </trkpt>
      <trkpt lat="46.80683" lon="5.80155">
        <ele>558</ele>
        <time>2019-12-12T09:29:14Z</time>
      </trkpt>
      <trkpt lat="46.8068" lon="5.80161">
        <ele>557.9</ele>
        <time>2019-12-12T09:29:19Z</time>
      </trkpt>
      <trkpt lat="46.80678" lon="5.80166">
        <ele>557.9</ele>
        <time>2019-12-12T09:29:23Z</time>
      </trkpt>
      <trkpt lat="46.80677" lon="5.80173">
        <ele>557.9</ele>
        <time>2019-12-12T09:29:28Z</time>
      </trkpt>
      <trkpt lat="46.80674" lon="5.80178">
        <ele>558.2</ele>
        <time>2019-12-12T09:29:34Z</time>
      </trkpt>
      <trkpt lat="46.80669" lon="5.80182">
        <ele>558.2</ele>
        <time>2019-12-12T09:29:40Z</time>
      </trkpt>
      <trkpt lat="46.80665" lon="5.80184">
        <ele>558.1</ele>
        <time>2019-12-12T09:29:44Z</time>
      </trkpt>
      <trkpt lat="46.80661" lon="5.80188">
        <ele>558</ele>
        <time>2019-12-12T09:29:49Z</time>
      </trkpt>
      <trkpt lat="46.80656" lon="5.80192">
        <ele>557.7</ele>
        <time>2019-12-12T09:29:54Z</time>
      </trkpt>
      <trkpt lat="46.80652" lon="5.80196">
        <ele>557.5</ele>
        <time>2019-12-12T09:30:00Z</time>
      </trkpt>
      <trkpt lat="46.80648" lon="5.802">
        <ele>557.3</ele>
        <time>2019-12-12T09:30:05Z</time>
      </trkpt>
      <trkpt lat="46.80643" lon="5.80203">
        <ele>557.2</ele>
        <time>2019-12-12T09:30:10Z</time>
      </trkpt>
      <trkpt lat="46.80639" lon="5.80207">
        <ele>557.2</ele>
        <time>2019-12-12T09:30:16Z</time>
      </trkpt>
      <trkpt lat="46.80634" lon="5.8021">
        <ele>557.1</ele>
        <time>2019-12-12T09:30:20Z</time>
      </trkpt>
      <trkpt lat="46.8063" lon="5.80214">
        <ele>557.1</ele>
        <time>2019-12-12T09:30:25Z</time>
      </trkpt>
      <trkpt lat="46.80626" lon="5.80218">
        <ele>557.2</ele>
        <time>2019-12-12T09:30:30Z</time>
      </trkpt>
      <trkpt lat="46.80622" lon="5.80223">
        <ele>557.3</ele>
        <time>2019-12-12T09:30:35Z</time>
      </trkpt>
      <trkpt lat="46.80619" lon="5.80231">
        <ele>557.5</ele>
        <time>2019-12-12T09:30:39Z</time>
      </trkpt>
      <trkpt lat="46.80616" lon="5.80237">
        <ele>557.7</ele>
        <time>2019-12-12T09:30:43Z</time>
      </trkpt>
      <trkpt lat="46.80614" lon="5.80242">
        <ele>557.7</ele>
        <time>2019-12-12T09:30:48Z</time>
      </trkpt>
      <trkpt lat="46.80613" lon="5.80249">
        <ele>557.8</ele>
        <time>2019-12-12T09:30:53Z</time>
      </trkpt>
      <trkpt lat="46.80609" lon="5.80253">
        <ele>557.8</ele>
        <time>2019-12-12T09:31:00Z</time>
      </trkpt>
      <trkpt lat="46.80606" lon="5.80259">
        <ele>557.7</ele>
        <time>2019-12-12T09:31:06Z</time>
      </trkpt>
      <trkpt lat="46.80602" lon="5.80265">
        <ele>557.6</ele>
        <time>2019-12-12T09:31:10Z</time>
      </trkpt>
      <trkpt lat="46.80598" lon="5.8027">
        <ele>557.7</ele>
        <time>2019-12-12T09:31:16Z</time>
      </trkpt>
      <trkpt lat="46.80594" lon="5.80273">
        <ele>557.6</ele>
        <time>2019-12-12T09:31:21Z</time>
      </trkpt>
      <trkpt lat="46.80592" lon="5.80279">
        <ele>557.3</ele>
        <time>2019-12-12T09:31:27Z</time>
      </trkpt>
      <trkpt lat="46.80589" lon="5.80286">
        <ele>557.2</ele>
        <time>2019-12-12T09:31:33Z</time>
      </trkpt>
      <trkpt lat="46.80587" lon="5.80292">
        <ele>557.4</ele>
        <time>2019-12-12T09:31:38Z</time>
      </trkpt>
      <trkpt lat="46.80584" lon="5.80297">
        <ele>557.3</ele>
        <time>2019-12-12T09:31:45Z</time>
      </trkpt>
      <trkpt lat="46.80579" lon="5.803">
        <ele>557.1</ele>
        <time>2019-12-12T09:31:54Z</time>
      </trkpt>
      <trkpt lat="46.80574" lon="5.80302">
        <ele>557.2</ele>
        <time>2019-12-12T09:31:59Z</time>
      </trkpt>
      <trkpt lat="46.80571" lon="5.80308">
        <ele>556.7</ele>
        <time>2019-12-12T09:32:08Z</time>
      </trkpt>
      <trkpt lat="46.80566" lon="5.80308">
        <ele>556.2</ele>
        <time>2019-12-12T09:32:17Z</time>
      </trkpt>
      <trkpt lat="46.80561" lon="5.80306">
        <ele>555.8</ele>
        <time>2019-12-12T09:32:24Z</time>
      </trkpt>
      <trkpt lat="46.80557" lon="5.80303">
        <ele>555</ele>
        <time>2019-12-12T09:32:31Z</time>
      </trkpt>
      <trkpt lat="46.80552" lon="5.80302">
        <ele>553.8</ele>
        <time>2019-12-12T09:32:40Z</time>
      </trkpt>
      <trkpt lat="46.80547" lon="5.80303">
        <ele>553.4</ele>
        <time>2019-12-12T09:32:44Z</time>
      </trkpt>
      <trkpt lat="46.80542" lon="5.80303">
        <ele>552.3</ele>
        <time>2019-12-12T09:32:51Z</time>
      </trkpt>
      <trkpt lat="46.80537" lon="5.80301">
        <ele>551.6</ele>
        <time>2019-12-12T09:32:55Z</time>
      </trkpt>
      <trkpt lat="46.80532" lon="5.80301">
        <ele>551.1</ele>
        <time>2019-12-12T09:32:58Z</time>
      </trkpt>
      <trkpt lat="46.80533" lon="5.80282">
        <ele>494</ele>
        <time>2019-12-12T09:36:36Z</time>
      </trkpt>
      <trkpt lat="46.80527" lon="5.80292">
        <ele>505.2</ele>
        <time>2019-12-12T09:36:56Z</time>
      </trkpt>
      <trkpt lat="46.80519" lon="5.80303">
        <ele>516.8</ele>
        <time>2019-12-12T09:37:15Z</time>
      </trkpt>
      <trkpt lat="46.80516" lon="5.80308">
        <ele>519.1</ele>
        <time>2019-12-12T09:37:19Z</time>
      </trkpt>
      <trkpt lat="46.80513" lon="5.80313">
        <ele>523.1</ele>
        <time>2019-12-12T09:37:25Z</time>
      </trkpt>
      <trkpt lat="46.80508" lon="5.80316">
        <ele>524.5</ele>
        <time>2019-12-12T09:37:27Z</time>
      </trkpt>
      <trkpt lat="46.80504" lon="5.80321">
        <ele>525.9</ele>
        <time>2019-12-12T09:37:29Z</time>
      </trkpt>
      <trkpt lat="46.80501" lon="5.80325">
        <ele>528</ele>
        <time>2019-12-12T09:37:32Z</time>
      </trkpt>
      <trkpt lat="46.80498" lon="5.80331">
        <ele>530.6</ele>
        <time>2019-12-12T09:37:36Z</time>
      </trkpt>
      <trkpt lat="46.80495" lon="5.80335">
        <ele>534.6</ele>
        <time>2019-12-12T09:37:44Z</time>
      </trkpt>
      <trkpt lat="46.8049" lon="5.80338">
        <ele>537.3</ele>
        <time>2019-12-12T09:37:54Z</time>
      </trkpt>
      <trkpt lat="46.80486" lon="5.80333">
        <ele>538.9</ele>
        <time>2019-12-12T09:38:02Z</time>
      </trkpt>
      <trkpt lat="46.80482" lon="5.80324">
        <ele>540.8</ele>
        <time>2019-12-12T09:38:15Z</time>
      </trkpt>
      <trkpt lat="46.80476" lon="5.80314">
        <ele>542.4</ele>
        <time>2019-12-12T09:38:25Z</time>
      </trkpt>
      <trkpt lat="46.80469" lon="5.80302">
        <ele>544.7</ele>
        <time>2019-12-12T09:38:39Z</time>
      </trkpt>
      <trkpt lat="46.80469" lon="5.80295">
        <ele>545</ele>
        <time>2019-12-12T09:38:44Z</time>
      </trkpt>
      <trkpt lat="46.80468" lon="5.80288">
        <ele>545.1</ele>
        <time>2019-12-12T09:38:48Z</time>
      </trkpt>
      <trkpt lat="46.80469" lon="5.80281">
        <ele>545.1</ele>
        <time>2019-12-12T09:38:50Z</time>
      </trkpt>
      <trkpt lat="46.80474" lon="5.80265">
        <ele>546.2</ele>
        <time>2019-12-12T09:39:05Z</time>
      </trkpt>
      <trkpt lat="46.80478" lon="5.80261">
        <ele>546.8</ele>
        <time>2019-12-12T09:39:08Z</time>
      </trkpt>
      <trkpt lat="46.80483" lon="5.80253">
        <ele>549.4</ele>
        <time>2019-12-12T09:39:18Z</time>
      </trkpt>
      <trkpt lat="46.80473" lon="5.80238">
        <ele>551.9</ele>
        <time>2019-12-12T09:39:50Z</time>
      </trkpt>
      <trkpt lat="46.80468" lon="5.80238">
        <ele>551.9</ele>
        <time>2019-12-12T09:39:55Z</time>
      </trkpt>
      <trkpt lat="46.80462" lon="5.80234">
        <ele>551.8</ele>
        <time>2019-12-12T09:40:00Z</time>
      </trkpt>
      <trkpt lat="46.80454" lon="5.8021">
        <ele>554.4</ele>
        <time>2019-12-12T09:40:25Z</time>
      </trkpt>
      <trkpt lat="46.80452" lon="5.80204">
        <ele>554.9</ele>
        <time>2019-12-12T09:40:30Z</time>
      </trkpt>
      <trkpt lat="46.80451" lon="5.80198">
        <ele>556</ele>
        <time>2019-12-12T09:40:37Z</time>
      </trkpt>
      <trkpt lat="46.80446" lon="5.80191">
        <ele>556.9</ele>
        <time>2019-12-12T09:40:44Z</time>
      </trkpt>
      <trkpt lat="46.80442" lon="5.80187">
        <ele>557.1</ele>
        <time>2019-12-12T09:40:47Z</time>
      </trkpt>
      <trkpt lat="46.8044" lon="5.8017">
        <ele>556.8</ele>
        <time>2019-12-12T09:41:08Z</time>
      </trkpt>
      <trkpt lat="46.80442" lon="5.80162">
        <ele>557</ele>
        <time>2019-12-12T09:41:15Z</time>
      </trkpt>
      <trkpt lat="46.80442" lon="5.80154">
        <ele>557.3</ele>
        <time>2019-12-12T09:41:18Z</time>
      </trkpt>
      <trkpt lat="46.80444" lon="5.8014">
        <ele>558.5</ele>
        <time>2019-12-12T09:41:30Z</time>
      </trkpt>
      <trkpt lat="46.80444" lon="5.80141">
        <ele>557.4</ele>
        <time>2019-12-12T09:42:07Z</time>
      </trkpt>
      <trkpt lat="46.80442" lon="5.80147">
        <ele>557.3</ele>
        <time>2019-12-12T09:42:11Z</time>
      </trkpt>
      <trkpt lat="46.8044" lon="5.80154">
        <ele>556.9</ele>
        <time>2019-12-12T09:42:16Z</time>
      </trkpt>
      <trkpt lat="46.80439" lon="5.80162">
        <ele>556.9</ele>
        <time>2019-12-12T09:42:20Z</time>
      </trkpt>
      <trkpt lat="46.80441" lon="5.80175">
        <ele>558</ele>
        <time>2019-12-12T09:42:31Z</time>
      </trkpt>
      <trkpt lat="46.80443" lon="5.80182">
        <ele>558.5</ele>
        <time>2019-12-12T09:42:35Z</time>
      </trkpt>
      <trkpt lat="46.80442" lon="5.80189">
        <ele>558.9</ele>
        <time>2019-12-12T09:42:39Z</time>
      </trkpt>
      <trkpt lat="46.8044" lon="5.80196">
        <ele>559.3</ele>
        <time>2019-12-12T09:42:43Z</time>
      </trkpt>
      <trkpt lat="46.80436" lon="5.80211">
        <ele>560.9</ele>
        <time>2019-12-12T09:42:56Z</time>
      </trkpt>
      <trkpt lat="46.80433" lon="5.80217">
        <ele>560.1</ele>
        <time>2019-12-12T09:43:04Z</time>
      </trkpt>
      <trkpt lat="46.80429" lon="5.80217">
        <ele>556.4</ele>
        <time>2019-12-12T09:43:20Z</time>
      </trkpt>
      <trkpt lat="46.80425" lon="5.80212">
        <ele>553.5</ele>
        <time>2019-12-12T09:43:29Z</time>
      </trkpt>
      <trkpt lat="46.80422" lon="5.80207">
        <ele>552.4</ele>
        <time>2019-12-12T09:43:34Z</time>
      </trkpt>
      <trkpt lat="46.80417" lon="5.80205">
        <ele>551.9</ele>
        <time>2019-12-12T09:43:38Z</time>
      </trkpt>
      <trkpt lat="46.80413" lon="5.80201">
        <ele>551.4</ele>
        <time>2019-12-12T09:43:43Z</time>
      </trkpt>
      <trkpt lat="46.80409" lon="5.80197">
        <ele>550.6</ele>
        <time>2019-12-12T09:43:49Z</time>
      </trkpt>
      <trkpt lat="46.80407" lon="5.80191">
        <ele>549.7</ele>
        <time>2019-12-12T09:43:56Z</time>
      </trkpt>
      <trkpt lat="46.80404" lon="5.80185">
        <ele>548.5</ele>
        <time>2019-12-12T09:44:02Z</time>
      </trkpt>
      <trkpt lat="46.804" lon="5.80182">
        <ele>547.7</ele>
        <time>2019-12-12T09:44:06Z</time>
      </trkpt>
      <trkpt lat="46.80395" lon="5.80182">
        <ele>546.7</ele>
        <time>2019-12-12T09:44:12Z</time>
      </trkpt>
      <trkpt lat="46.8039" lon="5.80183">
        <ele>545.7</ele>
        <time>2019-12-12T09:44:22Z</time>
      </trkpt>
      <trkpt lat="46.80386" lon="5.80186">
        <ele>545.2</ele>
        <time>2019-12-12T09:44:26Z</time>
      </trkpt>
      <trkpt lat="46.80381" lon="5.80188">
        <ele>544.1</ele>
        <time>2019-12-12T09:44:34Z</time>
      </trkpt>
      <trkpt lat="46.80375" lon="5.80188">
        <ele>543.5</ele>
        <time>2019-12-12T09:44:46Z</time>
      </trkpt>
      <trkpt lat="46.80369" lon="5.80188">
        <ele>543.5</ele>
        <time>2019-12-12T09:44:48Z</time>
      </trkpt>
      <trkpt lat="46.80364" lon="5.80188">
        <ele>543.5</ele>
        <time>2019-12-12T09:44:50Z</time>
      </trkpt>
      <trkpt lat="46.80358" lon="5.80187">
        <ele>543.7</ele>
        <time>2019-12-12T09:44:54Z</time>
      </trkpt>
      <trkpt lat="46.80351" lon="5.80187">
        <ele>544</ele>
        <time>2019-12-12T09:44:57Z</time>
      </trkpt>
      <trkpt lat="46.80344" lon="5.80186">
        <ele>544.6</ele>
        <time>2019-12-12T09:45:01Z</time>
      </trkpt>
      <trkpt lat="46.80339" lon="5.80186">
        <ele>545.6</ele>
        <time>2019-12-12T09:45:06Z</time>
      </trkpt>
      <trkpt lat="46.80335" lon="5.80186">
        <ele>547.6</ele>
        <time>2019-12-12T09:45:15Z</time>
      </trkpt>
      <trkpt lat="46.8033" lon="5.80186">
        <ele>549.4</ele>
        <time>2019-12-12T09:45:24Z</time>
      </trkpt>
      <trkpt lat="46.80329" lon="5.8018">
        <ele>549.7</ele>
        <time>2019-12-12T09:45:34Z</time>
      </trkpt>
      <trkpt lat="46.8032" lon="5.80166">
        <ele>551.6</ele>
        <time>2019-12-12T09:45:49Z</time>
      </trkpt>
      <trkpt lat="46.8032" lon="5.8016">
        <ele>551.8</ele>
        <time>2019-12-12T09:45:51Z</time>
      </trkpt>
      <trkpt lat="46.80319" lon="5.80152">
        <ele>552.2</ele>
        <time>2019-12-12T09:45:57Z</time>
      </trkpt>
      <trkpt lat="46.80309" lon="5.80143">
        <ele>561.2</ele>
        <time>2019-12-12T09:48:47Z</time>
      </trkpt>
      <trkpt lat="46.80312" lon="5.80142">
        <ele>561.2</ele>
        <time>2019-12-12T09:50:06Z</time>
      </trkpt>
      <trkpt lat="46.80316" lon="5.80147">
        <ele>561.4</ele>
        <time>2019-12-12T09:50:11Z</time>
      </trkpt>
      <trkpt lat="46.80318" lon="5.80154">
        <ele>561.7</ele>
        <time>2019-12-12T09:50:37Z</time>
      </trkpt>
      <trkpt lat="46.80312" lon="5.8016">
        <ele>563.3</ele>
        <time>2019-12-12T09:51:27Z</time>
      </trkpt>
      <trkpt lat="46.80303" lon="5.80144">
        <ele>565.9</ele>
        <time>2019-12-12T09:52:04Z</time>
      </trkpt>
      <trkpt lat="46.80301" lon="5.80127">
        <ele>567.4</ele>
        <time>2019-12-12T09:52:45Z</time>
      </trkpt>
      <trkpt lat="46.80302" lon="5.8012">
        <ele>566.8</ele>
        <time>2019-12-12T09:52:53Z</time>
      </trkpt>
      <trkpt lat="46.80299" lon="5.801">
        <ele>564.5</ele>
        <time>2019-12-12T09:54:06Z</time>
      </trkpt>
      <trkpt lat="46.80297" lon="5.80094">
        <ele>564.3</ele>
        <time>2019-12-12T09:54:13Z</time>
      </trkpt>
      <trkpt lat="46.80295" lon="5.80083">
        <ele>563.6</ele>
        <time>2019-12-12T09:54:22Z</time>
      </trkpt>
      <trkpt lat="46.80298" lon="5.80071">
        <ele>563.4</ele>
        <time>2019-12-12T09:54:35Z</time>
      </trkpt>
      <trkpt lat="46.80293" lon="5.8007">
        <ele>562.6</ele>
        <time>2019-12-12T09:54:49Z</time>
      </trkpt>
      <trkpt lat="46.80291" lon="5.80075">
        <ele>561.7</ele>
        <time>2019-12-12T09:55:03Z</time>
      </trkpt>
      <trkpt lat="46.80287" lon="5.80081">
        <ele>560.9</ele>
        <time>2019-12-12T09:55:10Z</time>
      </trkpt>
      <trkpt lat="46.80277" lon="5.80095">
        <ele>559.6</ele>
        <time>2019-12-12T09:55:25Z</time>
      </trkpt>
      <trkpt lat="46.80262" lon="5.80119">
        <ele>560.3</ele>
        <time>2019-12-12T09:56:08Z</time>
      </trkpt>
      <trkpt lat="46.8026" lon="5.80126">
        <ele>560.6</ele>
        <time>2019-12-12T09:56:14Z</time>
      </trkpt>
      <trkpt lat="46.80259" lon="5.80132">
        <ele>560.8</ele>
        <time>2019-12-12T09:56:16Z</time>
      </trkpt>
      <trkpt lat="46.80257" lon="5.8014">
        <ele>561.1</ele>
        <time>2019-12-12T09:56:19Z</time>
      </trkpt>
      <trkpt lat="46.80254" lon="5.80147">
        <ele>561.3</ele>
        <time>2019-12-12T09:56:22Z</time>
      </trkpt>
      <trkpt lat="46.80227" lon="5.80191">
        <ele>564.2</ele>
        <time>2019-12-12T09:59:16Z</time>
      </trkpt>
      <trkpt lat="46.80222" lon="5.80192">
        <ele>563.9</ele>
        <time>2019-12-12T09:59:20Z</time>
      </trkpt>
      <trkpt lat="46.80217" lon="5.80193">
        <ele>563.5</ele>
        <time>2019-12-12T09:59:26Z</time>
      </trkpt>
      <trkpt lat="46.80213" lon="5.80192">
        <ele>562.4</ele>
        <time>2019-12-12T09:59:34Z</time>
      </trkpt>
      <trkpt lat="46.80208" lon="5.80191">
        <ele>560.7</ele>
        <time>2019-12-12T09:59:41Z</time>
      </trkpt>
      <trkpt lat="46.80198" lon="5.8018">
        <ele>558.7</ele>
        <time>2019-12-12T09:59:58Z</time>
      </trkpt>
      <trkpt lat="46.80166" lon="5.80157">
        <ele>563.2</ele>
        <time>2019-12-12T10:00:38Z</time>
      </trkpt>
      <trkpt lat="46.80152" lon="5.80153">
        <ele>564.1</ele>
        <time>2019-12-12T10:01:50Z</time>
      </trkpt>
      <trkpt lat="46.80151" lon="5.80146">
        <ele>564.1</ele>
        <time>2019-12-12T10:01:52Z</time>
      </trkpt>
      <trkpt lat="46.80141" lon="5.80127">
        <ele>563.9</ele>
        <time>2019-12-12T10:02:17Z</time>
      </trkpt>
      <trkpt lat="46.80136" lon="5.80124">
        <ele>563.9</ele>
        <time>2019-12-12T10:02:19Z</time>
      </trkpt>
      <trkpt lat="46.80125" lon="5.80118">
        <ele>564</ele>
        <time>2019-12-12T10:02:53Z</time>
      </trkpt>
      <trkpt lat="46.80132" lon="5.80114">
        <ele>567.1</ele>
        <time>2019-12-12T10:03:08Z</time>
      </trkpt>
      <trkpt lat="46.80164" lon="5.80075">
        <ele>568.2</ele>
        <time>2019-12-12T10:03:50Z</time>
      </trkpt>
      <trkpt lat="46.80188" lon="5.80045">
        <ele>569.4</ele>
        <time>2019-12-12T10:04:26Z</time>
      </trkpt>
      <trkpt lat="46.80195" lon="5.8003">
        <ele>569.5</ele>
        <time>2019-12-12T10:04:32Z</time>
      </trkpt>
      <trkpt lat="46.80199" lon="5.80023">
        <ele>569.5</ele>
        <time>2019-12-12T10:04:36Z</time>
      </trkpt>
      <trkpt lat="46.80215" lon="5.79998">
        <ele>570.1</ele>
        <time>2019-12-12T10:05:08Z</time>
      </trkpt>
      <trkpt lat="46.80222" lon="5.79964">
        <ele>568.6</ele>
        <time>2019-12-12T10:05:51Z</time>
      </trkpt>
      <trkpt lat="46.80225" lon="5.79956">
        <ele>568.8</ele>
        <time>2019-12-12T10:05:54Z</time>
      </trkpt>
      <trkpt lat="46.80227" lon="5.79951">
        <ele>569</ele>
        <time>2019-12-12T10:05:58Z</time>
      </trkpt>
      <trkpt lat="46.8023" lon="5.79946">
        <ele>569.3</ele>
        <time>2019-12-12T10:06:04Z</time>
      </trkpt>
      <trkpt lat="46.80263" lon="5.79914">
        <ele>573</ele>
        <time>2019-12-12T10:07:06Z</time>
      </trkpt>
      <trkpt lat="46.80264" lon="5.79892">
        <ele>573.9</ele>
        <time>2019-12-12T10:07:22Z</time>
      </trkpt>
      <trkpt lat="46.80263" lon="5.79883">
        <ele>574</ele>
        <time>2019-12-12T10:07:26Z</time>
      </trkpt>
      <trkpt lat="46.80264" lon="5.79876">
        <ele>574.1</ele>
        <time>2019-12-12T10:07:29Z</time>
      </trkpt>
      <trkpt lat="46.80263" lon="5.79869">
        <ele>574.3</ele>
        <time>2019-12-12T10:07:31Z</time>
      </trkpt>
      <trkpt lat="46.80261" lon="5.79854">
        <ele>574.2</ele>
        <time>2019-12-12T10:07:46Z</time>
      </trkpt>
      <trkpt lat="46.80256" lon="5.79853">
        <ele>574.3</ele>
        <time>2019-12-12T10:07:54Z</time>
      </trkpt>
      <trkpt lat="46.80251" lon="5.79855">
        <ele>574.7</ele>
        <time>2019-12-12T10:08:03Z</time>
      </trkpt>
      <trkpt lat="46.80241" lon="5.79849">
        <ele>563.9</ele>
        <time>2019-12-12T10:08:41Z</time>
      </trkpt>
      <trkpt lat="46.80237" lon="5.79845">
        <ele>561.4</ele>
        <time>2019-12-12T10:08:47Z</time>
      </trkpt>
      <trkpt lat="46.8022" lon="5.79843">
        <ele>558.6</ele>
        <time>2019-12-12T10:09:00Z</time>
      </trkpt>
      <trkpt lat="46.80214" lon="5.79845">
        <ele>558.9</ele>
        <time>2019-12-12T10:09:03Z</time>
      </trkpt>
      <trkpt lat="46.8021" lon="5.79846">
        <ele>559.2</ele>
        <time>2019-12-12T10:09:05Z</time>
      </trkpt>
      <trkpt lat="46.80205" lon="5.79848">
        <ele>559.7</ele>
        <time>2019-12-12T10:09:08Z</time>
      </trkpt>
      <trkpt lat="46.80195" lon="5.79847">
        <ele>562.6</ele>
        <time>2019-12-12T10:09:24Z</time>
      </trkpt>
      <trkpt lat="46.8019" lon="5.79846">
        <ele>563</ele>
        <time>2019-12-12T10:09:27Z</time>
      </trkpt>
      <trkpt lat="46.80185" lon="5.79847">
        <ele>563.6</ele>
        <time>2019-12-12T10:09:36Z</time>
      </trkpt>
      <trkpt lat="46.80143" lon="5.79846">
        <ele>565.3</ele>
        <time>2019-12-12T10:10:11Z</time>
      </trkpt>
      <trkpt lat="46.80138" lon="5.79843">
        <ele>565.3</ele>
        <time>2019-12-12T10:10:14Z</time>
      </trkpt>
      <trkpt lat="46.80133" lon="5.79842">
        <ele>565.4</ele>
        <time>2019-12-12T10:10:18Z</time>
      </trkpt>
      <trkpt lat="46.80116" lon="5.79845">
        <ele>566.3</ele>
        <time>2019-12-12T10:10:34Z</time>
      </trkpt>
      <trkpt lat="46.80102" lon="5.79849">
        <ele>568.1</ele>
        <time>2019-12-12T10:10:49Z</time>
      </trkpt>
      <trkpt lat="46.80049" lon="5.7984">
        <ele>573.6</ele>
        <time>2019-12-12T10:11:40Z</time>
      </trkpt>
      <trkpt lat="46.8002" lon="5.7984">
        <ele>574.5</ele>
        <time>2019-12-12T10:12:11Z</time>
      </trkpt>
      <trkpt lat="46.80008" lon="5.79846">
        <ele>573.4</ele>
        <time>2019-12-12T10:12:22Z</time>
      </trkpt>
      <trkpt lat="46.80002" lon="5.79846">
        <ele>573.2</ele>
        <time>2019-12-12T10:12:25Z</time>
      </trkpt>
      <trkpt lat="46.79997" lon="5.79843">
        <ele>573</ele>
        <time>2019-12-12T10:12:27Z</time>
      </trkpt>
      <trkpt lat="46.79993" lon="5.79839">
        <ele>572.8</ele>
        <time>2019-12-12T10:12:29Z</time>
      </trkpt>
      <trkpt lat="46.7999" lon="5.79834">
        <ele>572.3</ele>
        <time>2019-12-12T10:12:33Z</time>
      </trkpt>
      <trkpt lat="46.79974" lon="5.79838">
        <ele>570.2</ele>
        <time>2019-12-12T10:12:55Z</time>
      </trkpt>
      <trkpt lat="46.79969" lon="5.79836">
        <ele>570</ele>
        <time>2019-12-12T10:12:58Z</time>
      </trkpt>
      <trkpt lat="46.79963" lon="5.79836">
        <ele>569</ele>
        <time>2019-12-12T10:13:05Z</time>
      </trkpt>
      <trkpt lat="46.79953" lon="5.79834">
        <ele>567.7</ele>
        <time>2019-12-12T10:13:18Z</time>
      </trkpt>
      <trkpt lat="46.79932" lon="5.79829">
        <ele>569.2</ele>
        <time>2019-12-12T10:13:31Z</time>
      </trkpt>
      <trkpt lat="46.7992" lon="5.79832">
        <ele>570.5</ele>
        <time>2019-12-12T10:13:42Z</time>
      </trkpt>
      <trkpt lat="46.79901" lon="5.79823">
        <ele>570.5</ele>
        <time>2019-12-12T10:14:01Z</time>
      </trkpt>
      <trkpt lat="46.79897" lon="5.79822">
        <ele>569.3</ele>
        <time>2019-12-12T10:14:07Z</time>
      </trkpt>
      <trkpt lat="46.79881" lon="5.79814">
        <ele>566.7</ele>
        <time>2019-12-12T10:14:19Z</time>
      </trkpt>
      <trkpt lat="46.79875" lon="5.79814">
        <ele>566.6</ele>
        <time>2019-12-12T10:14:24Z</time>
      </trkpt>
      <trkpt lat="46.79871" lon="5.79819">
        <ele>566.4</ele>
        <time>2019-12-12T10:14:29Z</time>
      </trkpt>
      <trkpt lat="46.79868" lon="5.79824">
        <ele>565.9</ele>
        <time>2019-12-12T10:14:35Z</time>
      </trkpt>
      <trkpt lat="46.79863" lon="5.79827">
        <ele>565.6</ele>
        <time>2019-12-12T10:14:40Z</time>
      </trkpt>
      <trkpt lat="46.79859" lon="5.79827">
        <ele>564.8</ele>
        <time>2019-12-12T10:14:46Z</time>
      </trkpt>
      <trkpt lat="46.79854" lon="5.7983">
        <ele>563.6</ele>
        <time>2019-12-12T10:14:52Z</time>
      </trkpt>
      <trkpt lat="46.79847" lon="5.79825">
        <ele>559.8</ele>
        <time>2019-12-12T10:15:01Z</time>
      </trkpt>
      <trkpt lat="46.79841" lon="5.79823">
        <ele>559</ele>
        <time>2019-12-12T10:15:05Z</time>
      </trkpt>
      <trkpt lat="46.79836" lon="5.79821">
        <ele>558.6</ele>
        <time>2019-12-12T10:15:10Z</time>
      </trkpt>
      <trkpt lat="46.79831" lon="5.79822">
        <ele>558.5</ele>
        <time>2019-12-12T10:15:13Z</time>
      </trkpt>
      <trkpt lat="46.79825" lon="5.79822">
        <ele>558.5</ele>
        <time>2019-12-12T10:15:15Z</time>
      </trkpt>
      <trkpt lat="46.79819" lon="5.79822">
        <ele>558.7</ele>
        <time>2019-12-12T10:15:19Z</time>
      </trkpt>
      <trkpt lat="46.79805" lon="5.79817">
        <ele>560.3</ele>
        <time>2019-12-12T10:15:35Z</time>
      </trkpt>
      <trkpt lat="46.798" lon="5.79815">
        <ele>560.4</ele>
        <time>2019-12-12T10:15:41Z</time>
      </trkpt>
      <trkpt lat="46.79785" lon="5.79818">
        <ele>560.8</ele>
        <time>2019-12-12T10:15:55Z</time>
      </trkpt>
      <trkpt lat="46.7978" lon="5.79821">
        <ele>561.3</ele>
        <time>2019-12-12T10:16:01Z</time>
      </trkpt>
      <trkpt lat="46.79775" lon="5.79823">
        <ele>562.4</ele>
        <time>2019-12-12T10:16:07Z</time>
      </trkpt>
      <trkpt lat="46.7977" lon="5.79825">
        <ele>563.6</ele>
        <time>2019-12-12T10:16:12Z</time>
      </trkpt>
      <trkpt lat="46.79765" lon="5.79826">
        <ele>564.5</ele>
        <time>2019-12-12T10:16:16Z</time>
      </trkpt>
      <trkpt lat="46.7976" lon="5.79827">
        <ele>565.3</ele>
        <time>2019-12-12T10:16:20Z</time>
      </trkpt>
      <trkpt lat="46.79731" lon="5.7983">
        <ele>568.9</ele>
        <time>2019-12-12T10:16:50Z</time>
      </trkpt>
      <trkpt lat="46.79727" lon="5.79827">
        <ele>569.2</ele>
        <time>2019-12-12T10:16:54Z</time>
      </trkpt>
      <trkpt lat="46.79722" lon="5.79825">
        <ele>569.6</ele>
        <time>2019-12-12T10:17:00Z</time>
      </trkpt>
      <trkpt lat="46.79717" lon="5.79823">
        <ele>569.9</ele>
        <time>2019-12-12T10:17:05Z</time>
      </trkpt>
      <trkpt lat="46.79711" lon="5.79824">
        <ele>570.4</ele>
        <time>2019-12-12T10:17:10Z</time>
      </trkpt>
      <trkpt lat="46.79707" lon="5.79824">
        <ele>570.8</ele>
        <time>2019-12-12T10:17:14Z</time>
      </trkpt>
      <trkpt lat="46.79701" lon="5.79822">
        <ele>571.2</ele>
        <time>2019-12-12T10:17:18Z</time>
      </trkpt>
      <trkpt lat="46.79648" lon="5.79822">
        <ele>583.2</ele>
        <time>2019-12-12T10:17:56Z</time>
      </trkpt>
      <trkpt lat="46.79643" lon="5.79822">
        <ele>583.8</ele>
        <time>2019-12-12T10:18:01Z</time>
      </trkpt>
      <trkpt lat="46.79632" lon="5.79822">
        <ele>585.1</ele>
        <time>2019-12-12T10:18:11Z</time>
      </trkpt>
      <trkpt lat="46.79615" lon="5.79818">
        <ele>584.6</ele>
        <time>2019-12-12T10:18:38Z</time>
      </trkpt>
      <trkpt lat="46.79611" lon="5.79818">
        <ele>584.6</ele>
        <time>2019-12-12T10:18:40Z</time>
      </trkpt>
      <trkpt lat="46.79605" lon="5.79819">
        <ele>584.6</ele>
        <time>2019-12-12T10:18:44Z</time>
      </trkpt>
      <trkpt lat="46.79595" lon="5.79818">
        <ele>583.5</ele>
        <time>2019-12-12T10:18:54Z</time>
      </trkpt>
      <trkpt lat="46.79585" lon="5.79811">
        <ele>580.3</ele>
        <time>2019-12-12T10:19:10Z</time>
      </trkpt>
      <trkpt lat="46.79573" lon="5.79819">
        <ele>581.3</ele>
        <time>2019-12-12T10:19:18Z</time>
      </trkpt>
      <trkpt lat="46.79569" lon="5.79823">
        <ele>581.6</ele>
        <time>2019-12-12T10:19:21Z</time>
      </trkpt>
      <trkpt lat="46.79565" lon="5.79826">
        <ele>581.7</ele>
        <time>2019-12-12T10:19:25Z</time>
      </trkpt>
      <trkpt lat="46.79566" lon="5.79827">
        <ele>568.9</ele>
        <time>2019-12-12T10:20:17Z</time>
      </trkpt>
      <trkpt lat="46.79561" lon="5.79826">
        <ele>568.4</ele>
        <time>2019-12-12T10:20:23Z</time>
      </trkpt>
      <trkpt lat="46.79554" lon="5.79824">
        <ele>568.5</ele>
        <time>2019-12-12T10:20:28Z</time>
      </trkpt>
      <trkpt lat="46.79549" lon="5.79822">
        <ele>568.6</ele>
        <time>2019-12-12T10:20:31Z</time>
      </trkpt>
      <trkpt lat="46.79544" lon="5.7982">
        <ele>568.9</ele>
        <time>2019-12-12T10:20:37Z</time>
      </trkpt>
      <trkpt lat="46.79539" lon="5.7982">
        <ele>568.6</ele>
        <time>2019-12-12T10:20:43Z</time>
      </trkpt>
      <trkpt lat="46.79534" lon="5.7982">
        <ele>568.4</ele>
        <time>2019-12-12T10:20:46Z</time>
      </trkpt>
      <trkpt lat="46.79529" lon="5.79819">
        <ele>567.9</ele>
        <time>2019-12-12T10:20:49Z</time>
      </trkpt>
      <trkpt lat="46.79524" lon="5.79819">
        <ele>567.5</ele>
        <time>2019-12-12T10:20:51Z</time>
      </trkpt>
      <trkpt lat="46.79519" lon="5.79819">
        <ele>566.7</ele>
        <time>2019-12-12T10:20:54Z</time>
      </trkpt>
      <trkpt lat="46.79513" lon="5.79823">
        <ele>565.8</ele>
        <time>2019-12-12T10:20:57Z</time>
      </trkpt>
      <trkpt lat="46.79509" lon="5.79825">
        <ele>564.8</ele>
        <time>2019-12-12T10:21:01Z</time>
      </trkpt>
      <trkpt lat="46.79504" lon="5.79825">
        <ele>562.6</ele>
        <time>2019-12-12T10:21:08Z</time>
      </trkpt>
      <trkpt lat="46.79498" lon="5.79824">
        <ele>561</ele>
        <time>2019-12-12T10:21:12Z</time>
      </trkpt>
      <trkpt lat="46.79494" lon="5.79821">
        <ele>559.8</ele>
        <time>2019-12-12T10:21:15Z</time>
      </trkpt>
      <trkpt lat="46.79488" lon="5.79819">
        <ele>558.2</ele>
        <time>2019-12-12T10:21:19Z</time>
      </trkpt>
      <trkpt lat="46.79484" lon="5.79819">
        <ele>557.1</ele>
        <time>2019-12-12T10:21:22Z</time>
      </trkpt>
      <trkpt lat="46.79478" lon="5.7982">
        <ele>555.7</ele>
        <time>2019-12-12T10:21:26Z</time>
      </trkpt>
      <trkpt lat="46.79472" lon="5.79821">
        <ele>554.6</ele>
        <time>2019-12-12T10:21:30Z</time>
      </trkpt>
      <trkpt lat="46.79467" lon="5.7982">
        <ele>553.8</ele>
        <time>2019-12-12T10:21:33Z</time>
      </trkpt>
      <trkpt lat="46.79462" lon="5.79818">
        <ele>552.9</ele>
        <time>2019-12-12T10:21:38Z</time>
      </trkpt>
      <trkpt lat="46.79457" lon="5.79818">
        <ele>552.5</ele>
        <time>2019-12-12T10:21:43Z</time>
      </trkpt>
      <trkpt lat="46.7945" lon="5.79819">
        <ele>552.3</ele>
        <time>2019-12-12T10:21:47Z</time>
      </trkpt>
      <trkpt lat="46.79436" lon="5.7982">
        <ele>552.5</ele>
        <time>2019-12-12T10:21:58Z</time>
      </trkpt>
      <trkpt lat="46.79431" lon="5.79819">
        <ele>552.8</ele>
        <time>2019-12-12T10:22:00Z</time>
      </trkpt>
      <trkpt lat="46.79418" lon="5.79813">
        <ele>555.9</ele>
        <time>2019-12-12T10:22:10Z</time>
      </trkpt>
      <trkpt lat="46.79413" lon="5.79813">
        <ele>556.6</ele>
        <time>2019-12-12T10:22:15Z</time>
      </trkpt>
      <trkpt lat="46.79407" lon="5.79812">
        <ele>556.9</ele>
        <time>2019-12-12T10:22:20Z</time>
      </trkpt>
      <trkpt lat="46.79402" lon="5.79813">
        <ele>556.9</ele>
        <time>2019-12-12T10:22:25Z</time>
      </trkpt>
      <trkpt lat="46.79396" lon="5.79814">
        <ele>556.9</ele>
        <time>2019-12-12T10:22:29Z</time>
      </trkpt>
      <trkpt lat="46.79392" lon="5.79818">
        <ele>556.2</ele>
        <time>2019-12-12T10:22:34Z</time>
      </trkpt>
      <trkpt lat="46.79387" lon="5.79818">
        <ele>555.2</ele>
        <time>2019-12-12T10:22:39Z</time>
      </trkpt>
      <trkpt lat="46.79382" lon="5.79815">
        <ele>553.5</ele>
        <time>2019-12-12T10:22:45Z</time>
      </trkpt>
      <trkpt lat="46.79377" lon="5.79812">
        <ele>551.6</ele>
        <time>2019-12-12T10:22:51Z</time>
      </trkpt>
      <trkpt lat="46.79372" lon="5.7981">
        <ele>550.6</ele>
        <time>2019-12-12T10:22:56Z</time>
      </trkpt>
      <trkpt lat="46.79367" lon="5.79809">
        <ele>550.3</ele>
        <time>2019-12-12T10:23:01Z</time>
      </trkpt>
      <trkpt lat="46.79362" lon="5.79809">
        <ele>550.4</ele>
        <time>2019-12-12T10:23:04Z</time>
      </trkpt>
      <trkpt lat="46.79357" lon="5.7981">
        <ele>550.7</ele>
        <time>2019-12-12T10:23:07Z</time>
      </trkpt>
      <trkpt lat="46.79352" lon="5.7981">
        <ele>551.1</ele>
        <time>2019-12-12T10:23:11Z</time>
      </trkpt>
      <trkpt lat="46.79346" lon="5.79811">
        <ele>551.8</ele>
        <time>2019-12-12T10:23:16Z</time>
      </trkpt>
      <trkpt lat="46.79341" lon="5.79811">
        <ele>552.3</ele>
        <time>2019-12-12T10:23:22Z</time>
      </trkpt>
      <trkpt lat="46.79337" lon="5.79808">
        <ele>552.4</ele>
        <time>2019-12-12T10:23:26Z</time>
      </trkpt>
      <trkpt lat="46.79332" lon="5.79809">
        <ele>552</ele>
        <time>2019-12-12T10:23:31Z</time>
      </trkpt>
      <trkpt lat="46.79327" lon="5.79809">
        <ele>551.4</ele>
        <time>2019-12-12T10:23:36Z</time>
      </trkpt>
      <trkpt lat="46.79321" lon="5.79808">
        <ele>549.4</ele>
        <time>2019-12-12T10:23:44Z</time>
      </trkpt>
      <trkpt lat="46.79316" lon="5.79804">
        <ele>547.5</ele>
        <time>2019-12-12T10:23:49Z</time>
      </trkpt>
      <trkpt lat="46.79312" lon="5.79802">
        <ele>544.9</ele>
        <time>2019-12-12T10:23:55Z</time>
      </trkpt>
      <trkpt lat="46.79307" lon="5.79802">
        <ele>540.9</ele>
        <time>2019-12-12T10:24:03Z</time>
      </trkpt>
      <trkpt lat="46.79302" lon="5.79799">
        <ele>535.9</ele>
        <time>2019-12-12T10:24:13Z</time>
      </trkpt>
      <trkpt lat="46.79297" lon="5.79797">
        <ele>533.7</ele>
        <time>2019-12-12T10:24:17Z</time>
      </trkpt>
      <trkpt lat="46.79293" lon="5.79796">
        <ele>531.1</ele>
        <time>2019-12-12T10:24:22Z</time>
      </trkpt>
      <trkpt lat="46.79288" lon="5.79794">
        <ele>528</ele>
        <time>2019-12-12T10:24:28Z</time>
      </trkpt>
      <trkpt lat="46.79283" lon="5.79792">
        <ele>525.5</ele>
        <time>2019-12-12T10:24:33Z</time>
      </trkpt>
      <trkpt lat="46.79278" lon="5.7979">
        <ele>523.1</ele>
        <time>2019-12-12T10:24:38Z</time>
      </trkpt>
      <trkpt lat="46.79273" lon="5.79789">
        <ele>520.7</ele>
        <time>2019-12-12T10:24:43Z</time>
      </trkpt>
      <trkpt lat="46.79268" lon="5.79787">
        <ele>518.1</ele>
        <time>2019-12-12T10:24:49Z</time>
      </trkpt>
      <trkpt lat="46.79264" lon="5.79786">
        <ele>516.7</ele>
        <time>2019-12-12T10:24:53Z</time>
      </trkpt>
      <trkpt lat="46.79258" lon="5.79786">
        <ele>515.1</ele>
        <time>2019-12-12T10:24:58Z</time>
      </trkpt>
      <trkpt lat="46.79253" lon="5.79785">
        <ele>514</ele>
        <time>2019-12-12T10:25:02Z</time>
      </trkpt>
      <trkpt lat="46.79248" lon="5.79783">
        <ele>513</ele>
        <time>2019-12-12T10:25:06Z</time>
      </trkpt>
      <trkpt lat="46.79243" lon="5.79781">
        <ele>511.9</ele>
        <time>2019-12-12T10:25:11Z</time>
      </trkpt>
      <trkpt lat="46.79239" lon="5.7978">
        <ele>510.8</ele>
        <time>2019-12-12T10:25:17Z</time>
      </trkpt>
      <trkpt lat="46.79234" lon="5.79779">
        <ele>509.8</ele>
        <time>2019-12-12T10:25:22Z</time>
      </trkpt>
      <trkpt lat="46.79229" lon="5.79777">
        <ele>508.5</ele>
        <time>2019-12-12T10:25:28Z</time>
      </trkpt>
      <trkpt lat="46.79225" lon="5.79775">
        <ele>507.6</ele>
        <time>2019-12-12T10:25:32Z</time>
      </trkpt>
      <trkpt lat="46.79219" lon="5.79773">
        <ele>506.3</ele>
        <time>2019-12-12T10:25:38Z</time>
      </trkpt>
      <trkpt lat="46.79214" lon="5.79771">
        <ele>505.8</ele>
        <time>2019-12-12T10:25:41Z</time>
      </trkpt>
      <trkpt lat="46.79209" lon="5.7977">
        <ele>505.4</ele>
        <time>2019-12-12T10:25:45Z</time>
      </trkpt>
      <trkpt lat="46.79204" lon="5.79768">
        <ele>504.8</ele>
        <time>2019-12-12T10:25:50Z</time>
      </trkpt>
      <trkpt lat="46.792" lon="5.79766">
        <ele>504.2</ele>
        <time>2019-12-12T10:25:54Z</time>
      </trkpt>
      <trkpt lat="46.79194" lon="5.79764">
        <ele>503.5</ele>
        <time>2019-12-12T10:25:58Z</time>
      </trkpt>
      <trkpt lat="46.79189" lon="5.79763">
        <ele>502.8</ele>
        <time>2019-12-12T10:26:03Z</time>
      </trkpt>
      <trkpt lat="46.79185" lon="5.79761">
        <ele>502.4</ele>
        <time>2019-12-12T10:26:07Z</time>
      </trkpt>
      <trkpt lat="46.7918" lon="5.79762">
        <ele>502.3</ele>
        <time>2019-12-12T10:26:11Z</time>
      </trkpt>
      <trkpt lat="46.79175" lon="5.79762">
        <ele>502.3</ele>
        <time>2019-12-12T10:26:16Z</time>
      </trkpt>
      <trkpt lat="46.79171" lon="5.79762">
        <ele>502.3</ele>
        <time>2019-12-12T10:26:20Z</time>
      </trkpt>
      <trkpt lat="46.79165" lon="5.7976">
        <ele>502.2</ele>
        <time>2019-12-12T10:26:25Z</time>
      </trkpt>
      <trkpt lat="46.79161" lon="5.79759">
        <ele>502</ele>
        <time>2019-12-12T10:26:29Z</time>
      </trkpt>
      <trkpt lat="46.79156" lon="5.79756">
        <ele>501.9</ele>
        <time>2019-12-12T10:26:33Z</time>
      </trkpt>
      <trkpt lat="46.79152" lon="5.79755">
        <ele>501.9</ele>
        <time>2019-12-12T10:26:37Z</time>
      </trkpt>
      <trkpt lat="46.79147" lon="5.79752">
        <ele>501.9</ele>
        <time>2019-12-12T10:26:41Z</time>
      </trkpt>
      <trkpt lat="46.79142" lon="5.7975">
        <ele>501.8</ele>
        <time>2019-12-12T10:26:45Z</time>
      </trkpt>
      <trkpt lat="46.79138" lon="5.79748">
        <ele>501.6</ele>
        <time>2019-12-12T10:26:49Z</time>
      </trkpt>
      <trkpt lat="46.79133" lon="5.79747">
        <ele>501.4</ele>
        <time>2019-12-12T10:26:55Z</time>
      </trkpt>
      <trkpt lat="46.79128" lon="5.79745">
        <ele>501.6</ele>
        <time>2019-12-12T10:27:01Z</time>
      </trkpt>
      <trkpt lat="46.79123" lon="5.79744">
        <ele>502</ele>
        <time>2019-12-12T10:27:11Z</time>
      </trkpt>
      <trkpt lat="46.79119" lon="5.79743">
        <ele>502.3</ele>
        <time>2019-12-12T10:27:16Z</time>
      </trkpt>
      <trkpt lat="46.79114" lon="5.79744">
        <ele>502.8</ele>
        <time>2019-12-12T10:27:20Z</time>
      </trkpt>
      <trkpt lat="46.79108" lon="5.79744">
        <ele>503.4</ele>
        <time>2019-12-12T10:27:24Z</time>
      </trkpt>
      <trkpt lat="46.79103" lon="5.79744">
        <ele>504</ele>
        <time>2019-12-12T10:27:28Z</time>
      </trkpt>
      <trkpt lat="46.79098" lon="5.79744">
        <ele>504.5</ele>
        <time>2019-12-12T10:27:31Z</time>
      </trkpt>
      <trkpt lat="46.79093" lon="5.79743">
        <ele>505.3</ele>
        <time>2019-12-12T10:27:35Z</time>
      </trkpt>
      <trkpt lat="46.79088" lon="5.79742">
        <ele>505.9</ele>
        <time>2019-12-12T10:27:39Z</time>
      </trkpt>
      <trkpt lat="46.79083" lon="5.79739">
        <ele>506.2</ele>
        <time>2019-12-12T10:27:44Z</time>
      </trkpt>
      <trkpt lat="46.79079" lon="5.79736">
        <ele>506.2</ele>
        <time>2019-12-12T10:27:48Z</time>
      </trkpt>
      <trkpt lat="46.79074" lon="5.79733">
        <ele>506</ele>
        <time>2019-12-12T10:27:55Z</time>
      </trkpt>
      <trkpt lat="46.7907" lon="5.7973">
        <ele>505.6</ele>
        <time>2019-12-12T10:28:00Z</time>
      </trkpt>
      <trkpt lat="46.79064" lon="5.79728">
        <ele>505.2</ele>
        <time>2019-12-12T10:28:05Z</time>
      </trkpt>
      <trkpt lat="46.79054" lon="5.79728">
        <ele>504.8</ele>
        <time>2019-12-12T10:28:18Z</time>
      </trkpt>
      <trkpt lat="46.79049" lon="5.79726">
        <ele>505.3</ele>
        <time>2019-12-12T10:28:24Z</time>
      </trkpt>
      <trkpt lat="46.79045" lon="5.79726">
        <ele>505.6</ele>
        <time>2019-12-12T10:28:30Z</time>
      </trkpt>
      <trkpt lat="46.7904" lon="5.79725">
        <ele>505.9</ele>
        <time>2019-12-12T10:28:38Z</time>
      </trkpt>
      <trkpt lat="46.79035" lon="5.79723">
        <ele>506</ele>
        <time>2019-12-12T10:28:42Z</time>
      </trkpt>
      <trkpt lat="46.7903" lon="5.79721">
        <ele>506.2</ele>
        <time>2019-12-12T10:28:46Z</time>
      </trkpt>
      <trkpt lat="46.79025" lon="5.79719">
        <ele>506.6</ele>
        <time>2019-12-12T10:28:50Z</time>
      </trkpt>
      <trkpt lat="46.79021" lon="5.79717">
        <ele>507.1</ele>
        <time>2019-12-12T10:28:53Z</time>
      </trkpt>
      <trkpt lat="46.79016" lon="5.79716">
        <ele>508.1</ele>
        <time>2019-12-12T10:28:56Z</time>
      </trkpt>
      <trkpt lat="46.79012" lon="5.79717">
        <ele>509.4</ele>
        <time>2019-12-12T10:28:59Z</time>
      </trkpt>
      <trkpt lat="46.79007" lon="5.79719">
        <ele>511.1</ele>
        <time>2019-12-12T10:29:02Z</time>
      </trkpt>
      <trkpt lat="46.79002" lon="5.79721">
        <ele>513</ele>
        <time>2019-12-12T10:29:05Z</time>
      </trkpt>
      <trkpt lat="46.78996" lon="5.79724">
        <ele>516</ele>
        <time>2019-12-12T10:29:09Z</time>
      </trkpt>
      <trkpt lat="46.78991" lon="5.79725">
        <ele>518.2</ele>
        <time>2019-12-12T10:29:12Z</time>
      </trkpt>
      <trkpt lat="46.78986" lon="5.79726">
        <ele>522.1</ele>
        <time>2019-12-12T10:29:18Z</time>
      </trkpt>
      <trkpt lat="46.78981" lon="5.79724">
        <ele>524.9</ele>
        <time>2019-12-12T10:29:24Z</time>
      </trkpt>
      <trkpt lat="46.78976" lon="5.79721">
        <ele>526.7</ele>
        <time>2019-12-12T10:29:30Z</time>
      </trkpt>
      <trkpt lat="46.78972" lon="5.79718">
        <ele>527.9</ele>
        <time>2019-12-12T10:29:36Z</time>
      </trkpt>
      <trkpt lat="46.78961" lon="5.7971">
        <ele>528.5</ele>
        <time>2019-12-12T10:29:50Z</time>
      </trkpt>
      <trkpt lat="46.78957" lon="5.79707">
        <ele>527.5</ele>
        <time>2019-12-12T10:29:56Z</time>
      </trkpt>
      <trkpt lat="46.78953" lon="5.79704">
        <ele>526.7</ele>
        <time>2019-12-12T10:30:00Z</time>
      </trkpt>
      <trkpt lat="46.78948" lon="5.797">
        <ele>525.4</ele>
        <time>2019-12-12T10:30:05Z</time>
      </trkpt>
      <trkpt lat="46.78944" lon="5.79696">
        <ele>524</ele>
        <time>2019-12-12T10:30:10Z</time>
      </trkpt>
      <trkpt lat="46.78939" lon="5.79694">
        <ele>522.6</ele>
        <time>2019-12-12T10:30:15Z</time>
      </trkpt>
      <trkpt lat="46.78934" lon="5.79693">
        <ele>521.8</ele>
        <time>2019-12-12T10:30:19Z</time>
      </trkpt>
      <trkpt lat="46.78929" lon="5.79692">
        <ele>521.3</ele>
        <time>2019-12-12T10:30:23Z</time>
      </trkpt>
      <trkpt lat="46.78924" lon="5.79692">
        <ele>521.4</ele>
        <time>2019-12-12T10:30:27Z</time>
      </trkpt>
      <trkpt lat="46.78919" lon="5.79691">
        <ele>522.2</ele>
        <time>2019-12-12T10:30:32Z</time>
      </trkpt>
      <trkpt lat="46.78913" lon="5.79689">
        <ele>523.3</ele>
        <time>2019-12-12T10:30:37Z</time>
      </trkpt>
      <trkpt lat="46.78908" lon="5.79687">
        <ele>524.6</ele>
        <time>2019-12-12T10:30:41Z</time>
      </trkpt>
      <trkpt lat="46.78904" lon="5.79686">
        <ele>526</ele>
        <time>2019-12-12T10:30:45Z</time>
      </trkpt>
      <trkpt lat="46.78899" lon="5.79685">
        <ele>527.7</ele>
        <time>2019-12-12T10:30:49Z</time>
      </trkpt>
      <trkpt lat="46.78894" lon="5.79684">
        <ele>529.7</ele>
        <time>2019-12-12T10:30:54Z</time>
      </trkpt>
      <trkpt lat="46.78889" lon="5.79681">
        <ele>531.2</ele>
        <time>2019-12-12T10:30:58Z</time>
      </trkpt>
      <trkpt lat="46.78885" lon="5.79677">
        <ele>532.7</ele>
        <time>2019-12-12T10:31:02Z</time>
      </trkpt>
      <trkpt lat="46.7888" lon="5.79673">
        <ele>534.3</ele>
        <time>2019-12-12T10:31:07Z</time>
      </trkpt>
      <trkpt lat="46.78876" lon="5.7967">
        <ele>535.4</ele>
        <time>2019-12-12T10:31:11Z</time>
      </trkpt>
      <trkpt lat="46.78871" lon="5.79666">
        <ele>536.6</ele>
        <time>2019-12-12T10:31:18Z</time>
      </trkpt>
      <trkpt lat="46.78868" lon="5.79661">
        <ele>535.9</ele>
        <time>2019-12-12T10:31:26Z</time>
      </trkpt>
      <trkpt lat="46.78863" lon="5.79658">
        <ele>534.5</ele>
        <time>2019-12-12T10:31:31Z</time>
      </trkpt>
      <trkpt lat="46.78858" lon="5.79654">
        <ele>532.8</ele>
        <time>2019-12-12T10:31:36Z</time>
      </trkpt>
      <trkpt lat="46.78854" lon="5.7965">
        <ele>531</ele>
        <time>2019-12-12T10:31:41Z</time>
      </trkpt>
      <trkpt lat="46.78849" lon="5.79646">
        <ele>529.2</ele>
        <time>2019-12-12T10:31:47Z</time>
      </trkpt>
      <trkpt lat="46.78844" lon="5.79644">
        <ele>528</ele>
        <time>2019-12-12T10:31:52Z</time>
      </trkpt>
      <trkpt lat="46.7884" lon="5.79643">
        <ele>527</ele>
        <time>2019-12-12T10:31:56Z</time>
      </trkpt>
      <trkpt lat="46.78835" lon="5.79643">
        <ele>526</ele>
        <time>2019-12-12T10:32:00Z</time>
      </trkpt>
      <trkpt lat="46.7883" lon="5.79641">
        <ele>525.2</ele>
        <time>2019-12-12T10:32:04Z</time>
      </trkpt>
      <trkpt lat="46.78825" lon="5.7964">
        <ele>524.8</ele>
        <time>2019-12-12T10:32:08Z</time>
      </trkpt>
      <trkpt lat="46.7882" lon="5.79638">
        <ele>524.9</ele>
        <time>2019-12-12T10:32:12Z</time>
      </trkpt>
      <trkpt lat="46.78814" lon="5.79639">
        <ele>525.4</ele>
        <time>2019-12-12T10:32:16Z</time>
      </trkpt>
      <trkpt lat="46.78809" lon="5.79641">
        <ele>526.1</ele>
        <time>2019-12-12T10:32:19Z</time>
      </trkpt>
      <trkpt lat="46.78805" lon="5.79643">
        <ele>527.1</ele>
        <time>2019-12-12T10:32:23Z</time>
      </trkpt>
      <trkpt lat="46.788" lon="5.79641">
        <ele>528.4</ele>
        <time>2019-12-12T10:32:27Z</time>
      </trkpt>
      <trkpt lat="46.78795" lon="5.79638">
        <ele>529.7</ele>
        <time>2019-12-12T10:32:31Z</time>
      </trkpt>
      <trkpt lat="46.78791" lon="5.79636">
        <ele>531.4</ele>
        <time>2019-12-12T10:32:36Z</time>
      </trkpt>
      <trkpt lat="46.78786" lon="5.79634">
        <ele>533.1</ele>
        <time>2019-12-12T10:32:42Z</time>
      </trkpt>
      <trkpt lat="46.78782" lon="5.7963">
        <ele>534.2</ele>
        <time>2019-12-12T10:32:47Z</time>
      </trkpt>
      <trkpt lat="46.78778" lon="5.79626">
        <ele>535.4</ele>
        <time>2019-12-12T10:32:53Z</time>
      </trkpt>
      <trkpt lat="46.78774" lon="5.79622">
        <ele>536.2</ele>
        <time>2019-12-12T10:32:59Z</time>
      </trkpt>
      <trkpt lat="46.78769" lon="5.7962">
        <ele>536.6</ele>
        <time>2019-12-12T10:33:03Z</time>
      </trkpt>
      <trkpt lat="46.78765" lon="5.79617">
        <ele>536.7</ele>
        <time>2019-12-12T10:33:07Z</time>
      </trkpt>
      <trkpt lat="46.7876" lon="5.79613">
        <ele>536.4</ele>
        <time>2019-12-12T10:33:12Z</time>
      </trkpt>
      <trkpt lat="46.78756" lon="5.79611">
        <ele>535.9</ele>
        <time>2019-12-12T10:33:17Z</time>
      </trkpt>
      <trkpt lat="46.78752" lon="5.79607">
        <ele>534.5</ele>
        <time>2019-12-12T10:33:25Z</time>
      </trkpt>
      <trkpt lat="46.78748" lon="5.79604">
        <ele>532.9</ele>
        <time>2019-12-12T10:33:31Z</time>
      </trkpt>
      <trkpt lat="46.78743" lon="5.79601">
        <ele>531.7</ele>
        <time>2019-12-12T10:33:35Z</time>
      </trkpt>
      <trkpt lat="46.78739" lon="5.79597">
        <ele>530</ele>
        <time>2019-12-12T10:33:40Z</time>
      </trkpt>
      <trkpt lat="46.78734" lon="5.79595">
        <ele>527.6</ele>
        <time>2019-12-12T10:33:47Z</time>
      </trkpt>
      <trkpt lat="46.78729" lon="5.79593">
        <ele>525.7</ele>
        <time>2019-12-12T10:33:53Z</time>
      </trkpt>
      <trkpt lat="46.78724" lon="5.79589">
        <ele>524.3</ele>
        <time>2019-12-12T10:33:58Z</time>
      </trkpt>
      <trkpt lat="46.78721" lon="5.79585">
        <ele>522.4</ele>
        <time>2019-12-12T10:34:04Z</time>
      </trkpt>
      <trkpt lat="46.78717" lon="5.79581">
        <ele>520.8</ele>
        <time>2019-12-12T10:34:09Z</time>
      </trkpt>
      <trkpt lat="46.78714" lon="5.79575">
        <ele>518.8</ele>
        <time>2019-12-12T10:34:15Z</time>
      </trkpt>
      <trkpt lat="46.78709" lon="5.7957">
        <ele>517</ele>
        <time>2019-12-12T10:34:20Z</time>
      </trkpt>
      <trkpt lat="46.78703" lon="5.79567">
        <ele>516</ele>
        <time>2019-12-12T10:34:24Z</time>
      </trkpt>
      <trkpt lat="46.78697" lon="5.79566">
        <ele>515.8</ele>
        <time>2019-12-12T10:34:27Z</time>
      </trkpt>
      <trkpt lat="46.78692" lon="5.79567">
        <ele>516</ele>
        <time>2019-12-12T10:34:30Z</time>
      </trkpt>
      <trkpt lat="46.78686" lon="5.79566">
        <ele>516.9</ele>
        <time>2019-12-12T10:34:34Z</time>
      </trkpt>
      <trkpt lat="46.78681" lon="5.79563">
        <ele>518.4</ele>
        <time>2019-12-12T10:34:38Z</time>
      </trkpt>
      <trkpt lat="46.78677" lon="5.7956">
        <ele>519.6</ele>
        <time>2019-12-12T10:34:41Z</time>
      </trkpt>
      <trkpt lat="46.78672" lon="5.79556">
        <ele>521.6</ele>
        <time>2019-12-12T10:34:46Z</time>
      </trkpt>
      <trkpt lat="46.78669" lon="5.7955">
        <ele>524</ele>
        <time>2019-12-12T10:34:52Z</time>
      </trkpt>
      <trkpt lat="46.78666" lon="5.79543">
        <ele>526.2</ele>
        <time>2019-12-12T10:34:57Z</time>
      </trkpt>
      <trkpt lat="46.78664" lon="5.79537">
        <ele>528.6</ele>
        <time>2019-12-12T10:35:02Z</time>
      </trkpt>
      <trkpt lat="46.78661" lon="5.79532">
        <ele>530.8</ele>
        <time>2019-12-12T10:35:08Z</time>
      </trkpt>
      <trkpt lat="46.78658" lon="5.79527">
        <ele>532.2</ele>
        <time>2019-12-12T10:35:13Z</time>
      </trkpt>
      <trkpt lat="46.78655" lon="5.79521">
        <ele>533.8</ele>
        <time>2019-12-12T10:35:19Z</time>
      </trkpt>
      <trkpt lat="46.78652" lon="5.79515">
        <ele>534.8</ele>
        <time>2019-12-12T10:35:25Z</time>
      </trkpt>
      <trkpt lat="46.78648" lon="5.79511">
        <ele>535.4</ele>
        <time>2019-12-12T10:35:30Z</time>
      </trkpt>
      <trkpt lat="46.78645" lon="5.79506">
        <ele>535.9</ele>
        <time>2019-12-12T10:35:34Z</time>
      </trkpt>
      <trkpt lat="46.78641" lon="5.79503">
        <ele>536.2</ele>
        <time>2019-12-12T10:35:38Z</time>
      </trkpt>
      <trkpt lat="46.78636" lon="5.795">
        <ele>536.7</ele>
        <time>2019-12-12T10:35:45Z</time>
      </trkpt>
      <trkpt lat="46.78631" lon="5.79498">
        <ele>536.5</ele>
        <time>2019-12-12T10:35:53Z</time>
      </trkpt>
      <trkpt lat="46.78626" lon="5.79496">
        <ele>536.1</ele>
        <time>2019-12-12T10:35:58Z</time>
      </trkpt>
      <trkpt lat="46.78621" lon="5.79496">
        <ele>535.4</ele>
        <time>2019-12-12T10:36:02Z</time>
      </trkpt>
      <trkpt lat="46.78617" lon="5.79494">
        <ele>534.2</ele>
        <time>2019-12-12T10:36:08Z</time>
      </trkpt>
      <trkpt lat="46.78612" lon="5.79492">
        <ele>533.2</ele>
        <time>2019-12-12T10:36:14Z</time>
      </trkpt>
      <trkpt lat="46.78607" lon="5.79491">
        <ele>532.5</ele>
        <time>2019-12-12T10:36:19Z</time>
      </trkpt>
      <trkpt lat="46.78602" lon="5.79491">
        <ele>531.9</ele>
        <time>2019-12-12T10:36:24Z</time>
      </trkpt>
      <trkpt lat="46.78597" lon="5.79492">
        <ele>531.3</ele>
        <time>2019-12-12T10:36:29Z</time>
      </trkpt>
      <trkpt lat="46.78593" lon="5.79495">
        <ele>530.8</ele>
        <time>2019-12-12T10:36:33Z</time>
      </trkpt>
      <trkpt lat="46.78589" lon="5.79498">
        <ele>529.9</ele>
        <time>2019-12-12T10:36:38Z</time>
      </trkpt>
      <trkpt lat="46.78584" lon="5.79498">
        <ele>528.6</ele>
        <time>2019-12-12T10:36:43Z</time>
      </trkpt>
      <trkpt lat="46.78579" lon="5.79496">
        <ele>527.1</ele>
        <time>2019-12-12T10:36:48Z</time>
      </trkpt>
      <trkpt lat="46.78575" lon="5.79493">
        <ele>525.8</ele>
        <time>2019-12-12T10:36:53Z</time>
      </trkpt>
      <trkpt lat="46.7857" lon="5.7949">
        <ele>524.7</ele>
        <time>2019-12-12T10:36:59Z</time>
      </trkpt>
      <trkpt lat="46.78567" lon="5.79494">
        <ele>525.7</ele>
        <time>2019-12-12T10:37:39Z</time>
      </trkpt>
      <trkpt lat="46.78562" lon="5.79492">
        <ele>527.1</ele>
        <time>2019-12-12T10:37:45Z</time>
      </trkpt>
      <trkpt lat="46.78556" lon="5.79489">
        <ele>528.1</ele>
        <time>2019-12-12T10:37:49Z</time>
      </trkpt>
      <trkpt lat="46.78551" lon="5.79488">
        <ele>528.9</ele>
        <time>2019-12-12T10:37:52Z</time>
      </trkpt>
      <trkpt lat="46.78546" lon="5.79487">
        <ele>530</ele>
        <time>2019-12-12T10:37:56Z</time>
      </trkpt>
      <trkpt lat="46.78541" lon="5.79485">
        <ele>531.8</ele>
        <time>2019-12-12T10:38:02Z</time>
      </trkpt>
      <trkpt lat="46.78538" lon="5.79479">
        <ele>533.5</ele>
        <time>2019-12-12T10:38:08Z</time>
      </trkpt>
      <trkpt lat="46.78536" lon="5.79471">
        <ele>534.9</ele>
        <time>2019-12-12T10:38:15Z</time>
      </trkpt>
      <trkpt lat="46.78536" lon="5.79463">
        <ele>535.1</ele>
        <time>2019-12-12T10:38:19Z</time>
      </trkpt>
      <trkpt lat="46.78538" lon="5.79457">
        <ele>534.7</ele>
        <time>2019-12-12T10:38:26Z</time>
      </trkpt>
      <trkpt lat="46.78539" lon="5.7945">
        <ele>531.1</ele>
        <time>2019-12-12T10:38:42Z</time>
      </trkpt>
      <trkpt lat="46.78537" lon="5.79444">
        <ele>523.6</ele>
        <time>2019-12-12T10:39:04Z</time>
      </trkpt>
      <trkpt lat="46.78533" lon="5.79449">
        <ele>523.5</ele>
        <time>2019-12-12T10:39:34Z</time>
      </trkpt>
      <trkpt lat="46.78527" lon="5.79451">
        <ele>524.1</ele>
        <time>2019-12-12T10:39:38Z</time>
      </trkpt>
      <trkpt lat="46.78523" lon="5.79455">
        <ele>524.6</ele>
        <time>2019-12-12T10:39:41Z</time>
      </trkpt>
      <trkpt lat="46.78522" lon="5.79462">
        <ele>525.7</ele>
        <time>2019-12-12T10:39:53Z</time>
      </trkpt>
      <trkpt lat="46.78518" lon="5.79465">
        <ele>526.5</ele>
        <time>2019-12-12T10:40:14Z</time>
      </trkpt>
      <trkpt lat="46.78514" lon="5.79462">
        <ele>526.7</ele>
        <time>2019-12-12T10:40:19Z</time>
      </trkpt>
      <trkpt lat="46.78509" lon="5.79461">
        <ele>527.1</ele>
        <time>2019-12-12T10:40:29Z</time>
      </trkpt>
      <trkpt lat="46.78504" lon="5.79463">
        <ele>527.5</ele>
        <time>2019-12-12T10:40:36Z</time>
      </trkpt>
      <trkpt lat="46.78501" lon="5.79467">
        <ele>527.7</ele>
        <time>2019-12-12T10:40:42Z</time>
      </trkpt>
      <trkpt lat="46.78502" lon="5.79484">
        <ele>528.1</ele>
        <time>2019-12-12T10:40:54Z</time>
      </trkpt>
      <trkpt lat="46.78504" lon="5.79491">
        <ele>528.1</ele>
        <time>2019-12-12T10:40:58Z</time>
      </trkpt>
      <trkpt lat="46.78506" lon="5.79496">
        <ele>528.3</ele>
        <time>2019-12-12T10:41:03Z</time>
      </trkpt>
      <trkpt lat="46.7851" lon="5.795">
        <ele>528.5</ele>
        <time>2019-12-12T10:41:09Z</time>
      </trkpt>
      <trkpt lat="46.78509" lon="5.79508">
        <ele>531.1</ele>
        <time>2019-12-12T10:41:47Z</time>
      </trkpt>
      <trkpt lat="46.78508" lon="5.79515">
        <ele>531.5</ele>
        <time>2019-12-12T10:41:56Z</time>
      </trkpt>
      <trkpt lat="46.78506" lon="5.79521">
        <ele>531.7</ele>
        <time>2019-12-12T10:42:02Z</time>
      </trkpt>
      <trkpt lat="46.78503" lon="5.79526">
        <ele>532.5</ele>
        <time>2019-12-12T10:42:09Z</time>
      </trkpt>
      <trkpt lat="46.78499" lon="5.7953">
        <ele>533.3</ele>
        <time>2019-12-12T10:42:22Z</time>
      </trkpt>
      <trkpt lat="46.78496" lon="5.79536">
        <ele>533.3</ele>
        <time>2019-12-12T10:42:28Z</time>
      </trkpt>
      <trkpt lat="46.78494" lon="5.79542">
        <ele>533</ele>
        <time>2019-12-12T10:42:34Z</time>
      </trkpt>
      <trkpt lat="46.78491" lon="5.79547">
        <ele>532.7</ele>
        <time>2019-12-12T10:42:38Z</time>
      </trkpt>
      <trkpt lat="46.78487" lon="5.79553">
        <ele>532.2</ele>
        <time>2019-12-12T10:42:45Z</time>
      </trkpt>
      <trkpt lat="46.78484" lon="5.79557">
        <ele>531.5</ele>
        <time>2019-12-12T10:42:52Z</time>
      </trkpt>
      <trkpt lat="46.7848" lon="5.79563">
        <ele>531.3</ele>
        <time>2019-12-12T10:42:58Z</time>
      </trkpt>
      <trkpt lat="46.78477" lon="5.79569">
        <ele>531.3</ele>
        <time>2019-12-12T10:43:04Z</time>
      </trkpt>
      <trkpt lat="46.78472" lon="5.79572">
        <ele>531.5</ele>
        <time>2019-12-12T10:43:10Z</time>
      </trkpt>
      <trkpt lat="46.78468" lon="5.79576">
        <ele>531.7</ele>
        <time>2019-12-12T10:43:14Z</time>
      </trkpt>
      <trkpt lat="46.78466" lon="5.79583">
        <ele>531.7</ele>
        <time>2019-12-12T10:43:18Z</time>
      </trkpt>
      <trkpt lat="46.78464" lon="5.79589">
        <ele>531.7</ele>
        <time>2019-12-12T10:43:23Z</time>
      </trkpt>
      <trkpt lat="46.78462" lon="5.79595">
        <ele>531.6</ele>
        <time>2019-12-12T10:43:26Z</time>
      </trkpt>
      <trkpt lat="46.78459" lon="5.79601">
        <ele>531.2</ele>
        <time>2019-12-12T10:43:30Z</time>
      </trkpt>
      <trkpt lat="46.78457" lon="5.79607">
        <ele>530.4</ele>
        <time>2019-12-12T10:43:38Z</time>
      </trkpt>
      <trkpt lat="46.78454" lon="5.79612">
        <ele>529.9</ele>
        <time>2019-12-12T10:43:43Z</time>
      </trkpt>
      <trkpt lat="46.78447" lon="5.79612">
        <ele>531.4</ele>
        <time>2019-12-12T11:16:50Z</time>
      </trkpt>
      <trkpt lat="46.78435" lon="5.79607">
        <ele>534</ele>
        <time>2019-12-12T11:20:46Z</time>
      </trkpt>
      <trkpt lat="46.78434" lon="5.79613">
        <ele>534.1</ele>
        <time>2019-12-12T11:20:55Z</time>
      </trkpt>
      <trkpt lat="46.78431" lon="5.79619">
        <ele>534.1</ele>
        <time>2019-12-12T11:21:19Z</time>
      </trkpt>
      <trkpt lat="46.78428" lon="5.79623">
        <ele>534.3</ele>
        <time>2019-12-12T11:21:23Z</time>
      </trkpt>
      <trkpt lat="46.78424" lon="5.79627">
        <ele>534.3</ele>
        <time>2019-12-12T11:21:28Z</time>
      </trkpt>
      <trkpt lat="46.7842" lon="5.79632">
        <ele>534.5</ele>
        <time>2019-12-12T11:21:44Z</time>
      </trkpt>
      <trkpt lat="46.78416" lon="5.79635">
        <ele>535</ele>
        <time>2019-12-12T11:21:51Z</time>
      </trkpt>
      <trkpt lat="46.78413" lon="5.79641">
        <ele>535.1</ele>
        <time>2019-12-12T11:21:56Z</time>
      </trkpt>
      <trkpt lat="46.78409" lon="5.79645">
        <ele>534.9</ele>
        <time>2019-12-12T11:22:02Z</time>
      </trkpt>
      <trkpt lat="46.78405" lon="5.7965">
        <ele>534.6</ele>
        <time>2019-12-12T11:22:08Z</time>
      </trkpt>
      <trkpt lat="46.784" lon="5.79652">
        <ele>533.9</ele>
        <time>2019-12-12T11:22:14Z</time>
      </trkpt>
      <trkpt lat="46.78395" lon="5.79655">
        <ele>533.4</ele>
        <time>2019-12-12T11:22:20Z</time>
      </trkpt>
      <trkpt lat="46.7839" lon="5.79656">
        <ele>532.9</ele>
        <time>2019-12-12T11:22:25Z</time>
      </trkpt>
      <trkpt lat="46.78385" lon="5.79658">
        <ele>532.4</ele>
        <time>2019-12-12T11:22:31Z</time>
      </trkpt>
      <trkpt lat="46.7838" lon="5.7966">
        <ele>532.1</ele>
        <time>2019-12-12T11:22:36Z</time>
      </trkpt>
      <trkpt lat="46.78376" lon="5.79664">
        <ele>532.1</ele>
        <time>2019-12-12T11:22:41Z</time>
      </trkpt>
      <trkpt lat="46.78371" lon="5.79668">
        <ele>532.1</ele>
        <time>2019-12-12T11:22:45Z</time>
      </trkpt>
      <trkpt lat="46.78367" lon="5.79671">
        <ele>532.1</ele>
        <time>2019-12-12T11:22:49Z</time>
      </trkpt>
      <trkpt lat="46.78363" lon="5.79675">
        <ele>532.2</ele>
        <time>2019-12-12T11:22:52Z</time>
      </trkpt>
      <trkpt lat="46.78358" lon="5.7968">
        <ele>532.3</ele>
        <time>2019-12-12T11:22:56Z</time>
      </trkpt>
      <trkpt lat="46.78354" lon="5.79684">
        <ele>532.3</ele>
        <time>2019-12-12T11:22:59Z</time>
      </trkpt>
      <trkpt lat="46.7835" lon="5.79689">
        <ele>532.3</ele>
        <time>2019-12-12T11:23:02Z</time>
      </trkpt>
      <trkpt lat="46.78346" lon="5.79693">
        <ele>532.3</ele>
        <time>2019-12-12T11:23:06Z</time>
      </trkpt>
      <trkpt lat="46.78343" lon="5.79698">
        <ele>532.4</ele>
        <time>2019-12-12T11:23:11Z</time>
      </trkpt>
      <trkpt lat="46.78339" lon="5.79703">
        <ele>532.4</ele>
        <time>2019-12-12T11:23:15Z</time>
      </trkpt>
      <trkpt lat="46.78336" lon="5.79709">
        <ele>532.2</ele>
        <time>2019-12-12T11:23:21Z</time>
      </trkpt>
      <trkpt lat="46.78331" lon="5.79712">
        <ele>532.1</ele>
        <time>2019-12-12T11:23:25Z</time>
      </trkpt>
      <trkpt lat="46.78327" lon="5.79716">
        <ele>532.1</ele>
        <time>2019-12-12T11:23:29Z</time>
      </trkpt>
      <trkpt lat="46.78323" lon="5.7972">
        <ele>531.7</ele>
        <time>2019-12-12T11:23:47Z</time>
      </trkpt>
      <trkpt lat="46.78319" lon="5.79722">
        <ele>531.5</ele>
        <time>2019-12-12T11:23:53Z</time>
      </trkpt>
      <trkpt lat="46.78314" lon="5.79722">
        <ele>531.4</ele>
        <time>2019-12-12T11:24:01Z</time>
      </trkpt>
      <trkpt lat="46.78309" lon="5.79721">
        <ele>531.5</ele>
        <time>2019-12-12T11:24:07Z</time>
      </trkpt>
      <trkpt lat="46.78304" lon="5.7972">
        <ele>531.5</ele>
        <time>2019-12-12T11:24:13Z</time>
      </trkpt>
      <trkpt lat="46.78299" lon="5.79717">
        <ele>531.6</ele>
        <time>2019-12-12T11:24:18Z</time>
      </trkpt>
      <trkpt lat="46.78294" lon="5.79715">
        <ele>531.6</ele>
        <time>2019-12-12T11:24:22Z</time>
      </trkpt>
      <trkpt lat="46.78289" lon="5.79713">
        <ele>531.2</ele>
        <time>2019-12-12T11:24:29Z</time>
      </trkpt>
      <trkpt lat="46.78285" lon="5.7971">
        <ele>531</ele>
        <time>2019-12-12T11:24:34Z</time>
      </trkpt>
      <trkpt lat="46.78281" lon="5.79707">
        <ele>530.8</ele>
        <time>2019-12-12T11:24:39Z</time>
      </trkpt>
      <trkpt lat="46.78276" lon="5.79704">
        <ele>530.6</ele>
        <time>2019-12-12T11:24:44Z</time>
      </trkpt>
      <trkpt lat="46.78272" lon="5.797">
        <ele>530.2</ele>
        <time>2019-12-12T11:24:49Z</time>
      </trkpt>
      <trkpt lat="46.78267" lon="5.79697">
        <ele>529.8</ele>
        <time>2019-12-12T11:24:53Z</time>
      </trkpt>
      <trkpt lat="46.78262" lon="5.79695">
        <ele>529.4</ele>
        <time>2019-12-12T11:24:57Z</time>
      </trkpt>
      <trkpt lat="46.78257" lon="5.79692">
        <ele>528.8</ele>
        <time>2019-12-12T11:25:02Z</time>
      </trkpt>
      <trkpt lat="46.78253" lon="5.79687">
        <ele>528.3</ele>
        <time>2019-12-12T11:25:07Z</time>
      </trkpt>
      <trkpt lat="46.78248" lon="5.79683">
        <ele>527.9</ele>
        <time>2019-12-12T11:25:11Z</time>
      </trkpt>
      <trkpt lat="46.78244" lon="5.7968">
        <ele>527.5</ele>
        <time>2019-12-12T11:25:15Z</time>
      </trkpt>
      <trkpt lat="46.78241" lon="5.79674">
        <ele>527.1</ele>
        <time>2019-12-12T11:25:19Z</time>
      </trkpt>
      <trkpt lat="46.78239" lon="5.79669">
        <ele>526.6</ele>
        <time>2019-12-12T11:25:23Z</time>
      </trkpt>
      <trkpt lat="46.78235" lon="5.79664">
        <ele>526.1</ele>
        <time>2019-12-12T11:25:27Z</time>
      </trkpt>
      <trkpt lat="46.78231" lon="5.79661">
        <ele>525.7</ele>
        <time>2019-12-12T11:25:32Z</time>
      </trkpt>
      <trkpt lat="46.78228" lon="5.79655">
        <ele>525.5</ele>
        <time>2019-12-12T11:25:37Z</time>
      </trkpt>
      <trkpt lat="46.78226" lon="5.79648">
        <ele>525.6</ele>
        <time>2019-12-12T11:25:41Z</time>
      </trkpt>
      <trkpt lat="46.78225" lon="5.7964">
        <ele>525.7</ele>
        <time>2019-12-12T11:25:45Z</time>
      </trkpt>
      <trkpt lat="46.78222" lon="5.79634">
        <ele>525.6</ele>
        <time>2019-12-12T11:25:50Z</time>
      </trkpt>
      <trkpt lat="46.78222" lon="5.79626">
        <ele>525.7</ele>
        <time>2019-12-12T11:25:55Z</time>
      </trkpt>
      <trkpt lat="46.78224" lon="5.79617">
        <ele>525.8</ele>
        <time>2019-12-12T11:25:59Z</time>
      </trkpt>
      <trkpt lat="46.78225" lon="5.7961">
        <ele>525.8</ele>
        <time>2019-12-12T11:26:02Z</time>
      </trkpt>
      <trkpt lat="46.78226" lon="5.79601">
        <ele>525.6</ele>
        <time>2019-12-12T11:26:07Z</time>
      </trkpt>
      <trkpt lat="46.78226" lon="5.79594">
        <ele>525</ele>
        <time>2019-12-12T11:26:12Z</time>
      </trkpt>
      <trkpt lat="46.78226" lon="5.79586">
        <ele>524.4</ele>
        <time>2019-12-12T11:26:16Z</time>
      </trkpt>
      <trkpt lat="46.78226" lon="5.79578">
        <ele>524.1</ele>
        <time>2019-12-12T11:26:20Z</time>
      </trkpt>
      <trkpt lat="46.78225" lon="5.79571">
        <ele>523.9</ele>
        <time>2019-12-12T11:26:24Z</time>
      </trkpt>
      <trkpt lat="46.78224" lon="5.79563">
        <ele>524</ele>
        <time>2019-12-12T11:26:29Z</time>
      </trkpt>
      <trkpt lat="46.78223" lon="5.79556">
        <ele>524</ele>
        <time>2019-12-12T11:26:33Z</time>
      </trkpt>
      <trkpt lat="46.78222" lon="5.7955">
        <ele>523.9</ele>
        <time>2019-12-12T11:26:37Z</time>
      </trkpt>
      <trkpt lat="46.78222" lon="5.79543">
        <ele>523.9</ele>
        <time>2019-12-12T11:26:41Z</time>
      </trkpt>
      <trkpt lat="46.78221" lon="5.79536">
        <ele>524</ele>
        <time>2019-12-12T11:26:45Z</time>
      </trkpt>
      <trkpt lat="46.78222" lon="5.79529">
        <ele>524</ele>
        <time>2019-12-12T11:26:49Z</time>
      </trkpt>
      <trkpt lat="46.78221" lon="5.79521">
        <ele>524.1</ele>
        <time>2019-12-12T11:26:54Z</time>
      </trkpt>
      <trkpt lat="46.7822" lon="5.79513">
        <ele>524.2</ele>
        <time>2019-12-12T11:26:58Z</time>
      </trkpt>
      <trkpt lat="46.78219" lon="5.79506">
        <ele>524.2</ele>
        <time>2019-12-12T11:27:02Z</time>
      </trkpt>
      <trkpt lat="46.78219" lon="5.79499">
        <ele>524.2</ele>
        <time>2019-12-12T11:27:07Z</time>
      </trkpt>
      <trkpt lat="46.78218" lon="5.79491">
        <ele>523.6</ele>
        <time>2019-12-12T11:27:12Z</time>
      </trkpt>
      <trkpt lat="46.78217" lon="5.79483">
        <ele>522.6</ele>
        <time>2019-12-12T11:27:16Z</time>
      </trkpt>
      <trkpt lat="46.78216" lon="5.79476">
        <ele>521.3</ele>
        <time>2019-12-12T11:27:21Z</time>
      </trkpt>
      <trkpt lat="46.78216" lon="5.79469">
        <ele>520.4</ele>
        <time>2019-12-12T11:27:25Z</time>
      </trkpt>
      <trkpt lat="46.78216" lon="5.79461">
        <ele>519.2</ele>
        <time>2019-12-12T11:27:30Z</time>
      </trkpt>
      <trkpt lat="46.78217" lon="5.79454">
        <ele>518.4</ele>
        <time>2019-12-12T11:27:35Z</time>
      </trkpt>
      <trkpt lat="46.78217" lon="5.79446">
        <ele>517.7</ele>
        <time>2019-12-12T11:27:40Z</time>
      </trkpt>
      <trkpt lat="46.78217" lon="5.79439">
        <ele>517.2</ele>
        <time>2019-12-12T11:27:43Z</time>
      </trkpt>
      <trkpt lat="46.78217" lon="5.79431">
        <ele>516.8</ele>
        <time>2019-12-12T11:27:47Z</time>
      </trkpt>
      <trkpt lat="46.78217" lon="5.79423">
        <ele>516.6</ele>
        <time>2019-12-12T11:27:51Z</time>
      </trkpt>
      <trkpt lat="46.78217" lon="5.79416">
        <ele>516.5</ele>
        <time>2019-12-12T11:27:55Z</time>
      </trkpt>
      <trkpt lat="46.78217" lon="5.79409">
        <ele>516.6</ele>
        <time>2019-12-12T11:27:59Z</time>
      </trkpt>
      <trkpt lat="46.78216" lon="5.79402">
        <ele>516.7</ele>
        <time>2019-12-12T11:28:04Z</time>
      </trkpt>
      <trkpt lat="46.78214" lon="5.79395">
        <ele>516.7</ele>
        <time>2019-12-12T11:28:08Z</time>
      </trkpt>
      <trkpt lat="46.78213" lon="5.79388">
        <ele>516.9</ele>
        <time>2019-12-12T11:28:12Z</time>
      </trkpt>
      <trkpt lat="46.7821" lon="5.79382">
        <ele>517.2</ele>
        <time>2019-12-12T11:28:17Z</time>
      </trkpt>
      <trkpt lat="46.78206" lon="5.79377">
        <ele>517.4</ele>
        <time>2019-12-12T11:28:21Z</time>
      </trkpt>
      <trkpt lat="46.78204" lon="5.79371">
        <ele>517.5</ele>
        <time>2019-12-12T11:28:25Z</time>
      </trkpt>
      <trkpt lat="46.782" lon="5.79365">
        <ele>517.7</ele>
        <time>2019-12-12T11:28:30Z</time>
      </trkpt>
      <trkpt lat="46.78196" lon="5.79359">
        <ele>517.9</ele>
        <time>2019-12-12T11:28:34Z</time>
      </trkpt>
      <trkpt lat="46.78193" lon="5.79353">
        <ele>518.1</ele>
        <time>2019-12-12T11:28:39Z</time>
      </trkpt>
      <trkpt lat="46.78189" lon="5.79347">
        <ele>518.2</ele>
        <time>2019-12-12T11:28:43Z</time>
      </trkpt>
      <trkpt lat="46.78185" lon="5.79341">
        <ele>518.3</ele>
        <time>2019-12-12T11:28:47Z</time>
      </trkpt>
      <trkpt lat="46.78181" lon="5.79335">
        <ele>518.2</ele>
        <time>2019-12-12T11:28:51Z</time>
      </trkpt>
      <trkpt lat="46.7818" lon="5.79328">
        <ele>518.2</ele>
        <time>2019-12-12T11:28:55Z</time>
      </trkpt>
      <trkpt lat="46.78177" lon="5.7932">
        <ele>518.3</ele>
        <time>2019-12-12T11:29:00Z</time>
      </trkpt>
      <trkpt lat="46.78175" lon="5.79314">
        <ele>518.3</ele>
        <time>2019-12-12T11:29:04Z</time>
      </trkpt>
      <trkpt lat="46.78172" lon="5.79307">
        <ele>518.3</ele>
        <time>2019-12-12T11:29:10Z</time>
      </trkpt>
      <trkpt lat="46.7817" lon="5.79301">
        <ele>518.4</ele>
        <time>2019-12-12T11:29:14Z</time>
      </trkpt>
      <trkpt lat="46.78167" lon="5.79295">
        <ele>518.4</ele>
        <time>2019-12-12T11:29:18Z</time>
      </trkpt>
      <trkpt lat="46.78164" lon="5.79289">
        <ele>518.3</ele>
        <time>2019-12-12T11:29:22Z</time>
      </trkpt>
      <trkpt lat="46.78161" lon="5.79283">
        <ele>518.2</ele>
        <time>2019-12-12T11:29:26Z</time>
      </trkpt>
      <trkpt lat="46.78159" lon="5.79276">
        <ele>518</ele>
        <time>2019-12-12T11:29:31Z</time>
      </trkpt>
      <trkpt lat="46.78156" lon="5.79269">
        <ele>517.9</ele>
        <time>2019-12-12T11:29:35Z</time>
      </trkpt>
      <trkpt lat="46.78153" lon="5.79262">
        <ele>517.8</ele>
        <time>2019-12-12T11:29:39Z</time>
      </trkpt>
      <trkpt lat="46.78149" lon="5.79256">
        <ele>517.8</ele>
        <time>2019-12-12T11:29:45Z</time>
      </trkpt>
      <trkpt lat="46.78145" lon="5.79251">
        <ele>517.8</ele>
        <time>2019-12-12T11:29:50Z</time>
      </trkpt>
      <trkpt lat="46.7814" lon="5.79251">
        <ele>517.9</ele>
        <time>2019-12-12T11:29:54Z</time>
      </trkpt>
      <trkpt lat="46.78135" lon="5.79252">
        <ele>518.1</ele>
        <time>2019-12-12T11:30:00Z</time>
      </trkpt>
      <trkpt lat="46.7813" lon="5.79255">
        <ele>518.7</ele>
        <time>2019-12-12T11:30:06Z</time>
      </trkpt>
      <trkpt lat="46.78125" lon="5.79256">
        <ele>519.1</ele>
        <time>2019-12-12T11:30:10Z</time>
      </trkpt>
      <trkpt lat="46.78121" lon="5.79257">
        <ele>519.4</ele>
        <time>2019-12-12T11:30:14Z</time>
      </trkpt>
      <trkpt lat="46.78115" lon="5.7926">
        <ele>519.4</ele>
        <time>2019-12-12T11:30:19Z</time>
      </trkpt>
      <trkpt lat="46.7811" lon="5.79262">
        <ele>519.3</ele>
        <time>2019-12-12T11:30:23Z</time>
      </trkpt>
      <trkpt lat="46.78105" lon="5.79264">
        <ele>519.3</ele>
        <time>2019-12-12T11:30:29Z</time>
      </trkpt>
      <trkpt lat="46.78101" lon="5.7927">
        <ele>519.3</ele>
        <time>2019-12-12T11:30:34Z</time>
      </trkpt>
      <trkpt lat="46.78098" lon="5.79275">
        <ele>519.5</ele>
        <time>2019-12-12T11:30:39Z</time>
      </trkpt>
      <trkpt lat="46.78095" lon="5.79282">
        <ele>519.7</ele>
        <time>2019-12-12T11:30:44Z</time>
      </trkpt>
      <trkpt lat="46.78091" lon="5.79288">
        <ele>520.2</ele>
        <time>2019-12-12T11:30:49Z</time>
      </trkpt>
      <trkpt lat="46.78088" lon="5.79295">
        <ele>520.6</ele>
        <time>2019-12-12T11:30:53Z</time>
      </trkpt>
      <trkpt lat="46.78085" lon="5.79302">
        <ele>520.8</ele>
        <time>2019-12-12T11:30:57Z</time>
      </trkpt>
      <trkpt lat="46.78083" lon="5.79308">
        <ele>520.9</ele>
        <time>2019-12-12T11:31:01Z</time>
      </trkpt>
      <trkpt lat="46.7808" lon="5.79313">
        <ele>521</ele>
        <time>2019-12-12T11:31:06Z</time>
      </trkpt>
      <trkpt lat="46.78077" lon="5.79319">
        <ele>521.2</ele>
        <time>2019-12-12T11:31:10Z</time>
      </trkpt>
      <trkpt lat="46.78074" lon="5.79325">
        <ele>521.2</ele>
        <time>2019-12-12T11:31:15Z</time>
      </trkpt>
      <trkpt lat="46.78071" lon="5.7933">
        <ele>521.4</ele>
        <time>2019-12-12T11:31:20Z</time>
      </trkpt>
      <trkpt lat="46.78067" lon="5.79336">
        <ele>521.5</ele>
        <time>2019-12-12T11:31:24Z</time>
      </trkpt>
      <trkpt lat="46.78064" lon="5.79341">
        <ele>521.6</ele>
        <time>2019-12-12T11:31:28Z</time>
      </trkpt>
      <trkpt lat="46.7806" lon="5.79346">
        <ele>521.7</ele>
        <time>2019-12-12T11:31:32Z</time>
      </trkpt>
      <trkpt lat="46.78056" lon="5.79349">
        <ele>521.6</ele>
        <time>2019-12-12T11:31:36Z</time>
      </trkpt>
      <trkpt lat="46.78051" lon="5.79354">
        <ele>521.5</ele>
        <time>2019-12-12T11:31:41Z</time>
      </trkpt>
      <trkpt lat="46.78047" lon="5.79358">
        <ele>521.5</ele>
        <time>2019-12-12T11:31:46Z</time>
      </trkpt>
      <trkpt lat="46.78042" lon="5.7936">
        <ele>521.4</ele>
        <time>2019-12-12T11:31:52Z</time>
      </trkpt>
      <trkpt lat="46.78036" lon="5.79361">
        <ele>521.3</ele>
        <time>2019-12-12T11:31:58Z</time>
      </trkpt>
      <trkpt lat="46.78032" lon="5.79363">
        <ele>521.1</ele>
        <time>2019-12-12T11:32:02Z</time>
      </trkpt>
      <trkpt lat="46.78027" lon="5.79364">
        <ele>520.8</ele>
        <time>2019-12-12T11:32:06Z</time>
      </trkpt>
      <trkpt lat="46.78021" lon="5.79364">
        <ele>520.4</ele>
        <time>2019-12-12T11:32:10Z</time>
      </trkpt>
      <trkpt lat="46.78016" lon="5.79365">
        <ele>520</ele>
        <time>2019-12-12T11:32:14Z</time>
      </trkpt>
      <trkpt lat="46.7801" lon="5.79366">
        <ele>519.9</ele>
        <time>2019-12-12T11:32:20Z</time>
      </trkpt>
      <trkpt lat="46.78005" lon="5.79366">
        <ele>519.9</ele>
        <time>2019-12-12T11:32:24Z</time>
      </trkpt>
      <trkpt lat="46.78" lon="5.79365">
        <ele>519.9</ele>
        <time>2019-12-12T11:32:28Z</time>
      </trkpt>
      <trkpt lat="46.77995" lon="5.79364">
        <ele>519.8</ele>
        <time>2019-12-12T11:32:33Z</time>
      </trkpt>
      <trkpt lat="46.7799" lon="5.79362">
        <ele>519.6</ele>
        <time>2019-12-12T11:32:37Z</time>
      </trkpt>
      <trkpt lat="46.77986" lon="5.79358">
        <ele>519.2</ele>
        <time>2019-12-12T11:32:42Z</time>
      </trkpt>
      <trkpt lat="46.77981" lon="5.79356">
        <ele>518.8</ele>
        <time>2019-12-12T11:32:46Z</time>
      </trkpt>
      <trkpt lat="46.77976" lon="5.79354">
        <ele>518.7</ele>
        <time>2019-12-12T11:32:51Z</time>
      </trkpt>
      <trkpt lat="46.77971" lon="5.7935">
        <ele>518.6</ele>
        <time>2019-12-12T11:32:56Z</time>
      </trkpt>
      <trkpt lat="46.77967" lon="5.79346">
        <ele>518.6</ele>
        <time>2019-12-12T11:33:01Z</time>
      </trkpt>
      <trkpt lat="46.77962" lon="5.79343">
        <ele>518.5</ele>
        <time>2019-12-12T11:33:05Z</time>
      </trkpt>
      <trkpt lat="46.77958" lon="5.79339">
        <ele>518.4</ele>
        <time>2019-12-12T11:33:09Z</time>
      </trkpt>
      <trkpt lat="46.77954" lon="5.79335">
        <ele>518.3</ele>
        <time>2019-12-12T11:33:13Z</time>
      </trkpt>
      <trkpt lat="46.7795" lon="5.79331">
        <ele>518.2</ele>
        <time>2019-12-12T11:33:18Z</time>
      </trkpt>
      <trkpt lat="46.77946" lon="5.79327">
        <ele>518.1</ele>
        <time>2019-12-12T11:33:22Z</time>
      </trkpt>
      <trkpt lat="46.77942" lon="5.79324">
        <ele>518</ele>
        <time>2019-12-12T11:33:26Z</time>
      </trkpt>
      <trkpt lat="46.77938" lon="5.79321">
        <ele>517.9</ele>
        <time>2019-12-12T11:33:30Z</time>
      </trkpt>
      <trkpt lat="46.77933" lon="5.79318">
        <ele>517.8</ele>
        <time>2019-12-12T11:33:34Z</time>
      </trkpt>
      <trkpt lat="46.77928" lon="5.79314">
        <ele>517.8</ele>
        <time>2019-12-12T11:33:39Z</time>
      </trkpt>
      <trkpt lat="46.77924" lon="5.7931">
        <ele>517.8</ele>
        <time>2019-12-12T11:33:43Z</time>
      </trkpt>
      <trkpt lat="46.7792" lon="5.79306">
        <ele>517.7</ele>
        <time>2019-12-12T11:33:47Z</time>
      </trkpt>
      <trkpt lat="46.77915" lon="5.79303">
        <ele>517.7</ele>
        <time>2019-12-12T11:33:52Z</time>
      </trkpt>
      <trkpt lat="46.7791" lon="5.79305">
        <ele>517.6</ele>
        <time>2019-12-12T11:33:56Z</time>
      </trkpt>
      <trkpt lat="46.77905" lon="5.79308">
        <ele>517.7</ele>
        <time>2019-12-12T11:34:01Z</time>
      </trkpt>
      <trkpt lat="46.77901" lon="5.79309">
        <ele>517.7</ele>
        <time>2019-12-12T11:34:04Z</time>
      </trkpt>
      <trkpt lat="46.77895" lon="5.7931">
        <ele>517.7</ele>
        <time>2019-12-12T11:34:08Z</time>
      </trkpt>
      <trkpt lat="46.7789" lon="5.79311">
        <ele>517.6</ele>
        <time>2019-12-12T11:34:13Z</time>
      </trkpt>
      <trkpt lat="46.77886" lon="5.79312">
        <ele>517.5</ele>
        <time>2019-12-12T11:34:17Z</time>
      </trkpt>
      <trkpt lat="46.77881" lon="5.79315">
        <ele>517.3</ele>
        <time>2019-12-12T11:34:22Z</time>
      </trkpt>
      <trkpt lat="46.77876" lon="5.79317">
        <ele>517.4</ele>
        <time>2019-12-12T11:34:26Z</time>
      </trkpt>
      <trkpt lat="46.77871" lon="5.79318">
        <ele>517.6</ele>
        <time>2019-12-12T11:34:31Z</time>
      </trkpt>
      <trkpt lat="46.77867" lon="5.79314">
        <ele>517</ele>
        <time>2019-12-12T11:34:52Z</time>
      </trkpt>
      <trkpt lat="46.77864" lon="5.79309">
        <ele>516.6</ele>
        <time>2019-12-12T11:34:56Z</time>
      </trkpt>
      <trkpt lat="46.77862" lon="5.79301">
        <ele>516.1</ele>
        <time>2019-12-12T11:35:00Z</time>
      </trkpt>
      <trkpt lat="46.7786" lon="5.79295">
        <ele>515.9</ele>
        <time>2019-12-12T11:35:04Z</time>
      </trkpt>
      <trkpt lat="46.77857" lon="5.79288">
        <ele>515.8</ele>
        <time>2019-12-12T11:35:09Z</time>
      </trkpt>
      <trkpt lat="46.77853" lon="5.79282">
        <ele>515.8</ele>
        <time>2019-12-12T11:35:13Z</time>
      </trkpt>
      <trkpt lat="46.77849" lon="5.79278">
        <ele>515.8</ele>
        <time>2019-12-12T11:35:16Z</time>
      </trkpt>
      <trkpt lat="46.77846" lon="5.79272">
        <ele>515.7</ele>
        <time>2019-12-12T11:35:20Z</time>
      </trkpt>
      <trkpt lat="46.77843" lon="5.79266">
        <ele>515.8</ele>
        <time>2019-12-12T11:35:25Z</time>
      </trkpt>
      <trkpt lat="46.77839" lon="5.79261">
        <ele>515.9</ele>
        <time>2019-12-12T11:35:29Z</time>
      </trkpt>
      <trkpt lat="46.77836" lon="5.79257">
        <ele>516</ele>
        <time>2019-12-12T11:35:33Z</time>
      </trkpt>
      <trkpt lat="46.77831" lon="5.79253">
        <ele>516.1</ele>
        <time>2019-12-12T11:35:38Z</time>
      </trkpt>
      <trkpt lat="46.77827" lon="5.79247">
        <ele>516.2</ele>
        <time>2019-12-12T11:35:42Z</time>
      </trkpt>
      <trkpt lat="46.77823" lon="5.79243">
        <ele>516.2</ele>
        <time>2019-12-12T11:35:45Z</time>
      </trkpt>
      <trkpt lat="46.77818" lon="5.79241">
        <ele>516.3</ele>
        <time>2019-12-12T11:35:50Z</time>
      </trkpt>
      <trkpt lat="46.77813" lon="5.79239">
        <ele>516.4</ele>
        <time>2019-12-12T11:35:54Z</time>
      </trkpt>
      <trkpt lat="46.77808" lon="5.7924">
        <ele>516.5</ele>
        <time>2019-12-12T11:35:58Z</time>
      </trkpt>
      <trkpt lat="46.77802" lon="5.7924">
        <ele>516.6</ele>
        <time>2019-12-12T11:36:02Z</time>
      </trkpt>
      <trkpt lat="46.77797" lon="5.79241">
        <ele>516.8</ele>
        <time>2019-12-12T11:36:06Z</time>
      </trkpt>
      <trkpt lat="46.77792" lon="5.79243">
        <ele>516.8</ele>
        <time>2019-12-12T11:36:10Z</time>
      </trkpt>
      <trkpt lat="46.77786" lon="5.79246">
        <ele>516.7</ele>
        <time>2019-12-12T11:36:14Z</time>
      </trkpt>
      <trkpt lat="46.77782" lon="5.79248">
        <ele>516.6</ele>
        <time>2019-12-12T11:36:17Z</time>
      </trkpt>
      <trkpt lat="46.77777" lon="5.79249">
        <ele>516.6</ele>
        <time>2019-12-12T11:36:20Z</time>
      </trkpt>
      <trkpt lat="46.77771" lon="5.7925">
        <ele>516.4</ele>
        <time>2019-12-12T11:36:25Z</time>
      </trkpt>
      <trkpt lat="46.77767" lon="5.7925">
        <ele>516.2</ele>
        <time>2019-12-12T11:36:29Z</time>
      </trkpt>
      <trkpt lat="46.77761" lon="5.79249">
        <ele>516.1</ele>
        <time>2019-12-12T11:36:34Z</time>
      </trkpt>
      <trkpt lat="46.77756" lon="5.79248">
        <ele>515.8</ele>
        <time>2019-12-12T11:36:39Z</time>
      </trkpt>
      <trkpt lat="46.77751" lon="5.79249">
        <ele>515.6</ele>
        <time>2019-12-12T11:36:44Z</time>
      </trkpt>
      <trkpt lat="46.77746" lon="5.79251">
        <ele>515.6</ele>
        <time>2019-12-12T11:36:47Z</time>
      </trkpt>
      <trkpt lat="46.77741" lon="5.79252">
        <ele>515.6</ele>
        <time>2019-12-12T11:36:50Z</time>
      </trkpt>
      <trkpt lat="46.77736" lon="5.79256">
        <ele>515.4</ele>
        <time>2019-12-12T11:36:54Z</time>
      </trkpt>
      <trkpt lat="46.77731" lon="5.79258">
        <ele>515.3</ele>
        <time>2019-12-12T11:36:57Z</time>
      </trkpt>
      <trkpt lat="46.77726" lon="5.79259">
        <ele>515.2</ele>
        <time>2019-12-12T11:37:00Z</time>
      </trkpt>
      <trkpt lat="46.77721" lon="5.79262">
        <ele>515.2</ele>
        <time>2019-12-12T11:37:03Z</time>
      </trkpt>
      <trkpt lat="46.77715" lon="5.79264">
        <ele>515.1</ele>
        <time>2019-12-12T11:37:06Z</time>
      </trkpt>
      <trkpt lat="46.77711" lon="5.79266">
        <ele>515.1</ele>
        <time>2019-12-12T11:37:09Z</time>
      </trkpt>
      <trkpt lat="46.77706" lon="5.79267">
        <ele>515.2</ele>
        <time>2019-12-12T11:37:13Z</time>
      </trkpt>
      <trkpt lat="46.77701" lon="5.79268">
        <ele>515.3</ele>
        <time>2019-12-12T11:37:17Z</time>
      </trkpt>
      <trkpt lat="46.77696" lon="5.79269">
        <ele>515.5</ele>
        <time>2019-12-12T11:37:21Z</time>
      </trkpt>
      <trkpt lat="46.77691" lon="5.7927">
        <ele>515.7</ele>
        <time>2019-12-12T11:37:25Z</time>
      </trkpt>
      <trkpt lat="46.77685" lon="5.79271">
        <ele>515.9</ele>
        <time>2019-12-12T11:37:29Z</time>
      </trkpt>
      <trkpt lat="46.7768" lon="5.79273">
        <ele>516</ele>
        <time>2019-12-12T11:37:32Z</time>
      </trkpt>
      <trkpt lat="46.77675" lon="5.79274">
        <ele>516.2</ele>
        <time>2019-12-12T11:37:36Z</time>
      </trkpt>
      <trkpt lat="46.77671" lon="5.79275">
        <ele>516.3</ele>
        <time>2019-12-12T11:37:40Z</time>
      </trkpt>
      <trkpt lat="46.77666" lon="5.79276">
        <ele>516.3</ele>
        <time>2019-12-12T11:37:44Z</time>
      </trkpt>
      <trkpt lat="46.7766" lon="5.79277">
        <ele>516.3</ele>
        <time>2019-12-12T11:37:48Z</time>
      </trkpt>
      <trkpt lat="46.77656" lon="5.79279">
        <ele>516.3</ele>
        <time>2019-12-12T11:37:51Z</time>
      </trkpt>
      <trkpt lat="46.7765" lon="5.79282">
        <ele>516.3</ele>
        <time>2019-12-12T11:37:55Z</time>
      </trkpt>
      <trkpt lat="46.77646" lon="5.79283">
        <ele>516.3</ele>
        <time>2019-12-12T11:37:58Z</time>
      </trkpt>
      <trkpt lat="46.7764" lon="5.79284">
        <ele>516.4</ele>
        <time>2019-12-12T11:38:02Z</time>
      </trkpt>
      <trkpt lat="46.77635" lon="5.79287">
        <ele>516.4</ele>
        <time>2019-12-12T11:38:06Z</time>
      </trkpt>
      <trkpt lat="46.77631" lon="5.79291">
        <ele>516.6</ele>
        <time>2019-12-12T11:38:11Z</time>
      </trkpt>
      <trkpt lat="46.77628" lon="5.79298">
        <ele>516.9</ele>
        <time>2019-12-12T11:38:15Z</time>
      </trkpt>
      <trkpt lat="46.77626" lon="5.79305">
        <ele>517.2</ele>
        <time>2019-12-12T11:38:19Z</time>
      </trkpt>
      <trkpt lat="46.77623" lon="5.79311">
        <ele>517.6</ele>
        <time>2019-12-12T11:38:23Z</time>
      </trkpt>
      <trkpt lat="46.77619" lon="5.79317">
        <ele>518</ele>
        <time>2019-12-12T11:38:28Z</time>
      </trkpt>
      <trkpt lat="46.77616" lon="5.79322">
        <ele>518.3</ele>
        <time>2019-12-12T11:38:32Z</time>
      </trkpt>
      <trkpt lat="46.77613" lon="5.79329">
        <ele>518.6</ele>
        <time>2019-12-12T11:38:36Z</time>
      </trkpt>
      <trkpt lat="46.77611" lon="5.79336">
        <ele>518.8</ele>
        <time>2019-12-12T11:38:40Z</time>
      </trkpt>
      <trkpt lat="46.77608" lon="5.79342">
        <ele>519</ele>
        <time>2019-12-12T11:38:44Z</time>
      </trkpt>
      <trkpt lat="46.77605" lon="5.79348">
        <ele>519.2</ele>
        <time>2019-12-12T11:38:49Z</time>
      </trkpt>
      <trkpt lat="46.77602" lon="5.79354">
        <ele>519.4</ele>
        <time>2019-12-12T11:38:54Z</time>
      </trkpt>
      <trkpt lat="46.77599" lon="5.79361">
        <ele>519.5</ele>
        <time>2019-12-12T11:38:59Z</time>
      </trkpt>
      <trkpt lat="46.77596" lon="5.79366">
        <ele>519.8</ele>
        <time>2019-12-12T11:39:05Z</time>
      </trkpt>
      <trkpt lat="46.77593" lon="5.79373">
        <ele>519.9</ele>
        <time>2019-12-12T11:39:10Z</time>
      </trkpt>
      <trkpt lat="46.77591" lon="5.7938">
        <ele>520.1</ele>
        <time>2019-12-12T11:39:15Z</time>
      </trkpt>
      <trkpt lat="46.77588" lon="5.79387">
        <ele>520.3</ele>
        <time>2019-12-12T11:39:20Z</time>
      </trkpt>
      <trkpt lat="46.77584" lon="5.79393">
        <ele>520.3</ele>
        <time>2019-12-12T11:39:25Z</time>
      </trkpt>
      <trkpt lat="46.77581" lon="5.79399">
        <ele>520.1</ele>
        <time>2019-12-12T11:39:29Z</time>
      </trkpt>
      <trkpt lat="46.77577" lon="5.79404">
        <ele>519.8</ele>
        <time>2019-12-12T11:39:33Z</time>
      </trkpt>
      <trkpt lat="46.77575" lon="5.79411">
        <ele>519.7</ele>
        <time>2019-12-12T11:39:39Z</time>
      </trkpt>
      <trkpt lat="46.77573" lon="5.79418">
        <ele>519.8</ele>
        <time>2019-12-12T11:39:43Z</time>
      </trkpt>
      <trkpt lat="46.7757" lon="5.79423">
        <ele>520</ele>
        <time>2019-12-12T11:39:47Z</time>
      </trkpt>
      <trkpt lat="46.77567" lon="5.79429">
        <ele>520.1</ele>
        <time>2019-12-12T11:39:51Z</time>
      </trkpt>
      <trkpt lat="46.77564" lon="5.79435">
        <ele>520.4</ele>
        <time>2019-12-12T11:39:55Z</time>
      </trkpt>
      <trkpt lat="46.77562" lon="5.79441">
        <ele>520.5</ele>
        <time>2019-12-12T11:39:59Z</time>
      </trkpt>
      <trkpt lat="46.77558" lon="5.79446">
        <ele>520.6</ele>
        <time>2019-12-12T11:40:03Z</time>
      </trkpt>
      <trkpt lat="46.77556" lon="5.79452">
        <ele>520.7</ele>
        <time>2019-12-12T11:40:06Z</time>
      </trkpt>
      <trkpt lat="46.77553" lon="5.79458">
        <ele>520.8</ele>
        <time>2019-12-12T11:40:10Z</time>
      </trkpt>
      <trkpt lat="46.7755" lon="5.79465">
        <ele>520.9</ele>
        <time>2019-12-12T11:40:14Z</time>
      </trkpt>
      <trkpt lat="46.77547" lon="5.79471">
        <ele>520.9</ele>
        <time>2019-12-12T11:40:19Z</time>
      </trkpt>
      <trkpt lat="46.77544" lon="5.79478">
        <ele>521.1</ele>
        <time>2019-12-12T11:40:24Z</time>
      </trkpt>
      <trkpt lat="46.77542" lon="5.79484">
        <ele>521.3</ele>
        <time>2019-12-12T11:40:29Z</time>
      </trkpt>
      <trkpt lat="46.77539" lon="5.7949">
        <ele>521.5</ele>
        <time>2019-12-12T11:40:33Z</time>
      </trkpt>
      <trkpt lat="46.77536" lon="5.79496">
        <ele>521.5</ele>
        <time>2019-12-12T11:40:38Z</time>
      </trkpt>
      <trkpt lat="46.77533" lon="5.79502">
        <ele>521.6</ele>
        <time>2019-12-12T11:40:42Z</time>
      </trkpt>
      <trkpt lat="46.77529" lon="5.79508">
        <ele>521.6</ele>
        <time>2019-12-12T11:40:46Z</time>
      </trkpt>
      <trkpt lat="46.77526" lon="5.79514">
        <ele>521.6</ele>
        <time>2019-12-12T11:40:50Z</time>
      </trkpt>
      <trkpt lat="46.77524" lon="5.79521">
        <ele>521.6</ele>
        <time>2019-12-12T11:40:54Z</time>
      </trkpt>
      <trkpt lat="46.7752" lon="5.79527">
        <ele>521.5</ele>
        <time>2019-12-12T11:40:59Z</time>
      </trkpt>
      <trkpt lat="46.77517" lon="5.79534">
        <ele>521.5</ele>
        <time>2019-12-12T11:41:04Z</time>
      </trkpt>
      <trkpt lat="46.77514" lon="5.79539">
        <ele>521.5</ele>
        <time>2019-12-12T11:41:08Z</time>
      </trkpt>
      <trkpt lat="46.77511" lon="5.79545">
        <ele>521.6</ele>
        <time>2019-12-12T11:41:11Z</time>
      </trkpt>
      <trkpt lat="46.77508" lon="5.79551">
        <ele>521.7</ele>
        <time>2019-12-12T11:41:15Z</time>
      </trkpt>
      <trkpt lat="46.77505" lon="5.79558">
        <ele>521.9</ele>
        <time>2019-12-12T11:41:19Z</time>
      </trkpt>
      <trkpt lat="46.77503" lon="5.79564">
        <ele>522.2</ele>
        <time>2019-12-12T11:41:23Z</time>
      </trkpt>
      <trkpt lat="46.775" lon="5.7957">
        <ele>522.4</ele>
        <time>2019-12-12T11:41:28Z</time>
      </trkpt>
      <trkpt lat="46.77497" lon="5.79576">
        <ele>522.5</ele>
        <time>2019-12-12T11:41:33Z</time>
      </trkpt>
      <trkpt lat="46.77494" lon="5.79583">
        <ele>522.7</ele>
        <time>2019-12-12T11:41:37Z</time>
      </trkpt>
      <trkpt lat="46.77491" lon="5.79588">
        <ele>523</ele>
        <time>2019-12-12T11:41:41Z</time>
      </trkpt>
      <trkpt lat="46.77489" lon="5.79595">
        <ele>523.3</ele>
        <time>2019-12-12T11:41:45Z</time>
      </trkpt>
      <trkpt lat="46.77486" lon="5.796">
        <ele>523.5</ele>
        <time>2019-12-12T11:41:49Z</time>
      </trkpt>
      <trkpt lat="46.77482" lon="5.79607">
        <ele>523.9</ele>
        <time>2019-12-12T11:41:54Z</time>
      </trkpt>
      <trkpt lat="46.7748" lon="5.79613">
        <ele>524.1</ele>
        <time>2019-12-12T11:41:58Z</time>
      </trkpt>
      <trkpt lat="46.77477" lon="5.7962">
        <ele>524.3</ele>
        <time>2019-12-12T11:42:02Z</time>
      </trkpt>
      <trkpt lat="46.77473" lon="5.79627">
        <ele>524.5</ele>
        <time>2019-12-12T11:42:06Z</time>
      </trkpt>
      <trkpt lat="46.77471" lon="5.79633">
        <ele>524.8</ele>
        <time>2019-12-12T11:42:11Z</time>
      </trkpt>
      <trkpt lat="46.77468" lon="5.79638">
        <ele>525.2</ele>
        <time>2019-12-12T11:42:16Z</time>
      </trkpt>
      <trkpt lat="46.77465" lon="5.79643">
        <ele>525.5</ele>
        <time>2019-12-12T11:42:20Z</time>
      </trkpt>
      <trkpt lat="46.77463" lon="5.79648">
        <ele>525.7</ele>
        <time>2019-12-12T11:42:23Z</time>
      </trkpt>
      <trkpt lat="46.77459" lon="5.79655">
        <ele>525.9</ele>
        <time>2019-12-12T11:42:27Z</time>
      </trkpt>
      <trkpt lat="46.77456" lon="5.79661">
        <ele>526.1</ele>
        <time>2019-12-12T11:42:31Z</time>
      </trkpt>
      <trkpt lat="46.77453" lon="5.79668">
        <ele>526.3</ele>
        <time>2019-12-12T11:42:36Z</time>
      </trkpt>
      <trkpt lat="46.7745" lon="5.79674">
        <ele>526.7</ele>
        <time>2019-12-12T11:42:41Z</time>
      </trkpt>
      <trkpt lat="46.77447" lon="5.7968">
        <ele>527</ele>
        <time>2019-12-12T11:42:45Z</time>
      </trkpt>
      <trkpt lat="46.77444" lon="5.79687">
        <ele>527.3</ele>
        <time>2019-12-12T11:42:50Z</time>
      </trkpt>
      <trkpt lat="46.77441" lon="5.79694">
        <ele>527.2</ele>
        <time>2019-12-12T11:42:54Z</time>
      </trkpt>
      <trkpt lat="46.77438" lon="5.79699">
        <ele>527.1</ele>
        <time>2019-12-12T11:42:58Z</time>
      </trkpt>
      <trkpt lat="46.77436" lon="5.79705">
        <ele>527</ele>
        <time>2019-12-12T11:43:02Z</time>
      </trkpt>
      <trkpt lat="46.77433" lon="5.79711">
        <ele>527.1</ele>
        <time>2019-12-12T11:43:07Z</time>
      </trkpt>
      <trkpt lat="46.77431" lon="5.79717">
        <ele>527.5</ele>
        <time>2019-12-12T11:43:12Z</time>
      </trkpt>
      <trkpt lat="46.77428" lon="5.79723">
        <ele>527.9</ele>
        <time>2019-12-12T11:43:17Z</time>
      </trkpt>
      <trkpt lat="46.77426" lon="5.7973">
        <ele>528.3</ele>
        <time>2019-12-12T11:43:21Z</time>
      </trkpt>
      <trkpt lat="46.77423" lon="5.79735">
        <ele>528.6</ele>
        <time>2019-12-12T11:43:25Z</time>
      </trkpt>
      <trkpt lat="46.77421" lon="5.79742">
        <ele>529.2</ele>
        <time>2019-12-12T11:43:31Z</time>
      </trkpt>
      <trkpt lat="46.77419" lon="5.7975">
        <ele>529.6</ele>
        <time>2019-12-12T11:43:36Z</time>
      </trkpt>
      <trkpt lat="46.77416" lon="5.79756">
        <ele>530.1</ele>
        <time>2019-12-12T11:43:42Z</time>
      </trkpt>
      <trkpt lat="46.77413" lon="5.79761">
        <ele>530.2</ele>
        <time>2019-12-12T11:43:47Z</time>
      </trkpt>
      <trkpt lat="46.77409" lon="5.79764">
        <ele>530.4</ele>
        <time>2019-12-12T11:43:51Z</time>
      </trkpt>
      <trkpt lat="46.77406" lon="5.79768">
        <ele>530.5</ele>
        <time>2019-12-12T11:43:56Z</time>
      </trkpt>
      <trkpt lat="46.77402" lon="5.79773">
        <ele>530.3</ele>
        <time>2019-12-12T11:44:01Z</time>
      </trkpt>
      <trkpt lat="46.77398" lon="5.79775">
        <ele>529.8</ele>
        <time>2019-12-12T11:44:11Z</time>
      </trkpt>
      <trkpt lat="46.77396" lon="5.79781">
        <ele>529.5</ele>
        <time>2019-12-12T11:44:20Z</time>
      </trkpt>
      <trkpt lat="46.77396" lon="5.79788">
        <ele>529.5</ele>
        <time>2019-12-12T11:44:27Z</time>
      </trkpt>
      <trkpt lat="46.77392" lon="5.79792">
        <ele>529.4</ele>
        <time>2019-12-12T11:44:34Z</time>
      </trkpt>
      <trkpt lat="46.77388" lon="5.79795">
        <ele>529</ele>
        <time>2019-12-12T11:44:39Z</time>
      </trkpt>
      <trkpt lat="46.77383" lon="5.79798">
        <ele>528.4</ele>
        <time>2019-12-12T11:44:46Z</time>
      </trkpt>
      <trkpt lat="46.77386" lon="5.79803">
        <ele>527.1</ele>
        <time>2019-12-12T11:44:59Z</time>
      </trkpt>
      <trkpt lat="46.77391" lon="5.79808">
        <ele>526.8</ele>
        <time>2019-12-12T11:45:03Z</time>
      </trkpt>
      <trkpt lat="46.77394" lon="5.79813">
        <ele>526.7</ele>
        <time>2019-12-12T11:45:06Z</time>
      </trkpt>
      <trkpt lat="46.77397" lon="5.79817">
        <ele>526.5</ele>
        <time>2019-12-12T11:45:10Z</time>
      </trkpt>
      <trkpt lat="46.77401" lon="5.79822">
        <ele>526.1</ele>
        <time>2019-12-12T11:45:17Z</time>
      </trkpt>
      <trkpt lat="46.77405" lon="5.79826">
        <ele>525.9</ele>
        <time>2019-12-12T11:45:22Z</time>
      </trkpt>
      <trkpt lat="46.7741" lon="5.79829">
        <ele>525.9</ele>
        <time>2019-12-12T11:45:27Z</time>
      </trkpt>
      <trkpt lat="46.77413" lon="5.79833">
        <ele>525.8</ele>
        <time>2019-12-12T11:45:31Z</time>
      </trkpt>
      <trkpt lat="46.77416" lon="5.79838">
        <ele>525.8</ele>
        <time>2019-12-12T11:45:36Z</time>
      </trkpt>
      <trkpt lat="46.7742" lon="5.79843">
        <ele>525.9</ele>
        <time>2019-12-12T11:45:40Z</time>
      </trkpt>
      <trkpt lat="46.77425" lon="5.79846">
        <ele>526</ele>
        <time>2019-12-12T11:45:45Z</time>
      </trkpt>
      <trkpt lat="46.7743" lon="5.7985">
        <ele>526</ele>
        <time>2019-12-12T11:45:50Z</time>
      </trkpt>
      <trkpt lat="46.77434" lon="5.79853">
        <ele>525.8</ele>
        <time>2019-12-12T11:45:54Z</time>
      </trkpt>
      <trkpt lat="46.77439" lon="5.79855">
        <ele>525.4</ele>
        <time>2019-12-12T11:46:09Z</time>
      </trkpt>
      <trkpt lat="46.77442" lon="5.79858">
        <ele>521.1</ele>
        <time>2019-12-12T11:47:21Z</time>
      </trkpt>
      <trkpt lat="46.77444" lon="5.79863">
        <ele>520.5</ele>
        <time>2019-12-12T11:47:28Z</time>
      </trkpt>
      <trkpt lat="46.77449" lon="5.7987">
        <ele>519</ele>
        <time>2019-12-12T11:49:20Z</time>
      </trkpt>
      <trkpt lat="46.77451" lon="5.79877">
        <ele>519.6</ele>
        <time>2019-12-12T11:49:34Z</time>
      </trkpt>
      <trkpt lat="46.77453" lon="5.79883">
        <ele>519.7</ele>
        <time>2019-12-12T11:49:36Z</time>
      </trkpt>
      <trkpt lat="46.77455" lon="5.79889">
        <ele>519.8</ele>
        <time>2019-12-12T11:49:38Z</time>
      </trkpt>
      <trkpt lat="46.77458" lon="5.79897">
        <ele>519.9</ele>
        <time>2019-12-12T11:49:41Z</time>
      </trkpt>
      <trkpt lat="46.77461" lon="5.79905">
        <ele>520</ele>
        <time>2019-12-12T11:49:44Z</time>
      </trkpt>
      <trkpt lat="46.77462" lon="5.79912">
        <ele>520.1</ele>
        <time>2019-12-12T11:49:47Z</time>
      </trkpt>
      <trkpt lat="46.77463" lon="5.7992">
        <ele>520.3</ele>
        <time>2019-12-12T11:49:52Z</time>
      </trkpt>
      <trkpt lat="46.77463" lon="5.79928">
        <ele>520.9</ele>
        <time>2019-12-12T11:49:57Z</time>
      </trkpt>
      <trkpt lat="46.77464" lon="5.79935">
        <ele>521.5</ele>
        <time>2019-12-12T11:50:02Z</time>
      </trkpt>
      <trkpt lat="46.77464" lon="5.79942">
        <ele>521.8</ele>
        <time>2019-12-12T11:50:06Z</time>
      </trkpt>
      <trkpt lat="46.77464" lon="5.7995">
        <ele>522</ele>
        <time>2019-12-12T11:50:10Z</time>
      </trkpt>
      <trkpt lat="46.77465" lon="5.79957">
        <ele>522.2</ele>
        <time>2019-12-12T11:50:15Z</time>
      </trkpt>
      <trkpt lat="46.77464" lon="5.79965">
        <ele>522.8</ele>
        <time>2019-12-12T11:50:21Z</time>
      </trkpt>
      <trkpt lat="46.77463" lon="5.79972">
        <ele>523.2</ele>
        <time>2019-12-12T11:50:25Z</time>
      </trkpt>
      <trkpt lat="46.77463" lon="5.79979">
        <ele>523.8</ele>
        <time>2019-12-12T11:50:30Z</time>
      </trkpt>
      <trkpt lat="46.77461" lon="5.79987">
        <ele>524.3</ele>
        <time>2019-12-12T11:50:36Z</time>
      </trkpt>
      <trkpt lat="46.77461" lon="5.79996">
        <ele>524.5</ele>
        <time>2019-12-12T11:50:40Z</time>
      </trkpt>
      <trkpt lat="46.77461" lon="5.80003">
        <ele>524.7</ele>
        <time>2019-12-12T11:50:44Z</time>
      </trkpt>
      <trkpt lat="46.77461" lon="5.80011">
        <ele>525.1</ele>
        <time>2019-12-12T11:50:50Z</time>
      </trkpt>
      <trkpt lat="46.77461" lon="5.80018">
        <ele>525.4</ele>
        <time>2019-12-12T11:50:54Z</time>
      </trkpt>
      <trkpt lat="46.77462" lon="5.80026">
        <ele>525.7</ele>
        <time>2019-12-12T11:50:58Z</time>
      </trkpt>
      <trkpt lat="46.77463" lon="5.80033">
        <ele>525.9</ele>
        <time>2019-12-12T11:51:01Z</time>
      </trkpt>
      <trkpt lat="46.77464" lon="5.80041">
        <ele>526.1</ele>
        <time>2019-12-12T11:51:05Z</time>
      </trkpt>
      <trkpt lat="46.77464" lon="5.80049">
        <ele>526.2</ele>
        <time>2019-12-12T11:51:10Z</time>
      </trkpt>
      <trkpt lat="46.77463" lon="5.80056">
        <ele>526.2</ele>
        <time>2019-12-12T11:51:14Z</time>
      </trkpt>
      <trkpt lat="46.77462" lon="5.80062">
        <ele>526.3</ele>
        <time>2019-12-12T11:51:18Z</time>
      </trkpt>
      <trkpt lat="46.77461" lon="5.8007">
        <ele>526.5</ele>
        <time>2019-12-12T11:51:23Z</time>
      </trkpt>
      <trkpt lat="46.77461" lon="5.80077">
        <ele>526.7</ele>
        <time>2019-12-12T11:51:27Z</time>
      </trkpt>
      <trkpt lat="46.77461" lon="5.80084">
        <ele>526.9</ele>
        <time>2019-12-12T11:51:31Z</time>
      </trkpt>
      <trkpt lat="46.7746" lon="5.80091">
        <ele>527.3</ele>
        <time>2019-12-12T11:51:36Z</time>
      </trkpt>
      <trkpt lat="46.77458" lon="5.80098">
        <ele>527.5</ele>
        <time>2019-12-12T11:51:40Z</time>
      </trkpt>
      <trkpt lat="46.77454" lon="5.80102">
        <ele>527.5</ele>
        <time>2019-12-12T11:51:44Z</time>
      </trkpt>
      <trkpt lat="46.77448" lon="5.80103">
        <ele>527.4</ele>
        <time>2019-12-12T11:51:47Z</time>
      </trkpt>
      <trkpt lat="46.77443" lon="5.80105">
        <ele>527.1</ele>
        <time>2019-12-12T11:51:51Z</time>
      </trkpt>
      <trkpt lat="46.77439" lon="5.80111">
        <ele>526.2</ele>
        <time>2019-12-12T11:52:05Z</time>
      </trkpt>
      <trkpt lat="46.77433" lon="5.80113">
        <ele>525.9</ele>
        <time>2019-12-12T11:52:08Z</time>
      </trkpt>
      <trkpt lat="46.77428" lon="5.80115">
        <ele>525.7</ele>
        <time>2019-12-12T11:52:11Z</time>
      </trkpt>
      <trkpt lat="46.77423" lon="5.80119">
        <ele>525.2</ele>
        <time>2019-12-12T11:52:15Z</time>
      </trkpt>
      <trkpt lat="46.77419" lon="5.80123">
        <ele>524.9</ele>
        <time>2019-12-12T11:52:18Z</time>
      </trkpt>
      <trkpt lat="46.77414" lon="5.80124">
        <ele>524.6</ele>
        <time>2019-12-12T11:52:22Z</time>
      </trkpt>
      <trkpt lat="46.77409" lon="5.80125">
        <ele>524.3</ele>
        <time>2019-12-12T11:52:27Z</time>
      </trkpt>
      <trkpt lat="46.77405" lon="5.80129">
        <ele>524.1</ele>
        <time>2019-12-12T11:52:32Z</time>
      </trkpt>
      <trkpt lat="46.77401" lon="5.80132">
        <ele>524.1</ele>
        <time>2019-12-12T11:52:36Z</time>
      </trkpt>
      <trkpt lat="46.77396" lon="5.80135">
        <ele>524.1</ele>
        <time>2019-12-12T11:52:40Z</time>
      </trkpt>
      <trkpt lat="46.77391" lon="5.80137">
        <ele>524</ele>
        <time>2019-12-12T11:52:44Z</time>
      </trkpt>
      <trkpt lat="46.77387" lon="5.80139">
        <ele>523.7</ele>
        <time>2019-12-12T11:52:50Z</time>
      </trkpt>
      <trkpt lat="46.77382" lon="5.80142">
        <ele>523.2</ele>
        <time>2019-12-12T11:52:58Z</time>
      </trkpt>
      <trkpt lat="46.77377" lon="5.80144">
        <ele>523.1</ele>
        <time>2019-12-12T11:53:03Z</time>
      </trkpt>
      <trkpt lat="46.77372" lon="5.80146">
        <ele>523.1</ele>
        <time>2019-12-12T11:53:09Z</time>
      </trkpt>
      <trkpt lat="46.77368" lon="5.80148">
        <ele>523.3</ele>
        <time>2019-12-12T11:53:14Z</time>
      </trkpt>
      <trkpt lat="46.77363" lon="5.80154">
        <ele>523.6</ele>
        <time>2019-12-12T11:53:19Z</time>
      </trkpt>
      <trkpt lat="46.77359" lon="5.8016">
        <ele>524</ele>
        <time>2019-12-12T11:53:24Z</time>
      </trkpt>
      <trkpt lat="46.77358" lon="5.80168">
        <ele>524.2</ele>
        <time>2019-12-12T11:53:27Z</time>
      </trkpt>
      <trkpt lat="46.77357" lon="5.80174">
        <ele>524.4</ele>
        <time>2019-12-12T11:53:30Z</time>
      </trkpt>
      <trkpt lat="46.77357" lon="5.80181">
        <ele>524.7</ele>
        <time>2019-12-12T11:53:34Z</time>
      </trkpt>
      <trkpt lat="46.77356" lon="5.80189">
        <ele>524.9</ele>
        <time>2019-12-12T11:53:38Z</time>
      </trkpt>
      <trkpt lat="46.77356" lon="5.80197">
        <ele>524.8</ele>
        <time>2019-12-12T11:53:43Z</time>
      </trkpt>
      <trkpt lat="46.77356" lon="5.80204">
        <ele>524.6</ele>
        <time>2019-12-12T11:53:47Z</time>
      </trkpt>
      <trkpt lat="46.77356" lon="5.80211">
        <ele>524.3</ele>
        <time>2019-12-12T11:53:51Z</time>
      </trkpt>
      <trkpt lat="46.77356" lon="5.80218">
        <ele>524</ele>
        <time>2019-12-12T11:53:55Z</time>
      </trkpt>
      <trkpt lat="46.77358" lon="5.80225">
        <ele>523.6</ele>
        <time>2019-12-12T11:54:00Z</time>
      </trkpt>
      <trkpt lat="46.77358" lon="5.80233">
        <ele>523.5</ele>
        <time>2019-12-12T11:54:05Z</time>
      </trkpt>
      <trkpt lat="46.77357" lon="5.80241">
        <ele>523.8</ele>
        <time>2019-12-12T11:54:10Z</time>
      </trkpt>
      <trkpt lat="46.77356" lon="5.80248">
        <ele>524</ele>
        <time>2019-12-12T11:54:14Z</time>
      </trkpt>
      <trkpt lat="46.77354" lon="5.80254">
        <ele>524</ele>
        <time>2019-12-12T11:54:18Z</time>
      </trkpt>
      <trkpt lat="46.77351" lon="5.80259">
        <ele>524.2</ele>
        <time>2019-12-12T11:54:24Z</time>
      </trkpt>
      <trkpt lat="46.77349" lon="5.80265">
        <ele>524.6</ele>
        <time>2019-12-12T11:54:29Z</time>
      </trkpt>
      <trkpt lat="46.77348" lon="5.80272">
        <ele>525.1</ele>
        <time>2019-12-12T11:54:34Z</time>
      </trkpt>
      <trkpt lat="46.77347" lon="5.80278">
        <ele>525.9</ele>
        <time>2019-12-12T11:54:41Z</time>
      </trkpt>
      <trkpt lat="46.77347" lon="5.80285">
        <ele>526.6</ele>
        <time>2019-12-12T11:54:50Z</time>
      </trkpt>
      <trkpt lat="46.77347" lon="5.80292">
        <ele>526.7</ele>
        <time>2019-12-12T11:54:57Z</time>
      </trkpt>
      <trkpt lat="46.77348" lon="5.803">
        <ele>526.7</ele>
        <time>2019-12-12T11:55:03Z</time>
      </trkpt>
      <trkpt lat="46.77349" lon="5.80307">
        <ele>527</ele>
        <time>2019-12-12T11:55:08Z</time>
      </trkpt>
      <trkpt lat="46.77352" lon="5.80314">
        <ele>527.5</ele>
        <time>2019-12-12T11:55:14Z</time>
      </trkpt>
      <trkpt lat="46.77353" lon="5.8032">
        <ele>528.1</ele>
        <time>2019-12-12T11:55:21Z</time>
      </trkpt>
      <trkpt lat="46.77354" lon="5.80322">
        <ele>534</ele>
        <time>2019-12-12T11:56:23Z</time>
      </trkpt>
      <trkpt lat="46.77358" lon="5.80326">
        <ele>536.4</ele>
        <time>2019-12-12T11:56:30Z</time>
      </trkpt>
      <trkpt lat="46.77362" lon="5.80331">
        <ele>537.5</ele>
        <time>2019-12-12T11:56:34Z</time>
      </trkpt>
      <trkpt lat="46.77363" lon="5.80338">
        <ele>538.9</ele>
        <time>2019-12-12T11:56:41Z</time>
      </trkpt>
      <trkpt lat="46.77366" lon="5.80343">
        <ele>539.5</ele>
        <time>2019-12-12T11:56:47Z</time>
      </trkpt>
      <trkpt lat="46.77369" lon="5.8035">
        <ele>539.5</ele>
        <time>2019-12-12T11:56:55Z</time>
      </trkpt>
      <trkpt lat="46.7737" lon="5.80357">
        <ele>539.4</ele>
        <time>2019-12-12T11:57:02Z</time>
      </trkpt>
      <trkpt lat="46.77373" lon="5.80362">
        <ele>539.4</ele>
        <time>2019-12-12T11:57:07Z</time>
      </trkpt>
      <trkpt lat="46.77376" lon="5.80366">
        <ele>539.3</ele>
        <time>2019-12-12T11:57:12Z</time>
      </trkpt>
      <trkpt lat="46.7738" lon="5.8037">
        <ele>538.9</ele>
        <time>2019-12-12T11:57:19Z</time>
      </trkpt>
      <trkpt lat="46.77383" lon="5.80375">
        <ele>538.3</ele>
        <time>2019-12-12T11:57:30Z</time>
      </trkpt>
      <trkpt lat="46.77387" lon="5.8038">
        <ele>538.3</ele>
        <time>2019-12-12T11:57:37Z</time>
      </trkpt>
      <trkpt lat="46.7739" lon="5.80385">
        <ele>538.2</ele>
        <time>2019-12-12T11:57:45Z</time>
      </trkpt>
      <trkpt lat="46.77393" lon="5.8039">
        <ele>538.1</ele>
        <time>2019-12-12T11:57:51Z</time>
      </trkpt>
      <trkpt lat="46.77397" lon="5.80394">
        <ele>538.2</ele>
        <time>2019-12-12T11:57:57Z</time>
      </trkpt>
      <trkpt lat="46.77401" lon="5.80398">
        <ele>538.3</ele>
        <time>2019-12-12T11:58:02Z</time>
      </trkpt>
      <trkpt lat="46.77405" lon="5.80404">
        <ele>538.6</ele>
        <time>2019-12-12T11:58:07Z</time>
      </trkpt>
      <trkpt lat="46.77407" lon="5.8041">
        <ele>538.8</ele>
        <time>2019-12-12T11:58:14Z</time>
      </trkpt>
      <trkpt lat="46.77413" lon="5.80424">
        <ele>538.5</ele>
        <time>2019-12-12T12:00:00Z</time>
      </trkpt>
      <trkpt lat="46.77418" lon="5.80427">
        <ele>539.2</ele>
        <time>2019-12-12T12:00:10Z</time>
      </trkpt>
      <trkpt lat="46.77422" lon="5.80431">
        <ele>539.4</ele>
        <time>2019-12-12T12:00:14Z</time>
      </trkpt>
      <trkpt lat="46.77427" lon="5.80436">
        <ele>539.7</ele>
        <time>2019-12-12T12:00:18Z</time>
      </trkpt>
      <trkpt lat="46.77431" lon="5.8044">
        <ele>540</ele>
        <time>2019-12-12T12:00:21Z</time>
      </trkpt>
      <trkpt lat="46.77435" lon="5.80444">
        <ele>540.4</ele>
        <time>2019-12-12T12:00:24Z</time>
      </trkpt>
      <trkpt lat="46.7744" lon="5.80449">
        <ele>540.8</ele>
        <time>2019-12-12T12:00:28Z</time>
      </trkpt>
      <trkpt lat="46.77444" lon="5.80453">
        <ele>541</ele>
        <time>2019-12-12T12:00:31Z</time>
      </trkpt>
      <trkpt lat="46.77447" lon="5.80459">
        <ele>541</ele>
        <time>2019-12-12T12:00:35Z</time>
      </trkpt>
      <trkpt lat="46.77451" lon="5.80462">
        <ele>540.9</ele>
        <time>2019-12-12T12:00:39Z</time>
      </trkpt>
      <trkpt lat="46.77454" lon="5.80468">
        <ele>540.8</ele>
        <time>2019-12-12T12:00:42Z</time>
      </trkpt>
      <trkpt lat="46.77457" lon="5.80473">
        <ele>540.9</ele>
        <time>2019-12-12T12:00:45Z</time>
      </trkpt>
      <trkpt lat="46.7746" lon="5.8048">
        <ele>541</ele>
        <time>2019-12-12T12:00:49Z</time>
      </trkpt>
      <trkpt lat="46.77464" lon="5.80483">
        <ele>541</ele>
        <time>2019-12-12T12:00:52Z</time>
      </trkpt>
      <trkpt lat="46.77468" lon="5.80488">
        <ele>540.9</ele>
        <time>2019-12-12T12:00:55Z</time>
      </trkpt>
      <trkpt lat="46.77471" lon="5.80492">
        <ele>540.8</ele>
        <time>2019-12-12T12:00:59Z</time>
      </trkpt>
      <trkpt lat="46.77474" lon="5.80498">
        <ele>540.8</ele>
        <time>2019-12-12T12:01:04Z</time>
      </trkpt>
      <trkpt lat="46.77478" lon="5.80504">
        <ele>540.8</ele>
        <time>2019-12-12T12:01:10Z</time>
      </trkpt>
      <trkpt lat="46.77481" lon="5.80509">
        <ele>541.1</ele>
        <time>2019-12-12T12:01:16Z</time>
      </trkpt>
      <trkpt lat="46.77486" lon="5.80514">
        <ele>541.5</ele>
        <time>2019-12-12T12:01:21Z</time>
      </trkpt>
      <trkpt lat="46.77488" lon="5.8052">
        <ele>541.9</ele>
        <time>2019-12-12T12:01:30Z</time>
      </trkpt>
      <trkpt lat="46.77492" lon="5.80525">
        <ele>541.7</ele>
        <time>2019-12-12T12:01:37Z</time>
      </trkpt>
      <trkpt lat="46.77495" lon="5.80529">
        <ele>541.3</ele>
        <time>2019-12-12T12:01:40Z</time>
      </trkpt>
      <trkpt lat="46.77499" lon="5.80534">
        <ele>540.2</ele>
        <time>2019-12-12T12:01:47Z</time>
      </trkpt>
      <trkpt lat="46.77502" lon="5.80539">
        <ele>537.2</ele>
        <time>2019-12-12T12:02:02Z</time>
      </trkpt>
      <trkpt lat="46.77506" lon="5.80542">
        <ele>536</ele>
        <time>2019-12-12T12:02:14Z</time>
      </trkpt>
      <trkpt lat="46.77511" lon="5.80545">
        <ele>536.1</ele>
        <time>2019-12-12T12:02:22Z</time>
      </trkpt>
      <trkpt lat="46.77515" lon="5.80544">
        <ele>536.9</ele>
        <time>2019-12-12T12:02:31Z</time>
      </trkpt>
      <trkpt lat="46.77523" lon="5.80544">
        <ele>536.6</ele>
        <time>2019-12-12T12:03:01Z</time>
      </trkpt>
      <trkpt lat="46.77528" lon="5.80543">
        <ele>537.4</ele>
        <time>2019-12-12T12:03:32Z</time>
      </trkpt>
      <trkpt lat="46.77533" lon="5.80542">
        <ele>537.2</ele>
        <time>2019-12-12T12:03:44Z</time>
      </trkpt>
      <trkpt lat="46.77537" lon="5.80545">
        <ele>534.8</ele>
        <time>2019-12-12T12:04:00Z</time>
      </trkpt>
      <trkpt lat="46.77542" lon="5.80546">
        <ele>533.5</ele>
        <time>2019-12-12T12:04:06Z</time>
      </trkpt>
      <trkpt lat="46.77547" lon="5.80548">
        <ele>532.3</ele>
        <time>2019-12-12T12:04:12Z</time>
      </trkpt>
      <trkpt lat="46.77551" lon="5.8055">
        <ele>531.5</ele>
        <time>2019-12-12T12:04:17Z</time>
      </trkpt>
      <trkpt lat="46.77555" lon="5.80554">
        <ele>530.2</ele>
        <time>2019-12-12T12:04:30Z</time>
      </trkpt>
      <trkpt lat="46.77559" lon="5.80556">
        <ele>529</ele>
        <time>2019-12-12T12:04:45Z</time>
      </trkpt>
      <trkpt lat="46.77557" lon="5.80562">
        <ele>533.7</ele>
        <time>2019-12-12T12:05:25Z</time>
      </trkpt>
      <trkpt lat="46.77559" lon="5.80569">
        <ele>533.5</ele>
        <time>2019-12-12T12:05:30Z</time>
      </trkpt>
      <trkpt lat="46.77563" lon="5.80575">
        <ele>532.9</ele>
        <time>2019-12-12T12:05:37Z</time>
      </trkpt>
      <trkpt lat="46.77566" lon="5.80578">
        <ele>532.2</ele>
        <time>2019-12-12T12:05:44Z</time>
      </trkpt>
      <trkpt lat="46.7757" lon="5.80584">
        <ele>531.7</ele>
        <time>2019-12-12T12:05:48Z</time>
      </trkpt>
      <trkpt lat="46.77573" lon="5.80589">
        <ele>531.1</ele>
        <time>2019-12-12T12:05:52Z</time>
      </trkpt>
      <trkpt lat="46.77576" lon="5.80595">
        <ele>530</ele>
        <time>2019-12-12T12:05:59Z</time>
      </trkpt>
      <trkpt lat="46.7758" lon="5.80598">
        <ele>528.1</ele>
        <time>2019-12-12T12:06:09Z</time>
      </trkpt>
      <trkpt lat="46.77583" lon="5.80604">
        <ele>527.2</ele>
        <time>2019-12-12T12:06:14Z</time>
      </trkpt>
      <trkpt lat="46.77585" lon="5.80611">
        <ele>526.3</ele>
        <time>2019-12-12T12:06:21Z</time>
      </trkpt>
      <trkpt lat="46.77589" lon="5.80615">
        <ele>525.3</ele>
        <time>2019-12-12T12:06:27Z</time>
      </trkpt>
      <trkpt lat="46.77591" lon="5.80622">
        <ele>524.8</ele>
        <time>2019-12-12T12:06:32Z</time>
      </trkpt>
      <trkpt lat="46.77593" lon="5.8063">
        <ele>524.4</ele>
        <time>2019-12-12T12:06:36Z</time>
      </trkpt>
      <trkpt lat="46.77595" lon="5.80636">
        <ele>523.9</ele>
        <time>2019-12-12T12:06:41Z</time>
      </trkpt>
      <trkpt lat="46.77598" lon="5.80642">
        <ele>523</ele>
        <time>2019-12-12T12:06:47Z</time>
      </trkpt>
      <trkpt lat="46.77601" lon="5.80648">
        <ele>522.1</ele>
        <time>2019-12-12T12:06:53Z</time>
      </trkpt>
      <trkpt lat="46.77604" lon="5.80653">
        <ele>521.4</ele>
        <time>2019-12-12T12:06:58Z</time>
      </trkpt>
      <trkpt lat="46.77607" lon="5.80658">
        <ele>520.7</ele>
        <time>2019-12-12T12:07:03Z</time>
      </trkpt>
      <trkpt lat="46.77613" lon="5.80663">
        <ele>520.2</ele>
        <time>2019-12-12T12:07:07Z</time>
      </trkpt>
      <trkpt lat="46.77617" lon="5.80667">
        <ele>520</ele>
        <time>2019-12-12T12:07:10Z</time>
      </trkpt>
      <trkpt lat="46.77621" lon="5.80671">
        <ele>519.9</ele>
        <time>2019-12-12T12:07:13Z</time>
      </trkpt>
      <trkpt lat="46.77625" lon="5.80675">
        <ele>519.7</ele>
        <time>2019-12-12T12:07:19Z</time>
      </trkpt>
      <trkpt lat="46.77628" lon="5.80681">
        <ele>519.5</ele>
        <time>2019-12-12T12:07:23Z</time>
      </trkpt>
      <trkpt lat="46.77631" lon="5.80686">
        <ele>519.4</ele>
        <time>2019-12-12T12:07:26Z</time>
      </trkpt>
      <trkpt lat="46.77634" lon="5.80692">
        <ele>519.3</ele>
        <time>2019-12-12T12:07:29Z</time>
      </trkpt>
      <trkpt lat="46.77637" lon="5.80699">
        <ele>519.1</ele>
        <time>2019-12-12T12:07:35Z</time>
      </trkpt>
      <trkpt lat="46.7764" lon="5.80705">
        <ele>518.9</ele>
        <time>2019-12-12T12:07:39Z</time>
      </trkpt>
      <trkpt lat="46.77643" lon="5.80711">
        <ele>518.5</ele>
        <time>2019-12-12T12:07:44Z</time>
      </trkpt>
      <trkpt lat="46.77647" lon="5.80717">
        <ele>518.3</ele>
        <time>2019-12-12T12:07:49Z</time>
      </trkpt>
      <trkpt lat="46.7765" lon="5.80722">
        <ele>518</ele>
        <time>2019-12-12T12:07:54Z</time>
      </trkpt>
      <trkpt lat="46.77653" lon="5.80727">
        <ele>517.7</ele>
        <time>2019-12-12T12:07:58Z</time>
      </trkpt>
      <trkpt lat="46.77658" lon="5.80732">
        <ele>517.6</ele>
        <time>2019-12-12T12:08:02Z</time>
      </trkpt>
      <trkpt lat="46.77661" lon="5.80736">
        <ele>517.7</ele>
        <time>2019-12-12T12:08:06Z</time>
      </trkpt>
      <trkpt lat="46.77665" lon="5.80741">
        <ele>518.2</ele>
        <time>2019-12-12T12:08:11Z</time>
      </trkpt>
      <trkpt lat="46.77669" lon="5.80744">
        <ele>518.7</ele>
        <time>2019-12-12T12:08:17Z</time>
      </trkpt>
      <trkpt lat="46.77672" lon="5.80748">
        <ele>519.3</ele>
        <time>2019-12-12T12:08:25Z</time>
      </trkpt>
      <trkpt lat="46.77677" lon="5.8075">
        <ele>519.8</ele>
        <time>2019-12-12T12:08:33Z</time>
      </trkpt>
      <trkpt lat="46.77681" lon="5.80755">
        <ele>520.2</ele>
        <time>2019-12-12T12:08:41Z</time>
      </trkpt>
      <trkpt lat="46.77686" lon="5.8076">
        <ele>520.4</ele>
        <time>2019-12-12T12:08:45Z</time>
      </trkpt>
      <trkpt lat="46.7769" lon="5.80762">
        <ele>520.7</ele>
        <time>2019-12-12T12:08:50Z</time>
      </trkpt>
      <trkpt lat="46.77695" lon="5.80765">
        <ele>520.9</ele>
        <time>2019-12-12T12:08:55Z</time>
      </trkpt>
      <trkpt lat="46.77698" lon="5.80771">
        <ele>521.2</ele>
        <time>2019-12-12T12:09:00Z</time>
      </trkpt>
      <trkpt lat="46.77702" lon="5.80775">
        <ele>521.5</ele>
        <time>2019-12-12T12:09:04Z</time>
      </trkpt>
      <trkpt lat="46.77705" lon="5.80779">
        <ele>521.8</ele>
        <time>2019-12-12T12:09:09Z</time>
      </trkpt>
      <trkpt lat="46.77709" lon="5.80782">
        <ele>522.3</ele>
        <time>2019-12-12T12:09:15Z</time>
      </trkpt>
      <trkpt lat="46.77713" lon="5.80786">
        <ele>522.7</ele>
        <time>2019-12-12T12:09:19Z</time>
      </trkpt>
      <trkpt lat="46.77718" lon="5.8079">
        <ele>523.1</ele>
        <time>2019-12-12T12:09:24Z</time>
      </trkpt>
      <trkpt lat="46.77721" lon="5.80795">
        <ele>523.2</ele>
        <time>2019-12-12T12:09:28Z</time>
      </trkpt>
      <trkpt lat="46.77724" lon="5.80799">
        <ele>523.4</ele>
        <time>2019-12-12T12:09:32Z</time>
      </trkpt>
      <trkpt lat="46.77728" lon="5.80804">
        <ele>523.4</ele>
        <time>2019-12-12T12:09:37Z</time>
      </trkpt>
      <trkpt lat="46.77732" lon="5.80808">
        <ele>523.4</ele>
        <time>2019-12-12T12:09:42Z</time>
      </trkpt>
      <trkpt lat="46.77736" lon="5.80812">
        <ele>523.4</ele>
        <time>2019-12-12T12:09:46Z</time>
      </trkpt>
      <trkpt lat="46.77739" lon="5.80817">
        <ele>523.3</ele>
        <time>2019-12-12T12:09:50Z</time>
      </trkpt>
      <trkpt lat="46.77743" lon="5.80823">
        <ele>523.1</ele>
        <time>2019-12-12T12:09:54Z</time>
      </trkpt>
      <trkpt lat="46.77746" lon="5.80828">
        <ele>523</ele>
        <time>2019-12-12T12:10:00Z</time>
      </trkpt>
      <trkpt lat="46.7775" lon="5.80833">
        <ele>522.8</ele>
        <time>2019-12-12T12:10:05Z</time>
      </trkpt>
      <trkpt lat="46.77753" lon="5.80839">
        <ele>522.6</ele>
        <time>2019-12-12T12:10:09Z</time>
      </trkpt>
      <trkpt lat="46.77758" lon="5.80844">
        <ele>522.5</ele>
        <time>2019-12-12T12:10:13Z</time>
      </trkpt>
      <trkpt lat="46.77762" lon="5.80849">
        <ele>522.4</ele>
        <time>2019-12-12T12:10:17Z</time>
      </trkpt>
      <trkpt lat="46.77766" lon="5.80854">
        <ele>522.3</ele>
        <time>2019-12-12T12:10:22Z</time>
      </trkpt>
      <trkpt lat="46.7777" lon="5.80858">
        <ele>522.3</ele>
        <time>2019-12-12T12:10:26Z</time>
      </trkpt>
      <trkpt lat="46.77773" lon="5.80863">
        <ele>522.5</ele>
        <time>2019-12-12T12:10:30Z</time>
      </trkpt>
      <trkpt lat="46.77777" lon="5.80868">
        <ele>522.9</ele>
        <time>2019-12-12T12:10:36Z</time>
      </trkpt>
      <trkpt lat="46.7778" lon="5.80872">
        <ele>523.1</ele>
        <time>2019-12-12T12:10:40Z</time>
      </trkpt>
      <trkpt lat="46.77784" lon="5.80877">
        <ele>523.2</ele>
        <time>2019-12-12T12:10:44Z</time>
      </trkpt>
      <trkpt lat="46.77788" lon="5.80883">
        <ele>523.2</ele>
        <time>2019-12-12T12:10:48Z</time>
      </trkpt>
      <trkpt lat="46.77792" lon="5.80886">
        <ele>523.1</ele>
        <time>2019-12-12T12:10:52Z</time>
      </trkpt>
      <trkpt lat="46.77797" lon="5.8089">
        <ele>523.1</ele>
        <time>2019-12-12T12:10:56Z</time>
      </trkpt>
      <trkpt lat="46.77801" lon="5.80895">
        <ele>523.2</ele>
        <time>2019-12-12T12:11:01Z</time>
      </trkpt>
      <trkpt lat="46.77805" lon="5.80899">
        <ele>523.2</ele>
        <time>2019-12-12T12:11:07Z</time>
      </trkpt>
      <trkpt lat="46.77809" lon="5.80904">
        <ele>523.2</ele>
        <time>2019-12-12T12:11:11Z</time>
      </trkpt>
      <trkpt lat="46.77813" lon="5.80909">
        <ele>523.1</ele>
        <time>2019-12-12T12:11:15Z</time>
      </trkpt>
      <trkpt lat="46.77816" lon="5.80913">
        <ele>523.2</ele>
        <time>2019-12-12T12:11:19Z</time>
      </trkpt>
      <trkpt lat="46.7782" lon="5.80917">
        <ele>523.2</ele>
        <time>2019-12-12T12:11:24Z</time>
      </trkpt>
      <trkpt lat="46.77824" lon="5.80921">
        <ele>523.4</ele>
        <time>2019-12-12T12:11:29Z</time>
      </trkpt>
      <trkpt lat="46.77828" lon="5.80926">
        <ele>523.6</ele>
        <time>2019-12-12T12:11:33Z</time>
      </trkpt>
      <trkpt lat="46.77831" lon="5.8093">
        <ele>523.9</ele>
        <time>2019-12-12T12:11:37Z</time>
      </trkpt>
      <trkpt lat="46.77835" lon="5.80935">
        <ele>524.1</ele>
        <time>2019-12-12T12:11:41Z</time>
      </trkpt>
      <trkpt lat="46.7784" lon="5.80939">
        <ele>524.3</ele>
        <time>2019-12-12T12:11:45Z</time>
      </trkpt>
      <trkpt lat="46.77844" lon="5.80943">
        <ele>524.6</ele>
        <time>2019-12-12T12:11:50Z</time>
      </trkpt>
      <trkpt lat="46.77847" lon="5.80948">
        <ele>524.7</ele>
        <time>2019-12-12T12:11:54Z</time>
      </trkpt>
      <trkpt lat="46.77851" lon="5.80953">
        <ele>524.9</ele>
        <time>2019-12-12T12:11:58Z</time>
      </trkpt>
      <trkpt lat="46.77855" lon="5.80957">
        <ele>525.2</ele>
        <time>2019-12-12T12:12:03Z</time>
      </trkpt>
      <trkpt lat="46.77858" lon="5.80962">
        <ele>525.5</ele>
        <time>2019-12-12T12:12:07Z</time>
      </trkpt>
      <trkpt lat="46.77862" lon="5.80967">
        <ele>525.8</ele>
        <time>2019-12-12T12:12:12Z</time>
      </trkpt>
      <trkpt lat="46.77866" lon="5.80971">
        <ele>526.2</ele>
        <time>2019-12-12T12:12:17Z</time>
      </trkpt>
      <trkpt lat="46.7787" lon="5.80975">
        <ele>526.5</ele>
        <time>2019-12-12T12:12:21Z</time>
      </trkpt>
      <trkpt lat="46.77874" lon="5.8098">
        <ele>526.9</ele>
        <time>2019-12-12T12:12:26Z</time>
      </trkpt>
      <trkpt lat="46.77879" lon="5.80984">
        <ele>527.1</ele>
        <time>2019-12-12T12:12:30Z</time>
      </trkpt>
      <trkpt lat="46.77883" lon="5.80988">
        <ele>527.3</ele>
        <time>2019-12-12T12:12:34Z</time>
      </trkpt>
      <trkpt lat="46.77887" lon="5.80992">
        <ele>527.5</ele>
        <time>2019-12-12T12:12:39Z</time>
      </trkpt>
      <trkpt lat="46.77892" lon="5.80996">
        <ele>527.8</ele>
        <time>2019-12-12T12:12:44Z</time>
      </trkpt>
      <trkpt lat="46.77897" lon="5.81">
        <ele>528</ele>
        <time>2019-12-12T12:12:48Z</time>
      </trkpt>
      <trkpt lat="46.77901" lon="5.81003">
        <ele>528.3</ele>
        <time>2019-12-12T12:12:52Z</time>
      </trkpt>
      <trkpt lat="46.77905" lon="5.81007">
        <ele>528.6</ele>
        <time>2019-12-12T12:12:56Z</time>
      </trkpt>
      <trkpt lat="46.77909" lon="5.81012">
        <ele>528.9</ele>
        <time>2019-12-12T12:13:00Z</time>
      </trkpt>
      <trkpt lat="46.77913" lon="5.81016">
        <ele>529</ele>
        <time>2019-12-12T12:13:04Z</time>
      </trkpt>
      <trkpt lat="46.77918" lon="5.8102">
        <ele>529.2</ele>
        <time>2019-12-12T12:13:08Z</time>
      </trkpt>
      <trkpt lat="46.77922" lon="5.81025">
        <ele>529.4</ele>
        <time>2019-12-12T12:13:13Z</time>
      </trkpt>
      <trkpt lat="46.77926" lon="5.81028">
        <ele>529.4</ele>
        <time>2019-12-12T12:13:17Z</time>
      </trkpt>
      <trkpt lat="46.77931" lon="5.81032">
        <ele>529.6</ele>
        <time>2019-12-12T12:13:22Z</time>
      </trkpt>
      <trkpt lat="46.77935" lon="5.81036">
        <ele>529.7</ele>
        <time>2019-12-12T12:13:26Z</time>
      </trkpt>
      <trkpt lat="46.7794" lon="5.81039">
        <ele>529.9</ele>
        <time>2019-12-12T12:13:31Z</time>
      </trkpt>
      <trkpt lat="46.77944" lon="5.81043">
        <ele>529.9</ele>
        <time>2019-12-12T12:13:35Z</time>
      </trkpt>
      <trkpt lat="46.77948" lon="5.81047">
        <ele>529.9</ele>
        <time>2019-12-12T12:13:39Z</time>
      </trkpt>
      <trkpt lat="46.77953" lon="5.8105">
        <ele>529.9</ele>
        <time>2019-12-12T12:13:43Z</time>
      </trkpt>
      <trkpt lat="46.77957" lon="5.81052">
        <ele>529.9</ele>
        <time>2019-12-12T12:13:47Z</time>
      </trkpt>
      <trkpt lat="46.77962" lon="5.81056">
        <ele>529.9</ele>
        <time>2019-12-12T12:13:51Z</time>
      </trkpt>
      <trkpt lat="46.77972" lon="5.81061">
        <ele>529.7</ele>
        <time>2019-12-12T12:14:01Z</time>
      </trkpt>
      <trkpt lat="46.77977" lon="5.81063">
        <ele>529.7</ele>
        <time>2019-12-12T12:14:05Z</time>
      </trkpt>
      <trkpt lat="46.77981" lon="5.81066">
        <ele>529.5</ele>
        <time>2019-12-12T12:14:09Z</time>
      </trkpt>
      <trkpt lat="46.77986" lon="5.8107">
        <ele>529.3</ele>
        <time>2019-12-12T12:14:14Z</time>
      </trkpt>
      <trkpt lat="46.7799" lon="5.81075">
        <ele>529.1</ele>
        <time>2019-12-12T12:14:19Z</time>
      </trkpt>
      <trkpt lat="46.77994" lon="5.8108">
        <ele>528.9</ele>
        <time>2019-12-12T12:14:24Z</time>
      </trkpt>
      <trkpt lat="46.77998" lon="5.81084">
        <ele>528.7</ele>
        <time>2019-12-12T12:14:28Z</time>
      </trkpt>
      <trkpt lat="46.78002" lon="5.81088">
        <ele>528.4</ele>
        <time>2019-12-12T12:14:33Z</time>
      </trkpt>
      <trkpt lat="46.78006" lon="5.81093">
        <ele>528.1</ele>
        <time>2019-12-12T12:14:37Z</time>
      </trkpt>
      <trkpt lat="46.7801" lon="5.81098">
        <ele>528</ele>
        <time>2019-12-12T12:14:42Z</time>
      </trkpt>
      <trkpt lat="46.78014" lon="5.81103">
        <ele>527.9</ele>
        <time>2019-12-12T12:14:47Z</time>
      </trkpt>
      <trkpt lat="46.78019" lon="5.81108">
        <ele>527.8</ele>
        <time>2019-12-12T12:14:51Z</time>
      </trkpt>
      <trkpt lat="46.78023" lon="5.81112">
        <ele>527.7</ele>
        <time>2019-12-12T12:14:55Z</time>
      </trkpt>
      <trkpt lat="46.78027" lon="5.81117">
        <ele>527.6</ele>
        <time>2019-12-12T12:15:00Z</time>
      </trkpt>
      <trkpt lat="46.7803" lon="5.81123">
        <ele>527.7</ele>
        <time>2019-12-12T12:15:06Z</time>
      </trkpt>
      <trkpt lat="46.78035" lon="5.81128">
        <ele>528</ele>
        <time>2019-12-12T12:15:11Z</time>
      </trkpt>
      <trkpt lat="46.78038" lon="5.81133">
        <ele>528.1</ele>
        <time>2019-12-12T12:15:16Z</time>
      </trkpt>
      <trkpt lat="46.78042" lon="5.81138">
        <ele>528.4</ele>
        <time>2019-12-12T12:15:23Z</time>
      </trkpt>
      <trkpt lat="46.78045" lon="5.81144">
        <ele>529.1</ele>
        <time>2019-12-12T12:15:33Z</time>
      </trkpt>
      <trkpt lat="46.78049" lon="5.81147">
        <ele>530.8</ele>
        <time>2019-12-12T12:15:53Z</time>
      </trkpt>
      <trkpt lat="46.78048" lon="5.81154">
        <ele>536.9</ele>
        <time>2019-12-12T12:18:56Z</time>
      </trkpt>
      <trkpt lat="46.78045" lon="5.81161">
        <ele>538.4</ele>
        <time>2019-12-12T12:19:05Z</time>
      </trkpt>
      <trkpt lat="46.78042" lon="5.81167">
        <ele>539</ele>
        <time>2019-12-12T12:19:09Z</time>
      </trkpt>
      <trkpt lat="46.78039" lon="5.81173">
        <ele>540.5</ele>
        <time>2019-12-12T12:19:16Z</time>
      </trkpt>
      <trkpt lat="46.78036" lon="5.81178">
        <ele>541.6</ele>
        <time>2019-12-12T12:19:21Z</time>
      </trkpt>
      <trkpt lat="46.78033" lon="5.81184">
        <ele>542.8</ele>
        <time>2019-12-12T12:19:28Z</time>
      </trkpt>
      <trkpt lat="46.7803" lon="5.81188">
        <ele>544.3</ele>
        <time>2019-12-12T12:19:39Z</time>
      </trkpt>
      <trkpt lat="46.78026" lon="5.81193">
        <ele>546.3</ele>
        <time>2019-12-12T12:19:48Z</time>
      </trkpt>
      <trkpt lat="46.78022" lon="5.81196">
        <ele>547.8</ele>
        <time>2019-12-12T12:19:56Z</time>
      </trkpt>
      <trkpt lat="46.78017" lon="5.81197">
        <ele>548.2</ele>
        <time>2019-12-12T12:20:03Z</time>
      </trkpt>
      <trkpt lat="46.78013" lon="5.81198">
        <ele>548.5</ele>
        <time>2019-12-12T12:20:09Z</time>
      </trkpt>
      <trkpt lat="46.78012" lon="5.81205">
        <ele>549.1</ele>
        <time>2019-12-12T12:20:35Z</time>
      </trkpt>
      <trkpt lat="46.7801" lon="5.81212">
        <ele>548.7</ele>
        <time>2019-12-12T12:20:54Z</time>
      </trkpt>
      <trkpt lat="46.78007" lon="5.81218">
        <ele>549.1</ele>
        <time>2019-12-12T12:20:56Z</time>
      </trkpt>
      <trkpt lat="46.78004" lon="5.81223">
        <ele>550</ele>
        <time>2019-12-12T12:21:00Z</time>
      </trkpt>
      <trkpt lat="46.78002" lon="5.81229">
        <ele>552.9</ele>
        <time>2019-12-12T12:21:12Z</time>
      </trkpt>
      <trkpt lat="46.77999" lon="5.81235">
        <ele>554.3</ele>
        <time>2019-12-12T12:21:20Z</time>
      </trkpt>
      <trkpt lat="46.77995" lon="5.8124">
        <ele>555.8</ele>
        <time>2019-12-12T12:21:37Z</time>
      </trkpt>
      <trkpt lat="46.77991" lon="5.81244">
        <ele>556.6</ele>
        <time>2019-12-12T12:21:41Z</time>
      </trkpt>
      <trkpt lat="46.77986" lon="5.81246">
        <ele>559</ele>
        <time>2019-12-12T12:21:48Z</time>
      </trkpt>
      <trkpt lat="46.77981" lon="5.81243">
        <ele>562.5</ele>
        <time>2019-12-12T12:21:57Z</time>
      </trkpt>
      <trkpt lat="46.77976" lon="5.8124">
        <ele>563.9</ele>
        <time>2019-12-12T12:22:01Z</time>
      </trkpt>
      <trkpt lat="46.77967" lon="5.81245">
        <ele>566.4</ele>
        <time>2019-12-12T12:22:17Z</time>
      </trkpt>
      <trkpt lat="46.77963" lon="5.81244">
        <ele>567.9</ele>
        <time>2019-12-12T12:22:28Z</time>
      </trkpt>
      <trkpt lat="46.77954" lon="5.81246">
        <ele>575.8</ele>
        <time>2019-12-12T12:22:55Z</time>
      </trkpt>
      <trkpt lat="46.77949" lon="5.81243">
        <ele>577</ele>
        <time>2019-12-12T12:23:02Z</time>
      </trkpt>
      <trkpt lat="46.77944" lon="5.81239">
        <ele>577.5</ele>
        <time>2019-12-12T12:23:06Z</time>
      </trkpt>
      <trkpt lat="46.7794" lon="5.81236">
        <ele>577.7</ele>
        <time>2019-12-12T12:23:11Z</time>
      </trkpt>
      <trkpt lat="46.77935" lon="5.81234">
        <ele>577.7</ele>
        <time>2019-12-12T12:23:16Z</time>
      </trkpt>
      <trkpt lat="46.77928" lon="5.81227">
        <ele>576.9</ele>
        <time>2019-12-12T12:23:33Z</time>
      </trkpt>
      <trkpt lat="46.77923" lon="5.81226">
        <ele>577</ele>
        <time>2019-12-12T12:23:36Z</time>
      </trkpt>
      <trkpt lat="46.77913" lon="5.81226">
        <ele>586</ele>
        <time>2019-12-12T12:24:41Z</time>
      </trkpt>
      <trkpt lat="46.77908" lon="5.81225">
        <ele>586.4</ele>
        <time>2019-12-12T12:24:46Z</time>
      </trkpt>
      <trkpt lat="46.77903" lon="5.81227">
        <ele>588</ele>
        <time>2019-12-12T12:25:01Z</time>
      </trkpt>
      <trkpt lat="46.77899" lon="5.81229">
        <ele>590.2</ele>
        <time>2019-12-12T12:25:09Z</time>
      </trkpt>
      <trkpt lat="46.77894" lon="5.8123">
        <ele>591.9</ele>
        <time>2019-12-12T12:25:16Z</time>
      </trkpt>
      <trkpt lat="46.77888" lon="5.81229">
        <ele>595.2</ele>
        <time>2019-12-12T12:25:28Z</time>
      </trkpt>
      <trkpt lat="46.77883" lon="5.8123">
        <ele>596.9</ele>
        <time>2019-12-12T12:25:34Z</time>
      </trkpt>
      <trkpt lat="46.77878" lon="5.8123">
        <ele>598.8</ele>
        <time>2019-12-12T12:25:41Z</time>
      </trkpt>
      <trkpt lat="46.77865" lon="5.81227">
        <ele>600.7</ele>
        <time>2019-12-12T12:25:59Z</time>
      </trkpt>
      <trkpt lat="46.7786" lon="5.81226">
        <ele>601.6</ele>
        <time>2019-12-12T12:26:05Z</time>
      </trkpt>
      <trkpt lat="46.77856" lon="5.81228">
        <ele>602.2</ele>
        <time>2019-12-12T12:26:10Z</time>
      </trkpt>
      <trkpt lat="46.77851" lon="5.81231">
        <ele>602.5</ele>
        <time>2019-12-12T12:26:16Z</time>
      </trkpt>
      <trkpt lat="46.77838" lon="5.81235">
        <ele>604.3</ele>
        <time>2019-12-12T12:26:34Z</time>
      </trkpt>
      <trkpt lat="46.77828" lon="5.8123">
        <ele>604.4</ele>
        <time>2019-12-12T12:26:51Z</time>
      </trkpt>
      <trkpt lat="46.77824" lon="5.81226">
        <ele>604.5</ele>
        <time>2019-12-12T12:26:56Z</time>
      </trkpt>
      <trkpt lat="46.77814" lon="5.81225">
        <ele>609.1</ele>
        <time>2019-12-12T12:27:25Z</time>
      </trkpt>
      <trkpt lat="46.77809" lon="5.81224">
        <ele>609.3</ele>
        <time>2019-12-12T12:27:31Z</time>
      </trkpt>
      <trkpt lat="46.77804" lon="5.81224">
        <ele>609.3</ele>
        <time>2019-12-12T12:27:38Z</time>
      </trkpt>
      <trkpt lat="46.778" lon="5.81224">
        <ele>609.4</ele>
        <time>2019-12-12T12:27:47Z</time>
      </trkpt>
      <trkpt lat="46.77792" lon="5.81219">
        <ele>614.3</ele>
        <time>2019-12-12T12:28:41Z</time>
      </trkpt>
      <trkpt lat="46.77784" lon="5.81215">
        <ele>619.5</ele>
        <time>2019-12-12T12:28:58Z</time>
      </trkpt>
      <trkpt lat="46.77779" lon="5.81212">
        <ele>620.3</ele>
        <time>2019-12-12T12:29:03Z</time>
      </trkpt>
      <trkpt lat="46.77774" lon="5.8121">
        <ele>622.7</ele>
        <time>2019-12-12T12:29:19Z</time>
      </trkpt>
      <trkpt lat="46.7777" lon="5.81208">
        <ele>624.2</ele>
        <time>2019-12-12T12:29:28Z</time>
      </trkpt>
      <trkpt lat="46.77765" lon="5.81207">
        <ele>625.5</ele>
        <time>2019-12-12T12:29:36Z</time>
      </trkpt>
      <trkpt lat="46.7776" lon="5.81206">
        <ele>626.2</ele>
        <time>2019-12-12T12:29:48Z</time>
      </trkpt>
      <trkpt lat="46.77742" lon="5.81209">
        <ele>630.1</ele>
        <time>2019-12-12T12:30:13Z</time>
      </trkpt>
      <trkpt lat="46.77738" lon="5.81209">
        <ele>630.2</ele>
        <time>2019-12-12T12:30:19Z</time>
      </trkpt>
      <trkpt lat="46.77733" lon="5.81211">
        <ele>630.2</ele>
        <time>2019-12-12T12:30:38Z</time>
      </trkpt>
      <trkpt lat="46.77728" lon="5.81208">
        <ele>629.8</ele>
        <time>2019-12-12T12:30:44Z</time>
      </trkpt>
      <trkpt lat="46.77724" lon="5.81207">
        <ele>628.8</ele>
        <time>2019-12-12T12:31:03Z</time>
      </trkpt>
      <trkpt lat="46.77719" lon="5.81206">
        <ele>628.8</ele>
        <time>2019-12-12T12:31:11Z</time>
      </trkpt>
      <trkpt lat="46.77715" lon="5.81203">
        <ele>629.3</ele>
        <time>2019-12-12T12:31:17Z</time>
      </trkpt>
      <trkpt lat="46.7771" lon="5.81199">
        <ele>629.5</ele>
        <time>2019-12-12T12:31:26Z</time>
      </trkpt>
      <trkpt lat="46.77707" lon="5.81194">
        <ele>629.2</ele>
        <time>2019-12-12T12:31:31Z</time>
      </trkpt>
      <trkpt lat="46.77702" lon="5.8119">
        <ele>628.6</ele>
        <time>2019-12-12T12:31:37Z</time>
      </trkpt>
      <trkpt lat="46.77697" lon="5.81186">
        <ele>628.2</ele>
        <time>2019-12-12T12:31:42Z</time>
      </trkpt>
      <trkpt lat="46.77693" lon="5.81181">
        <ele>627.1</ele>
        <time>2019-12-12T12:31:49Z</time>
      </trkpt>
      <trkpt lat="46.77689" lon="5.81177">
        <ele>626.1</ele>
        <time>2019-12-12T12:31:58Z</time>
      </trkpt>
      <trkpt lat="46.77685" lon="5.8117">
        <ele>625.9</ele>
        <time>2019-12-12T12:32:01Z</time>
      </trkpt>
      <trkpt lat="46.7768" lon="5.81162">
        <ele>625.8</ele>
        <time>2019-12-12T12:32:03Z</time>
      </trkpt>
      <trkpt lat="46.77671" lon="5.81152">
        <ele>624.5</ele>
        <time>2019-12-12T12:32:20Z</time>
      </trkpt>
      <trkpt lat="46.77668" lon="5.81145">
        <ele>623.8</ele>
        <time>2019-12-12T12:32:28Z</time>
      </trkpt>
      <trkpt lat="46.77667" lon="5.81138">
        <ele>623.3</ele>
        <time>2019-12-12T12:32:36Z</time>
      </trkpt>
      <trkpt lat="46.77666" lon="5.81132">
        <ele>622.9</ele>
        <time>2019-12-12T12:32:43Z</time>
      </trkpt>
      <trkpt lat="46.77665" lon="5.81113">
        <ele>622.7</ele>
        <time>2019-12-12T12:33:09Z</time>
      </trkpt>
      <trkpt lat="46.77665" lon="5.81106">
        <ele>622.8</ele>
        <time>2019-12-12T12:33:13Z</time>
      </trkpt>
      <trkpt lat="46.77667" lon="5.81099">
        <ele>623.8</ele>
        <time>2019-12-12T12:33:26Z</time>
      </trkpt>
      <trkpt lat="46.77665" lon="5.81091">
        <ele>624.4</ele>
        <time>2019-12-12T12:33:34Z</time>
      </trkpt>
      <trkpt lat="46.77665" lon="5.81084">
        <ele>624.6</ele>
        <time>2019-12-12T12:33:38Z</time>
      </trkpt>
      <trkpt lat="46.77665" lon="5.81077">
        <ele>625.3</ele>
        <time>2019-12-12T12:33:55Z</time>
      </trkpt>
      <trkpt lat="46.77664" lon="5.81069">
        <ele>625.2</ele>
        <time>2019-12-12T12:33:59Z</time>
      </trkpt>
      <trkpt lat="46.77663" lon="5.81062">
        <ele>625.1</ele>
        <time>2019-12-12T12:34:02Z</time>
      </trkpt>
      <trkpt lat="46.77663" lon="5.81055">
        <ele>625.5</ele>
        <time>2019-12-12T12:34:09Z</time>
      </trkpt>
      <trkpt lat="46.7766" lon="5.81049">
        <ele>625.7</ele>
        <time>2019-12-12T12:34:16Z</time>
      </trkpt>
      <trkpt lat="46.77657" lon="5.81044">
        <ele>625.9</ele>
        <time>2019-12-12T12:34:29Z</time>
      </trkpt>
      <trkpt lat="46.77652" lon="5.81044">
        <ele>626.1</ele>
        <time>2019-12-12T12:34:39Z</time>
      </trkpt>
      <trkpt lat="46.77647" lon="5.81045">
        <ele>626.2</ele>
        <time>2019-12-12T12:34:41Z</time>
      </trkpt>
      <trkpt lat="46.77633" lon="5.81038">
        <ele>627.4</ele>
        <time>2019-12-12T12:34:58Z</time>
      </trkpt>
      <trkpt lat="46.77629" lon="5.81034">
        <ele>627.9</ele>
        <time>2019-12-12T12:35:07Z</time>
      </trkpt>
      <trkpt lat="46.77625" lon="5.8103">
        <ele>631.3</ele>
        <time>2019-12-12T12:35:36Z</time>
      </trkpt>
      <trkpt lat="46.77621" lon="5.81026">
        <ele>632.6</ele>
        <time>2019-12-12T12:35:41Z</time>
      </trkpt>
      <trkpt lat="46.77616" lon="5.81025">
        <ele>633.9</ele>
        <time>2019-12-12T12:35:53Z</time>
      </trkpt>
      <trkpt lat="46.77611" lon="5.81024">
        <ele>634.3</ele>
        <time>2019-12-12T12:36:00Z</time>
      </trkpt>
      <trkpt lat="46.77606" lon="5.81025">
        <ele>632.9</ele>
        <time>2019-12-12T12:37:01Z</time>
      </trkpt>
      <trkpt lat="46.77601" lon="5.81025">
        <ele>632.6</ele>
        <time>2019-12-12T12:37:07Z</time>
      </trkpt>
      <trkpt lat="46.77599" lon="5.81033">
        <ele>631.9</ele>
        <time>2019-12-12T12:37:29Z</time>
      </trkpt>
      <trkpt lat="46.77595" lon="5.81038">
        <ele>631.2</ele>
        <time>2019-12-12T12:37:37Z</time>
      </trkpt>
      <trkpt lat="46.77593" lon="5.81044">
        <ele>630.8</ele>
        <time>2019-12-12T12:37:41Z</time>
      </trkpt>
      <trkpt lat="46.77589" lon="5.81051">
        <ele>630.4</ele>
        <time>2019-12-12T12:37:47Z</time>
      </trkpt>
      <trkpt lat="46.77576" lon="5.81087">
        <ele>628.2</ele>
        <time>2019-12-12T12:38:45Z</time>
      </trkpt>
      <trkpt lat="46.77574" lon="5.81093">
        <ele>627.8</ele>
        <time>2019-12-12T12:38:50Z</time>
      </trkpt>
      <trkpt lat="46.77571" lon="5.81098">
        <ele>627.4</ele>
        <time>2019-12-12T12:38:55Z</time>
      </trkpt>
      <trkpt lat="46.77569" lon="5.81104">
        <ele>625.4</ele>
        <time>2019-12-12T12:39:09Z</time>
      </trkpt>
      <trkpt lat="46.77569" lon="5.81116">
        <ele>622.4</ele>
        <time>2019-12-12T12:39:36Z</time>
      </trkpt>
      <trkpt lat="46.77572" lon="5.81123">
        <ele>622.1</ele>
        <time>2019-12-12T12:39:42Z</time>
      </trkpt>
      <trkpt lat="46.77578" lon="5.81133">
        <ele>622.3</ele>
        <time>2019-12-12T12:39:53Z</time>
      </trkpt>
      <trkpt lat="46.77583" lon="5.81135">
        <ele>622.3</ele>
        <time>2019-12-12T12:40:00Z</time>
      </trkpt>
      <trkpt lat="46.77588" lon="5.81137">
        <ele>621.9</ele>
        <time>2019-12-12T12:40:06Z</time>
      </trkpt>
      <trkpt lat="46.776" lon="5.8114">
        <ele>619.6</ele>
        <time>2019-12-12T12:40:17Z</time>
      </trkpt>
      <trkpt lat="46.77605" lon="5.81145">
        <ele>619.2</ele>
        <time>2019-12-12T12:40:20Z</time>
      </trkpt>
      <trkpt lat="46.77609" lon="5.81149">
        <ele>618.8</ele>
        <time>2019-12-12T12:40:23Z</time>
      </trkpt>
      <trkpt lat="46.77626" lon="5.81149">
        <ele>618.4</ele>
        <time>2019-12-12T12:40:44Z</time>
      </trkpt>
      <trkpt lat="46.77631" lon="5.81148">
        <ele>617.8</ele>
        <time>2019-12-12T12:40:52Z</time>
      </trkpt>
      <trkpt lat="46.77636" lon="5.8115">
        <ele>617.3</ele>
        <time>2019-12-12T12:41:01Z</time>
      </trkpt>
      <trkpt lat="46.7764" lon="5.81152">
        <ele>617.1</ele>
        <time>2019-12-12T12:41:04Z</time>
      </trkpt>
      <trkpt lat="46.77647" lon="5.81148">
        <ele>616.8</ele>
        <time>2019-12-12T12:41:08Z</time>
      </trkpt>
      <trkpt lat="46.77651" lon="5.81146">
        <ele>616.5</ele>
        <time>2019-12-12T12:41:12Z</time>
      </trkpt>
      <trkpt lat="46.77655" lon="5.81142">
        <ele>616.6</ele>
        <time>2019-12-12T12:41:19Z</time>
      </trkpt>
      <trkpt lat="46.77657" lon="5.81124">
        <ele>617.8</ele>
        <time>2019-12-12T12:41:29Z</time>
      </trkpt>
      <trkpt lat="46.77658" lon="5.81117">
        <ele>617.8</ele>
        <time>2019-12-12T12:41:32Z</time>
      </trkpt>
      <trkpt lat="46.77658" lon="5.8111">
        <ele>617.9</ele>
        <time>2019-12-12T12:41:38Z</time>
      </trkpt>
      <trkpt lat="46.77658" lon="5.81103">
        <ele>618.3</ele>
        <time>2019-12-12T12:41:44Z</time>
      </trkpt>
      <trkpt lat="46.77659" lon="5.81097">
        <ele>619.4</ele>
        <time>2019-12-12T12:41:53Z</time>
      </trkpt>
      <trkpt lat="46.77659" lon="5.81088">
        <ele>620.1</ele>
        <time>2019-12-12T12:41:59Z</time>
      </trkpt>
      <trkpt lat="46.7766" lon="5.81082">
        <ele>620.3</ele>
        <time>2019-12-12T12:42:03Z</time>
      </trkpt>
      <trkpt lat="46.77661" lon="5.81074">
        <ele>620.5</ele>
        <time>2019-12-12T12:42:08Z</time>
      </trkpt>
      <trkpt lat="46.77659" lon="5.81067">
        <ele>620.6</ele>
        <time>2019-12-12T12:42:10Z</time>
      </trkpt>
      <trkpt lat="46.77658" lon="5.81061">
        <ele>620.7</ele>
        <time>2019-12-12T12:42:13Z</time>
      </trkpt>
      <trkpt lat="46.77658" lon="5.81054">
        <ele>620.9</ele>
        <time>2019-12-12T12:42:18Z</time>
      </trkpt>
      <trkpt lat="46.77663" lon="5.81053">
        <ele>621.2</ele>
        <time>2019-12-12T12:42:26Z</time>
      </trkpt>
      <trkpt lat="46.77658" lon="5.81062">
        <ele>629.6</ele>
        <time>2019-12-12T12:45:46Z</time>
      </trkpt>
      <trkpt lat="46.7766" lon="5.81068">
        <ele>630.1</ele>
        <time>2019-12-12T12:45:57Z</time>
      </trkpt>
      <trkpt lat="46.77662" lon="5.81074">
        <ele>630.5</ele>
        <time>2019-12-12T12:46:06Z</time>
      </trkpt>
      <trkpt lat="46.77662" lon="5.81081">
        <ele>630.7</ele>
        <time>2019-12-12T12:46:12Z</time>
      </trkpt>
      <trkpt lat="46.77662" lon="5.81088">
        <ele>630.7</ele>
        <time>2019-12-12T12:46:15Z</time>
      </trkpt>
      <trkpt lat="46.77664" lon="5.81099">
        <ele>630.6</ele>
        <time>2019-12-12T12:46:17Z</time>
      </trkpt>
      <trkpt lat="46.77663" lon="5.81109">
        <ele>630.5</ele>
        <time>2019-12-12T12:46:19Z</time>
      </trkpt>
      <trkpt lat="46.77661" lon="5.81119">
        <ele>630.3</ele>
        <time>2019-12-12T12:46:21Z</time>
      </trkpt>
      <trkpt lat="46.7766" lon="5.81127">
        <ele>630.1</ele>
        <time>2019-12-12T12:46:25Z</time>
      </trkpt>
      <trkpt lat="46.77659" lon="5.81134">
        <ele>630</ele>
        <time>2019-12-12T12:46:32Z</time>
      </trkpt>
      <trkpt lat="46.77659" lon="5.81141">
        <ele>630</ele>
        <time>2019-12-12T12:46:36Z</time>
      </trkpt>
      <trkpt lat="46.77654" lon="5.81141">
        <ele>630</ele>
        <time>2019-12-12T12:46:50Z</time>
      </trkpt>
      <trkpt lat="46.77649" lon="5.81141">
        <ele>630</ele>
        <time>2019-12-12T12:46:57Z</time>
      </trkpt>
      <trkpt lat="46.77644" lon="5.81145">
        <ele>630.1</ele>
        <time>2019-12-12T12:47:03Z</time>
      </trkpt>
      <trkpt lat="46.77638" lon="5.8115">
        <ele>630.1</ele>
        <time>2019-12-12T12:47:05Z</time>
      </trkpt>
      <trkpt lat="46.7763" lon="5.81153">
        <ele>630</ele>
        <time>2019-12-12T12:47:07Z</time>
      </trkpt>
      <trkpt lat="46.77625" lon="5.81154">
        <ele>629.9</ele>
        <time>2019-12-12T12:47:09Z</time>
      </trkpt>
      <trkpt lat="46.7762" lon="5.81156">
        <ele>629.5</ele>
        <time>2019-12-12T12:47:13Z</time>
      </trkpt>
      <trkpt lat="46.77616" lon="5.81155">
        <ele>628.8</ele>
        <time>2019-12-12T12:47:18Z</time>
      </trkpt>
      <trkpt lat="46.7761" lon="5.81152">
        <ele>628</ele>
        <time>2019-12-12T12:47:25Z</time>
      </trkpt>
      <trkpt lat="46.77605" lon="5.8115">
        <ele>627.9</ele>
        <time>2019-12-12T12:47:27Z</time>
      </trkpt>
      <trkpt lat="46.77591" lon="5.81152">
        <ele>627.8</ele>
        <time>2019-12-12T12:47:35Z</time>
      </trkpt>
      <trkpt lat="46.77586" lon="5.81151">
        <ele>628.1</ele>
        <time>2019-12-12T12:47:42Z</time>
      </trkpt>
      <trkpt lat="46.77581" lon="5.8115">
        <ele>628.5</ele>
        <time>2019-12-12T12:47:47Z</time>
      </trkpt>
      <trkpt lat="46.77575" lon="5.81149">
        <ele>628.9</ele>
        <time>2019-12-12T12:47:51Z</time>
      </trkpt>
      <trkpt lat="46.77571" lon="5.81148">
        <ele>629.1</ele>
        <time>2019-12-12T12:47:55Z</time>
      </trkpt>
      <trkpt lat="46.7756" lon="5.81139">
        <ele>630</ele>
        <time>2019-12-12T12:48:09Z</time>
      </trkpt>
      <trkpt lat="46.77555" lon="5.81134">
        <ele>629.8</ele>
        <time>2019-12-12T12:48:15Z</time>
      </trkpt>
      <trkpt lat="46.77542" lon="5.81125">
        <ele>625.6</ele>
        <time>2019-12-12T12:48:38Z</time>
      </trkpt>
      <trkpt lat="46.77538" lon="5.81121">
        <ele>624.8</ele>
        <time>2019-12-12T12:48:41Z</time>
      </trkpt>
      <trkpt lat="46.77534" lon="5.8112">
        <ele>622.9</ele>
        <time>2019-12-12T12:48:49Z</time>
      </trkpt>
      <trkpt lat="46.77529" lon="5.81121">
        <ele>622.1</ele>
        <time>2019-12-12T12:48:59Z</time>
      </trkpt>
      <trkpt lat="46.77524" lon="5.8112">
        <ele>621.8</ele>
        <time>2019-12-12T12:49:05Z</time>
      </trkpt>
      <trkpt lat="46.77519" lon="5.81119">
        <ele>621.8</ele>
        <time>2019-12-12T12:49:09Z</time>
      </trkpt>
      <trkpt lat="46.77515" lon="5.8112">
        <ele>622</ele>
        <time>2019-12-12T12:49:16Z</time>
      </trkpt>
      <trkpt lat="46.7751" lon="5.81122">
        <ele>622.4</ele>
        <time>2019-12-12T12:49:28Z</time>
      </trkpt>
      <trkpt lat="46.77506" lon="5.81123">
        <ele>622</ele>
        <time>2019-12-12T12:49:36Z</time>
      </trkpt>
      <trkpt lat="46.77502" lon="5.81128">
        <ele>619.3</ele>
        <time>2019-12-12T12:49:55Z</time>
      </trkpt>
      <trkpt lat="46.77499" lon="5.81133">
        <ele>618.1</ele>
        <time>2019-12-12T12:50:02Z</time>
      </trkpt>
      <trkpt lat="46.77496" lon="5.81138">
        <ele>617.4</ele>
        <time>2019-12-12T12:50:11Z</time>
      </trkpt>
      <trkpt lat="46.7749" lon="5.8114">
        <ele>617.5</ele>
        <time>2019-12-12T12:50:38Z</time>
      </trkpt>
      <trkpt lat="46.77485" lon="5.81139">
        <ele>617</ele>
        <time>2019-12-12T12:50:43Z</time>
      </trkpt>
      <trkpt lat="46.77481" lon="5.81143">
        <ele>616.7</ele>
        <time>2019-12-12T12:50:48Z</time>
      </trkpt>
      <trkpt lat="46.77477" lon="5.81147">
        <ele>615.6</ele>
        <time>2019-12-12T12:50:59Z</time>
      </trkpt>
      <trkpt lat="46.77475" lon="5.81153">
        <ele>614.6</ele>
        <time>2019-12-12T12:51:16Z</time>
      </trkpt>
      <trkpt lat="46.77477" lon="5.81159">
        <ele>613.6</ele>
        <time>2019-12-12T12:51:23Z</time>
      </trkpt>
      <trkpt lat="46.77476" lon="5.81166">
        <ele>612.9</ele>
        <time>2019-12-12T12:51:32Z</time>
      </trkpt>
      <trkpt lat="46.77475" lon="5.81176">
        <ele>611.8</ele>
        <time>2019-12-12T12:51:54Z</time>
      </trkpt>
      <trkpt lat="46.77476" lon="5.81182">
        <ele>611.5</ele>
        <time>2019-12-12T12:52:00Z</time>
      </trkpt>
      <trkpt lat="46.77476" lon="5.81189">
        <ele>609.6</ele>
        <time>2019-12-12T12:52:16Z</time>
      </trkpt>
      <trkpt lat="46.77476" lon="5.81195">
        <ele>608.5</ele>
        <time>2019-12-12T12:52:23Z</time>
      </trkpt>
      <trkpt lat="46.77476" lon="5.81203">
        <ele>607.1</ele>
        <time>2019-12-12T12:52:33Z</time>
      </trkpt>
      <trkpt lat="46.77474" lon="5.8121">
        <ele>606.7</ele>
        <time>2019-12-12T12:52:35Z</time>
      </trkpt>
      <trkpt lat="46.77472" lon="5.81218">
        <ele>606.4</ele>
        <time>2019-12-12T12:52:37Z</time>
      </trkpt>
      <trkpt lat="46.77471" lon="5.81224">
        <ele>606</ele>
        <time>2019-12-12T12:52:39Z</time>
      </trkpt>
      <trkpt lat="46.77469" lon="5.81231">
        <ele>604.5</ele>
        <time>2019-12-12T12:52:50Z</time>
      </trkpt>
      <trkpt lat="46.77471" lon="5.81238">
        <ele>604.2</ele>
        <time>2019-12-12T12:52:53Z</time>
      </trkpt>
      <trkpt lat="46.77474" lon="5.81252">
        <ele>599.1</ele>
        <time>2019-12-12T12:53:17Z</time>
      </trkpt>
      <trkpt lat="46.77475" lon="5.81258">
        <ele>597.1</ele>
        <time>2019-12-12T12:53:24Z</time>
      </trkpt>
      <trkpt lat="46.77479" lon="5.81264">
        <ele>595.1</ele>
        <time>2019-12-12T12:53:32Z</time>
      </trkpt>
      <trkpt lat="46.77478" lon="5.8127">
        <ele>594</ele>
        <time>2019-12-12T12:53:36Z</time>
      </trkpt>
      <trkpt lat="46.77479" lon="5.81278">
        <ele>590.9</ele>
        <time>2019-12-12T12:53:47Z</time>
      </trkpt>
      <trkpt lat="46.77474" lon="5.81294">
        <ele>587.6</ele>
        <time>2019-12-12T12:53:54Z</time>
      </trkpt>
      <trkpt lat="46.77472" lon="5.81301">
        <ele>586.4</ele>
        <time>2019-12-12T12:53:59Z</time>
      </trkpt>
      <trkpt lat="46.77469" lon="5.81307">
        <ele>585.2</ele>
        <time>2019-12-12T12:54:04Z</time>
      </trkpt>
      <trkpt lat="46.77467" lon="5.81313">
        <ele>583.6</ele>
        <time>2019-12-12T12:54:11Z</time>
      </trkpt>
      <trkpt lat="46.77465" lon="5.8132">
        <ele>582.1</ele>
        <time>2019-12-12T12:54:19Z</time>
      </trkpt>
      <trkpt lat="46.77462" lon="5.81325">
        <ele>580.8</ele>
        <time>2019-12-12T12:54:30Z</time>
      </trkpt>
      <trkpt lat="46.77457" lon="5.81333">
        <ele>581.2</ele>
        <time>2019-12-12T12:54:45Z</time>
      </trkpt>
      <trkpt lat="46.77454" lon="5.8134">
        <ele>581.3</ele>
        <time>2019-12-12T12:54:48Z</time>
      </trkpt>
      <trkpt lat="46.77452" lon="5.81348">
        <ele>581.3</ele>
        <time>2019-12-12T12:54:50Z</time>
      </trkpt>
      <trkpt lat="46.7745" lon="5.81354">
        <ele>581.3</ele>
        <time>2019-12-12T12:54:52Z</time>
      </trkpt>
      <trkpt lat="46.77446" lon="5.81359">
        <ele>581.3</ele>
        <time>2019-12-12T12:54:57Z</time>
      </trkpt>
      <trkpt lat="46.77442" lon="5.81362">
        <ele>581.2</ele>
        <time>2019-12-12T12:55:00Z</time>
      </trkpt>
      <trkpt lat="46.77438" lon="5.81365">
        <ele>581.1</ele>
        <time>2019-12-12T12:55:03Z</time>
      </trkpt>
      <trkpt lat="46.77435" lon="5.81371">
        <ele>580.8</ele>
        <time>2019-12-12T12:55:07Z</time>
      </trkpt>
      <trkpt lat="46.77438" lon="5.81376">
        <ele>576.6</ele>
        <time>2019-12-12T12:55:26Z</time>
      </trkpt>
      <trkpt lat="46.77442" lon="5.81378">
        <ele>574.8</ele>
        <time>2019-12-12T12:55:35Z</time>
      </trkpt>
      <trkpt lat="46.77447" lon="5.81379">
        <ele>573.6</ele>
        <time>2019-12-12T12:55:42Z</time>
      </trkpt>
      <trkpt lat="46.77451" lon="5.81379">
        <ele>572.2</ele>
        <time>2019-12-12T12:55:53Z</time>
      </trkpt>
      <trkpt lat="46.77456" lon="5.81378">
        <ele>571.7</ele>
        <time>2019-12-12T12:56:02Z</time>
      </trkpt>
      <trkpt lat="46.77461" lon="5.81379">
        <ele>571.3</ele>
        <time>2019-12-12T12:56:09Z</time>
      </trkpt>
      <trkpt lat="46.77466" lon="5.81378">
        <ele>571.2</ele>
        <time>2019-12-12T12:56:13Z</time>
      </trkpt>
      <trkpt lat="46.77471" lon="5.81378">
        <ele>571.1</ele>
        <time>2019-12-12T12:56:16Z</time>
      </trkpt>
      <trkpt lat="46.77476" lon="5.81381">
        <ele>571</ele>
        <time>2019-12-12T12:56:19Z</time>
      </trkpt>
      <trkpt lat="46.77481" lon="5.81382">
        <ele>570.8</ele>
        <time>2019-12-12T12:56:25Z</time>
      </trkpt>
      <trkpt lat="46.77486" lon="5.81384">
        <ele>570.5</ele>
        <time>2019-12-12T12:56:32Z</time>
      </trkpt>
      <trkpt lat="46.77491" lon="5.81384">
        <ele>569.9</ele>
        <time>2019-12-12T12:56:40Z</time>
      </trkpt>
      <trkpt lat="46.77495" lon="5.81384">
        <ele>569.5</ele>
        <time>2019-12-12T12:56:48Z</time>
      </trkpt>
      <trkpt lat="46.77502" lon="5.81387">
        <ele>569.2</ele>
        <time>2019-12-12T12:56:52Z</time>
      </trkpt>
      <trkpt lat="46.77507" lon="5.81387">
        <ele>568.3</ele>
        <time>2019-12-12T12:56:58Z</time>
      </trkpt>
      <trkpt lat="46.77513" lon="5.81389">
        <ele>567.4</ele>
        <time>2019-12-12T12:57:04Z</time>
      </trkpt>
      <trkpt lat="46.77517" lon="5.81392">
        <ele>567</ele>
        <time>2019-12-12T12:57:08Z</time>
      </trkpt>
      <trkpt lat="46.77521" lon="5.81396">
        <ele>567.2</ele>
        <time>2019-12-12T12:57:17Z</time>
      </trkpt>
      <trkpt lat="46.77525" lon="5.81398">
        <ele>567.3</ele>
        <time>2019-12-12T12:57:22Z</time>
      </trkpt>
      <trkpt lat="46.7753" lon="5.814">
        <ele>567.5</ele>
        <time>2019-12-12T12:57:26Z</time>
      </trkpt>
      <trkpt lat="46.77534" lon="5.81402">
        <ele>567.8</ele>
        <time>2019-12-12T12:57:31Z</time>
      </trkpt>
      <trkpt lat="46.77539" lon="5.81405">
        <ele>567.9</ele>
        <time>2019-12-12T12:57:36Z</time>
      </trkpt>
      <trkpt lat="46.77551" lon="5.81411">
        <ele>568.8</ele>
        <time>2019-12-12T12:57:51Z</time>
      </trkpt>
      <trkpt lat="46.77551" lon="5.81418">
        <ele>569</ele>
        <time>2019-12-12T12:58:00Z</time>
      </trkpt>
      <trkpt lat="46.77556" lon="5.81422">
        <ele>569.8</ele>
        <time>2019-12-12T12:58:13Z</time>
      </trkpt>
      <trkpt lat="46.7756" lon="5.81426">
        <ele>570</ele>
        <time>2019-12-12T12:58:18Z</time>
      </trkpt>
      <trkpt lat="46.77565" lon="5.81432">
        <ele>570.1</ele>
        <time>2019-12-12T12:58:22Z</time>
      </trkpt>
      <trkpt lat="46.77569" lon="5.81437">
        <ele>570.1</ele>
        <time>2019-12-12T12:58:27Z</time>
      </trkpt>
      <trkpt lat="46.77574" lon="5.8144">
        <ele>570</ele>
        <time>2019-12-12T12:58:30Z</time>
      </trkpt>
      <trkpt lat="46.77578" lon="5.81443">
        <ele>570.2</ele>
        <time>2019-12-12T12:58:36Z</time>
      </trkpt>
      <trkpt lat="46.7759" lon="5.81448">
        <ele>571.6</ele>
        <time>2019-12-12T12:58:51Z</time>
      </trkpt>
      <trkpt lat="46.77593" lon="5.81453">
        <ele>572.1</ele>
        <time>2019-12-12T12:58:56Z</time>
      </trkpt>
      <trkpt lat="46.77597" lon="5.81457">
        <ele>572.3</ele>
        <time>2019-12-12T12:59:01Z</time>
      </trkpt>
      <trkpt lat="46.776" lon="5.81463">
        <ele>572.3</ele>
        <time>2019-12-12T12:59:07Z</time>
      </trkpt>
      <trkpt lat="46.77609" lon="5.81474">
        <ele>570.9</ele>
        <time>2019-12-12T12:59:18Z</time>
      </trkpt>
      <trkpt lat="46.77612" lon="5.81481">
        <ele>570</ele>
        <time>2019-12-12T12:59:26Z</time>
      </trkpt>
      <trkpt lat="46.77616" lon="5.81486">
        <ele>569.9</ele>
        <time>2019-12-12T12:59:29Z</time>
      </trkpt>
      <trkpt lat="46.77621" lon="5.8149">
        <ele>570</ele>
        <time>2019-12-12T12:59:31Z</time>
      </trkpt>
      <trkpt lat="46.77625" lon="5.81493">
        <ele>570.3</ele>
        <time>2019-12-12T12:59:34Z</time>
      </trkpt>
      <trkpt lat="46.77629" lon="5.81496">
        <ele>572.3</ele>
        <time>2019-12-12T12:59:45Z</time>
      </trkpt>
      <trkpt lat="46.77634" lon="5.81497">
        <ele>573.7</ele>
        <time>2019-12-12T12:59:51Z</time>
      </trkpt>
      <trkpt lat="46.77638" lon="5.81502">
        <ele>575.3</ele>
        <time>2019-12-12T13:00:01Z</time>
      </trkpt>
      <trkpt lat="46.77648" lon="5.81518">
        <ele>578.5</ele>
        <time>2019-12-12T13:00:17Z</time>
      </trkpt>
      <trkpt lat="46.77653" lon="5.81522">
        <ele>579.5</ele>
        <time>2019-12-12T13:00:22Z</time>
      </trkpt>
      <trkpt lat="46.77657" lon="5.81528">
        <ele>580.2</ele>
        <time>2019-12-12T13:00:27Z</time>
      </trkpt>
      <trkpt lat="46.7766" lon="5.81534">
        <ele>580.6</ele>
        <time>2019-12-12T13:00:31Z</time>
      </trkpt>
      <trkpt lat="46.77663" lon="5.8154">
        <ele>580.8</ele>
        <time>2019-12-12T13:00:37Z</time>
      </trkpt>
      <trkpt lat="46.77668" lon="5.81541">
        <ele>580.7</ele>
        <time>2019-12-12T13:00:41Z</time>
      </trkpt>
      <trkpt lat="46.77673" lon="5.81544">
        <ele>580.5</ele>
        <time>2019-12-12T13:00:44Z</time>
      </trkpt>
      <trkpt lat="46.77678" lon="5.81544">
        <ele>580.4</ele>
        <time>2019-12-12T13:00:46Z</time>
      </trkpt>
      <trkpt lat="46.77684" lon="5.81546">
        <ele>580.3</ele>
        <time>2019-12-12T13:00:48Z</time>
      </trkpt>
      <trkpt lat="46.77689" lon="5.81547">
        <ele>580.4</ele>
        <time>2019-12-12T13:00:51Z</time>
      </trkpt>
      <trkpt lat="46.77695" lon="5.81549">
        <ele>580.5</ele>
        <time>2019-12-12T13:00:56Z</time>
      </trkpt>
      <trkpt lat="46.77699" lon="5.81549">
        <ele>580.8</ele>
        <time>2019-12-12T13:01:01Z</time>
      </trkpt>
      <trkpt lat="46.77703" lon="5.81552">
        <ele>581.2</ele>
        <time>2019-12-12T13:01:06Z</time>
      </trkpt>
      <trkpt lat="46.77707" lon="5.81556">
        <ele>581.4</ele>
        <time>2019-12-12T13:01:09Z</time>
      </trkpt>
      <trkpt lat="46.77711" lon="5.8156">
        <ele>582</ele>
        <time>2019-12-12T13:01:13Z</time>
      </trkpt>
      <trkpt lat="46.77716" lon="5.81563">
        <ele>583.2</ele>
        <time>2019-12-12T13:01:20Z</time>
      </trkpt>
      <trkpt lat="46.77721" lon="5.81567">
        <ele>584</ele>
        <time>2019-12-12T13:01:25Z</time>
      </trkpt>
      <trkpt lat="46.77725" lon="5.81571">
        <ele>584.7</ele>
        <time>2019-12-12T13:01:33Z</time>
      </trkpt>
      <trkpt lat="46.77729" lon="5.81575">
        <ele>584.9</ele>
        <time>2019-12-12T13:01:37Z</time>
      </trkpt>
      <trkpt lat="46.77732" lon="5.81581">
        <ele>585</ele>
        <time>2019-12-12T13:01:43Z</time>
      </trkpt>
      <trkpt lat="46.77737" lon="5.81586">
        <ele>584.9</ele>
        <time>2019-12-12T13:01:49Z</time>
      </trkpt>
      <trkpt lat="46.77741" lon="5.81591">
        <ele>584.8</ele>
        <time>2019-12-12T13:01:51Z</time>
      </trkpt>
      <trkpt lat="46.77745" lon="5.81597">
        <ele>584.5</ele>
        <time>2019-12-12T13:01:55Z</time>
      </trkpt>
      <trkpt lat="46.77749" lon="5.81602">
        <ele>584</ele>
        <time>2019-12-12T13:01:59Z</time>
      </trkpt>
      <trkpt lat="46.77753" lon="5.81605">
        <ele>583.7</ele>
        <time>2019-12-12T13:02:04Z</time>
      </trkpt>
      <trkpt lat="46.77758" lon="5.81609">
        <ele>583.4</ele>
        <time>2019-12-12T13:02:09Z</time>
      </trkpt>
      <trkpt lat="46.77767" lon="5.81616">
        <ele>583.9</ele>
        <time>2019-12-12T13:02:22Z</time>
      </trkpt>
      <trkpt lat="46.77779" lon="5.8163">
        <ele>584.1</ele>
        <time>2019-12-12T13:02:36Z</time>
      </trkpt>
      <trkpt lat="46.77784" lon="5.81632">
        <ele>584.2</ele>
        <time>2019-12-12T13:02:39Z</time>
      </trkpt>
      <trkpt lat="46.77789" lon="5.81633">
        <ele>584.4</ele>
        <time>2019-12-12T13:02:42Z</time>
      </trkpt>
      <trkpt lat="46.77795" lon="5.81636">
        <ele>584.7</ele>
        <time>2019-12-12T13:02:45Z</time>
      </trkpt>
      <trkpt lat="46.77799" lon="5.81637">
        <ele>585.3</ele>
        <time>2019-12-12T13:02:50Z</time>
      </trkpt>
      <trkpt lat="46.77804" lon="5.8164">
        <ele>587</ele>
        <time>2019-12-12T13:03:05Z</time>
      </trkpt>
      <trkpt lat="46.77812" lon="5.81647">
        <ele>588.2</ele>
        <time>2019-12-12T13:03:16Z</time>
      </trkpt>
      <trkpt lat="46.77816" lon="5.81651">
        <ele>588.5</ele>
        <time>2019-12-12T13:03:20Z</time>
      </trkpt>
      <trkpt lat="46.77822" lon="5.81654">
        <ele>588.7</ele>
        <time>2019-12-12T13:03:22Z</time>
      </trkpt>
      <trkpt lat="46.77828" lon="5.81656">
        <ele>588.9</ele>
        <time>2019-12-12T13:03:24Z</time>
      </trkpt>
      <trkpt lat="46.77833" lon="5.81659">
        <ele>589.4</ele>
        <time>2019-12-12T13:03:29Z</time>
      </trkpt>
      <trkpt lat="46.77836" lon="5.81664">
        <ele>589.9</ele>
        <time>2019-12-12T13:03:38Z</time>
      </trkpt>
      <trkpt lat="46.77839" lon="5.8167">
        <ele>590.3</ele>
        <time>2019-12-12T13:03:45Z</time>
      </trkpt>
      <trkpt lat="46.77842" lon="5.81676">
        <ele>590.3</ele>
        <time>2019-12-12T13:03:48Z</time>
      </trkpt>
      <trkpt lat="46.77844" lon="5.81683">
        <ele>589.8</ele>
        <time>2019-12-12T13:03:53Z</time>
      </trkpt>
      <trkpt lat="46.77847" lon="5.8169">
        <ele>589</ele>
        <time>2019-12-12T13:03:57Z</time>
      </trkpt>
      <trkpt lat="46.77852" lon="5.81693">
        <ele>588.4</ele>
        <time>2019-12-12T13:04:00Z</time>
      </trkpt>
      <trkpt lat="46.77855" lon="5.81699">
        <ele>587.4</ele>
        <time>2019-12-12T13:04:04Z</time>
      </trkpt>
      <trkpt lat="46.77858" lon="5.81706">
        <ele>586.6</ele>
        <time>2019-12-12T13:04:07Z</time>
      </trkpt>
      <trkpt lat="46.7786" lon="5.81713">
        <ele>585.1</ele>
        <time>2019-12-12T13:04:13Z</time>
      </trkpt>
      <trkpt lat="46.77862" lon="5.81719">
        <ele>584</ele>
        <time>2019-12-12T13:04:21Z</time>
      </trkpt>
      <trkpt lat="46.77864" lon="5.81725">
        <ele>583.7</ele>
        <time>2019-12-12T13:04:26Z</time>
      </trkpt>
      <trkpt lat="46.77866" lon="5.81731">
        <ele>583.6</ele>
        <time>2019-12-12T13:04:32Z</time>
      </trkpt>
      <trkpt lat="46.77868" lon="5.81738">
        <ele>584</ele>
        <time>2019-12-12T13:04:38Z</time>
      </trkpt>
      <trkpt lat="46.77871" lon="5.81743">
        <ele>584.5</ele>
        <time>2019-12-12T13:04:42Z</time>
      </trkpt>
      <trkpt lat="46.77871" lon="5.8175">
        <ele>584.8</ele>
        <time>2019-12-12T13:04:47Z</time>
      </trkpt>
      <trkpt lat="46.77871" lon="5.81758">
        <ele>585.3</ele>
        <time>2019-12-12T13:04:52Z</time>
      </trkpt>
      <trkpt lat="46.77872" lon="5.81765">
        <ele>585.8</ele>
        <time>2019-12-12T13:04:55Z</time>
      </trkpt>
      <trkpt lat="46.77875" lon="5.81772">
        <ele>586.4</ele>
        <time>2019-12-12T13:04:59Z</time>
      </trkpt>
      <trkpt lat="46.77877" lon="5.81778">
        <ele>586.8</ele>
        <time>2019-12-12T13:05:04Z</time>
      </trkpt>
      <trkpt lat="46.77879" lon="5.81784">
        <ele>587.3</ele>
        <time>2019-12-12T13:05:11Z</time>
      </trkpt>
      <trkpt lat="46.77881" lon="5.81791">
        <ele>587.4</ele>
        <time>2019-12-12T13:05:16Z</time>
      </trkpt>
      <trkpt lat="46.77885" lon="5.81797">
        <ele>587.4</ele>
        <time>2019-12-12T13:05:19Z</time>
      </trkpt>
      <trkpt lat="46.77889" lon="5.81801">
        <ele>587.4</ele>
        <time>2019-12-12T13:05:24Z</time>
      </trkpt>
      <trkpt lat="46.77895" lon="5.81805">
        <ele>587.4</ele>
        <time>2019-12-12T13:05:27Z</time>
      </trkpt>
      <trkpt lat="46.77901" lon="5.81808">
        <ele>587.5</ele>
        <time>2019-12-12T13:05:30Z</time>
      </trkpt>
      <trkpt lat="46.77904" lon="5.81814">
        <ele>587.5</ele>
        <time>2019-12-12T13:05:36Z</time>
      </trkpt>
      <trkpt lat="46.77906" lon="5.81821">
        <ele>587.7</ele>
        <time>2019-12-12T13:05:42Z</time>
      </trkpt>
      <trkpt lat="46.77906" lon="5.81827">
        <ele>587.8</ele>
        <time>2019-12-12T13:05:48Z</time>
      </trkpt>
      <trkpt lat="46.77907" lon="5.8184">
        <ele>587.2</ele>
        <time>2019-12-12T13:05:57Z</time>
      </trkpt>
      <trkpt lat="46.7791" lon="5.81847">
        <ele>587.2</ele>
        <time>2019-12-12T13:06:04Z</time>
      </trkpt>
      <trkpt lat="46.77912" lon="5.81854">
        <ele>587.4</ele>
        <time>2019-12-12T13:06:09Z</time>
      </trkpt>
      <trkpt lat="46.77914" lon="5.81861">
        <ele>587.5</ele>
        <time>2019-12-12T13:06:13Z</time>
      </trkpt>
      <trkpt lat="46.77916" lon="5.81868">
        <ele>587.3</ele>
        <time>2019-12-12T13:06:18Z</time>
      </trkpt>
      <trkpt lat="46.77919" lon="5.81874">
        <ele>587</ele>
        <time>2019-12-12T13:06:23Z</time>
      </trkpt>
      <trkpt lat="46.77921" lon="5.8188">
        <ele>586.7</ele>
        <time>2019-12-12T13:06:28Z</time>
      </trkpt>
      <trkpt lat="46.77924" lon="5.81885">
        <ele>586.5</ele>
        <time>2019-12-12T13:06:32Z</time>
      </trkpt>
      <trkpt lat="46.77926" lon="5.81892">
        <ele>586.2</ele>
        <time>2019-12-12T13:06:37Z</time>
      </trkpt>
      <trkpt lat="46.7793" lon="5.81898">
        <ele>585.9</ele>
        <time>2019-12-12T13:06:41Z</time>
      </trkpt>
      <trkpt lat="46.77934" lon="5.81902">
        <ele>585.4</ele>
        <time>2019-12-12T13:06:47Z</time>
      </trkpt>
      <trkpt lat="46.77938" lon="5.81908">
        <ele>585</ele>
        <time>2019-12-12T13:06:54Z</time>
      </trkpt>
      <trkpt lat="46.77941" lon="5.81915">
        <ele>585.1</ele>
        <time>2019-12-12T13:06:59Z</time>
      </trkpt>
      <trkpt lat="46.77943" lon="5.81921">
        <ele>585.2</ele>
        <time>2019-12-12T13:07:03Z</time>
      </trkpt>
      <trkpt lat="46.77947" lon="5.81928">
        <ele>585.2</ele>
        <time>2019-12-12T13:07:06Z</time>
      </trkpt>
      <trkpt lat="46.77949" lon="5.81934">
        <ele>585.2</ele>
        <time>2019-12-12T13:07:09Z</time>
      </trkpt>
      <trkpt lat="46.77951" lon="5.8194">
        <ele>585.1</ele>
        <time>2019-12-12T13:07:14Z</time>
      </trkpt>
      <trkpt lat="46.7796" lon="5.81954">
        <ele>583.7</ele>
        <time>2019-12-12T13:07:26Z</time>
      </trkpt>
      <trkpt lat="46.77961" lon="5.81961">
        <ele>583.2</ele>
        <time>2019-12-12T13:07:31Z</time>
      </trkpt>
      <trkpt lat="46.77962" lon="5.81967">
        <ele>582.9</ele>
        <time>2019-12-12T13:07:38Z</time>
      </trkpt>
      <trkpt lat="46.77965" lon="5.81974">
        <ele>583</ele>
        <time>2019-12-12T13:07:44Z</time>
      </trkpt>
      <trkpt lat="46.77967" lon="5.81981">
        <ele>583</ele>
        <time>2019-12-12T13:07:48Z</time>
      </trkpt>
      <trkpt lat="46.77969" lon="5.81987">
        <ele>582.9</ele>
        <time>2019-12-12T13:07:52Z</time>
      </trkpt>
      <trkpt lat="46.77973" lon="5.81992">
        <ele>582.9</ele>
        <time>2019-12-12T13:07:57Z</time>
      </trkpt>
      <trkpt lat="46.77976" lon="5.81996">
        <ele>582.9</ele>
        <time>2019-12-12T13:08:01Z</time>
      </trkpt>
      <trkpt lat="46.77978" lon="5.82004">
        <ele>583</ele>
        <time>2019-12-12T13:08:05Z</time>
      </trkpt>
      <trkpt lat="46.77981" lon="5.8201">
        <ele>583.4</ele>
        <time>2019-12-12T13:08:11Z</time>
      </trkpt>
      <trkpt lat="46.77983" lon="5.82016">
        <ele>583.7</ele>
        <time>2019-12-12T13:08:16Z</time>
      </trkpt>
      <trkpt lat="46.77985" lon="5.82022">
        <ele>583.9</ele>
        <time>2019-12-12T13:08:22Z</time>
      </trkpt>
      <trkpt lat="46.77988" lon="5.82028">
        <ele>584</ele>
        <time>2019-12-12T13:08:28Z</time>
      </trkpt>
      <trkpt lat="46.77992" lon="5.82033">
        <ele>584.1</ele>
        <time>2019-12-12T13:08:34Z</time>
      </trkpt>
      <trkpt lat="46.77995" lon="5.82037">
        <ele>584.1</ele>
        <time>2019-12-12T13:08:39Z</time>
      </trkpt>
      <trkpt lat="46.77999" lon="5.82042">
        <ele>584.1</ele>
        <time>2019-12-12T13:08:44Z</time>
      </trkpt>
      <trkpt lat="46.78005" lon="5.82046">
        <ele>584.3</ele>
        <time>2019-12-12T13:08:49Z</time>
      </trkpt>
      <trkpt lat="46.7801" lon="5.82049">
        <ele>584.6</ele>
        <time>2019-12-12T13:08:53Z</time>
      </trkpt>
      <trkpt lat="46.78014" lon="5.8205">
        <ele>584.7</ele>
        <time>2019-12-12T13:08:56Z</time>
      </trkpt>
      <trkpt lat="46.78028" lon="5.82056">
        <ele>584.6</ele>
        <time>2019-12-12T13:09:09Z</time>
      </trkpt>
      <trkpt lat="46.78031" lon="5.82062">
        <ele>584.2</ele>
        <time>2019-12-12T13:09:15Z</time>
      </trkpt>
      <trkpt lat="46.78036" lon="5.82064">
        <ele>584.1</ele>
        <time>2019-12-12T13:09:20Z</time>
      </trkpt>
      <trkpt lat="46.7804" lon="5.82068">
        <ele>584.2</ele>
        <time>2019-12-12T13:09:26Z</time>
      </trkpt>
      <trkpt lat="46.78045" lon="5.82072">
        <ele>584.2</ele>
        <time>2019-12-12T13:09:32Z</time>
      </trkpt>
      <trkpt lat="46.78049" lon="5.82072">
        <ele>584.1</ele>
        <time>2019-12-12T13:09:35Z</time>
      </trkpt>
      <trkpt lat="46.78053" lon="5.82077">
        <ele>584.1</ele>
        <time>2019-12-12T13:09:39Z</time>
      </trkpt>
      <trkpt lat="46.78058" lon="5.82078">
        <ele>584.1</ele>
        <time>2019-12-12T13:09:45Z</time>
      </trkpt>
      <trkpt lat="46.78062" lon="5.82081">
        <ele>584.1</ele>
        <time>2019-12-12T13:09:51Z</time>
      </trkpt>
      <trkpt lat="46.78066" lon="5.82086">
        <ele>584.1</ele>
        <time>2019-12-12T13:10:02Z</time>
      </trkpt>
      <trkpt lat="46.78069" lon="5.82093">
        <ele>593.6</ele>
        <time>2019-12-12T13:12:39Z</time>
      </trkpt>
      <trkpt lat="46.78072" lon="5.82097">
        <ele>593.4</ele>
        <time>2019-12-12T13:12:43Z</time>
      </trkpt>
      <trkpt lat="46.78075" lon="5.82102">
        <ele>592.9</ele>
        <time>2019-12-12T13:12:49Z</time>
      </trkpt>
      <trkpt lat="46.7808" lon="5.82107">
        <ele>592.6</ele>
        <time>2019-12-12T13:12:52Z</time>
      </trkpt>
      <trkpt lat="46.78084" lon="5.82112">
        <ele>592.2</ele>
        <time>2019-12-12T13:12:56Z</time>
      </trkpt>
      <trkpt lat="46.78088" lon="5.82118">
        <ele>591.8</ele>
        <time>2019-12-12T13:13:01Z</time>
      </trkpt>
      <trkpt lat="46.78091" lon="5.82123">
        <ele>591.5</ele>
        <time>2019-12-12T13:13:05Z</time>
      </trkpt>
      <trkpt lat="46.78094" lon="5.82128">
        <ele>591.2</ele>
        <time>2019-12-12T13:13:10Z</time>
      </trkpt>
      <trkpt lat="46.78097" lon="5.82133">
        <ele>591.1</ele>
        <time>2019-12-12T13:13:15Z</time>
      </trkpt>
      <trkpt lat="46.781" lon="5.82138">
        <ele>591.1</ele>
        <time>2019-12-12T13:13:20Z</time>
      </trkpt>
      <trkpt lat="46.78103" lon="5.82143">
        <ele>591.2</ele>
        <time>2019-12-12T13:13:24Z</time>
      </trkpt>
      <trkpt lat="46.78106" lon="5.82148">
        <ele>591.3</ele>
        <time>2019-12-12T13:13:28Z</time>
      </trkpt>
      <trkpt lat="46.78109" lon="5.82154">
        <ele>591.6</ele>
        <time>2019-12-12T13:13:36Z</time>
      </trkpt>
      <trkpt lat="46.78112" lon="5.8216">
        <ele>591.7</ele>
        <time>2019-12-12T13:13:43Z</time>
      </trkpt>
      <trkpt lat="46.78116" lon="5.82167">
        <ele>591.6</ele>
        <time>2019-12-12T13:13:48Z</time>
      </trkpt>
      <trkpt lat="46.78119" lon="5.82172">
        <ele>591.5</ele>
        <time>2019-12-12T13:13:52Z</time>
      </trkpt>
      <trkpt lat="46.78122" lon="5.82177">
        <ele>591.1</ele>
        <time>2019-12-12T13:14:07Z</time>
      </trkpt>
      <trkpt lat="46.78125" lon="5.82182">
        <ele>590.9</ele>
        <time>2019-12-12T13:14:13Z</time>
      </trkpt>
      <trkpt lat="46.78129" lon="5.82187">
        <ele>591</ele>
        <time>2019-12-12T13:14:16Z</time>
      </trkpt>
      <trkpt lat="46.78137" lon="5.82194">
        <ele>592.9</ele>
        <time>2019-12-12T13:14:31Z</time>
      </trkpt>
      <trkpt lat="46.78141" lon="5.82199">
        <ele>593.2</ele>
        <time>2019-12-12T13:14:35Z</time>
      </trkpt>
      <trkpt lat="46.78145" lon="5.82204">
        <ele>593.3</ele>
        <time>2019-12-12T13:14:39Z</time>
      </trkpt>
      <trkpt lat="46.78149" lon="5.82208">
        <ele>593.5</ele>
        <time>2019-12-12T13:14:42Z</time>
      </trkpt>
      <trkpt lat="46.78154" lon="5.82212">
        <ele>593.7</ele>
        <time>2019-12-12T13:14:47Z</time>
      </trkpt>
      <trkpt lat="46.78157" lon="5.82217">
        <ele>593.9</ele>
        <time>2019-12-12T13:14:51Z</time>
      </trkpt>
      <trkpt lat="46.78161" lon="5.82221">
        <ele>593.9</ele>
        <time>2019-12-12T13:14:55Z</time>
      </trkpt>
      <trkpt lat="46.78164" lon="5.82225">
        <ele>593.7</ele>
        <time>2019-12-12T13:15:00Z</time>
      </trkpt>
      <trkpt lat="46.78169" lon="5.8223">
        <ele>593.5</ele>
        <time>2019-12-12T13:15:05Z</time>
      </trkpt>
      <trkpt lat="46.78173" lon="5.82234">
        <ele>593.2</ele>
        <time>2019-12-12T13:15:10Z</time>
      </trkpt>
      <trkpt lat="46.78177" lon="5.82238">
        <ele>593</ele>
        <time>2019-12-12T13:15:14Z</time>
      </trkpt>
      <trkpt lat="46.78181" lon="5.82242">
        <ele>592.8</ele>
        <time>2019-12-12T13:15:18Z</time>
      </trkpt>
      <trkpt lat="46.78186" lon="5.82245">
        <ele>592.7</ele>
        <time>2019-12-12T13:15:23Z</time>
      </trkpt>
      <trkpt lat="46.7819" lon="5.82249">
        <ele>592.9</ele>
        <time>2019-12-12T13:15:28Z</time>
      </trkpt>
      <trkpt lat="46.78195" lon="5.82254">
        <ele>592.9</ele>
        <time>2019-12-12T13:15:33Z</time>
      </trkpt>
      <trkpt lat="46.782" lon="5.82258">
        <ele>593</ele>
        <time>2019-12-12T13:15:38Z</time>
      </trkpt>
      <trkpt lat="46.78204" lon="5.82262">
        <ele>593.1</ele>
        <time>2019-12-12T13:15:42Z</time>
      </trkpt>
      <trkpt lat="46.78208" lon="5.82265">
        <ele>593.1</ele>
        <time>2019-12-12T13:15:48Z</time>
      </trkpt>
      <trkpt lat="46.78212" lon="5.8227">
        <ele>593.4</ele>
        <time>2019-12-12T13:15:54Z</time>
      </trkpt>
      <trkpt lat="46.78216" lon="5.82274">
        <ele>593.6</ele>
        <time>2019-12-12T13:15:59Z</time>
      </trkpt>
      <trkpt lat="46.7822" lon="5.82277">
        <ele>593.6</ele>
        <time>2019-12-12T13:16:03Z</time>
      </trkpt>
      <trkpt lat="46.78224" lon="5.82281">
        <ele>593.6</ele>
        <time>2019-12-12T13:16:07Z</time>
      </trkpt>
      <trkpt lat="46.78228" lon="5.82285">
        <ele>593.7</ele>
        <time>2019-12-12T13:16:12Z</time>
      </trkpt>
      <trkpt lat="46.78233" lon="5.82288">
        <ele>593.7</ele>
        <time>2019-12-12T13:16:16Z</time>
      </trkpt>
      <trkpt lat="46.78242" lon="5.82296">
        <ele>593.7</ele>
        <time>2019-12-12T13:16:25Z</time>
      </trkpt>
      <trkpt lat="46.78246" lon="5.82301">
        <ele>593.9</ele>
        <time>2019-12-12T13:16:29Z</time>
      </trkpt>
      <trkpt lat="46.78249" lon="5.82305">
        <ele>594.1</ele>
        <time>2019-12-12T13:16:34Z</time>
      </trkpt>
      <trkpt lat="46.78254" lon="5.82309">
        <ele>594.3</ele>
        <time>2019-12-12T13:16:39Z</time>
      </trkpt>
      <trkpt lat="46.78258" lon="5.82312">
        <ele>594.9</ele>
        <time>2019-12-12T13:16:46Z</time>
      </trkpt>
      <trkpt lat="46.78262" lon="5.82315">
        <ele>595.1</ele>
        <time>2019-12-12T13:16:51Z</time>
      </trkpt>
      <trkpt lat="46.78266" lon="5.8232">
        <ele>595.3</ele>
        <time>2019-12-12T13:16:56Z</time>
      </trkpt>
      <trkpt lat="46.78271" lon="5.82321">
        <ele>595.5</ele>
        <time>2019-12-12T13:17:01Z</time>
      </trkpt>
      <trkpt lat="46.78276" lon="5.82324">
        <ele>595.8</ele>
        <time>2019-12-12T13:17:05Z</time>
      </trkpt>
      <trkpt lat="46.78278" lon="5.82333">
        <ele>595.9</ele>
        <time>2019-12-12T13:17:08Z</time>
      </trkpt>
      <trkpt lat="46.78282" lon="5.82339">
        <ele>596.1</ele>
        <time>2019-12-12T13:17:12Z</time>
      </trkpt>
      <trkpt lat="46.78286" lon="5.82345">
        <ele>596.1</ele>
        <time>2019-12-12T13:17:15Z</time>
      </trkpt>
      <trkpt lat="46.7829" lon="5.82351">
        <ele>596.2</ele>
        <time>2019-12-12T13:17:18Z</time>
      </trkpt>
      <trkpt lat="46.78294" lon="5.82355">
        <ele>596.6</ele>
        <time>2019-12-12T13:17:23Z</time>
      </trkpt>
      <trkpt lat="46.78302" lon="5.82365">
        <ele>598.3</ele>
        <time>2019-12-12T13:17:34Z</time>
      </trkpt>
      <trkpt lat="46.78306" lon="5.82369">
        <ele>598.7</ele>
        <time>2019-12-12T13:17:40Z</time>
      </trkpt>
      <trkpt lat="46.78311" lon="5.82372">
        <ele>598.9</ele>
        <time>2019-12-12T13:17:44Z</time>
      </trkpt>
      <trkpt lat="46.78314" lon="5.82377">
        <ele>599.3</ele>
        <time>2019-12-12T13:17:48Z</time>
      </trkpt>
      <trkpt lat="46.78318" lon="5.82382">
        <ele>600.1</ele>
        <time>2019-12-12T13:17:53Z</time>
      </trkpt>
      <trkpt lat="46.78322" lon="5.82388">
        <ele>601.1</ele>
        <time>2019-12-12T13:17:58Z</time>
      </trkpt>
      <trkpt lat="46.78326" lon="5.82392">
        <ele>602.2</ele>
        <time>2019-12-12T13:18:04Z</time>
      </trkpt>
      <trkpt lat="46.78331" lon="5.82396">
        <ele>602.6</ele>
        <time>2019-12-12T13:18:08Z</time>
      </trkpt>
      <trkpt lat="46.78335" lon="5.82402">
        <ele>602.9</ele>
        <time>2019-12-12T13:18:14Z</time>
      </trkpt>
      <trkpt lat="46.78339" lon="5.82406">
        <ele>603</ele>
        <time>2019-12-12T13:18:20Z</time>
      </trkpt>
      <trkpt lat="46.78344" lon="5.82409">
        <ele>603</ele>
        <time>2019-12-12T13:18:25Z</time>
      </trkpt>
      <trkpt lat="46.78347" lon="5.82414">
        <ele>603</ele>
        <time>2019-12-12T13:18:28Z</time>
      </trkpt>
      <trkpt lat="46.7835" lon="5.82418">
        <ele>603.1</ele>
        <time>2019-12-12T13:18:32Z</time>
      </trkpt>
      <trkpt lat="46.78354" lon="5.82427">
        <ele>603.6</ele>
        <time>2019-12-12T13:18:38Z</time>
      </trkpt>
      <trkpt lat="46.78357" lon="5.82433">
        <ele>603.9</ele>
        <time>2019-12-12T13:18:41Z</time>
      </trkpt>
      <trkpt lat="46.78359" lon="5.82438">
        <ele>604.5</ele>
        <time>2019-12-12T13:18:46Z</time>
      </trkpt>
      <trkpt lat="46.78364" lon="5.82442">
        <ele>604.7</ele>
        <time>2019-12-12T13:18:50Z</time>
      </trkpt>
      <trkpt lat="46.78369" lon="5.82445">
        <ele>604.8</ele>
        <time>2019-12-12T13:18:53Z</time>
      </trkpt>
      <trkpt lat="46.78373" lon="5.82449">
        <ele>604.8</ele>
        <time>2019-12-12T13:18:56Z</time>
      </trkpt>
      <trkpt lat="46.78376" lon="5.82454">
        <ele>604.8</ele>
        <time>2019-12-12T13:19:01Z</time>
      </trkpt>
      <trkpt lat="46.78381" lon="5.82458">
        <ele>604.5</ele>
        <time>2019-12-12T13:19:10Z</time>
      </trkpt>
      <trkpt lat="46.78385" lon="5.82461">
        <ele>603.9</ele>
        <time>2019-12-12T13:19:17Z</time>
      </trkpt>
      <trkpt lat="46.78393" lon="5.82472">
        <ele>601.9</ele>
        <time>2019-12-12T13:19:35Z</time>
      </trkpt>
      <trkpt lat="46.78397" lon="5.82477">
        <ele>602</ele>
        <time>2019-12-12T13:19:39Z</time>
      </trkpt>
      <trkpt lat="46.78401" lon="5.82484">
        <ele>602.3</ele>
        <time>2019-12-12T13:19:43Z</time>
      </trkpt>
      <trkpt lat="46.78403" lon="5.8249">
        <ele>602.5</ele>
        <time>2019-12-12T13:19:45Z</time>
      </trkpt>
      <trkpt lat="46.78406" lon="5.82496">
        <ele>602.6</ele>
        <time>2019-12-12T13:19:47Z</time>
      </trkpt>
      <trkpt lat="46.7841" lon="5.82502">
        <ele>602.8</ele>
        <time>2019-12-12T13:19:50Z</time>
      </trkpt>
      <trkpt lat="46.78413" lon="5.82508">
        <ele>603.1</ele>
        <time>2019-12-12T13:19:55Z</time>
      </trkpt>
      <trkpt lat="46.78415" lon="5.82515">
        <ele>603.2</ele>
        <time>2019-12-12T13:19:58Z</time>
      </trkpt>
      <trkpt lat="46.78417" lon="5.82521">
        <ele>603.5</ele>
        <time>2019-12-12T13:20:02Z</time>
      </trkpt>
      <trkpt lat="46.7842" lon="5.82527">
        <ele>604.1</ele>
        <time>2019-12-12T13:20:07Z</time>
      </trkpt>
      <trkpt lat="46.78423" lon="5.82532">
        <ele>605</ele>
        <time>2019-12-12T13:20:12Z</time>
      </trkpt>
      <trkpt lat="46.78426" lon="5.82538">
        <ele>605.9</ele>
        <time>2019-12-12T13:20:18Z</time>
      </trkpt>
      <trkpt lat="46.78428" lon="5.82546">
        <ele>606.2</ele>
        <time>2019-12-12T13:20:22Z</time>
      </trkpt>
      <trkpt lat="46.7843" lon="5.82552">
        <ele>606.3</ele>
        <time>2019-12-12T13:20:26Z</time>
      </trkpt>
      <trkpt lat="46.78433" lon="5.82557">
        <ele>606.3</ele>
        <time>2019-12-12T13:20:31Z</time>
      </trkpt>
      <trkpt lat="46.78437" lon="5.82563">
        <ele>606</ele>
        <time>2019-12-12T13:20:36Z</time>
      </trkpt>
      <trkpt lat="46.78441" lon="5.82566">
        <ele>605.8</ele>
        <time>2019-12-12T13:20:41Z</time>
      </trkpt>
      <trkpt lat="46.78445" lon="5.8257">
        <ele>605.6</ele>
        <time>2019-12-12T13:20:45Z</time>
      </trkpt>
      <trkpt lat="46.78448" lon="5.82576">
        <ele>605.4</ele>
        <time>2019-12-12T13:20:50Z</time>
      </trkpt>
      <trkpt lat="46.78452" lon="5.82581">
        <ele>604.9</ele>
        <time>2019-12-12T13:20:55Z</time>
      </trkpt>
      <trkpt lat="46.78456" lon="5.82587">
        <ele>604</ele>
        <time>2019-12-12T13:21:01Z</time>
      </trkpt>
      <trkpt lat="46.78459" lon="5.82592">
        <ele>603.5</ele>
        <time>2019-12-12T13:21:06Z</time>
      </trkpt>
      <trkpt lat="46.78462" lon="5.826">
        <ele>602.8</ele>
        <time>2019-12-12T13:21:10Z</time>
      </trkpt>
      <trkpt lat="46.78465" lon="5.82606">
        <ele>602</ele>
        <time>2019-12-12T13:21:14Z</time>
      </trkpt>
      <trkpt lat="46.78468" lon="5.82611">
        <ele>601.6</ele>
        <time>2019-12-12T13:21:17Z</time>
      </trkpt>
      <trkpt lat="46.78473" lon="5.82615">
        <ele>601.5</ele>
        <time>2019-12-12T13:21:21Z</time>
      </trkpt>
      <trkpt lat="46.78477" lon="5.82618">
        <ele>601.6</ele>
        <time>2019-12-12T13:21:25Z</time>
      </trkpt>
      <trkpt lat="46.78481" lon="5.82622">
        <ele>601.8</ele>
        <time>2019-12-12T13:21:28Z</time>
      </trkpt>
      <trkpt lat="46.78486" lon="5.82625">
        <ele>602.3</ele>
        <time>2019-12-12T13:21:35Z</time>
      </trkpt>
      <trkpt lat="46.78489" lon="5.82629">
        <ele>602.5</ele>
        <time>2019-12-12T13:21:41Z</time>
      </trkpt>
      <trkpt lat="46.78498" lon="5.82639">
        <ele>602.1</ele>
        <time>2019-12-12T13:21:52Z</time>
      </trkpt>
      <trkpt lat="46.78502" lon="5.82645">
        <ele>601.8</ele>
        <time>2019-12-12T13:21:57Z</time>
      </trkpt>
      <trkpt lat="46.78505" lon="5.82649">
        <ele>601.8</ele>
        <time>2019-12-12T13:22:05Z</time>
      </trkpt>
      <trkpt lat="46.78509" lon="5.82653">
        <ele>602</ele>
        <time>2019-12-12T13:22:10Z</time>
      </trkpt>
      <trkpt lat="46.78513" lon="5.82657">
        <ele>602.2</ele>
        <time>2019-12-12T13:22:14Z</time>
      </trkpt>
      <trkpt lat="46.78517" lon="5.82663">
        <ele>602.4</ele>
        <time>2019-12-12T13:22:18Z</time>
      </trkpt>
      <trkpt lat="46.78521" lon="5.82667">
        <ele>602.5</ele>
        <time>2019-12-12T13:22:21Z</time>
      </trkpt>
      <trkpt lat="46.78525" lon="5.82671">
        <ele>602.6</ele>
        <time>2019-12-12T13:22:25Z</time>
      </trkpt>
      <trkpt lat="46.78538" lon="5.82681">
        <ele>602.7</ele>
        <time>2019-12-12T13:22:36Z</time>
      </trkpt>
      <trkpt lat="46.78542" lon="5.82687">
        <ele>602.7</ele>
        <time>2019-12-12T13:22:40Z</time>
      </trkpt>
      <trkpt lat="46.78546" lon="5.8269">
        <ele>602.9</ele>
        <time>2019-12-12T13:22:44Z</time>
      </trkpt>
      <trkpt lat="46.7855" lon="5.82695">
        <ele>603</ele>
        <time>2019-12-12T13:22:47Z</time>
      </trkpt>
      <trkpt lat="46.78552" lon="5.82702">
        <ele>603.3</ele>
        <time>2019-12-12T13:22:51Z</time>
      </trkpt>
      <trkpt lat="46.78555" lon="5.82707">
        <ele>603.6</ele>
        <time>2019-12-12T13:22:55Z</time>
      </trkpt>
      <trkpt lat="46.78558" lon="5.82712">
        <ele>603.9</ele>
        <time>2019-12-12T13:23:00Z</time>
      </trkpt>
      <trkpt lat="46.78561" lon="5.82717">
        <ele>604.4</ele>
        <time>2019-12-12T13:23:08Z</time>
      </trkpt>
      <trkpt lat="46.7859" lon="5.82753">
        <ele>604.9</ele>
        <time>2019-12-12T13:23:44Z</time>
      </trkpt>
      <trkpt lat="46.78593" lon="5.82761">
        <ele>604.9</ele>
        <time>2019-12-12T13:23:49Z</time>
      </trkpt>
      <trkpt lat="46.78598" lon="5.82763">
        <ele>605</ele>
        <time>2019-12-12T13:23:52Z</time>
      </trkpt>
      <trkpt lat="46.78602" lon="5.82766">
        <ele>605.1</ele>
        <time>2019-12-12T13:23:55Z</time>
      </trkpt>
      <trkpt lat="46.78606" lon="5.82771">
        <ele>605.4</ele>
        <time>2019-12-12T13:23:58Z</time>
      </trkpt>
      <trkpt lat="46.78608" lon="5.82777">
        <ele>605.9</ele>
        <time>2019-12-12T13:24:02Z</time>
      </trkpt>
      <trkpt lat="46.7861" lon="5.82784">
        <ele>606.1</ele>
        <time>2019-12-12T13:24:07Z</time>
      </trkpt>
      <trkpt lat="46.78612" lon="5.8279">
        <ele>606.2</ele>
        <time>2019-12-12T13:24:12Z</time>
      </trkpt>
      <trkpt lat="46.78622" lon="5.82801">
        <ele>605.7</ele>
        <time>2019-12-12T13:24:23Z</time>
      </trkpt>
      <trkpt lat="46.78625" lon="5.82806">
        <ele>605.4</ele>
        <time>2019-12-12T13:24:27Z</time>
      </trkpt>
      <trkpt lat="46.78633" lon="5.82821">
        <ele>604.3</ele>
        <time>2019-12-12T13:24:46Z</time>
      </trkpt>
      <trkpt lat="46.78637" lon="5.82826">
        <ele>604.1</ele>
        <time>2019-12-12T13:24:53Z</time>
      </trkpt>
      <trkpt lat="46.78641" lon="5.8283">
        <ele>604.1</ele>
        <time>2019-12-12T13:24:58Z</time>
      </trkpt>
      <trkpt lat="46.78645" lon="5.82835">
        <ele>604.2</ele>
        <time>2019-12-12T13:25:01Z</time>
      </trkpt>
      <trkpt lat="46.7865" lon="5.82836">
        <ele>604.3</ele>
        <time>2019-12-12T13:25:04Z</time>
      </trkpt>
      <trkpt lat="46.78655" lon="5.82836">
        <ele>604.5</ele>
        <time>2019-12-12T13:25:08Z</time>
      </trkpt>
      <trkpt lat="46.7866" lon="5.82835">
        <ele>604.9</ele>
        <time>2019-12-12T13:25:15Z</time>
      </trkpt>
      <trkpt lat="46.78674" lon="5.82834">
        <ele>604.9</ele>
        <time>2019-12-12T13:25:28Z</time>
      </trkpt>
      <trkpt lat="46.7868" lon="5.82832">
        <ele>605.1</ele>
        <time>2019-12-12T13:25:31Z</time>
      </trkpt>
      <trkpt lat="46.78684" lon="5.82832">
        <ele>605.5</ele>
        <time>2019-12-12T13:25:37Z</time>
      </trkpt>
      <trkpt lat="46.7869" lon="5.82831">
        <ele>605.5</ele>
        <time>2019-12-12T13:25:39Z</time>
      </trkpt>
      <trkpt lat="46.78695" lon="5.82831">
        <ele>605.4</ele>
        <time>2019-12-12T13:25:42Z</time>
      </trkpt>
      <trkpt lat="46.78715" lon="5.82844">
        <ele>601.8</ele>
        <time>2019-12-12T13:26:05Z</time>
      </trkpt>
      <trkpt lat="46.78722" lon="5.82847">
        <ele>601.5</ele>
        <time>2019-12-12T13:26:09Z</time>
      </trkpt>
      <trkpt lat="46.78728" lon="5.82848">
        <ele>601.5</ele>
        <time>2019-12-12T13:26:12Z</time>
      </trkpt>
      <trkpt lat="46.78732" lon="5.8285">
        <ele>601.6</ele>
        <time>2019-12-12T13:26:16Z</time>
      </trkpt>
      <trkpt lat="46.78737" lon="5.82853">
        <ele>601.8</ele>
        <time>2019-12-12T13:26:21Z</time>
      </trkpt>
      <trkpt lat="46.78741" lon="5.82855">
        <ele>601.8</ele>
        <time>2019-12-12T13:26:25Z</time>
      </trkpt>
      <trkpt lat="46.78754" lon="5.82861">
        <ele>601.7</ele>
        <time>2019-12-12T13:26:34Z</time>
      </trkpt>
      <trkpt lat="46.78759" lon="5.82863">
        <ele>602</ele>
        <time>2019-12-12T13:26:38Z</time>
      </trkpt>
      <trkpt lat="46.78764" lon="5.82867">
        <ele>602.6</ele>
        <time>2019-12-12T13:26:43Z</time>
      </trkpt>
      <trkpt lat="46.78768" lon="5.82869">
        <ele>603.1</ele>
        <time>2019-12-12T13:26:47Z</time>
      </trkpt>
      <trkpt lat="46.78773" lon="5.82871">
        <ele>603.5</ele>
        <time>2019-12-12T13:26:56Z</time>
      </trkpt>
      <trkpt lat="46.78778" lon="5.82871">
        <ele>603.6</ele>
        <time>2019-12-12T13:27:02Z</time>
      </trkpt>
      <trkpt lat="46.78783" lon="5.82871">
        <ele>603.9</ele>
        <time>2019-12-12T13:27:05Z</time>
      </trkpt>
      <trkpt lat="46.78788" lon="5.82871">
        <ele>604.1</ele>
        <time>2019-12-12T13:27:08Z</time>
      </trkpt>
      <trkpt lat="46.78799" lon="5.82872">
        <ele>604.5</ele>
        <time>2019-12-12T13:27:20Z</time>
      </trkpt>
      <trkpt lat="46.78804" lon="5.82873">
        <ele>604.5</ele>
        <time>2019-12-12T13:27:25Z</time>
      </trkpt>
      <trkpt lat="46.78809" lon="5.82875">
        <ele>604.8</ele>
        <time>2019-12-12T13:27:29Z</time>
      </trkpt>
      <trkpt lat="46.78814" lon="5.82877">
        <ele>606.1</ele>
        <time>2019-12-12T13:27:38Z</time>
      </trkpt>
      <trkpt lat="46.78825" lon="5.82876">
        <ele>608.5</ele>
        <time>2019-12-12T13:27:46Z</time>
      </trkpt>
      <trkpt lat="46.78836" lon="5.8288">
        <ele>610.9</ele>
        <time>2019-12-12T13:27:56Z</time>
      </trkpt>
      <trkpt lat="46.7884" lon="5.82883">
        <ele>611</ele>
        <time>2019-12-12T13:28:04Z</time>
      </trkpt>
      <trkpt lat="46.78845" lon="5.82885">
        <ele>610.7</ele>
        <time>2019-12-12T13:28:11Z</time>
      </trkpt>
      <trkpt lat="46.7885" lon="5.82887">
        <ele>610.5</ele>
        <time>2019-12-12T13:28:14Z</time>
      </trkpt>
      <trkpt lat="46.78855" lon="5.82891">
        <ele>610.2</ele>
        <time>2019-12-12T13:28:19Z</time>
      </trkpt>
      <trkpt lat="46.7886" lon="5.82893">
        <ele>610</ele>
        <time>2019-12-12T13:28:22Z</time>
      </trkpt>
      <trkpt lat="46.78864" lon="5.82895">
        <ele>609.8</ele>
        <time>2019-12-12T13:28:25Z</time>
      </trkpt>
      <trkpt lat="46.78869" lon="5.82897">
        <ele>609.5</ele>
        <time>2019-12-12T13:28:29Z</time>
      </trkpt>
      <trkpt lat="46.78873" lon="5.829">
        <ele>609.4</ele>
        <time>2019-12-12T13:28:34Z</time>
      </trkpt>
      <trkpt lat="46.78877" lon="5.82906">
        <ele>609.6</ele>
        <time>2019-12-12T13:28:38Z</time>
      </trkpt>
      <trkpt lat="46.78881" lon="5.8291">
        <ele>609.7</ele>
        <time>2019-12-12T13:28:41Z</time>
      </trkpt>
      <trkpt lat="46.78891" lon="5.82918">
        <ele>609.6</ele>
        <time>2019-12-12T13:28:56Z</time>
      </trkpt>
      <trkpt lat="46.78895" lon="5.82923">
        <ele>609.4</ele>
        <time>2019-12-12T13:29:01Z</time>
      </trkpt>
      <trkpt lat="46.78897" lon="5.82929">
        <ele>609.4</ele>
        <time>2019-12-12T13:29:05Z</time>
      </trkpt>
      <trkpt lat="46.78901" lon="5.82934">
        <ele>610.1</ele>
        <time>2019-12-12T13:29:15Z</time>
      </trkpt>
      <trkpt lat="46.78905" lon="5.82937">
        <ele>610.5</ele>
        <time>2019-12-12T13:29:19Z</time>
      </trkpt>
      <trkpt lat="46.78909" lon="5.82941">
        <ele>610.8</ele>
        <time>2019-12-12T13:29:22Z</time>
      </trkpt>
      <trkpt lat="46.78913" lon="5.82945">
        <ele>611.3</ele>
        <time>2019-12-12T13:29:26Z</time>
      </trkpt>
      <trkpt lat="46.78918" lon="5.82948">
        <ele>612.2</ele>
        <time>2019-12-12T13:29:31Z</time>
      </trkpt>
      <trkpt lat="46.78923" lon="5.82952">
        <ele>613.2</ele>
        <time>2019-12-12T13:29:36Z</time>
      </trkpt>
      <trkpt lat="46.78927" lon="5.82953">
        <ele>613.7</ele>
        <time>2019-12-12T13:29:39Z</time>
      </trkpt>
      <trkpt lat="46.78932" lon="5.82956">
        <ele>614.3</ele>
        <time>2019-12-12T13:29:43Z</time>
      </trkpt>
      <trkpt lat="46.78938" lon="5.82959">
        <ele>614.9</ele>
        <time>2019-12-12T13:29:47Z</time>
      </trkpt>
      <trkpt lat="46.78943" lon="5.82962">
        <ele>615.4</ele>
        <time>2019-12-12T13:29:51Z</time>
      </trkpt>
      <trkpt lat="46.78947" lon="5.82966">
        <ele>616</ele>
        <time>2019-12-12T13:29:55Z</time>
      </trkpt>
      <trkpt lat="46.78953" lon="5.82969">
        <ele>616.3</ele>
        <time>2019-12-12T13:29:58Z</time>
      </trkpt>
      <trkpt lat="46.78957" lon="5.82972">
        <ele>616.7</ele>
        <time>2019-12-12T13:30:02Z</time>
      </trkpt>
      <trkpt lat="46.78962" lon="5.82973">
        <ele>617</ele>
        <time>2019-12-12T13:30:05Z</time>
      </trkpt>
      <trkpt lat="46.78966" lon="5.82975">
        <ele>617.5</ele>
        <time>2019-12-12T13:30:11Z</time>
      </trkpt>
      <trkpt lat="46.78971" lon="5.82979">
        <ele>617.8</ele>
        <time>2019-12-12T13:30:16Z</time>
      </trkpt>
      <trkpt lat="46.78975" lon="5.82982">
        <ele>618.1</ele>
        <time>2019-12-12T13:30:22Z</time>
      </trkpt>
      <trkpt lat="46.7898" lon="5.82985">
        <ele>618.2</ele>
        <time>2019-12-12T13:30:29Z</time>
      </trkpt>
      <trkpt lat="46.78985" lon="5.82986">
        <ele>618.1</ele>
        <time>2019-12-12T13:30:33Z</time>
      </trkpt>
      <trkpt lat="46.7899" lon="5.82989">
        <ele>617.9</ele>
        <time>2019-12-12T13:30:40Z</time>
      </trkpt>
      <trkpt lat="46.78995" lon="5.82992">
        <ele>617.8</ele>
        <time>2019-12-12T13:30:44Z</time>
      </trkpt>
      <trkpt lat="46.78999" lon="5.82995">
        <ele>617.6</ele>
        <time>2019-12-12T13:30:48Z</time>
      </trkpt>
      <trkpt lat="46.79003" lon="5.82998">
        <ele>617.6</ele>
        <time>2019-12-12T13:30:53Z</time>
      </trkpt>
      <trkpt lat="46.79007" lon="5.83001">
        <ele>617.6</ele>
        <time>2019-12-12T13:30:57Z</time>
      </trkpt>
      <trkpt lat="46.79012" lon="5.83003">
        <ele>617.8</ele>
        <time>2019-12-12T13:31:00Z</time>
      </trkpt>
      <trkpt lat="46.79016" lon="5.83004">
        <ele>617.9</ele>
        <time>2019-12-12T13:31:02Z</time>
      </trkpt>
      <trkpt lat="46.79022" lon="5.83005">
        <ele>618</ele>
        <time>2019-12-12T13:31:06Z</time>
      </trkpt>
      <trkpt lat="46.79027" lon="5.83003">
        <ele>618.5</ele>
        <time>2019-12-12T13:31:11Z</time>
      </trkpt>
      <trkpt lat="46.79031" lon="5.82999">
        <ele>619.4</ele>
        <time>2019-12-12T13:31:18Z</time>
      </trkpt>
      <trkpt lat="46.79035" lon="5.82995">
        <ele>620.5</ele>
        <time>2019-12-12T13:31:25Z</time>
      </trkpt>
      <trkpt lat="46.79032" lon="5.82988">
        <ele>625.7</ele>
        <time>2019-12-12T13:32:25Z</time>
      </trkpt>
      <trkpt lat="46.79034" lon="5.82982">
        <ele>626.6</ele>
        <time>2019-12-12T13:32:39Z</time>
      </trkpt>
      <trkpt lat="46.79038" lon="5.82985">
        <ele>626</ele>
        <time>2019-12-12T13:32:54Z</time>
      </trkpt>
      <trkpt lat="46.79043" lon="5.8299">
        <ele>625.8</ele>
        <time>2019-12-12T13:32:59Z</time>
      </trkpt>
      <trkpt lat="46.79048" lon="5.82997">
        <ele>625.6</ele>
        <time>2019-12-12T13:33:03Z</time>
      </trkpt>
      <trkpt lat="46.79052" lon="5.83003">
        <ele>625.6</ele>
        <time>2019-12-12T13:33:05Z</time>
      </trkpt>
      <trkpt lat="46.79056" lon="5.83008">
        <ele>625.6</ele>
        <time>2019-12-12T13:33:08Z</time>
      </trkpt>
      <trkpt lat="46.7906" lon="5.83012">
        <ele>625.8</ele>
        <time>2019-12-12T13:33:15Z</time>
      </trkpt>
      <trkpt lat="46.79064" lon="5.83015">
        <ele>625.8</ele>
        <time>2019-12-12T13:33:21Z</time>
      </trkpt>
      <trkpt lat="46.79067" lon="5.83019">
        <ele>625.4</ele>
        <time>2019-12-12T13:33:29Z</time>
      </trkpt>
      <trkpt lat="46.79071" lon="5.83024">
        <ele>625.2</ele>
        <time>2019-12-12T13:33:37Z</time>
      </trkpt>
      <trkpt lat="46.79076" lon="5.83027">
        <ele>625.1</ele>
        <time>2019-12-12T13:33:41Z</time>
      </trkpt>
      <trkpt lat="46.79081" lon="5.8303">
        <ele>624.7</ele>
        <time>2019-12-12T13:33:47Z</time>
      </trkpt>
      <trkpt lat="46.79085" lon="5.8303">
        <ele>624</ele>
        <time>2019-12-12T13:33:57Z</time>
      </trkpt>
      <trkpt lat="46.7909" lon="5.83028">
        <ele>623.7</ele>
        <time>2019-12-12T13:34:06Z</time>
      </trkpt>
      <trkpt lat="46.79094" lon="5.83025">
        <ele>623.5</ele>
        <time>2019-12-12T13:34:11Z</time>
      </trkpt>
      <trkpt lat="46.79098" lon="5.83021">
        <ele>623.5</ele>
        <time>2019-12-12T13:34:15Z</time>
      </trkpt>
      <trkpt lat="46.79102" lon="5.83017">
        <ele>623.6</ele>
        <time>2019-12-12T13:34:20Z</time>
      </trkpt>
      <trkpt lat="46.79108" lon="5.83016">
        <ele>623.8</ele>
        <time>2019-12-12T13:34:25Z</time>
      </trkpt>
      <trkpt lat="46.79113" lon="5.83017">
        <ele>624.1</ele>
        <time>2019-12-12T13:34:29Z</time>
      </trkpt>
      <trkpt lat="46.79118" lon="5.83017">
        <ele>624.5</ele>
        <time>2019-12-12T13:34:33Z</time>
      </trkpt>
      <trkpt lat="46.79123" lon="5.83018">
        <ele>625</ele>
        <time>2019-12-12T13:34:38Z</time>
      </trkpt>
      <trkpt lat="46.79128" lon="5.8302">
        <ele>625.6</ele>
        <time>2019-12-12T13:34:44Z</time>
      </trkpt>
      <trkpt lat="46.79133" lon="5.83022">
        <ele>625.9</ele>
        <time>2019-12-12T13:34:49Z</time>
      </trkpt>
      <trkpt lat="46.79137" lon="5.83025">
        <ele>626.2</ele>
        <time>2019-12-12T13:34:53Z</time>
      </trkpt>
      <trkpt lat="46.79142" lon="5.83028">
        <ele>626.7</ele>
        <time>2019-12-12T13:35:02Z</time>
      </trkpt>
      <trkpt lat="46.79146" lon="5.83034">
        <ele>626.8</ele>
        <time>2019-12-12T13:35:08Z</time>
      </trkpt>
      <trkpt lat="46.79149" lon="5.83039">
        <ele>627</ele>
        <time>2019-12-12T13:35:13Z</time>
      </trkpt>
      <trkpt lat="46.79153" lon="5.83043">
        <ele>627.4</ele>
        <time>2019-12-12T13:35:19Z</time>
      </trkpt>
      <trkpt lat="46.79157" lon="5.83049">
        <ele>628.1</ele>
        <time>2019-12-12T13:35:26Z</time>
      </trkpt>
      <trkpt lat="46.7916" lon="5.83053">
        <ele>629</ele>
        <time>2019-12-12T13:35:31Z</time>
      </trkpt>
      <trkpt lat="46.79165" lon="5.83055">
        <ele>629.7</ele>
        <time>2019-12-12T13:35:35Z</time>
      </trkpt>
      <trkpt lat="46.79172" lon="5.83063">
        <ele>633.5</ele>
        <time>2019-12-12T13:35:47Z</time>
      </trkpt>
      <trkpt lat="46.79176" lon="5.83068">
        <ele>635.3</ele>
        <time>2019-12-12T13:35:55Z</time>
      </trkpt>
      <trkpt lat="46.7918" lon="5.83064">
        <ele>644.7</ele>
        <time>2019-12-12T13:36:34Z</time>
      </trkpt>
      <trkpt lat="46.79185" lon="5.83064">
        <ele>646.8</ele>
        <time>2019-12-12T13:36:39Z</time>
      </trkpt>
      <trkpt lat="46.792" lon="5.83066">
        <ele>652.5</ele>
        <time>2019-12-12T13:36:56Z</time>
      </trkpt>
      <trkpt lat="46.79204" lon="5.83069">
        <ele>653.6</ele>
        <time>2019-12-12T13:37:05Z</time>
      </trkpt>
      <trkpt lat="46.79209" lon="5.8307">
        <ele>653.8</ele>
        <time>2019-12-12T13:37:11Z</time>
      </trkpt>
      <trkpt lat="46.79214" lon="5.8307">
        <ele>655.2</ele>
        <time>2019-12-12T13:37:24Z</time>
      </trkpt>
      <trkpt lat="46.79219" lon="5.83069">
        <ele>655.8</ele>
        <time>2019-12-12T13:37:27Z</time>
      </trkpt>
      <trkpt lat="46.79224" lon="5.83068">
        <ele>656.3</ele>
        <time>2019-12-12T13:37:30Z</time>
      </trkpt>
      <trkpt lat="46.79235" lon="5.83069">
        <ele>657.9</ele>
        <time>2019-12-12T13:37:50Z</time>
      </trkpt>
      <trkpt lat="46.79248" lon="5.83075">
        <ele>660.6</ele>
        <time>2019-12-12T13:38:27Z</time>
      </trkpt>
      <trkpt lat="46.79254" lon="5.83076">
        <ele>661.4</ele>
        <time>2019-12-12T13:38:30Z</time>
      </trkpt>
      <trkpt lat="46.7926" lon="5.83078">
        <ele>662.2</ele>
        <time>2019-12-12T13:38:33Z</time>
      </trkpt>
      <trkpt lat="46.79266" lon="5.8308">
        <ele>663</ele>
        <time>2019-12-12T13:38:36Z</time>
      </trkpt>
      <trkpt lat="46.79271" lon="5.83082">
        <ele>664</ele>
        <time>2019-12-12T13:38:40Z</time>
      </trkpt>
      <trkpt lat="46.79275" lon="5.83085">
        <ele>665.4</ele>
        <time>2019-12-12T13:38:46Z</time>
      </trkpt>
      <trkpt lat="46.79279" lon="5.8309">
        <ele>666.1</ele>
        <time>2019-12-12T13:38:51Z</time>
      </trkpt>
      <trkpt lat="46.79283" lon="5.83095">
        <ele>666.4</ele>
        <time>2019-12-12T13:38:54Z</time>
      </trkpt>
      <trkpt lat="46.79287" lon="5.83099">
        <ele>666.7</ele>
        <time>2019-12-12T13:38:57Z</time>
      </trkpt>
      <trkpt lat="46.79291" lon="5.83103">
        <ele>667.1</ele>
        <time>2019-12-12T13:39:02Z</time>
      </trkpt>
      <trkpt lat="46.79295" lon="5.83107">
        <ele>668.5</ele>
        <time>2019-12-12T13:39:12Z</time>
      </trkpt>
      <trkpt lat="46.79301" lon="5.83117">
        <ele>670.5</ele>
        <time>2019-12-12T13:39:26Z</time>
      </trkpt>
      <trkpt lat="46.79305" lon="5.83122">
        <ele>671.3</ele>
        <time>2019-12-12T13:39:32Z</time>
      </trkpt>
      <trkpt lat="46.79308" lon="5.83127">
        <ele>672</ele>
        <time>2019-12-12T13:39:38Z</time>
      </trkpt>
      <trkpt lat="46.79313" lon="5.83131">
        <ele>672.4</ele>
        <time>2019-12-12T13:39:43Z</time>
      </trkpt>
      <trkpt lat="46.79322" lon="5.83133">
        <ele>671.9</ele>
        <time>2019-12-12T13:39:59Z</time>
      </trkpt>
      <trkpt lat="46.7933" lon="5.83133">
        <ele>671.6</ele>
        <time>2019-12-12T13:40:44Z</time>
      </trkpt>
      <trkpt lat="46.79334" lon="5.83128">
        <ele>671.9</ele>
        <time>2019-12-12T13:40:46Z</time>
      </trkpt>
      <trkpt lat="46.79324" lon="5.83131">
        <ele>670.6</ele>
        <time>2019-12-12T13:43:17Z</time>
      </trkpt>
      <trkpt lat="46.7932" lon="5.83131">
        <ele>671.9</ele>
        <time>2019-12-12T13:43:28Z</time>
      </trkpt>
      <trkpt lat="46.79316" lon="5.83126">
        <ele>672.5</ele>
        <time>2019-12-12T13:43:42Z</time>
      </trkpt>
      <trkpt lat="46.7931" lon="5.83123">
        <ele>672.8</ele>
        <time>2019-12-12T13:43:46Z</time>
      </trkpt>
      <trkpt lat="46.79303" lon="5.83119">
        <ele>673</ele>
        <time>2019-12-12T13:43:48Z</time>
      </trkpt>
      <trkpt lat="46.79298" lon="5.83116">
        <ele>673.3</ele>
        <time>2019-12-12T13:43:51Z</time>
      </trkpt>
      <trkpt lat="46.79296" lon="5.8311">
        <ele>674.2</ele>
        <time>2019-12-12T13:44:11Z</time>
      </trkpt>
      <trkpt lat="46.79296" lon="5.83102">
        <ele>674.4</ele>
        <time>2019-12-12T13:44:15Z</time>
      </trkpt>
      <trkpt lat="46.79296" lon="5.83095">
        <ele>674.8</ele>
        <time>2019-12-12T13:44:22Z</time>
      </trkpt>
      <trkpt lat="46.79293" lon="5.8309">
        <ele>674.8</ele>
        <time>2019-12-12T13:44:30Z</time>
      </trkpt>
      <trkpt lat="46.79289" lon="5.83085">
        <ele>674.6</ele>
        <time>2019-12-12T13:44:36Z</time>
      </trkpt>
      <trkpt lat="46.79286" lon="5.8308">
        <ele>674.5</ele>
        <time>2019-12-12T13:44:41Z</time>
      </trkpt>
      <trkpt lat="46.79282" lon="5.83076">
        <ele>674.7</ele>
        <time>2019-12-12T13:44:47Z</time>
      </trkpt>
      <trkpt lat="46.79277" lon="5.83073">
        <ele>675.6</ele>
        <time>2019-12-12T13:44:56Z</time>
      </trkpt>
      <trkpt lat="46.79272" lon="5.83074">
        <ele>675.9</ele>
        <time>2019-12-12T13:45:02Z</time>
      </trkpt>
      <trkpt lat="46.79268" lon="5.83071">
        <ele>676</ele>
        <time>2019-12-12T13:45:08Z</time>
      </trkpt>
      <trkpt lat="46.79263" lon="5.83071">
        <ele>675.8</ele>
        <time>2019-12-12T13:45:15Z</time>
      </trkpt>
      <trkpt lat="46.79258" lon="5.8307">
        <ele>675.7</ele>
        <time>2019-12-12T13:45:21Z</time>
      </trkpt>
      <trkpt lat="46.79253" lon="5.83069">
        <ele>675.6</ele>
        <time>2019-12-12T13:45:27Z</time>
      </trkpt>
      <trkpt lat="46.79249" lon="5.83069">
        <ele>675.4</ele>
        <time>2019-12-12T13:45:33Z</time>
      </trkpt>
      <trkpt lat="46.79244" lon="5.83068">
        <ele>675</ele>
        <time>2019-12-12T13:45:39Z</time>
      </trkpt>
      <trkpt lat="46.79239" lon="5.83066">
        <ele>674.4</ele>
        <time>2019-12-12T13:45:47Z</time>
      </trkpt>
      <trkpt lat="46.79234" lon="5.83066">
        <ele>673.7</ele>
        <time>2019-12-12T13:45:53Z</time>
      </trkpt>
      <trkpt lat="46.79229" lon="5.83066">
        <ele>672.9</ele>
        <time>2019-12-12T13:45:57Z</time>
      </trkpt>
      <trkpt lat="46.79224" lon="5.83065">
        <ele>671.7</ele>
        <time>2019-12-12T13:46:02Z</time>
      </trkpt>
      <trkpt lat="46.79219" lon="5.83064">
        <ele>670.6</ele>
        <time>2019-12-12T13:46:07Z</time>
      </trkpt>
      <trkpt lat="46.79214" lon="5.83064">
        <ele>669.4</ele>
        <time>2019-12-12T13:46:13Z</time>
      </trkpt>
      <trkpt lat="46.79209" lon="5.83064">
        <ele>668.7</ele>
        <time>2019-12-12T13:46:18Z</time>
      </trkpt>
      <trkpt lat="46.79204" lon="5.83062">
        <ele>667.8</ele>
        <time>2019-12-12T13:46:23Z</time>
      </trkpt>
      <trkpt lat="46.79199" lon="5.83062">
        <ele>665.2</ele>
        <time>2019-12-12T13:46:33Z</time>
      </trkpt>
      <trkpt lat="46.79195" lon="5.83064">
        <ele>664.5</ele>
        <time>2019-12-12T13:46:37Z</time>
      </trkpt>
      <trkpt lat="46.79189" lon="5.83067">
        <ele>663.9</ele>
        <time>2019-12-12T13:46:42Z</time>
      </trkpt>
      <trkpt lat="46.79191" lon="5.83074">
        <ele>663</ele>
        <time>2019-12-12T13:46:50Z</time>
      </trkpt>
      <trkpt lat="46.79193" lon="5.8308">
        <ele>662.1</ele>
        <time>2019-12-12T13:46:54Z</time>
      </trkpt>
      <trkpt lat="46.79194" lon="5.83086">
        <ele>660.8</ele>
        <time>2019-12-12T13:46:58Z</time>
      </trkpt>
      <trkpt lat="46.79197" lon="5.83093">
        <ele>659.1</ele>
        <time>2019-12-12T13:47:03Z</time>
      </trkpt>
      <trkpt lat="46.79199" lon="5.831">
        <ele>657.6</ele>
        <time>2019-12-12T13:47:07Z</time>
      </trkpt>
      <trkpt lat="46.79201" lon="5.83107">
        <ele>656.3</ele>
        <time>2019-12-12T13:47:11Z</time>
      </trkpt>
      <trkpt lat="46.79203" lon="5.83113">
        <ele>655.1</ele>
        <time>2019-12-12T13:47:15Z</time>
      </trkpt>
      <trkpt lat="46.79206" lon="5.83119">
        <ele>654</ele>
        <time>2019-12-12T13:47:20Z</time>
      </trkpt>
      <trkpt lat="46.79208" lon="5.83125">
        <ele>653.1</ele>
        <time>2019-12-12T13:47:25Z</time>
      </trkpt>
      <trkpt lat="46.79212" lon="5.83131">
        <ele>652.3</ele>
        <time>2019-12-12T13:47:30Z</time>
      </trkpt>
      <trkpt lat="46.79214" lon="5.83137">
        <ele>651.8</ele>
        <time>2019-12-12T13:47:34Z</time>
      </trkpt>
      <trkpt lat="46.79217" lon="5.83144">
        <ele>651.5</ele>
        <time>2019-12-12T13:47:39Z</time>
      </trkpt>
      <trkpt lat="46.79219" lon="5.8315">
        <ele>651.1</ele>
        <time>2019-12-12T13:47:44Z</time>
      </trkpt>
      <trkpt lat="46.79223" lon="5.83156">
        <ele>650.6</ele>
        <time>2019-12-12T13:47:50Z</time>
      </trkpt>
      <trkpt lat="46.79224" lon="5.83163">
        <ele>650</ele>
        <time>2019-12-12T13:47:56Z</time>
      </trkpt>
      <trkpt lat="46.79227" lon="5.8317">
        <ele>649.5</ele>
        <time>2019-12-12T13:48:00Z</time>
      </trkpt>
      <trkpt lat="46.79229" lon="5.83176">
        <ele>648.5</ele>
        <time>2019-12-12T13:48:06Z</time>
      </trkpt>
      <trkpt lat="46.7923" lon="5.83183">
        <ele>647.3</ele>
        <time>2019-12-12T13:48:12Z</time>
      </trkpt>
      <trkpt lat="46.79232" lon="5.83189">
        <ele>646.5</ele>
        <time>2019-12-12T13:48:16Z</time>
      </trkpt>
      <trkpt lat="46.79235" lon="5.83195">
        <ele>645.5</ele>
        <time>2019-12-12T13:48:21Z</time>
      </trkpt>
      <trkpt lat="46.79238" lon="5.83201">
        <ele>644.4</ele>
        <time>2019-12-12T13:48:27Z</time>
      </trkpt>
      <trkpt lat="46.79241" lon="5.83207">
        <ele>643.6</ele>
        <time>2019-12-12T13:48:33Z</time>
      </trkpt>
      <trkpt lat="46.79246" lon="5.83211">
        <ele>642.8</ele>
        <time>2019-12-12T13:48:39Z</time>
      </trkpt>
      <trkpt lat="46.79249" lon="5.83216">
        <ele>642.1</ele>
        <time>2019-12-12T13:48:44Z</time>
      </trkpt>
      <trkpt lat="46.79253" lon="5.8322">
        <ele>641.6</ele>
        <time>2019-12-12T13:48:50Z</time>
      </trkpt>
      <trkpt lat="46.79257" lon="5.83225">
        <ele>641.4</ele>
        <time>2019-12-12T13:48:55Z</time>
      </trkpt>
      <trkpt lat="46.79261" lon="5.83228">
        <ele>641.4</ele>
        <time>2019-12-12T13:49:01Z</time>
      </trkpt>
      <trkpt lat="46.79265" lon="5.83233">
        <ele>641.5</ele>
        <time>2019-12-12T13:49:06Z</time>
      </trkpt>
      <trkpt lat="46.79269" lon="5.83238">
        <ele>641.6</ele>
        <time>2019-12-12T13:49:10Z</time>
      </trkpt>
      <trkpt lat="46.79272" lon="5.83245">
        <ele>641.7</ele>
        <time>2019-12-12T13:49:14Z</time>
      </trkpt>
      <trkpt lat="46.79276" lon="5.8325">
        <ele>641.8</ele>
        <time>2019-12-12T13:49:19Z</time>
      </trkpt>
      <trkpt lat="46.7928" lon="5.83253">
        <ele>641.8</ele>
        <time>2019-12-12T13:49:24Z</time>
      </trkpt>
      <trkpt lat="46.79288" lon="5.83263">
        <ele>641.9</ele>
        <time>2019-12-12T13:49:35Z</time>
      </trkpt>
      <trkpt lat="46.79291" lon="5.83268">
        <ele>642.1</ele>
        <time>2019-12-12T13:49:40Z</time>
      </trkpt>
      <trkpt lat="46.79296" lon="5.8327">
        <ele>642.8</ele>
        <time>2019-12-12T13:49:50Z</time>
      </trkpt>
      <trkpt lat="46.79301" lon="5.83275">
        <ele>643.2</ele>
        <time>2019-12-12T13:49:54Z</time>
      </trkpt>
      <trkpt lat="46.79305" lon="5.8328">
        <ele>643.4</ele>
        <time>2019-12-12T13:49:57Z</time>
      </trkpt>
      <trkpt lat="46.79309" lon="5.83283">
        <ele>643.6</ele>
        <time>2019-12-12T13:50:00Z</time>
      </trkpt>
      <trkpt lat="46.79314" lon="5.83288">
        <ele>643.8</ele>
        <time>2019-12-12T13:50:03Z</time>
      </trkpt>
      <trkpt lat="46.79318" lon="5.83293">
        <ele>643.8</ele>
        <time>2019-12-12T13:50:07Z</time>
      </trkpt>
      <trkpt lat="46.79326" lon="5.83305">
        <ele>644.6</ele>
        <time>2019-12-12T13:50:22Z</time>
      </trkpt>
      <trkpt lat="46.79332" lon="5.83306">
        <ele>645.2</ele>
        <time>2019-12-12T13:50:27Z</time>
      </trkpt>
      <trkpt lat="46.79336" lon="5.83308">
        <ele>645.6</ele>
        <time>2019-12-12T13:50:31Z</time>
      </trkpt>
      <trkpt lat="46.79341" lon="5.8331">
        <ele>645.7</ele>
        <time>2019-12-12T13:50:33Z</time>
      </trkpt>
      <trkpt lat="46.79345" lon="5.83313">
        <ele>645.8</ele>
        <time>2019-12-12T13:50:36Z</time>
      </trkpt>
      <trkpt lat="46.79349" lon="5.83316">
        <ele>645.8</ele>
        <time>2019-12-12T13:50:40Z</time>
      </trkpt>
      <trkpt lat="46.79353" lon="5.83321">
        <ele>645.7</ele>
        <time>2019-12-12T13:50:43Z</time>
      </trkpt>
      <trkpt lat="46.79356" lon="5.83326">
        <ele>645.6</ele>
        <time>2019-12-12T13:50:47Z</time>
      </trkpt>
      <trkpt lat="46.79359" lon="5.83332">
        <ele>645.3</ele>
        <time>2019-12-12T13:50:52Z</time>
      </trkpt>
      <trkpt lat="46.79362" lon="5.83337">
        <ele>644.9</ele>
        <time>2019-12-12T13:50:57Z</time>
      </trkpt>
      <trkpt lat="46.79365" lon="5.83342">
        <ele>644.6</ele>
        <time>2019-12-12T13:51:03Z</time>
      </trkpt>
      <trkpt lat="46.79369" lon="5.83346">
        <ele>644.6</ele>
        <time>2019-12-12T13:51:09Z</time>
      </trkpt>
      <trkpt lat="46.79372" lon="5.83351">
        <ele>644.7</ele>
        <time>2019-12-12T13:51:12Z</time>
      </trkpt>
      <trkpt lat="46.79375" lon="5.83355">
        <ele>644.5</ele>
        <time>2019-12-12T13:51:17Z</time>
      </trkpt>
      <trkpt lat="46.7938" lon="5.83357">
        <ele>644</ele>
        <time>2019-12-12T13:51:27Z</time>
      </trkpt>
      <trkpt lat="46.79385" lon="5.83355">
        <ele>643.8</ele>
        <time>2019-12-12T13:51:32Z</time>
      </trkpt>
      <trkpt lat="46.7939" lon="5.83352">
        <ele>643.7</ele>
        <time>2019-12-12T13:51:36Z</time>
      </trkpt>
      <trkpt lat="46.79394" lon="5.8335">
        <ele>643.5</ele>
        <time>2019-12-12T13:51:41Z</time>
      </trkpt>
      <trkpt lat="46.79403" lon="5.83337">
        <ele>643.5</ele>
        <time>2019-12-12T13:51:53Z</time>
      </trkpt>
      <trkpt lat="46.79407" lon="5.83331">
        <ele>643.2</ele>
        <time>2019-12-12T13:51:58Z</time>
      </trkpt>
      <trkpt lat="46.79424" lon="5.83305">
        <ele>644</ele>
        <time>2019-12-12T13:52:27Z</time>
      </trkpt>
      <trkpt lat="46.7943" lon="5.83288">
        <ele>646.3</ele>
        <time>2019-12-12T13:52:38Z</time>
      </trkpt>
      <trkpt lat="46.79431" lon="5.83282">
        <ele>645.9</ele>
        <time>2019-12-12T13:52:49Z</time>
      </trkpt>
      <trkpt lat="46.79433" lon="5.83275">
        <ele>645.1</ele>
        <time>2019-12-12T13:52:55Z</time>
      </trkpt>
      <trkpt lat="46.79433" lon="5.83268">
        <ele>644.5</ele>
        <time>2019-12-12T13:53:01Z</time>
      </trkpt>
      <trkpt lat="46.79432" lon="5.8326">
        <ele>644.3</ele>
        <time>2019-12-12T13:53:05Z</time>
      </trkpt>
      <trkpt lat="46.7943" lon="5.83254">
        <ele>644.6</ele>
        <time>2019-12-12T13:53:09Z</time>
      </trkpt>
      <trkpt lat="46.79428" lon="5.83247">
        <ele>645.1</ele>
        <time>2019-12-12T13:53:13Z</time>
      </trkpt>
      <trkpt lat="46.79427" lon="5.8324">
        <ele>646.1</ele>
        <time>2019-12-12T13:53:18Z</time>
      </trkpt>
      <trkpt lat="46.79426" lon="5.83233">
        <ele>648.4</ele>
        <time>2019-12-12T13:53:26Z</time>
      </trkpt>
      <trkpt lat="46.79426" lon="5.83226">
        <ele>650.8</ele>
        <time>2019-12-12T13:53:35Z</time>
      </trkpt>
      <trkpt lat="46.79425" lon="5.83218">
        <ele>652.5</ele>
        <time>2019-12-12T13:53:42Z</time>
      </trkpt>
      <trkpt lat="46.79426" lon="5.83211">
        <ele>653.3</ele>
        <time>2019-12-12T13:53:46Z</time>
      </trkpt>
      <trkpt lat="46.79427" lon="5.83204">
        <ele>653.9</ele>
        <time>2019-12-12T13:53:49Z</time>
      </trkpt>
      <trkpt lat="46.79429" lon="5.83198">
        <ele>654.7</ele>
        <time>2019-12-12T13:53:55Z</time>
      </trkpt>
      <trkpt lat="46.79429" lon="5.83191">
        <ele>655.5</ele>
        <time>2019-12-12T13:54:02Z</time>
      </trkpt>
      <trkpt lat="46.79429" lon="5.83185">
        <ele>657.8</ele>
        <time>2019-12-12T13:54:18Z</time>
      </trkpt>
      <trkpt lat="46.79428" lon="5.83178">
        <ele>659.7</ele>
        <time>2019-12-12T13:54:25Z</time>
      </trkpt>
      <trkpt lat="46.79427" lon="5.8317">
        <ele>660.4</ele>
        <time>2019-12-12T13:54:29Z</time>
      </trkpt>
      <trkpt lat="46.79424" lon="5.83163">
        <ele>660.9</ele>
        <time>2019-12-12T13:54:32Z</time>
      </trkpt>
      <trkpt lat="46.79422" lon="5.83156">
        <ele>661.5</ele>
        <time>2019-12-12T13:54:36Z</time>
      </trkpt>
      <trkpt lat="46.7942" lon="5.83149">
        <ele>662.2</ele>
        <time>2019-12-12T13:54:45Z</time>
      </trkpt>
      <trkpt lat="46.79418" lon="5.83143">
        <ele>662.7</ele>
        <time>2019-12-12T13:54:51Z</time>
      </trkpt>
      <trkpt lat="46.79415" lon="5.83138">
        <ele>662.9</ele>
        <time>2019-12-12T13:54:57Z</time>
      </trkpt>
      <trkpt lat="46.7941" lon="5.83133">
        <ele>662.8</ele>
        <time>2019-12-12T13:55:05Z</time>
      </trkpt>
      <trkpt lat="46.79406" lon="5.83129">
        <ele>662.8</ele>
        <time>2019-12-12T13:55:10Z</time>
      </trkpt>
      <trkpt lat="46.79401" lon="5.83125">
        <ele>663.2</ele>
        <time>2019-12-12T13:55:15Z</time>
      </trkpt>
      <trkpt lat="46.79392" lon="5.83112">
        <ele>665.2</ele>
        <time>2019-12-12T13:55:26Z</time>
      </trkpt>
      <trkpt lat="46.79389" lon="5.83106">
        <ele>665.6</ele>
        <time>2019-12-12T13:55:29Z</time>
      </trkpt>
      <trkpt lat="46.79385" lon="5.831">
        <ele>666.2</ele>
        <time>2019-12-12T13:55:33Z</time>
      </trkpt>
      <trkpt lat="46.79381" lon="5.83096">
        <ele>666.8</ele>
        <time>2019-12-12T13:55:37Z</time>
      </trkpt>
      <trkpt lat="46.79377" lon="5.83091">
        <ele>667.4</ele>
        <time>2019-12-12T13:55:42Z</time>
      </trkpt>
      <trkpt lat="46.79374" lon="5.83086">
        <ele>667.9</ele>
        <time>2019-12-12T13:55:46Z</time>
      </trkpt>
      <trkpt lat="46.7937" lon="5.83081">
        <ele>668.4</ele>
        <time>2019-12-12T13:55:51Z</time>
      </trkpt>
      <trkpt lat="46.79366" lon="5.83076">
        <ele>668.8</ele>
        <time>2019-12-12T13:55:56Z</time>
      </trkpt>
      <trkpt lat="46.79363" lon="5.8307">
        <ele>668.9</ele>
        <time>2019-12-12T13:56:01Z</time>
      </trkpt>
      <trkpt lat="46.79359" lon="5.83066">
        <ele>669</ele>
        <time>2019-12-12T13:56:06Z</time>
      </trkpt>
      <trkpt lat="46.79354" lon="5.83061">
        <ele>669.3</ele>
        <time>2019-12-12T13:56:11Z</time>
      </trkpt>
      <trkpt lat="46.7935" lon="5.83057">
        <ele>669.6</ele>
        <time>2019-12-12T13:56:16Z</time>
      </trkpt>
      <trkpt lat="46.79346" lon="5.83054">
        <ele>669.7</ele>
        <time>2019-12-12T13:56:20Z</time>
      </trkpt>
      <trkpt lat="46.79341" lon="5.83052">
        <ele>669.6</ele>
        <time>2019-12-12T13:56:24Z</time>
      </trkpt>
      <trkpt lat="46.79336" lon="5.83051">
        <ele>669.3</ele>
        <time>2019-12-12T13:56:31Z</time>
      </trkpt>
      <trkpt lat="46.79332" lon="5.83048">
        <ele>669</ele>
        <time>2019-12-12T13:56:35Z</time>
      </trkpt>
      <trkpt lat="46.79326" lon="5.83043">
        <ele>668.8</ele>
        <time>2019-12-12T13:56:39Z</time>
      </trkpt>
      <trkpt lat="46.79322" lon="5.83038">
        <ele>668.7</ele>
        <time>2019-12-12T13:56:42Z</time>
      </trkpt>
      <trkpt lat="46.79318" lon="5.83033">
        <ele>668.8</ele>
        <time>2019-12-12T13:56:46Z</time>
      </trkpt>
      <trkpt lat="46.79314" lon="5.83028">
        <ele>668.8</ele>
        <time>2019-12-12T13:56:50Z</time>
      </trkpt>
      <trkpt lat="46.7931" lon="5.83024">
        <ele>668.8</ele>
        <time>2019-12-12T13:56:53Z</time>
      </trkpt>
      <trkpt lat="46.79307" lon="5.8302">
        <ele>668.8</ele>
        <time>2019-12-12T13:56:56Z</time>
      </trkpt>
      <trkpt lat="46.79302" lon="5.83015">
        <ele>668.7</ele>
        <time>2019-12-12T13:57:00Z</time>
      </trkpt>
      <trkpt lat="46.79298" lon="5.8301">
        <ele>668.5</ele>
        <time>2019-12-12T13:57:05Z</time>
      </trkpt>
      <trkpt lat="46.79294" lon="5.83006">
        <ele>668.8</ele>
        <time>2019-12-12T13:57:10Z</time>
      </trkpt>
      <trkpt lat="46.79289" lon="5.83003">
        <ele>669</ele>
        <time>2019-12-12T13:57:15Z</time>
      </trkpt>
      <trkpt lat="46.79284" lon="5.83004">
        <ele>668.8</ele>
        <time>2019-12-12T13:57:19Z</time>
      </trkpt>
      <trkpt lat="46.79279" lon="5.83003">
        <ele>668.2</ele>
        <time>2019-12-12T13:57:25Z</time>
      </trkpt>
      <trkpt lat="46.79274" lon="5.83003">
        <ele>667.5</ele>
        <time>2019-12-12T13:57:30Z</time>
      </trkpt>
      <trkpt lat="46.79269" lon="5.83002">
        <ele>666.7</ele>
        <time>2019-12-12T13:57:35Z</time>
      </trkpt>
      <trkpt lat="46.79264" lon="5.82999">
        <ele>666.3</ele>
        <time>2019-12-12T13:57:39Z</time>
      </trkpt>
      <trkpt lat="46.79259" lon="5.82996">
        <ele>665.9</ele>
        <time>2019-12-12T13:57:44Z</time>
      </trkpt>
      <trkpt lat="46.79255" lon="5.82995">
        <ele>665.3</ele>
        <time>2019-12-12T13:57:52Z</time>
      </trkpt>
      <trkpt lat="46.7925" lon="5.82992">
        <ele>664.5</ele>
        <time>2019-12-12T13:57:58Z</time>
      </trkpt>
      <trkpt lat="46.79246" lon="5.82987">
        <ele>663.5</ele>
        <time>2019-12-12T13:58:04Z</time>
      </trkpt>
      <trkpt lat="46.79241" lon="5.82987">
        <ele>663.1</ele>
        <time>2019-12-12T13:58:08Z</time>
      </trkpt>
      <trkpt lat="46.79236" lon="5.82985">
        <ele>662.8</ele>
        <time>2019-12-12T13:58:12Z</time>
      </trkpt>
      <trkpt lat="46.79231" lon="5.82983">
        <ele>662.5</ele>
        <time>2019-12-12T13:58:16Z</time>
      </trkpt>
      <trkpt lat="46.79226" lon="5.82983">
        <ele>662.5</ele>
        <time>2019-12-12T13:58:19Z</time>
      </trkpt>
      <trkpt lat="46.79222" lon="5.82983">
        <ele>662.6</ele>
        <time>2019-12-12T13:58:23Z</time>
      </trkpt>
      <trkpt lat="46.79217" lon="5.82983">
        <ele>662.8</ele>
        <time>2019-12-12T13:58:28Z</time>
      </trkpt>
      <trkpt lat="46.79212" lon="5.82985">
        <ele>663</ele>
        <time>2019-12-12T13:58:32Z</time>
      </trkpt>
      <trkpt lat="46.79207" lon="5.82988">
        <ele>663.2</ele>
        <time>2019-12-12T13:58:35Z</time>
      </trkpt>
      <trkpt lat="46.79203" lon="5.82989">
        <ele>663.5</ele>
        <time>2019-12-12T13:58:39Z</time>
      </trkpt>
      <trkpt lat="46.79197" lon="5.8299">
        <ele>663.9</ele>
        <time>2019-12-12T13:58:44Z</time>
      </trkpt>
      <trkpt lat="46.79192" lon="5.82992">
        <ele>664</ele>
        <time>2019-12-12T13:58:47Z</time>
      </trkpt>
      <trkpt lat="46.79187" lon="5.82993">
        <ele>663.9</ele>
        <time>2019-12-12T13:58:52Z</time>
      </trkpt>
      <trkpt lat="46.79183" lon="5.82997">
        <ele>662.9</ele>
        <time>2019-12-12T13:59:02Z</time>
      </trkpt>
      <trkpt lat="46.79179" lon="5.83002">
        <ele>660.6</ele>
        <time>2019-12-12T13:59:16Z</time>
      </trkpt>
      <trkpt lat="46.79173" lon="5.83005">
        <ele>659.9</ele>
        <time>2019-12-12T13:59:29Z</time>
      </trkpt>
      <trkpt lat="46.79169" lon="5.83009">
        <ele>660.2</ele>
        <time>2019-12-12T13:59:34Z</time>
      </trkpt>
      <trkpt lat="46.79165" lon="5.83012">
        <ele>660.4</ele>
        <time>2019-12-12T13:59:39Z</time>
      </trkpt>
      <trkpt lat="46.7916" lon="5.83013">
        <ele>661.3</ele>
        <time>2019-12-12T13:59:48Z</time>
      </trkpt>
      <trkpt lat="46.79156" lon="5.83016">
        <ele>662</ele>
        <time>2019-12-12T13:59:53Z</time>
      </trkpt>
      <trkpt lat="46.79151" lon="5.83017">
        <ele>662.4</ele>
        <time>2019-12-12T13:59:58Z</time>
      </trkpt>
      <trkpt lat="46.79146" lon="5.83017">
        <ele>662.6</ele>
        <time>2019-12-12T14:00:03Z</time>
      </trkpt>
      <trkpt lat="46.79141" lon="5.83017">
        <ele>662.6</ele>
        <time>2019-12-12T14:00:07Z</time>
      </trkpt>
      <trkpt lat="46.79135" lon="5.83016">
        <ele>662.2</ele>
        <time>2019-12-12T14:00:12Z</time>
      </trkpt>
      <trkpt lat="46.7913" lon="5.83014">
        <ele>661.8</ele>
        <time>2019-12-12T14:00:16Z</time>
      </trkpt>
      <trkpt lat="46.79125" lon="5.83012">
        <ele>661.2</ele>
        <time>2019-12-12T14:00:20Z</time>
      </trkpt>
      <trkpt lat="46.7912" lon="5.8301">
        <ele>659.7</ele>
        <time>2019-12-12T14:00:26Z</time>
      </trkpt>
      <trkpt lat="46.79115" lon="5.83012">
        <ele>657.5</ele>
        <time>2019-12-12T14:00:32Z</time>
      </trkpt>
      <trkpt lat="46.79111" lon="5.83015">
        <ele>655.5</ele>
        <time>2019-12-12T14:00:38Z</time>
      </trkpt>
      <trkpt lat="46.79106" lon="5.83016">
        <ele>652.4</ele>
        <time>2019-12-12T14:00:46Z</time>
      </trkpt>
      <trkpt lat="46.79102" lon="5.83019">
        <ele>649.6</ele>
        <time>2019-12-12T14:00:53Z</time>
      </trkpt>
      <trkpt lat="46.79098" lon="5.83017">
        <ele>646.6</ele>
        <time>2019-12-12T14:01:00Z</time>
      </trkpt>
      <trkpt lat="46.79093" lon="5.83013">
        <ele>645.1</ele>
        <time>2019-12-12T14:01:04Z</time>
      </trkpt>
      <trkpt lat="46.79089" lon="5.83009">
        <ele>643.2</ele>
        <time>2019-12-12T14:01:09Z</time>
      </trkpt>
      <trkpt lat="46.79085" lon="5.83008">
        <ele>641.6</ele>
        <time>2019-12-12T14:01:13Z</time>
      </trkpt>
      <trkpt lat="46.7908" lon="5.83006">
        <ele>640.9</ele>
        <time>2019-12-12T14:01:15Z</time>
      </trkpt>
      <trkpt lat="46.79076" lon="5.83005">
        <ele>639.9</ele>
        <time>2019-12-12T14:01:18Z</time>
      </trkpt>
      <trkpt lat="46.79071" lon="5.83005">
        <ele>638.3</ele>
        <time>2019-12-12T14:01:23Z</time>
      </trkpt>
      <trkpt lat="46.79066" lon="5.83003">
        <ele>637.2</ele>
        <time>2019-12-12T14:01:28Z</time>
      </trkpt>
      <trkpt lat="46.79061" lon="5.82999">
        <ele>636.5</ele>
        <time>2019-12-12T14:01:34Z</time>
      </trkpt>
      <trkpt lat="46.79057" lon="5.82995">
        <ele>636.2</ele>
        <time>2019-12-12T14:01:39Z</time>
      </trkpt>
      <trkpt lat="46.79055" lon="5.8299">
        <ele>635.9</ele>
        <time>2019-12-12T14:01:44Z</time>
      </trkpt>
      <trkpt lat="46.79054" lon="5.82975">
        <ele>637.3</ele>
        <time>2019-12-12T14:02:06Z</time>
      </trkpt>
      <trkpt lat="46.79055" lon="5.82967">
        <ele>637.4</ele>
        <time>2019-12-12T14:02:12Z</time>
      </trkpt>
      <trkpt lat="46.79056" lon="5.8296">
        <ele>637.4</ele>
        <time>2019-12-12T14:02:16Z</time>
      </trkpt>
      <trkpt lat="46.79057" lon="5.82954">
        <ele>637.7</ele>
        <time>2019-12-12T14:02:21Z</time>
      </trkpt>
      <trkpt lat="46.79061" lon="5.82949">
        <ele>638</ele>
        <time>2019-12-12T14:02:28Z</time>
      </trkpt>
      <trkpt lat="46.79064" lon="5.82944">
        <ele>637.6</ele>
        <time>2019-12-12T14:02:34Z</time>
      </trkpt>
      <trkpt lat="46.79068" lon="5.82939">
        <ele>636.6</ele>
        <time>2019-12-12T14:02:42Z</time>
      </trkpt>
      <trkpt lat="46.79073" lon="5.82936">
        <ele>635.8</ele>
        <time>2019-12-12T14:02:47Z</time>
      </trkpt>
      <trkpt lat="46.79076" lon="5.82932">
        <ele>634.8</ele>
        <time>2019-12-12T14:02:52Z</time>
      </trkpt>
      <trkpt lat="46.79082" lon="5.82927">
        <ele>633.6</ele>
        <time>2019-12-12T14:02:58Z</time>
      </trkpt>
      <trkpt lat="46.79086" lon="5.82923">
        <ele>632.7</ele>
        <time>2019-12-12T14:03:02Z</time>
      </trkpt>
      <trkpt lat="46.79089" lon="5.82919">
        <ele>631.8</ele>
        <time>2019-12-12T14:03:06Z</time>
      </trkpt>
      <trkpt lat="46.79093" lon="5.82914">
        <ele>630.9</ele>
        <time>2019-12-12T14:03:10Z</time>
      </trkpt>
      <trkpt lat="46.79096" lon="5.82908">
        <ele>630</ele>
        <time>2019-12-12T14:03:14Z</time>
      </trkpt>
      <trkpt lat="46.791" lon="5.82905">
        <ele>629</ele>
        <time>2019-12-12T14:03:18Z</time>
      </trkpt>
      <trkpt lat="46.79105" lon="5.82903">
        <ele>627.7</ele>
        <time>2019-12-12T14:03:23Z</time>
      </trkpt>
      <trkpt lat="46.79109" lon="5.82901">
        <ele>626.2</ele>
        <time>2019-12-12T14:03:28Z</time>
      </trkpt>
      <trkpt lat="46.79113" lon="5.82896">
        <ele>624.9</ele>
        <time>2019-12-12T14:03:33Z</time>
      </trkpt>
      <trkpt lat="46.79116" lon="5.82892">
        <ele>623.9</ele>
        <time>2019-12-12T14:03:37Z</time>
      </trkpt>
      <trkpt lat="46.7912" lon="5.82889">
        <ele>622.4</ele>
        <time>2019-12-12T14:03:43Z</time>
      </trkpt>
      <trkpt lat="46.79124" lon="5.82885">
        <ele>621.8</ele>
        <time>2019-12-12T14:03:47Z</time>
      </trkpt>
      <trkpt lat="46.79129" lon="5.82882">
        <ele>621.4</ele>
        <time>2019-12-12T14:03:51Z</time>
      </trkpt>
      <trkpt lat="46.79133" lon="5.82877">
        <ele>621</ele>
        <time>2019-12-12T14:03:55Z</time>
      </trkpt>
      <trkpt lat="46.79138" lon="5.82875">
        <ele>620.6</ele>
        <time>2019-12-12T14:03:59Z</time>
      </trkpt>
      <trkpt lat="46.79143" lon="5.8287">
        <ele>620.5</ele>
        <time>2019-12-12T14:04:03Z</time>
      </trkpt>
      <trkpt lat="46.79148" lon="5.82868">
        <ele>620.4</ele>
        <time>2019-12-12T14:04:07Z</time>
      </trkpt>
      <trkpt lat="46.79153" lon="5.82865">
        <ele>620.4</ele>
        <time>2019-12-12T14:04:12Z</time>
      </trkpt>
      <trkpt lat="46.79157" lon="5.82862">
        <ele>620.3</ele>
        <time>2019-12-12T14:04:16Z</time>
      </trkpt>
      <trkpt lat="46.79161" lon="5.82859">
        <ele>620.1</ele>
        <time>2019-12-12T14:04:20Z</time>
      </trkpt>
      <trkpt lat="46.79166" lon="5.82856">
        <ele>619.9</ele>
        <time>2019-12-12T14:04:24Z</time>
      </trkpt>
      <trkpt lat="46.7917" lon="5.82853">
        <ele>619.6</ele>
        <time>2019-12-12T14:04:28Z</time>
      </trkpt>
      <trkpt lat="46.79175" lon="5.82851">
        <ele>619.2</ele>
        <time>2019-12-12T14:04:32Z</time>
      </trkpt>
      <trkpt lat="46.7918" lon="5.82849">
        <ele>618.7</ele>
        <time>2019-12-12T14:04:37Z</time>
      </trkpt>
      <trkpt lat="46.79185" lon="5.82848">
        <ele>618.3</ele>
        <time>2019-12-12T14:04:41Z</time>
      </trkpt>
      <trkpt lat="46.7919" lon="5.82848">
        <ele>618</ele>
        <time>2019-12-12T14:04:45Z</time>
      </trkpt>
      <trkpt lat="46.79195" lon="5.82847">
        <ele>617.7</ele>
        <time>2019-12-12T14:04:49Z</time>
      </trkpt>
      <trkpt lat="46.792" lon="5.82847">
        <ele>617.3</ele>
        <time>2019-12-12T14:04:53Z</time>
      </trkpt>
      <trkpt lat="46.79205" lon="5.82846">
        <ele>617</ele>
        <time>2019-12-12T14:04:58Z</time>
      </trkpt>
      <trkpt lat="46.7921" lon="5.82845">
        <ele>616.8</ele>
        <time>2019-12-12T14:05:03Z</time>
      </trkpt>
      <trkpt lat="46.79215" lon="5.82842">
        <ele>617</ele>
        <time>2019-12-12T14:05:08Z</time>
      </trkpt>
      <trkpt lat="46.7922" lon="5.8284">
        <ele>617.3</ele>
        <time>2019-12-12T14:05:14Z</time>
      </trkpt>
      <trkpt lat="46.79225" lon="5.82837">
        <ele>617.3</ele>
        <time>2019-12-12T14:05:19Z</time>
      </trkpt>
      <trkpt lat="46.79229" lon="5.82835">
        <ele>617.1</ele>
        <time>2019-12-12T14:05:23Z</time>
      </trkpt>
      <trkpt lat="46.79233" lon="5.8283">
        <ele>617</ele>
        <time>2019-12-12T14:05:27Z</time>
      </trkpt>
      <trkpt lat="46.79238" lon="5.82826">
        <ele>616.7</ele>
        <time>2019-12-12T14:05:32Z</time>
      </trkpt>
      <trkpt lat="46.79242" lon="5.82822">
        <ele>616.5</ele>
        <time>2019-12-12T14:05:37Z</time>
      </trkpt>
      <trkpt lat="46.79246" lon="5.82818">
        <ele>616.4</ele>
        <time>2019-12-12T14:05:44Z</time>
      </trkpt>
      <trkpt lat="46.79251" lon="5.82816">
        <ele>616.1</ele>
        <time>2019-12-12T14:05:49Z</time>
      </trkpt>
      <trkpt lat="46.79256" lon="5.82814">
        <ele>615.8</ele>
        <time>2019-12-12T14:05:54Z</time>
      </trkpt>
      <trkpt lat="46.79262" lon="5.82814">
        <ele>615.6</ele>
        <time>2019-12-12T14:05:59Z</time>
      </trkpt>
      <trkpt lat="46.79266" lon="5.82811">
        <ele>615.4</ele>
        <time>2019-12-12T14:06:04Z</time>
      </trkpt>
      <trkpt lat="46.79271" lon="5.82811">
        <ele>615.4</ele>
        <time>2019-12-12T14:06:07Z</time>
      </trkpt>
      <trkpt lat="46.79276" lon="5.82811">
        <ele>615.2</ele>
        <time>2019-12-12T14:06:10Z</time>
      </trkpt>
      <trkpt lat="46.7928" lon="5.82811">
        <ele>615.1</ele>
        <time>2019-12-12T14:06:13Z</time>
      </trkpt>
      <trkpt lat="46.79286" lon="5.82812">
        <ele>614.8</ele>
        <time>2019-12-12T14:06:17Z</time>
      </trkpt>
      <trkpt lat="46.79291" lon="5.82812">
        <ele>614.5</ele>
        <time>2019-12-12T14:06:22Z</time>
      </trkpt>
      <trkpt lat="46.79296" lon="5.82813">
        <ele>614.1</ele>
        <time>2019-12-12T14:06:27Z</time>
      </trkpt>
      <trkpt lat="46.79301" lon="5.82814">
        <ele>613.8</ele>
        <time>2019-12-12T14:06:31Z</time>
      </trkpt>
      <trkpt lat="46.79306" lon="5.82817">
        <ele>613.4</ele>
        <time>2019-12-12T14:06:35Z</time>
      </trkpt>
      <trkpt lat="46.79311" lon="5.82818">
        <ele>613.3</ele>
        <time>2019-12-12T14:06:40Z</time>
      </trkpt>
      <trkpt lat="46.79316" lon="5.82821">
        <ele>613.2</ele>
        <time>2019-12-12T14:06:45Z</time>
      </trkpt>
      <trkpt lat="46.79321" lon="5.82823">
        <ele>612.9</ele>
        <time>2019-12-12T14:06:50Z</time>
      </trkpt>
      <trkpt lat="46.79326" lon="5.82827">
        <ele>612.6</ele>
        <time>2019-12-12T14:06:55Z</time>
      </trkpt>
      <trkpt lat="46.79331" lon="5.8283">
        <ele>612.2</ele>
        <time>2019-12-12T14:07:01Z</time>
      </trkpt>
      <trkpt lat="46.79335" lon="5.82832">
        <ele>611.9</ele>
        <time>2019-12-12T14:07:05Z</time>
      </trkpt>
      <trkpt lat="46.7934" lon="5.82835">
        <ele>611.4</ele>
        <time>2019-12-12T14:07:09Z</time>
      </trkpt>
      <trkpt lat="46.79344" lon="5.82838">
        <ele>611.1</ele>
        <time>2019-12-12T14:07:12Z</time>
      </trkpt>
      <trkpt lat="46.79348" lon="5.82842">
        <ele>610.7</ele>
        <time>2019-12-12T14:07:16Z</time>
      </trkpt>
      <trkpt lat="46.79353" lon="5.82846">
        <ele>610.3</ele>
        <time>2019-12-12T14:07:20Z</time>
      </trkpt>
      <trkpt lat="46.79358" lon="5.82849">
        <ele>609.7</ele>
        <time>2019-12-12T14:07:27Z</time>
      </trkpt>
      <trkpt lat="46.79364" lon="5.82851">
        <ele>609.4</ele>
        <time>2019-12-12T14:07:31Z</time>
      </trkpt>
      <trkpt lat="46.79371" lon="5.82853">
        <ele>609.3</ele>
        <time>2019-12-12T14:07:34Z</time>
      </trkpt>
      <trkpt lat="46.79376" lon="5.82855">
        <ele>609.1</ele>
        <time>2019-12-12T14:07:36Z</time>
      </trkpt>
      <trkpt lat="46.79381" lon="5.82856">
        <ele>608.9</ele>
        <time>2019-12-12T14:07:39Z</time>
      </trkpt>
      <trkpt lat="46.79386" lon="5.82858">
        <ele>608.7</ele>
        <time>2019-12-12T14:07:43Z</time>
      </trkpt>
      <trkpt lat="46.7939" lon="5.82857">
        <ele>608.3</ele>
        <time>2019-12-12T14:07:47Z</time>
      </trkpt>
      <trkpt lat="46.79395" lon="5.82857">
        <ele>607.9</ele>
        <time>2019-12-12T14:07:51Z</time>
      </trkpt>
      <trkpt lat="46.794" lon="5.82857">
        <ele>607.5</ele>
        <time>2019-12-12T14:07:55Z</time>
      </trkpt>
      <trkpt lat="46.79405" lon="5.82858">
        <ele>607</ele>
        <time>2019-12-12T14:08:00Z</time>
      </trkpt>
      <trkpt lat="46.7941" lon="5.82858">
        <ele>606.4</ele>
        <time>2019-12-12T14:08:05Z</time>
      </trkpt>
      <trkpt lat="46.79415" lon="5.82858">
        <ele>605.7</ele>
        <time>2019-12-12T14:08:10Z</time>
      </trkpt>
      <trkpt lat="46.7942" lon="5.82857">
        <ele>605.2</ele>
        <time>2019-12-12T14:08:16Z</time>
      </trkpt>
      <trkpt lat="46.79425" lon="5.82859">
        <ele>604.7</ele>
        <time>2019-12-12T14:08:20Z</time>
      </trkpt>
      <trkpt lat="46.79429" lon="5.8286">
        <ele>604.3</ele>
        <time>2019-12-12T14:08:26Z</time>
      </trkpt>
      <trkpt lat="46.79434" lon="5.82865">
        <ele>603.9</ele>
        <time>2019-12-12T14:08:30Z</time>
      </trkpt>
      <trkpt lat="46.79439" lon="5.82869">
        <ele>603.6</ele>
        <time>2019-12-12T14:08:33Z</time>
      </trkpt>
      <trkpt lat="46.79444" lon="5.82873">
        <ele>603.3</ele>
        <time>2019-12-12T14:08:36Z</time>
      </trkpt>
      <trkpt lat="46.79449" lon="5.82876">
        <ele>603.1</ele>
        <time>2019-12-12T14:08:39Z</time>
      </trkpt>
      <trkpt lat="46.79453" lon="5.82878">
        <ele>603</ele>
        <time>2019-12-12T14:08:42Z</time>
      </trkpt>
      <trkpt lat="46.79458" lon="5.82881">
        <ele>602.9</ele>
        <time>2019-12-12T14:08:45Z</time>
      </trkpt>
      <trkpt lat="46.79463" lon="5.82884">
        <ele>602.8</ele>
        <time>2019-12-12T14:08:49Z</time>
      </trkpt>
      <trkpt lat="46.79467" lon="5.82888">
        <ele>602.8</ele>
        <time>2019-12-12T14:08:53Z</time>
      </trkpt>
      <trkpt lat="46.79471" lon="5.82892">
        <ele>602.7</ele>
        <time>2019-12-12T14:08:57Z</time>
      </trkpt>
      <trkpt lat="46.79475" lon="5.82897">
        <ele>602.6</ele>
        <time>2019-12-12T14:09:02Z</time>
      </trkpt>
      <trkpt lat="46.79479" lon="5.82901">
        <ele>602.5</ele>
        <time>2019-12-12T14:09:07Z</time>
      </trkpt>
      <trkpt lat="46.79483" lon="5.82905">
        <ele>602.5</ele>
        <time>2019-12-12T14:09:11Z</time>
      </trkpt>
      <trkpt lat="46.79487" lon="5.82908">
        <ele>602.7</ele>
        <time>2019-12-12T14:09:15Z</time>
      </trkpt>
      <trkpt lat="46.79492" lon="5.82912">
        <ele>603.1</ele>
        <time>2019-12-12T14:09:20Z</time>
      </trkpt>
      <trkpt lat="46.79496" lon="5.82916">
        <ele>603.2</ele>
        <time>2019-12-12T14:09:25Z</time>
      </trkpt>
      <trkpt lat="46.795" lon="5.82922">
        <ele>603.1</ele>
        <time>2019-12-12T14:09:29Z</time>
      </trkpt>
      <trkpt lat="46.79503" lon="5.82927">
        <ele>603.1</ele>
        <time>2019-12-12T14:09:34Z</time>
      </trkpt>
      <trkpt lat="46.79507" lon="5.82932">
        <ele>603.1</ele>
        <time>2019-12-12T14:09:39Z</time>
      </trkpt>
      <trkpt lat="46.79511" lon="5.82936">
        <ele>602.9</ele>
        <time>2019-12-12T14:09:43Z</time>
      </trkpt>
      <trkpt lat="46.79516" lon="5.8294">
        <ele>602.7</ele>
        <time>2019-12-12T14:09:47Z</time>
      </trkpt>
      <trkpt lat="46.79521" lon="5.82944">
        <ele>602.4</ele>
        <time>2019-12-12T14:09:51Z</time>
      </trkpt>
      <trkpt lat="46.79525" lon="5.82949">
        <ele>602.2</ele>
        <time>2019-12-12T14:09:55Z</time>
      </trkpt>
      <trkpt lat="46.79528" lon="5.82954">
        <ele>602.1</ele>
        <time>2019-12-12T14:09:59Z</time>
      </trkpt>
      <trkpt lat="46.79532" lon="5.8296">
        <ele>602</ele>
        <time>2019-12-12T14:10:03Z</time>
      </trkpt>
      <trkpt lat="46.79535" lon="5.82965">
        <ele>601.9</ele>
        <time>2019-12-12T14:10:07Z</time>
      </trkpt>
      <trkpt lat="46.79539" lon="5.8297">
        <ele>602</ele>
        <time>2019-12-12T14:10:12Z</time>
      </trkpt>
      <trkpt lat="46.79543" lon="5.82975">
        <ele>602</ele>
        <time>2019-12-12T14:10:16Z</time>
      </trkpt>
      <trkpt lat="46.79547" lon="5.8298">
        <ele>602.1</ele>
        <time>2019-12-12T14:10:20Z</time>
      </trkpt>
      <trkpt lat="46.7955" lon="5.82985">
        <ele>602.3</ele>
        <time>2019-12-12T14:10:25Z</time>
      </trkpt>
      <trkpt lat="46.79553" lon="5.82991">
        <ele>602.4</ele>
        <time>2019-12-12T14:10:30Z</time>
      </trkpt>
      <trkpt lat="46.79556" lon="5.82997">
        <ele>602.5</ele>
        <time>2019-12-12T14:10:35Z</time>
      </trkpt>
      <trkpt lat="46.7956" lon="5.83">
        <ele>602.6</ele>
        <time>2019-12-12T14:10:39Z</time>
      </trkpt>
      <trkpt lat="46.79564" lon="5.83006">
        <ele>602.7</ele>
        <time>2019-12-12T14:10:43Z</time>
      </trkpt>
      <trkpt lat="46.79567" lon="5.83012">
        <ele>602.8</ele>
        <time>2019-12-12T14:10:46Z</time>
      </trkpt>
      <trkpt lat="46.7957" lon="5.83018">
        <ele>602.8</ele>
        <time>2019-12-12T14:10:50Z</time>
      </trkpt>
      <trkpt lat="46.79573" lon="5.83025">
        <ele>602.6</ele>
        <time>2019-12-12T14:10:55Z</time>
      </trkpt>
      <trkpt lat="46.79573" lon="5.83032">
        <ele>602.3</ele>
        <time>2019-12-12T14:11:01Z</time>
      </trkpt>
      <trkpt lat="46.79575" lon="5.83038">
        <ele>601.9</ele>
        <time>2019-12-12T14:11:08Z</time>
      </trkpt>
      <trkpt lat="46.79576" lon="5.83046">
        <ele>601.5</ele>
        <time>2019-12-12T14:11:13Z</time>
      </trkpt>
      <trkpt lat="46.79577" lon="5.83053">
        <ele>600.9</ele>
        <time>2019-12-12T14:11:20Z</time>
      </trkpt>
      <trkpt lat="46.79577" lon="5.83059">
        <ele>600.4</ele>
        <time>2019-12-12T14:11:27Z</time>
      </trkpt>
      <trkpt lat="46.79577" lon="5.83069">
        <ele>599.9</ele>
        <time>2019-12-12T14:11:32Z</time>
      </trkpt>
      <trkpt lat="46.79577" lon="5.83076">
        <ele>599.8</ele>
        <time>2019-12-12T14:11:34Z</time>
      </trkpt>
      <trkpt lat="46.79578" lon="5.83084">
        <ele>599.6</ele>
        <time>2019-12-12T14:11:38Z</time>
      </trkpt>
      <trkpt lat="46.79579" lon="5.83091">
        <ele>599.4</ele>
        <time>2019-12-12T14:11:43Z</time>
      </trkpt>
      <trkpt lat="46.79579" lon="5.83097">
        <ele>599.4</ele>
        <time>2019-12-12T14:11:47Z</time>
      </trkpt>
      <trkpt lat="46.79579" lon="5.83105">
        <ele>599.4</ele>
        <time>2019-12-12T14:11:52Z</time>
      </trkpt>
      <trkpt lat="46.79581" lon="5.83112">
        <ele>599.4</ele>
        <time>2019-12-12T14:11:56Z</time>
      </trkpt>
      <trkpt lat="46.79583" lon="5.83118">
        <ele>599.3</ele>
        <time>2019-12-12T14:11:59Z</time>
      </trkpt>
      <trkpt lat="46.79584" lon="5.83125">
        <ele>599.3</ele>
        <time>2019-12-12T14:12:03Z</time>
      </trkpt>
      <trkpt lat="46.79586" lon="5.83132">
        <ele>599.3</ele>
        <time>2019-12-12T14:12:10Z</time>
      </trkpt>
      <trkpt lat="46.79588" lon="5.83139">
        <ele>599.1</ele>
        <time>2019-12-12T14:12:15Z</time>
      </trkpt>
      <trkpt lat="46.7959" lon="5.83146">
        <ele>599</ele>
        <time>2019-12-12T14:12:21Z</time>
      </trkpt>
      <trkpt lat="46.79592" lon="5.83152">
        <ele>598.7</ele>
        <time>2019-12-12T14:12:27Z</time>
      </trkpt>
      <trkpt lat="46.79596" lon="5.83157">
        <ele>598.4</ele>
        <time>2019-12-12T14:12:31Z</time>
      </trkpt>
      <trkpt lat="46.79598" lon="5.83162">
        <ele>598.1</ele>
        <time>2019-12-12T14:12:35Z</time>
      </trkpt>
      <trkpt lat="46.79602" lon="5.83168">
        <ele>597.8</ele>
        <time>2019-12-12T14:12:40Z</time>
      </trkpt>
      <trkpt lat="46.79604" lon="5.83175">
        <ele>597.2</ele>
        <time>2019-12-12T14:12:44Z</time>
      </trkpt>
      <trkpt lat="46.79606" lon="5.83182">
        <ele>596.5</ele>
        <time>2019-12-12T14:12:48Z</time>
      </trkpt>
      <trkpt lat="46.79608" lon="5.83189">
        <ele>595.9</ele>
        <time>2019-12-12T14:12:52Z</time>
      </trkpt>
      <trkpt lat="46.7961" lon="5.83196">
        <ele>595.3</ele>
        <time>2019-12-12T14:12:56Z</time>
      </trkpt>
      <trkpt lat="46.79611" lon="5.83203">
        <ele>594.1</ele>
        <time>2019-12-12T14:13:04Z</time>
      </trkpt>
      <trkpt lat="46.79614" lon="5.83209">
        <ele>593</ele>
        <time>2019-12-12T14:13:09Z</time>
      </trkpt>
      <trkpt lat="46.79616" lon="5.83216">
        <ele>592.2</ele>
        <time>2019-12-12T14:13:13Z</time>
      </trkpt>
      <trkpt lat="46.79618" lon="5.83223">
        <ele>591.4</ele>
        <time>2019-12-12T14:13:17Z</time>
      </trkpt>
      <trkpt lat="46.7962" lon="5.83231">
        <ele>590.9</ele>
        <time>2019-12-12T14:13:21Z</time>
      </trkpt>
      <trkpt lat="46.79622" lon="5.83238">
        <ele>590.4</ele>
        <time>2019-12-12T14:13:25Z</time>
      </trkpt>
      <trkpt lat="46.79624" lon="5.83244">
        <ele>590.1</ele>
        <time>2019-12-12T14:13:29Z</time>
      </trkpt>
      <trkpt lat="46.79626" lon="5.83251">
        <ele>589.7</ele>
        <time>2019-12-12T14:13:34Z</time>
      </trkpt>
      <trkpt lat="46.79627" lon="5.83258">
        <ele>589.1</ele>
        <time>2019-12-12T14:13:40Z</time>
      </trkpt>
      <trkpt lat="46.79629" lon="5.83265">
        <ele>588.1</ele>
        <time>2019-12-12T14:13:45Z</time>
      </trkpt>
      <trkpt lat="46.79631" lon="5.83272">
        <ele>587.2</ele>
        <time>2019-12-12T14:13:49Z</time>
      </trkpt>
      <trkpt lat="46.79632" lon="5.83278">
        <ele>586.8</ele>
        <time>2019-12-12T14:13:52Z</time>
      </trkpt>
      <trkpt lat="46.79634" lon="5.83284">
        <ele>586.4</ele>
        <time>2019-12-12T14:13:56Z</time>
      </trkpt>
      <trkpt lat="46.79635" lon="5.83291">
        <ele>586</ele>
        <time>2019-12-12T14:13:59Z</time>
      </trkpt>
      <trkpt lat="46.79636" lon="5.83299">
        <ele>585.6</ele>
        <time>2019-12-12T14:14:03Z</time>
      </trkpt>
      <trkpt lat="46.79639" lon="5.83307">
        <ele>585.1</ele>
        <time>2019-12-12T14:14:08Z</time>
      </trkpt>
      <trkpt lat="46.79642" lon="5.83313">
        <ele>584.8</ele>
        <time>2019-12-12T14:14:12Z</time>
      </trkpt>
      <trkpt lat="46.79643" lon="5.8332">
        <ele>584.2</ele>
        <time>2019-12-12T14:14:16Z</time>
      </trkpt>
      <trkpt lat="46.79642" lon="5.83326">
        <ele>583.7</ele>
        <time>2019-12-12T14:14:20Z</time>
      </trkpt>
      <trkpt lat="46.7964" lon="5.83333">
        <ele>582.9</ele>
        <time>2019-12-12T14:14:25Z</time>
      </trkpt>
      <trkpt lat="46.79638" lon="5.83338">
        <ele>582.2</ele>
        <time>2019-12-12T14:14:29Z</time>
      </trkpt>
      <trkpt lat="46.79635" lon="5.83344">
        <ele>581.3</ele>
        <time>2019-12-12T14:14:34Z</time>
      </trkpt>
      <trkpt lat="46.79636" lon="5.83351">
        <ele>580.8</ele>
        <time>2019-12-12T14:14:38Z</time>
      </trkpt>
      <trkpt lat="46.79636" lon="5.83359">
        <ele>580.5</ele>
        <time>2019-12-12T14:14:45Z</time>
      </trkpt>
      <trkpt lat="46.79634" lon="5.8337">
        <ele>581.7</ele>
        <time>2019-12-12T14:15:22Z</time>
      </trkpt>
    </trkseg>
  </trk>
</gpx>